<?xml version="1.0" encoding="UTF-8" standalone="no" ?>
<gpx xmlns="http://www.topografix.com/GPX/1/1" xmlns:xsi="http://www.w3.org/2001/XMLSchema-instance" xsi:schemaLocation="http://www.topografix.com/GPX/1/1 http://www.topografix.com/GPX/1/1/gpx.xsd" version="1.1" creator="VisuGPX - https://www.visugpx.com">
  <metadata>
    <name>Crête des Charmilles, Le Solitaire, Col de la Sarriette</name>
    <desc><![CDATA[Export from GpsPrune]]></desc>
  </metadata>
  <trk>
    <name><![CDATA[20170811-run-charmilles-arpison-sarriette]]></name>
    <trkseg>
      <trkpt lat="45.38875" lon="5.73728">
        <ele>416.87</ele>
        <time>2017-08-11T08:10:26Z</time>
      </trkpt>
      <trkpt lat="45.38875" lon="5.73728">
        <ele>416.39</ele>
        <time>2017-08-11T08:10:29Z</time>
      </trkpt>
      <trkpt lat="45.38859" lon="5.73736">
        <ele>413.5</ele>
        <time>2017-08-11T08:10:37Z</time>
      </trkpt>
      <trkpt lat="45.38856" lon="5.73733">
        <ele>411.58</ele>
        <time>2017-08-11T08:10:40Z</time>
      </trkpt>
      <trkpt lat="45.38844" lon="5.73736">
        <ele>407.26</ele>
        <time>2017-08-11T08:10:46Z</time>
      </trkpt>
      <trkpt lat="45.38809" lon="5.73734">
        <ele>401.49</ele>
        <time>2017-08-11T08:11:01Z</time>
      </trkpt>
      <trkpt lat="45.38779" lon="5.73731">
        <ele>403.89</ele>
        <time>2017-08-11T08:11:14Z</time>
      </trkpt>
      <trkpt lat="45.38748" lon="5.73728">
        <ele>404.85</ele>
        <time>2017-08-11T08:11:27Z</time>
      </trkpt>
      <trkpt lat="45.38726" lon="5.7371">
        <ele>405.81</ele>
        <time>2017-08-11T08:11:39Z</time>
      </trkpt>
      <trkpt lat="45.38707" lon="5.7367">
        <ele>407.26</ele>
        <time>2017-08-11T08:11:53Z</time>
      </trkpt>
      <trkpt lat="45.38705" lon="5.73665">
        <ele>406.77</ele>
        <time>2017-08-11T08:11:55Z</time>
      </trkpt>
      <trkpt lat="45.38698" lon="5.7364">
        <ele>406.29</ele>
        <time>2017-08-11T08:12:03Z</time>
      </trkpt>
      <trkpt lat="45.38698" lon="5.73625">
        <ele>406.29</ele>
        <time>2017-08-11T08:12:07Z</time>
      </trkpt>
      <trkpt lat="45.38698" lon="5.73619">
        <ele>405.81</ele>
        <time>2017-08-11T08:12:09Z</time>
      </trkpt>
      <trkpt lat="45.38698" lon="5.73599">
        <ele>405.33</ele>
        <time>2017-08-11T08:12:15Z</time>
      </trkpt>
      <trkpt lat="45.387" lon="5.73586">
        <ele>406.29</ele>
        <time>2017-08-11T08:12:19Z</time>
      </trkpt>
      <trkpt lat="45.38694" lon="5.73579">
        <ele>407.74</ele>
        <time>2017-08-11T08:12:22Z</time>
      </trkpt>
      <trkpt lat="45.38697" lon="5.73552">
        <ele>407.26</ele>
        <time>2017-08-11T08:12:31Z</time>
      </trkpt>
      <trkpt lat="45.38702" lon="5.73526">
        <ele>405.81</ele>
        <time>2017-08-11T08:12:40Z</time>
      </trkpt>
      <trkpt lat="45.387" lon="5.73507">
        <ele>405.33</ele>
        <time>2017-08-11T08:12:46Z</time>
      </trkpt>
      <trkpt lat="45.38697" lon="5.73485">
        <ele>404.85</ele>
        <time>2017-08-11T08:12:53Z</time>
      </trkpt>
      <trkpt lat="45.38695" lon="5.73475">
        <ele>402.45</ele>
        <time>2017-08-11T08:13:05Z</time>
      </trkpt>
      <trkpt lat="45.38693" lon="5.73473">
        <ele>400.53</ele>
        <time>2017-08-11T08:13:11Z</time>
      </trkpt>
      <trkpt lat="45.38684" lon="5.7346">
        <ele>394.76</ele>
        <time>2017-08-11T08:13:20Z</time>
      </trkpt>
      <trkpt lat="45.38675" lon="5.73455">
        <ele>394.28</ele>
        <time>2017-08-11T08:13:27Z</time>
      </trkpt>
      <trkpt lat="45.38666" lon="5.73467">
        <ele>398.12</ele>
        <time>2017-08-11T08:13:36Z</time>
      </trkpt>
      <trkpt lat="45.38662" lon="5.73469">
        <ele>400.53</ele>
        <time>2017-08-11T08:13:39Z</time>
      </trkpt>
      <trkpt lat="45.38664" lon="5.73446">
        <ele>410.62</ele>
        <time>2017-08-11T08:13:52Z</time>
      </trkpt>
      <trkpt lat="45.38664" lon="5.73423">
        <ele>411.58</ele>
        <time>2017-08-11T08:14:03Z</time>
      </trkpt>
      <trkpt lat="45.38655" lon="5.73439">
        <ele>418.31</ele>
        <time>2017-08-11T08:14:15Z</time>
      </trkpt>
      <trkpt lat="45.38647" lon="5.73454">
        <ele>419.75</ele>
        <time>2017-08-11T08:14:25Z</time>
      </trkpt>
      <trkpt lat="45.38646" lon="5.73457">
        <ele>420.23</ele>
        <time>2017-08-11T08:14:27Z</time>
      </trkpt>
      <trkpt lat="45.38644" lon="5.73458">
        <ele>421.68</ele>
        <time>2017-08-11T08:14:34Z</time>
      </trkpt>
      <trkpt lat="45.38648" lon="5.73434">
        <ele>419.27</ele>
        <time>2017-08-11T08:14:48Z</time>
      </trkpt>
      <trkpt lat="45.38648" lon="5.73415">
        <ele>418.31</ele>
        <time>2017-08-11T08:15:03Z</time>
      </trkpt>
      <trkpt lat="45.38647" lon="5.73417">
        <ele>418.31</ele>
        <time>2017-08-11T08:15:05Z</time>
      </trkpt>
      <trkpt lat="45.38639" lon="5.73432">
        <ele>420.23</ele>
        <time>2017-08-11T08:15:16Z</time>
      </trkpt>
      <trkpt lat="45.38637" lon="5.73437">
        <ele>422.64</ele>
        <time>2017-08-11T08:15:20Z</time>
      </trkpt>
      <trkpt lat="45.38634" lon="5.73445">
        <ele>424.56</ele>
        <time>2017-08-11T08:15:25Z</time>
      </trkpt>
      <trkpt lat="45.3863" lon="5.7345">
        <ele>426.96</ele>
        <time>2017-08-11T08:15:31Z</time>
      </trkpt>
      <trkpt lat="45.38634" lon="5.7343">
        <ele>428.89</ele>
        <time>2017-08-11T08:15:44Z</time>
      </trkpt>
      <trkpt lat="45.38636" lon="5.73417">
        <ele>432.25</ele>
        <time>2017-08-11T08:15:51Z</time>
      </trkpt>
      <trkpt lat="45.38635" lon="5.73405">
        <ele>435.61</ele>
        <time>2017-08-11T08:16:04Z</time>
      </trkpt>
      <trkpt lat="45.38635" lon="5.73405">
        <ele>436.1</ele>
        <time>2017-08-11T08:16:05Z</time>
      </trkpt>
      <trkpt lat="45.38625" lon="5.73424">
        <ele>443.31</ele>
        <time>2017-08-11T08:16:18Z</time>
      </trkpt>
      <trkpt lat="45.3862" lon="5.73434">
        <ele>445.71</ele>
        <time>2017-08-11T08:16:24Z</time>
      </trkpt>
      <trkpt lat="45.38617" lon="5.7344">
        <ele>447.63</ele>
        <time>2017-08-11T08:16:32Z</time>
      </trkpt>
      <trkpt lat="45.38617" lon="5.73426">
        <ele>447.63</ele>
        <time>2017-08-11T08:16:41Z</time>
      </trkpt>
      <trkpt lat="45.38617" lon="5.73419">
        <ele>447.15</ele>
        <time>2017-08-11T08:16:45Z</time>
      </trkpt>
      <trkpt lat="45.38616" lon="5.73411">
        <ele>445.71</ele>
        <time>2017-08-11T08:16:52Z</time>
      </trkpt>
      <trkpt lat="45.38613" lon="5.73393">
        <ele>443.79</ele>
        <time>2017-08-11T08:17:05Z</time>
      </trkpt>
      <trkpt lat="45.38613" lon="5.7339">
        <ele>443.31</ele>
        <time>2017-08-11T08:17:07Z</time>
      </trkpt>
      <trkpt lat="45.38606" lon="5.73383">
        <ele>442.82</ele>
        <time>2017-08-11T08:17:14Z</time>
      </trkpt>
      <trkpt lat="45.38596" lon="5.73374">
        <ele>448.11</ele>
        <time>2017-08-11T08:17:21Z</time>
      </trkpt>
      <trkpt lat="45.38592" lon="5.73372">
        <ele>449.55</ele>
        <time>2017-08-11T08:17:24Z</time>
      </trkpt>
      <trkpt lat="45.38585" lon="5.73369">
        <ele>450.52</ele>
        <time>2017-08-11T08:17:29Z</time>
      </trkpt>
      <trkpt lat="45.38583" lon="5.73369">
        <ele>451</ele>
        <time>2017-08-11T08:17:31Z</time>
      </trkpt>
      <trkpt lat="45.38579" lon="5.7337">
        <ele>451.48</ele>
        <time>2017-08-11T08:17:34Z</time>
      </trkpt>
      <trkpt lat="45.38569" lon="5.73368">
        <ele>453.4</ele>
        <time>2017-08-11T08:17:41Z</time>
      </trkpt>
      <trkpt lat="45.38546" lon="5.73329">
        <ele>467.34</ele>
        <time>2017-08-11T08:17:55Z</time>
      </trkpt>
      <trkpt lat="45.38533" lon="5.73299">
        <ele>474.07</ele>
        <time>2017-08-11T08:18:04Z</time>
      </trkpt>
      <trkpt lat="45.38515" lon="5.73263">
        <ele>474.55</ele>
        <time>2017-08-11T08:18:16Z</time>
      </trkpt>
      <trkpt lat="45.385" lon="5.73232">
        <ele>474.07</ele>
        <time>2017-08-11T08:18:27Z</time>
      </trkpt>
      <trkpt lat="45.3849" lon="5.73216">
        <ele>475.03</ele>
        <time>2017-08-11T08:18:34Z</time>
      </trkpt>
      <trkpt lat="45.38472" lon="5.73211">
        <ele>477.43</ele>
        <time>2017-08-11T08:18:45Z</time>
      </trkpt>
      <trkpt lat="45.38457" lon="5.73211">
        <ele>477.43</ele>
        <time>2017-08-11T08:18:56Z</time>
      </trkpt>
      <trkpt lat="45.38437" lon="5.7321">
        <ele>481.76</ele>
        <time>2017-08-11T08:19:09Z</time>
      </trkpt>
      <trkpt lat="45.38428" lon="5.73211">
        <ele>483.2</ele>
        <time>2017-08-11T08:19:15Z</time>
      </trkpt>
      <trkpt lat="45.38415" lon="5.73203">
        <ele>481.28</ele>
        <time>2017-08-11T08:19:23Z</time>
      </trkpt>
      <trkpt lat="45.38399" lon="5.73178">
        <ele>477.91</ele>
        <time>2017-08-11T08:19:35Z</time>
      </trkpt>
      <trkpt lat="45.38378" lon="5.7314">
        <ele>479.35</ele>
        <time>2017-08-11T08:19:49Z</time>
      </trkpt>
      <trkpt lat="45.38371" lon="5.73128">
        <ele>480.32</ele>
        <time>2017-08-11T08:19:53Z</time>
      </trkpt>
      <trkpt lat="45.38354" lon="5.73121">
        <ele>482.72</ele>
        <time>2017-08-11T08:20:01Z</time>
      </trkpt>
      <trkpt lat="45.38346" lon="5.73119">
        <ele>483.2</ele>
        <time>2017-08-11T08:20:04Z</time>
      </trkpt>
      <trkpt lat="45.38334" lon="5.7312">
        <ele>481.28</ele>
        <time>2017-08-11T08:20:10Z</time>
      </trkpt>
      <trkpt lat="45.3833" lon="5.73122">
        <ele>480.8</ele>
        <time>2017-08-11T08:20:12Z</time>
      </trkpt>
      <trkpt lat="45.38313" lon="5.73128">
        <ele>481.28</ele>
        <time>2017-08-11T08:20:22Z</time>
      </trkpt>
      <trkpt lat="45.38299" lon="5.7313">
        <ele>480.8</ele>
        <time>2017-08-11T08:20:35Z</time>
      </trkpt>
      <trkpt lat="45.38276" lon="5.73128">
        <ele>480.8</ele>
        <time>2017-08-11T08:20:50Z</time>
      </trkpt>
      <trkpt lat="45.38258" lon="5.73108">
        <ele>480.32</ele>
        <time>2017-08-11T08:21:03Z</time>
      </trkpt>
      <trkpt lat="45.38255" lon="5.73096">
        <ele>480.32</ele>
        <time>2017-08-11T08:21:09Z</time>
      </trkpt>
      <trkpt lat="45.38247" lon="5.73069">
        <ele>479.84</ele>
        <time>2017-08-11T08:21:20Z</time>
      </trkpt>
      <trkpt lat="45.38239" lon="5.73037">
        <ele>480.8</ele>
        <time>2017-08-11T08:21:30Z</time>
      </trkpt>
      <trkpt lat="45.38233" lon="5.73019">
        <ele>482.72</ele>
        <time>2017-08-11T08:21:46Z</time>
      </trkpt>
      <trkpt lat="45.38232" lon="5.73019">
        <ele>482.72</ele>
        <time>2017-08-11T08:21:47Z</time>
      </trkpt>
      <trkpt lat="45.38228" lon="5.73025">
        <ele>485.12</ele>
        <time>2017-08-11T08:21:55Z</time>
      </trkpt>
      <trkpt lat="45.38226" lon="5.73041">
        <ele>487.53</ele>
        <time>2017-08-11T08:22:07Z</time>
      </trkpt>
      <trkpt lat="45.38233" lon="5.73063">
        <ele>488.97</ele>
        <time>2017-08-11T08:22:23Z</time>
      </trkpt>
      <trkpt lat="45.38233" lon="5.73082">
        <ele>490.41</ele>
        <time>2017-08-11T08:22:40Z</time>
      </trkpt>
      <trkpt lat="45.38232" lon="5.73086">
        <ele>490.89</ele>
        <time>2017-08-11T08:22:45Z</time>
      </trkpt>
      <trkpt lat="45.38224" lon="5.73104">
        <ele>492.33</ele>
        <time>2017-08-11T08:22:57Z</time>
      </trkpt>
      <trkpt lat="45.38219" lon="5.73118">
        <ele>493.77</ele>
        <time>2017-08-11T08:23:10Z</time>
      </trkpt>
      <trkpt lat="45.38212" lon="5.73125">
        <ele>495.22</ele>
        <time>2017-08-11T08:23:24Z</time>
      </trkpt>
      <trkpt lat="45.38202" lon="5.73127">
        <ele>496.18</ele>
        <time>2017-08-11T08:23:35Z</time>
      </trkpt>
      <trkpt lat="45.382" lon="5.73129">
        <ele>496.18</ele>
        <time>2017-08-11T08:23:38Z</time>
      </trkpt>
      <trkpt lat="45.38189" lon="5.73155">
        <ele>499.06</ele>
        <time>2017-08-11T08:23:52Z</time>
      </trkpt>
      <trkpt lat="45.38187" lon="5.73165">
        <ele>499.54</ele>
        <time>2017-08-11T08:23:57Z</time>
      </trkpt>
      <trkpt lat="45.38185" lon="5.7317">
        <ele>501.46</ele>
        <time>2017-08-11T08:24:00Z</time>
      </trkpt>
      <trkpt lat="45.38175" lon="5.73185">
        <ele>505.79</ele>
        <time>2017-08-11T08:24:11Z</time>
      </trkpt>
      <trkpt lat="45.38173" lon="5.73188">
        <ele>506.75</ele>
        <time>2017-08-11T08:24:13Z</time>
      </trkpt>
      <trkpt lat="45.38168" lon="5.73191">
        <ele>507.23</ele>
        <time>2017-08-11T08:24:17Z</time>
      </trkpt>
      <trkpt lat="45.38161" lon="5.73191">
        <ele>508.19</ele>
        <time>2017-08-11T08:24:27Z</time>
      </trkpt>
      <trkpt lat="45.3815" lon="5.73191">
        <ele>509.16</ele>
        <time>2017-08-11T08:24:40Z</time>
      </trkpt>
      <trkpt lat="45.38143" lon="5.73195">
        <ele>512.52</ele>
        <time>2017-08-11T08:24:49Z</time>
      </trkpt>
      <trkpt lat="45.38129" lon="5.73197">
        <ele>519.25</ele>
        <time>2017-08-11T08:25:00Z</time>
      </trkpt>
      <trkpt lat="45.38118" lon="5.73198">
        <ele>523.09</ele>
        <time>2017-08-11T08:25:14Z</time>
      </trkpt>
      <trkpt lat="45.38107" lon="5.73202">
        <ele>525.98</ele>
        <time>2017-08-11T08:25:24Z</time>
      </trkpt>
      <trkpt lat="45.38101" lon="5.73204">
        <ele>527.42</ele>
        <time>2017-08-11T08:25:28Z</time>
      </trkpt>
      <trkpt lat="45.38091" lon="5.73212">
        <ele>533.67</ele>
        <time>2017-08-11T08:25:42Z</time>
      </trkpt>
      <trkpt lat="45.38082" lon="5.7322">
        <ele>539.92</ele>
        <time>2017-08-11T08:25:57Z</time>
      </trkpt>
      <trkpt lat="45.38072" lon="5.73223">
        <ele>544.72</ele>
        <time>2017-08-11T08:26:09Z</time>
      </trkpt>
      <trkpt lat="45.38066" lon="5.73227">
        <ele>550.97</ele>
        <time>2017-08-11T08:26:23Z</time>
      </trkpt>
      <trkpt lat="45.38057" lon="5.73228">
        <ele>553.38</ele>
        <time>2017-08-11T08:26:36Z</time>
      </trkpt>
      <trkpt lat="45.38042" lon="5.7323">
        <ele>553.38</ele>
        <time>2017-08-11T08:26:49Z</time>
      </trkpt>
      <trkpt lat="45.38025" lon="5.73236">
        <ele>555.78</ele>
        <time>2017-08-11T08:27:01Z</time>
      </trkpt>
      <trkpt lat="45.38016" lon="5.73239">
        <ele>557.7</ele>
        <time>2017-08-11T08:27:10Z</time>
      </trkpt>
      <trkpt lat="45.38006" lon="5.73245">
        <ele>558.18</ele>
        <time>2017-08-11T08:27:20Z</time>
      </trkpt>
      <trkpt lat="45.37997" lon="5.73247">
        <ele>559.62</ele>
        <time>2017-08-11T08:27:29Z</time>
      </trkpt>
      <trkpt lat="45.37991" lon="5.73247">
        <ele>559.62</ele>
        <time>2017-08-11T08:27:37Z</time>
      </trkpt>
      <trkpt lat="45.37981" lon="5.73245">
        <ele>560.59</ele>
        <time>2017-08-11T08:27:47Z</time>
      </trkpt>
      <trkpt lat="45.37973" lon="5.73243">
        <ele>560.59</ele>
        <time>2017-08-11T08:27:58Z</time>
      </trkpt>
      <trkpt lat="45.37965" lon="5.73239">
        <ele>562.03</ele>
        <time>2017-08-11T08:28:08Z</time>
      </trkpt>
      <trkpt lat="45.37963" lon="5.73239">
        <ele>562.03</ele>
        <time>2017-08-11T08:28:09Z</time>
      </trkpt>
      <trkpt lat="45.37959" lon="5.73239">
        <ele>562.99</ele>
        <time>2017-08-11T08:28:12Z</time>
      </trkpt>
      <trkpt lat="45.37949" lon="5.7323">
        <ele>589.91</ele>
        <time>2017-08-11T08:28:21Z</time>
      </trkpt>
      <trkpt lat="45.37941" lon="5.73228">
        <ele>600.96</ele>
        <time>2017-08-11T08:28:31Z</time>
      </trkpt>
      <trkpt lat="45.37932" lon="5.73226">
        <ele>603.85</ele>
        <time>2017-08-11T08:28:42Z</time>
      </trkpt>
      <trkpt lat="45.37931" lon="5.73226">
        <ele>604.33</ele>
        <time>2017-08-11T08:28:43Z</time>
      </trkpt>
      <trkpt lat="45.37921" lon="5.73225">
        <ele>605.77</ele>
        <time>2017-08-11T08:28:54Z</time>
      </trkpt>
      <trkpt lat="45.37914" lon="5.73225">
        <ele>607.21</ele>
        <time>2017-08-11T08:29:05Z</time>
      </trkpt>
      <trkpt lat="45.37906" lon="5.73223">
        <ele>606.25</ele>
        <time>2017-08-11T08:29:16Z</time>
      </trkpt>
      <trkpt lat="45.37897" lon="5.73221">
        <ele>606.73</ele>
        <time>2017-08-11T08:29:26Z</time>
      </trkpt>
      <trkpt lat="45.37887" lon="5.73218">
        <ele>606.25</ele>
        <time>2017-08-11T08:29:40Z</time>
      </trkpt>
      <trkpt lat="45.37877" lon="5.73212">
        <ele>604.81</ele>
        <time>2017-08-11T08:29:53Z</time>
      </trkpt>
      <trkpt lat="45.37865" lon="5.73212">
        <ele>604.33</ele>
        <time>2017-08-11T08:30:07Z</time>
      </trkpt>
      <trkpt lat="45.37859" lon="5.73211">
        <ele>605.77</ele>
        <time>2017-08-11T08:30:19Z</time>
      </trkpt>
      <trkpt lat="45.3785" lon="5.73209">
        <ele>608.65</ele>
        <time>2017-08-11T08:30:31Z</time>
      </trkpt>
      <trkpt lat="45.37847" lon="5.7321">
        <ele>609.61</ele>
        <time>2017-08-11T08:30:35Z</time>
      </trkpt>
      <trkpt lat="45.37837" lon="5.73209">
        <ele>613.94</ele>
        <time>2017-08-11T08:30:47Z</time>
      </trkpt>
      <trkpt lat="45.3783" lon="5.73206">
        <ele>616.34</ele>
        <time>2017-08-11T08:30:59Z</time>
      </trkpt>
      <trkpt lat="45.37822" lon="5.73206">
        <ele>618.26</ele>
        <time>2017-08-11T08:31:11Z</time>
      </trkpt>
      <trkpt lat="45.37821" lon="5.73205">
        <ele>619.23</ele>
        <time>2017-08-11T08:31:12Z</time>
      </trkpt>
      <trkpt lat="45.37814" lon="5.73201">
        <ele>621.63</ele>
        <time>2017-08-11T08:31:23Z</time>
      </trkpt>
      <trkpt lat="45.37806" lon="5.73197">
        <ele>624.99</ele>
        <time>2017-08-11T08:31:37Z</time>
      </trkpt>
      <trkpt lat="45.378" lon="5.73195">
        <ele>628.84</ele>
        <time>2017-08-11T08:31:45Z</time>
      </trkpt>
      <trkpt lat="45.37793" lon="5.73193">
        <ele>629.8</ele>
        <time>2017-08-11T08:31:56Z</time>
      </trkpt>
      <trkpt lat="45.37782" lon="5.73192">
        <ele>632.68</ele>
        <time>2017-08-11T08:32:07Z</time>
      </trkpt>
      <trkpt lat="45.37768" lon="5.73192">
        <ele>639.41</ele>
        <time>2017-08-11T08:32:19Z</time>
      </trkpt>
      <trkpt lat="45.37759" lon="5.73193">
        <ele>640.86</ele>
        <time>2017-08-11T08:32:32Z</time>
      </trkpt>
      <trkpt lat="45.37748" lon="5.73198">
        <ele>644.7</ele>
        <time>2017-08-11T08:32:42Z</time>
      </trkpt>
      <trkpt lat="45.37744" lon="5.73196">
        <ele>647.1</ele>
        <time>2017-08-11T08:32:53Z</time>
      </trkpt>
      <trkpt lat="45.37738" lon="5.73196">
        <ele>648.07</ele>
        <time>2017-08-11T08:33:03Z</time>
      </trkpt>
      <trkpt lat="45.37732" lon="5.732">
        <ele>648.07</ele>
        <time>2017-08-11T08:33:15Z</time>
      </trkpt>
      <trkpt lat="45.37727" lon="5.73198">
        <ele>647.1</ele>
        <time>2017-08-11T08:33:30Z</time>
      </trkpt>
      <trkpt lat="45.37725" lon="5.732">
        <ele>647.59</ele>
        <time>2017-08-11T08:33:40Z</time>
      </trkpt>
      <trkpt lat="45.37718" lon="5.73201">
        <ele>648.07</ele>
        <time>2017-08-11T08:33:52Z</time>
      </trkpt>
      <trkpt lat="45.37714" lon="5.73202">
        <ele>650.95</ele>
        <time>2017-08-11T08:34:03Z</time>
      </trkpt>
      <trkpt lat="45.37706" lon="5.73201">
        <ele>654.8</ele>
        <time>2017-08-11T08:34:21Z</time>
      </trkpt>
      <trkpt lat="45.37699" lon="5.73201">
        <ele>656.72</ele>
        <time>2017-08-11T08:34:37Z</time>
      </trkpt>
      <trkpt lat="45.37692" lon="5.73205">
        <ele>657.68</ele>
        <time>2017-08-11T08:34:53Z</time>
      </trkpt>
      <trkpt lat="45.37688" lon="5.73204">
        <ele>657.68</ele>
        <time>2017-08-11T08:35:03Z</time>
      </trkpt>
      <trkpt lat="45.37685" lon="5.73202">
        <ele>659.12</ele>
        <time>2017-08-11T08:35:15Z</time>
      </trkpt>
      <trkpt lat="45.37679" lon="5.73203">
        <ele>661.52</ele>
        <time>2017-08-11T08:35:29Z</time>
      </trkpt>
      <trkpt lat="45.37668" lon="5.73204">
        <ele>662.97</ele>
        <time>2017-08-11T08:35:40Z</time>
      </trkpt>
      <trkpt lat="45.37658" lon="5.73208">
        <ele>662.49</ele>
        <time>2017-08-11T08:35:50Z</time>
      </trkpt>
      <trkpt lat="45.37649" lon="5.73211">
        <ele>663.45</ele>
        <time>2017-08-11T08:36:03Z</time>
      </trkpt>
      <trkpt lat="45.37639" lon="5.73208">
        <ele>665.37</ele>
        <time>2017-08-11T08:36:14Z</time>
      </trkpt>
      <trkpt lat="45.37633" lon="5.73207">
        <ele>667.29</ele>
        <time>2017-08-11T08:36:24Z</time>
      </trkpt>
      <trkpt lat="45.37626" lon="5.73204">
        <ele>671.62</ele>
        <time>2017-08-11T08:36:37Z</time>
      </trkpt>
      <trkpt lat="45.37619" lon="5.73198">
        <ele>672.1</ele>
        <time>2017-08-11T08:36:48Z</time>
      </trkpt>
      <trkpt lat="45.37611" lon="5.73201">
        <ele>672.1</ele>
        <time>2017-08-11T08:37:02Z</time>
      </trkpt>
      <trkpt lat="45.37607" lon="5.73201">
        <ele>673.06</ele>
        <time>2017-08-11T08:37:14Z</time>
      </trkpt>
      <trkpt lat="45.376" lon="5.73201">
        <ele>678.35</ele>
        <time>2017-08-11T08:37:27Z</time>
      </trkpt>
      <trkpt lat="45.37593" lon="5.73203">
        <ele>683.15</ele>
        <time>2017-08-11T08:37:40Z</time>
      </trkpt>
      <trkpt lat="45.3758" lon="5.73208">
        <ele>687.48</ele>
        <time>2017-08-11T08:37:50Z</time>
      </trkpt>
      <trkpt lat="45.37571" lon="5.73207">
        <ele>692.29</ele>
        <time>2017-08-11T08:38:07Z</time>
      </trkpt>
      <trkpt lat="45.3756" lon="5.732">
        <ele>695.17</ele>
        <time>2017-08-11T08:38:20Z</time>
      </trkpt>
      <trkpt lat="45.3755" lon="5.73196">
        <ele>700.46</ele>
        <time>2017-08-11T08:38:31Z</time>
      </trkpt>
      <trkpt lat="45.37544" lon="5.73194">
        <ele>701.9</ele>
        <time>2017-08-11T08:38:41Z</time>
      </trkpt>
      <trkpt lat="45.37537" lon="5.73189">
        <ele>703.34</ele>
        <time>2017-08-11T08:38:55Z</time>
      </trkpt>
      <trkpt lat="45.37523" lon="5.73182">
        <ele>709.11</ele>
        <time>2017-08-11T08:39:07Z</time>
      </trkpt>
      <trkpt lat="45.37517" lon="5.73181">
        <ele>715.36</ele>
        <time>2017-08-11T08:39:19Z</time>
      </trkpt>
      <trkpt lat="45.37507" lon="5.73177">
        <ele>724.01</ele>
        <time>2017-08-11T08:39:33Z</time>
      </trkpt>
      <trkpt lat="45.37502" lon="5.73171">
        <ele>725.45</ele>
        <time>2017-08-11T08:39:43Z</time>
      </trkpt>
      <trkpt lat="45.375" lon="5.73162">
        <ele>727.37</ele>
        <time>2017-08-11T08:39:55Z</time>
      </trkpt>
      <trkpt lat="45.37495" lon="5.73161">
        <ele>728.34</ele>
        <time>2017-08-11T08:40:06Z</time>
      </trkpt>
      <trkpt lat="45.3749" lon="5.73162">
        <ele>728.34</ele>
        <time>2017-08-11T08:40:13Z</time>
      </trkpt>
      <trkpt lat="45.37481" lon="5.73162">
        <ele>728.82</ele>
        <time>2017-08-11T08:40:26Z</time>
      </trkpt>
      <trkpt lat="45.37473" lon="5.73155">
        <ele>730.26</ele>
        <time>2017-08-11T08:40:41Z</time>
      </trkpt>
      <trkpt lat="45.37467" lon="5.73155">
        <ele>731.22</ele>
        <time>2017-08-11T08:40:54Z</time>
      </trkpt>
      <trkpt lat="45.37462" lon="5.73156">
        <ele>731.22</ele>
        <time>2017-08-11T08:40:58Z</time>
      </trkpt>
      <trkpt lat="45.37455" lon="5.73159">
        <ele>734.1</ele>
        <time>2017-08-11T08:41:09Z</time>
      </trkpt>
      <trkpt lat="45.37451" lon="5.73152">
        <ele>737.47</ele>
        <time>2017-08-11T08:41:28Z</time>
      </trkpt>
      <trkpt lat="45.37442" lon="5.73142">
        <ele>744.68</ele>
        <time>2017-08-11T08:41:42Z</time>
      </trkpt>
      <trkpt lat="45.37436" lon="5.73136">
        <ele>747.08</ele>
        <time>2017-08-11T08:41:56Z</time>
      </trkpt>
      <trkpt lat="45.37431" lon="5.73137">
        <ele>748.52</ele>
        <time>2017-08-11T08:42:09Z</time>
      </trkpt>
      <trkpt lat="45.37419" lon="5.73138">
        <ele>750.45</ele>
        <time>2017-08-11T08:42:20Z</time>
      </trkpt>
      <trkpt lat="45.37409" lon="5.73146">
        <ele>750.45</ele>
        <time>2017-08-11T08:42:26Z</time>
      </trkpt>
      <trkpt lat="45.37403" lon="5.73156">
        <ele>750.93</ele>
        <time>2017-08-11T08:42:35Z</time>
      </trkpt>
      <trkpt lat="45.37394" lon="5.73161">
        <ele>751.89</ele>
        <time>2017-08-11T08:42:39Z</time>
      </trkpt>
      <trkpt lat="45.37391" lon="5.73166">
        <ele>751.89</ele>
        <time>2017-08-11T08:42:42Z</time>
      </trkpt>
      <trkpt lat="45.37379" lon="5.7318">
        <ele>751.89</ele>
        <time>2017-08-11T08:42:53Z</time>
      </trkpt>
      <trkpt lat="45.37367" lon="5.73192">
        <ele>752.85</ele>
        <time>2017-08-11T08:43:04Z</time>
      </trkpt>
      <trkpt lat="45.37364" lon="5.73194">
        <ele>754.29</ele>
        <time>2017-08-11T08:43:18Z</time>
      </trkpt>
      <trkpt lat="45.37356" lon="5.73201">
        <ele>754.77</ele>
        <time>2017-08-11T08:43:30Z</time>
      </trkpt>
      <trkpt lat="45.37342" lon="5.7321">
        <ele>756.21</ele>
        <time>2017-08-11T08:43:43Z</time>
      </trkpt>
      <trkpt lat="45.37337" lon="5.73218">
        <ele>758.14</ele>
        <time>2017-08-11T08:43:57Z</time>
      </trkpt>
      <trkpt lat="45.37336" lon="5.73219">
        <ele>758.62</ele>
        <time>2017-08-11T08:44:03Z</time>
      </trkpt>
      <trkpt lat="45.37335" lon="5.73224">
        <ele>759.1</ele>
        <time>2017-08-11T08:44:09Z</time>
      </trkpt>
      <trkpt lat="45.37329" lon="5.73239">
        <ele>759.58</ele>
        <time>2017-08-11T08:44:20Z</time>
      </trkpt>
      <trkpt lat="45.37323" lon="5.73252">
        <ele>760.06</ele>
        <time>2017-08-11T08:44:32Z</time>
      </trkpt>
      <trkpt lat="45.37315" lon="5.73264">
        <ele>760.54</ele>
        <time>2017-08-11T08:44:44Z</time>
      </trkpt>
      <trkpt lat="45.37306" lon="5.73285">
        <ele>761.02</ele>
        <time>2017-08-11T08:44:57Z</time>
      </trkpt>
      <trkpt lat="45.37302" lon="5.73295">
        <ele>761.02</ele>
        <time>2017-08-11T08:45:07Z</time>
      </trkpt>
      <trkpt lat="45.37301" lon="5.73283">
        <ele>761.98</ele>
        <time>2017-08-11T08:45:23Z</time>
      </trkpt>
      <trkpt lat="45.37298" lon="5.73278">
        <ele>762.94</ele>
        <time>2017-08-11T08:45:36Z</time>
      </trkpt>
      <trkpt lat="45.37291" lon="5.7327">
        <ele>765.83</ele>
        <time>2017-08-11T08:45:48Z</time>
      </trkpt>
      <trkpt lat="45.37289" lon="5.73252">
        <ele>769.67</ele>
        <time>2017-08-11T08:46:00Z</time>
      </trkpt>
      <trkpt lat="45.37294" lon="5.73229">
        <ele>774</ele>
        <time>2017-08-11T08:46:16Z</time>
      </trkpt>
      <trkpt lat="45.37295" lon="5.7321">
        <ele>775.92</ele>
        <time>2017-08-11T08:46:30Z</time>
      </trkpt>
      <trkpt lat="45.37292" lon="5.73205">
        <ele>776.4</ele>
        <time>2017-08-11T08:46:35Z</time>
      </trkpt>
      <trkpt lat="45.37293" lon="5.73202">
        <ele>776.4</ele>
        <time>2017-08-11T08:46:37Z</time>
      </trkpt>
      <trkpt lat="45.37289" lon="5.73182">
        <ele>777.36</ele>
        <time>2017-08-11T08:46:48Z</time>
      </trkpt>
      <trkpt lat="45.37288" lon="5.73166">
        <ele>780.25</ele>
        <time>2017-08-11T08:47:02Z</time>
      </trkpt>
      <trkpt lat="45.37301" lon="5.73122">
        <ele>820.14</ele>
        <time>2017-08-11T08:47:15Z</time>
      </trkpt>
      <trkpt lat="45.37301" lon="5.73112">
        <ele>833.6</ele>
        <time>2017-08-11T08:47:28Z</time>
      </trkpt>
      <trkpt lat="45.373" lon="5.73102">
        <ele>840.81</ele>
        <time>2017-08-11T08:47:39Z</time>
      </trkpt>
      <trkpt lat="45.37298" lon="5.73091">
        <ele>843.69</ele>
        <time>2017-08-11T08:47:49Z</time>
      </trkpt>
      <trkpt lat="45.37282" lon="5.73076">
        <ele>839.37</ele>
        <time>2017-08-11T08:48:05Z</time>
      </trkpt>
      <trkpt lat="45.3727" lon="5.73064">
        <ele>840.33</ele>
        <time>2017-08-11T08:48:18Z</time>
      </trkpt>
      <trkpt lat="45.3726" lon="5.73047">
        <ele>846.58</ele>
        <time>2017-08-11T08:48:32Z</time>
      </trkpt>
      <trkpt lat="45.37259" lon="5.73044">
        <ele>846.58</ele>
        <time>2017-08-11T08:48:34Z</time>
      </trkpt>
      <trkpt lat="45.37256" lon="5.73035">
        <ele>848.5</ele>
        <time>2017-08-11T08:48:39Z</time>
      </trkpt>
      <trkpt lat="45.37249" lon="5.73011">
        <ele>850.42</ele>
        <time>2017-08-11T08:48:53Z</time>
      </trkpt>
      <trkpt lat="45.37246" lon="5.73">
        <ele>851.38</ele>
        <time>2017-08-11T08:49:01Z</time>
      </trkpt>
      <trkpt lat="45.37245" lon="5.72997">
        <ele>850.9</ele>
        <time>2017-08-11T08:49:03Z</time>
      </trkpt>
      <trkpt lat="45.37246" lon="5.72988">
        <ele>852.83</ele>
        <time>2017-08-11T08:49:17Z</time>
      </trkpt>
      <trkpt lat="45.3724" lon="5.7299">
        <ele>853.31</ele>
        <time>2017-08-11T08:49:35Z</time>
      </trkpt>
      <trkpt lat="45.37237" lon="5.72991">
        <ele>855.23</ele>
        <time>2017-08-11T08:49:50Z</time>
      </trkpt>
      <trkpt lat="45.37237" lon="5.7299">
        <ele>855.71</ele>
        <time>2017-08-11T08:49:53Z</time>
      </trkpt>
      <trkpt lat="45.37232" lon="5.72978">
        <ele>852.35</ele>
        <time>2017-08-11T08:50:06Z</time>
      </trkpt>
      <trkpt lat="45.37227" lon="5.72979">
        <ele>853.79</ele>
        <time>2017-08-11T08:50:19Z</time>
      </trkpt>
      <trkpt lat="45.37227" lon="5.72979">
        <ele>854.27</ele>
        <time>2017-08-11T08:50:24Z</time>
      </trkpt>
      <trkpt lat="45.37222" lon="5.72987">
        <ele>855.71</ele>
        <time>2017-08-11T08:50:36Z</time>
      </trkpt>
      <trkpt lat="45.37218" lon="5.72988">
        <ele>860.04</ele>
        <time>2017-08-11T08:50:49Z</time>
      </trkpt>
      <trkpt lat="45.37217" lon="5.72987">
        <ele>861.96</ele>
        <time>2017-08-11T08:51:03Z</time>
      </trkpt>
      <trkpt lat="45.37215" lon="5.72985">
        <ele>864.36</ele>
        <time>2017-08-11T08:51:19Z</time>
      </trkpt>
      <trkpt lat="45.37211" lon="5.72987">
        <ele>864.36</ele>
        <time>2017-08-11T08:51:31Z</time>
      </trkpt>
      <trkpt lat="45.37209" lon="5.72985">
        <ele>867.25</ele>
        <time>2017-08-11T08:51:45Z</time>
      </trkpt>
      <trkpt lat="45.37208" lon="5.7298">
        <ele>869.65</ele>
        <time>2017-08-11T08:52:02Z</time>
      </trkpt>
      <trkpt lat="45.37206" lon="5.7298">
        <ele>871.57</ele>
        <time>2017-08-11T08:52:17Z</time>
      </trkpt>
      <trkpt lat="45.37203" lon="5.72969">
        <ele>869.17</ele>
        <time>2017-08-11T08:52:30Z</time>
      </trkpt>
      <trkpt lat="45.37199" lon="5.72955">
        <ele>867.73</ele>
        <time>2017-08-11T08:52:42Z</time>
      </trkpt>
      <trkpt lat="45.37197" lon="5.72953">
        <ele>869.17</ele>
        <time>2017-08-11T08:52:53Z</time>
      </trkpt>
      <trkpt lat="45.37191" lon="5.72959">
        <ele>868.69</ele>
        <time>2017-08-11T08:53:06Z</time>
      </trkpt>
      <trkpt lat="45.37186" lon="5.72957">
        <ele>870.13</ele>
        <time>2017-08-11T08:53:19Z</time>
      </trkpt>
      <trkpt lat="45.37184" lon="5.72945">
        <ele>870.61</ele>
        <time>2017-08-11T08:53:33Z</time>
      </trkpt>
      <trkpt lat="45.37182" lon="5.72937">
        <ele>870.61</ele>
        <time>2017-08-11T08:53:42Z</time>
      </trkpt>
      <trkpt lat="45.37179" lon="5.72916">
        <ele>870.13</ele>
        <time>2017-08-11T08:53:57Z</time>
      </trkpt>
      <trkpt lat="45.37177" lon="5.72901">
        <ele>872.05</ele>
        <time>2017-08-11T08:54:09Z</time>
      </trkpt>
      <trkpt lat="45.37179" lon="5.72891">
        <ele>874.46</ele>
        <time>2017-08-11T08:54:21Z</time>
      </trkpt>
      <trkpt lat="45.37191" lon="5.72877">
        <ele>880.22</ele>
        <time>2017-08-11T08:54:34Z</time>
      </trkpt>
      <trkpt lat="45.37201" lon="5.72857">
        <ele>886.47</ele>
        <time>2017-08-11T08:54:48Z</time>
      </trkpt>
      <trkpt lat="45.37197" lon="5.72852">
        <ele>888.4</ele>
        <time>2017-08-11T08:55:01Z</time>
      </trkpt>
      <trkpt lat="45.37193" lon="5.72849">
        <ele>888.4</ele>
        <time>2017-08-11T08:55:12Z</time>
      </trkpt>
      <trkpt lat="45.37191" lon="5.72848">
        <ele>888.88</ele>
        <time>2017-08-11T08:55:19Z</time>
      </trkpt>
      <trkpt lat="45.3719" lon="5.72853">
        <ele>889.36</ele>
        <time>2017-08-11T08:55:30Z</time>
      </trkpt>
      <trkpt lat="45.37183" lon="5.72867">
        <ele>888.4</ele>
        <time>2017-08-11T08:55:45Z</time>
      </trkpt>
      <trkpt lat="45.37174" lon="5.72888">
        <ele>888.4</ele>
        <time>2017-08-11T08:55:59Z</time>
      </trkpt>
      <trkpt lat="45.37173" lon="5.72909">
        <ele>892.24</ele>
        <time>2017-08-11T08:56:12Z</time>
      </trkpt>
      <trkpt lat="45.37169" lon="5.72916">
        <ele>893.68</ele>
        <time>2017-08-11T08:56:18Z</time>
      </trkpt>
      <trkpt lat="45.37154" lon="5.72926">
        <ele>897.05</ele>
        <time>2017-08-11T08:56:30Z</time>
      </trkpt>
      <trkpt lat="45.37142" lon="5.72937">
        <ele>900.41</ele>
        <time>2017-08-11T08:56:44Z</time>
      </trkpt>
      <trkpt lat="45.37139" lon="5.72937">
        <ele>901.37</ele>
        <time>2017-08-11T08:56:57Z</time>
      </trkpt>
      <trkpt lat="45.37145" lon="5.7293">
        <ele>902.82</ele>
        <time>2017-08-11T08:57:09Z</time>
      </trkpt>
      <trkpt lat="45.37152" lon="5.72919">
        <ele>904.74</ele>
        <time>2017-08-11T08:57:22Z</time>
      </trkpt>
      <trkpt lat="45.37147" lon="5.72908">
        <ele>905.7</ele>
        <time>2017-08-11T08:57:31Z</time>
      </trkpt>
      <trkpt lat="45.37143" lon="5.72882">
        <ele>907.14</ele>
        <time>2017-08-11T08:57:45Z</time>
      </trkpt>
      <trkpt lat="45.37144" lon="5.72862">
        <ele>912.91</ele>
        <time>2017-08-11T08:57:58Z</time>
      </trkpt>
      <trkpt lat="45.37151" lon="5.72842">
        <ele>914.83</ele>
        <time>2017-08-11T08:58:14Z</time>
      </trkpt>
      <trkpt lat="45.37159" lon="5.72825">
        <ele>916.27</ele>
        <time>2017-08-11T08:58:28Z</time>
      </trkpt>
      <trkpt lat="45.37159" lon="5.72822">
        <ele>916.27</ele>
        <time>2017-08-11T08:58:31Z</time>
      </trkpt>
      <trkpt lat="45.37169" lon="5.72816">
        <ele>915.79</ele>
        <time>2017-08-11T08:58:43Z</time>
      </trkpt>
      <trkpt lat="45.37172" lon="5.7281">
        <ele>916.27</ele>
        <time>2017-08-11T08:58:58Z</time>
      </trkpt>
      <trkpt lat="45.37173" lon="5.72807">
        <ele>917.24</ele>
        <time>2017-08-11T08:59:14Z</time>
      </trkpt>
      <trkpt lat="45.37184" lon="5.728">
        <ele>917.72</ele>
        <time>2017-08-11T08:59:25Z</time>
      </trkpt>
      <trkpt lat="45.37182" lon="5.72793">
        <ele>917.72</ele>
        <time>2017-08-11T08:59:36Z</time>
      </trkpt>
      <trkpt lat="45.37173" lon="5.72795">
        <ele>918.2</ele>
        <time>2017-08-11T08:59:50Z</time>
      </trkpt>
      <trkpt lat="45.37164" lon="5.72799">
        <ele>918.2</ele>
        <time>2017-08-11T09:00:02Z</time>
      </trkpt>
      <trkpt lat="45.37157" lon="5.72806">
        <ele>918.2</ele>
        <time>2017-08-11T09:00:15Z</time>
      </trkpt>
      <trkpt lat="45.37156" lon="5.72807">
        <ele>918.2</ele>
        <time>2017-08-11T09:00:17Z</time>
      </trkpt>
      <trkpt lat="45.37147" lon="5.72815">
        <ele>918.68</ele>
        <time>2017-08-11T09:00:28Z</time>
      </trkpt>
      <trkpt lat="45.37147" lon="5.72816">
        <ele>918.68</ele>
        <time>2017-08-11T09:00:29Z</time>
      </trkpt>
      <trkpt lat="45.37123" lon="5.72847">
        <ele>966.74</ele>
        <time>2017-08-11T09:00:40Z</time>
      </trkpt>
      <trkpt lat="45.37122" lon="5.72849">
        <ele>966.74</ele>
        <time>2017-08-11T09:00:42Z</time>
      </trkpt>
      <trkpt lat="45.37111" lon="5.72867">
        <ele>974.91</ele>
        <time>2017-08-11T09:00:57Z</time>
      </trkpt>
      <trkpt lat="45.37107" lon="5.72881">
        <ele>976.36</ele>
        <time>2017-08-11T09:01:11Z</time>
      </trkpt>
      <trkpt lat="45.37104" lon="5.72887">
        <ele>975.39</ele>
        <time>2017-08-11T09:01:16Z</time>
      </trkpt>
      <trkpt lat="45.37094" lon="5.72888">
        <ele>971.55</ele>
        <time>2017-08-11T09:01:30Z</time>
      </trkpt>
      <trkpt lat="45.37086" lon="5.72891">
        <ele>968.18</ele>
        <time>2017-08-11T09:01:41Z</time>
      </trkpt>
      <trkpt lat="45.3708" lon="5.72894">
        <ele>962.9</ele>
        <time>2017-08-11T09:01:53Z</time>
      </trkpt>
      <trkpt lat="45.37076" lon="5.72897">
        <ele>964.34</ele>
        <time>2017-08-11T09:02:03Z</time>
      </trkpt>
      <trkpt lat="45.37079" lon="5.72897">
        <ele>964.82</ele>
        <time>2017-08-11T09:02:13Z</time>
      </trkpt>
      <trkpt lat="45.37089" lon="5.72888">
        <ele>966.74</ele>
        <time>2017-08-11T09:02:25Z</time>
      </trkpt>
      <trkpt lat="45.3709" lon="5.72878">
        <ele>967.22</ele>
        <time>2017-08-11T09:02:31Z</time>
      </trkpt>
      <trkpt lat="45.37091" lon="5.72863">
        <ele>970.59</ele>
        <time>2017-08-11T09:02:41Z</time>
      </trkpt>
      <trkpt lat="45.37097" lon="5.72845">
        <ele>970.59</ele>
        <time>2017-08-11T09:02:55Z</time>
      </trkpt>
      <trkpt lat="45.37095" lon="5.72839">
        <ele>971.55</ele>
        <time>2017-08-11T09:03:07Z</time>
      </trkpt>
      <trkpt lat="45.37096" lon="5.7282">
        <ele>973.47</ele>
        <time>2017-08-11T09:03:22Z</time>
      </trkpt>
      <trkpt lat="45.37092" lon="5.72807">
        <ele>977.32</ele>
        <time>2017-08-11T09:03:36Z</time>
      </trkpt>
      <trkpt lat="45.3709" lon="5.72792">
        <ele>978.28</ele>
        <time>2017-08-11T09:03:50Z</time>
      </trkpt>
      <trkpt lat="45.37099" lon="5.72775">
        <ele>981.16</ele>
        <time>2017-08-11T09:04:06Z</time>
      </trkpt>
      <trkpt lat="45.3711" lon="5.72762">
        <ele>984.53</ele>
        <time>2017-08-11T09:04:23Z</time>
      </trkpt>
      <trkpt lat="45.3712" lon="5.72753">
        <ele>988.85</ele>
        <time>2017-08-11T09:04:39Z</time>
      </trkpt>
      <trkpt lat="45.37121" lon="5.72746">
        <ele>989.81</ele>
        <time>2017-08-11T09:04:53Z</time>
      </trkpt>
      <trkpt lat="45.37113" lon="5.72741">
        <ele>990.3</ele>
        <time>2017-08-11T09:05:04Z</time>
      </trkpt>
      <trkpt lat="45.37103" lon="5.72736">
        <ele>990.78</ele>
        <time>2017-08-11T09:05:17Z</time>
      </trkpt>
      <trkpt lat="45.37087" lon="5.72739">
        <ele>990.78</ele>
        <time>2017-08-11T09:05:31Z</time>
      </trkpt>
      <trkpt lat="45.37079" lon="5.72742">
        <ele>990.78</ele>
        <time>2017-08-11T09:05:45Z</time>
      </trkpt>
      <trkpt lat="45.37071" lon="5.72751">
        <ele>991.26</ele>
        <time>2017-08-11T09:05:58Z</time>
      </trkpt>
      <trkpt lat="45.37061" lon="5.72771">
        <ele>992.7</ele>
        <time>2017-08-11T09:06:12Z</time>
      </trkpt>
      <trkpt lat="45.37056" lon="5.72779">
        <ele>993.18</ele>
        <time>2017-08-11T09:06:18Z</time>
      </trkpt>
      <trkpt lat="45.37038" lon="5.72801">
        <ele>1019.13</ele>
        <time>2017-08-11T09:06:33Z</time>
      </trkpt>
      <trkpt lat="45.37033" lon="5.7282">
        <ele>1033.55</ele>
        <time>2017-08-11T09:06:47Z</time>
      </trkpt>
      <trkpt lat="45.37028" lon="5.72832">
        <ele>1035.96</ele>
        <time>2017-08-11T09:07:00Z</time>
      </trkpt>
      <trkpt lat="45.3702" lon="5.72838">
        <ele>1036.92</ele>
        <time>2017-08-11T09:07:14Z</time>
      </trkpt>
      <trkpt lat="45.3701" lon="5.72846">
        <ele>1037.88</ele>
        <time>2017-08-11T09:07:26Z</time>
      </trkpt>
      <trkpt lat="45.37" lon="5.72856">
        <ele>1036.92</ele>
        <time>2017-08-11T09:07:41Z</time>
      </trkpt>
      <trkpt lat="45.36998" lon="5.72853">
        <ele>1039.8</ele>
        <time>2017-08-11T09:07:58Z</time>
      </trkpt>
      <trkpt lat="45.37003" lon="5.72844">
        <ele>1041.25</ele>
        <time>2017-08-11T09:08:16Z</time>
      </trkpt>
      <trkpt lat="45.37007" lon="5.72833">
        <ele>1040.76</ele>
        <time>2017-08-11T09:08:32Z</time>
      </trkpt>
      <trkpt lat="45.37005" lon="5.72825">
        <ele>1041.73</ele>
        <time>2017-08-11T09:08:48Z</time>
      </trkpt>
      <trkpt lat="45.36999" lon="5.72808">
        <ele>1042.69</ele>
        <time>2017-08-11T09:09:03Z</time>
      </trkpt>
      <trkpt lat="45.37" lon="5.72802">
        <ele>1044.13</ele>
        <time>2017-08-11T09:09:09Z</time>
      </trkpt>
      <trkpt lat="45.36999" lon="5.72774">
        <ele>1040.76</ele>
        <time>2017-08-11T09:09:18Z</time>
      </trkpt>
      <trkpt lat="45.36996" lon="5.7276">
        <ele>1037.4</ele>
        <time>2017-08-11T09:09:25Z</time>
      </trkpt>
      <trkpt lat="45.36997" lon="5.7273">
        <ele>1036.44</ele>
        <time>2017-08-11T09:09:39Z</time>
      </trkpt>
      <trkpt lat="45.37002" lon="5.72703">
        <ele>1036.92</ele>
        <time>2017-08-11T09:09:49Z</time>
      </trkpt>
      <trkpt lat="45.37" lon="5.72683">
        <ele>1036.92</ele>
        <time>2017-08-11T09:10:02Z</time>
      </trkpt>
      <trkpt lat="45.36998" lon="5.72672">
        <ele>1039.32</ele>
        <time>2017-08-11T09:10:18Z</time>
      </trkpt>
      <trkpt lat="45.36994" lon="5.7266">
        <ele>1040.76</ele>
        <time>2017-08-11T09:10:32Z</time>
      </trkpt>
      <trkpt lat="45.36981" lon="5.72639">
        <ele>1044.61</ele>
        <time>2017-08-11T09:10:47Z</time>
      </trkpt>
      <trkpt lat="45.36971" lon="5.72626">
        <ele>1045.09</ele>
        <time>2017-08-11T09:11:00Z</time>
      </trkpt>
      <trkpt lat="45.3697" lon="5.72621">
        <ele>1044.61</ele>
        <time>2017-08-11T09:11:16Z</time>
      </trkpt>
      <trkpt lat="45.36969" lon="5.72618">
        <ele>1045.57</ele>
        <time>2017-08-11T09:11:43Z</time>
      </trkpt>
      <trkpt lat="45.36969" lon="5.72618">
        <ele>1048.45</ele>
        <time>2017-08-11T09:12:08Z</time>
      </trkpt>
      <trkpt lat="45.36969" lon="5.72619">
        <ele>1050.86</ele>
        <time>2017-08-11T09:12:30Z</time>
      </trkpt>
      <trkpt lat="45.36969" lon="5.72612">
        <ele>1050.86</ele>
        <time>2017-08-11T09:12:34Z</time>
      </trkpt>
      <trkpt lat="45.36977" lon="5.72598">
        <ele>1050.38</ele>
        <time>2017-08-11T09:12:45Z</time>
      </trkpt>
      <trkpt lat="45.36988" lon="5.72595">
        <ele>1052.78</ele>
        <time>2017-08-11T09:12:58Z</time>
      </trkpt>
      <trkpt lat="45.36999" lon="5.72598">
        <ele>1056.63</ele>
        <time>2017-08-11T09:13:11Z</time>
      </trkpt>
      <trkpt lat="45.37" lon="5.72596">
        <ele>1058.07</ele>
        <time>2017-08-11T09:13:23Z</time>
      </trkpt>
      <trkpt lat="45.37001" lon="5.72594">
        <ele>1059.99</ele>
        <time>2017-08-11T09:13:39Z</time>
      </trkpt>
      <trkpt lat="45.37" lon="5.72592">
        <ele>1063.84</ele>
        <time>2017-08-11T09:13:54Z</time>
      </trkpt>
      <trkpt lat="45.36988" lon="5.72596">
        <ele>1064.32</ele>
        <time>2017-08-11T09:14:06Z</time>
      </trkpt>
      <trkpt lat="45.36972" lon="5.72605">
        <ele>1066.24</ele>
        <time>2017-08-11T09:14:19Z</time>
      </trkpt>
      <trkpt lat="45.36954" lon="5.72604">
        <ele>1068.16</ele>
        <time>2017-08-11T09:14:35Z</time>
      </trkpt>
      <trkpt lat="45.36941" lon="5.72595">
        <ele>1071.05</ele>
        <time>2017-08-11T09:14:48Z</time>
      </trkpt>
      <trkpt lat="45.36937" lon="5.72593">
        <ele>1072.01</ele>
        <time>2017-08-11T09:14:54Z</time>
      </trkpt>
      <trkpt lat="45.36923" lon="5.72585">
        <ele>1073.93</ele>
        <time>2017-08-11T09:15:09Z</time>
      </trkpt>
      <trkpt lat="45.36918" lon="5.72585">
        <ele>1075.37</ele>
        <time>2017-08-11T09:15:17Z</time>
      </trkpt>
      <trkpt lat="45.369" lon="5.72573">
        <ele>1076.33</ele>
        <time>2017-08-11T09:15:29Z</time>
      </trkpt>
      <trkpt lat="45.36896" lon="5.72572">
        <ele>1076.81</ele>
        <time>2017-08-11T09:15:32Z</time>
      </trkpt>
      <trkpt lat="45.36885" lon="5.72575">
        <ele>1076.81</ele>
        <time>2017-08-11T09:15:39Z</time>
      </trkpt>
      <trkpt lat="45.36868" lon="5.72572">
        <ele>1079.7</ele>
        <time>2017-08-11T09:15:53Z</time>
      </trkpt>
      <trkpt lat="45.36855" lon="5.72565">
        <ele>1084.99</ele>
        <time>2017-08-11T09:16:05Z</time>
      </trkpt>
      <trkpt lat="45.3685" lon="5.7256">
        <ele>1088.35</ele>
        <time>2017-08-11T09:16:22Z</time>
      </trkpt>
      <trkpt lat="45.36852" lon="5.72561">
        <ele>1088.35</ele>
        <time>2017-08-11T09:16:24Z</time>
      </trkpt>
      <trkpt lat="45.36873" lon="5.72557">
        <ele>1088.83</ele>
        <time>2017-08-11T09:16:38Z</time>
      </trkpt>
      <trkpt lat="45.36883" lon="5.72557">
        <ele>1091.23</ele>
        <time>2017-08-11T09:16:50Z</time>
      </trkpt>
      <trkpt lat="45.36891" lon="5.72563">
        <ele>1091.23</ele>
        <time>2017-08-11T09:17:02Z</time>
      </trkpt>
      <trkpt lat="45.36899" lon="5.7257">
        <ele>1090.75</ele>
        <time>2017-08-11T09:17:19Z</time>
      </trkpt>
      <trkpt lat="45.36911" lon="5.72574">
        <ele>1092.68</ele>
        <time>2017-08-11T09:17:34Z</time>
      </trkpt>
      <trkpt lat="45.36916" lon="5.72577">
        <ele>1094.12</ele>
        <time>2017-08-11T09:17:48Z</time>
      </trkpt>
      <trkpt lat="45.36922" lon="5.72585">
        <ele>1091.71</ele>
        <time>2017-08-11T09:18:01Z</time>
      </trkpt>
      <trkpt lat="45.36937" lon="5.72597">
        <ele>1085.95</ele>
        <time>2017-08-11T09:18:15Z</time>
      </trkpt>
      <trkpt lat="45.3694" lon="5.72601">
        <ele>1087.39</ele>
        <time>2017-08-11T09:18:25Z</time>
      </trkpt>
      <trkpt lat="45.36947" lon="5.72607">
        <ele>1084.02</ele>
        <time>2017-08-11T09:18:38Z</time>
      </trkpt>
      <trkpt lat="45.36956" lon="5.72614">
        <ele>1085.47</ele>
        <time>2017-08-11T09:18:58Z</time>
      </trkpt>
      <trkpt lat="45.3695" lon="5.72619">
        <ele>1084.02</ele>
        <time>2017-08-11T09:19:17Z</time>
      </trkpt>
      <trkpt lat="45.36944" lon="5.72621">
        <ele>1085.47</ele>
        <time>2017-08-11T09:19:33Z</time>
      </trkpt>
      <trkpt lat="45.36939" lon="5.72618">
        <ele>1085.47</ele>
        <time>2017-08-11T09:19:51Z</time>
      </trkpt>
      <trkpt lat="45.36931" lon="5.72615">
        <ele>1085.47</ele>
        <time>2017-08-11T09:20:08Z</time>
      </trkpt>
      <trkpt lat="45.36925" lon="5.72614">
        <ele>1085.95</ele>
        <time>2017-08-11T09:20:23Z</time>
      </trkpt>
      <trkpt lat="45.36913" lon="5.72611">
        <ele>1085.95</ele>
        <time>2017-08-11T09:20:42Z</time>
      </trkpt>
      <trkpt lat="45.36906" lon="5.7261">
        <ele>1088.35</ele>
        <time>2017-08-11T09:20:55Z</time>
      </trkpt>
      <trkpt lat="45.36901" lon="5.726">
        <ele>1084.5</ele>
        <time>2017-08-11T09:21:07Z</time>
      </trkpt>
      <trkpt lat="45.36895" lon="5.72586">
        <ele>1080.66</ele>
        <time>2017-08-11T09:21:19Z</time>
      </trkpt>
      <trkpt lat="45.36885" lon="5.72583">
        <ele>1077.78</ele>
        <time>2017-08-11T09:21:32Z</time>
      </trkpt>
      <trkpt lat="45.36884" lon="5.72578">
        <ele>1080.18</ele>
        <time>2017-08-11T09:21:55Z</time>
      </trkpt>
      <trkpt lat="45.36883" lon="5.72573">
        <ele>1081.62</ele>
        <time>2017-08-11T09:22:09Z</time>
      </trkpt>
      <trkpt lat="45.36883" lon="5.72567">
        <ele>1084.99</ele>
        <time>2017-08-11T09:22:41Z</time>
      </trkpt>
      <trkpt lat="45.36884" lon="5.72567">
        <ele>1084.99</ele>
        <time>2017-08-11T09:23:17Z</time>
      </trkpt>
      <trkpt lat="45.36885" lon="5.72568">
        <ele>1084.99</ele>
        <time>2017-08-11T09:23:49Z</time>
      </trkpt>
      <trkpt lat="45.36879" lon="5.72568">
        <ele>1086.43</ele>
        <time>2017-08-11T09:24:00Z</time>
      </trkpt>
      <trkpt lat="45.36878" lon="5.72568">
        <ele>1086.43</ele>
        <time>2017-08-11T09:24:13Z</time>
      </trkpt>
      <trkpt lat="45.36878" lon="5.72567">
        <ele>1086.91</ele>
        <time>2017-08-11T09:24:34Z</time>
      </trkpt>
      <trkpt lat="45.36882" lon="5.72567">
        <ele>1083.06</ele>
        <time>2017-08-11T09:24:50Z</time>
      </trkpt>
      <trkpt lat="45.36883" lon="5.72566">
        <ele>1083.06</ele>
        <time>2017-08-11T09:25:12Z</time>
      </trkpt>
      <trkpt lat="45.36884" lon="5.72568">
        <ele>1083.54</ele>
        <time>2017-08-11T09:25:27Z</time>
      </trkpt>
      <trkpt lat="45.36884" lon="5.7257">
        <ele>1084.5</ele>
        <time>2017-08-11T09:25:40Z</time>
      </trkpt>
      <trkpt lat="45.36882" lon="5.72576">
        <ele>1083.06</ele>
        <time>2017-08-11T09:25:56Z</time>
      </trkpt>
      <trkpt lat="45.3688" lon="5.7258">
        <ele>1082.1</ele>
        <time>2017-08-11T09:26:09Z</time>
      </trkpt>
      <trkpt lat="45.36881" lon="5.72587">
        <ele>1083.06</ele>
        <time>2017-08-11T09:26:23Z</time>
      </trkpt>
      <trkpt lat="45.36879" lon="5.72591">
        <ele>1082.1</ele>
        <time>2017-08-11T09:26:39Z</time>
      </trkpt>
      <trkpt lat="45.36877" lon="5.72597">
        <ele>1082.1</ele>
        <time>2017-08-11T09:26:56Z</time>
      </trkpt>
      <trkpt lat="45.36876" lon="5.72603">
        <ele>1082.1</ele>
        <time>2017-08-11T09:27:09Z</time>
      </trkpt>
      <trkpt lat="45.36876" lon="5.72612">
        <ele>1081.62</ele>
        <time>2017-08-11T09:27:21Z</time>
      </trkpt>
      <trkpt lat="45.36877" lon="5.72618">
        <ele>1081.14</ele>
        <time>2017-08-11T09:27:32Z</time>
      </trkpt>
      <trkpt lat="45.36876" lon="5.72632">
        <ele>1080.66</ele>
        <time>2017-08-11T09:27:47Z</time>
      </trkpt>
      <trkpt lat="45.36878" lon="5.72648">
        <ele>1084.02</ele>
        <time>2017-08-11T09:28:02Z</time>
      </trkpt>
      <trkpt lat="45.36872" lon="5.72656">
        <ele>1092.2</ele>
        <time>2017-08-11T09:28:16Z</time>
      </trkpt>
      <trkpt lat="45.3687" lon="5.72665">
        <ele>1092.68</ele>
        <time>2017-08-11T09:28:29Z</time>
      </trkpt>
      <trkpt lat="45.36869" lon="5.72671">
        <ele>1095.08</ele>
        <time>2017-08-11T09:28:45Z</time>
      </trkpt>
      <trkpt lat="45.36864" lon="5.72676">
        <ele>1100.85</ele>
        <time>2017-08-11T09:29:03Z</time>
      </trkpt>
      <trkpt lat="45.3685" lon="5.7268">
        <ele>1104.21</ele>
        <time>2017-08-11T09:29:19Z</time>
      </trkpt>
      <trkpt lat="45.36843" lon="5.72677">
        <ele>1106.13</ele>
        <time>2017-08-11T09:29:30Z</time>
      </trkpt>
      <trkpt lat="45.36843" lon="5.72678">
        <ele>1108.06</ele>
        <time>2017-08-11T09:29:45Z</time>
      </trkpt>
      <trkpt lat="45.36843" lon="5.72685">
        <ele>1109.02</ele>
        <time>2017-08-11T09:30:01Z</time>
      </trkpt>
      <trkpt lat="45.36846" lon="5.72692">
        <ele>1109.5</ele>
        <time>2017-08-11T09:30:16Z</time>
      </trkpt>
      <trkpt lat="45.36852" lon="5.72699">
        <ele>1110.46</ele>
        <time>2017-08-11T09:30:26Z</time>
      </trkpt>
      <trkpt lat="45.36859" lon="5.72714">
        <ele>1111.9</ele>
        <time>2017-08-11T09:30:41Z</time>
      </trkpt>
      <trkpt lat="45.36864" lon="5.72724">
        <ele>1113.34</ele>
        <time>2017-08-11T09:30:57Z</time>
      </trkpt>
      <trkpt lat="45.36871" lon="5.72746">
        <ele>1114.31</ele>
        <time>2017-08-11T09:31:12Z</time>
      </trkpt>
      <trkpt lat="45.36874" lon="5.7277">
        <ele>1116.71</ele>
        <time>2017-08-11T09:31:26Z</time>
      </trkpt>
      <trkpt lat="45.36874" lon="5.72781">
        <ele>1120.07</ele>
        <time>2017-08-11T09:31:37Z</time>
      </trkpt>
      <trkpt lat="45.36877" lon="5.72786">
        <ele>1123.92</ele>
        <time>2017-08-11T09:31:53Z</time>
      </trkpt>
      <trkpt lat="45.36875" lon="5.72785">
        <ele>1129.21</ele>
        <time>2017-08-11T09:32:06Z</time>
      </trkpt>
      <trkpt lat="45.36875" lon="5.72791">
        <ele>1134.49</ele>
        <time>2017-08-11T09:32:24Z</time>
      </trkpt>
      <trkpt lat="45.36873" lon="5.7279">
        <ele>1137.86</ele>
        <time>2017-08-11T09:32:38Z</time>
      </trkpt>
      <trkpt lat="45.36869" lon="5.72788">
        <ele>1139.3</ele>
        <time>2017-08-11T09:32:53Z</time>
      </trkpt>
      <trkpt lat="45.36864" lon="5.72787">
        <ele>1140.26</ele>
        <time>2017-08-11T09:33:06Z</time>
      </trkpt>
      <trkpt lat="45.36859" lon="5.72784">
        <ele>1140.26</ele>
        <time>2017-08-11T09:33:20Z</time>
      </trkpt>
      <trkpt lat="45.36854" lon="5.72781">
        <ele>1141.22</ele>
        <time>2017-08-11T09:33:37Z</time>
      </trkpt>
      <trkpt lat="45.36851" lon="5.72776">
        <ele>1143.63</ele>
        <time>2017-08-11T09:33:52Z</time>
      </trkpt>
      <trkpt lat="45.36848" lon="5.72772">
        <ele>1148.91</ele>
        <time>2017-08-11T09:34:07Z</time>
      </trkpt>
      <trkpt lat="45.36847" lon="5.7277">
        <ele>1149.39</ele>
        <time>2017-08-11T09:34:21Z</time>
      </trkpt>
      <trkpt lat="45.36846" lon="5.72769">
        <ele>1151.32</ele>
        <time>2017-08-11T09:34:39Z</time>
      </trkpt>
      <trkpt lat="45.36844" lon="5.72767">
        <ele>1152.76</ele>
        <time>2017-08-11T09:34:52Z</time>
      </trkpt>
      <trkpt lat="45.36844" lon="5.72768">
        <ele>1156.6</ele>
        <time>2017-08-11T09:35:09Z</time>
      </trkpt>
      <trkpt lat="45.36842" lon="5.72773">
        <ele>1157.56</ele>
        <time>2017-08-11T09:35:23Z</time>
      </trkpt>
      <trkpt lat="45.36841" lon="5.72777">
        <ele>1158.05</ele>
        <time>2017-08-11T09:35:35Z</time>
      </trkpt>
      <trkpt lat="45.36838" lon="5.72779">
        <ele>1159.97</ele>
        <time>2017-08-11T09:35:49Z</time>
      </trkpt>
      <trkpt lat="45.36835" lon="5.7278">
        <ele>1161.41</ele>
        <time>2017-08-11T09:36:01Z</time>
      </trkpt>
      <trkpt lat="45.36831" lon="5.72777">
        <ele>1163.81</ele>
        <time>2017-08-11T09:36:14Z</time>
      </trkpt>
      <trkpt lat="45.36825" lon="5.72775">
        <ele>1165.74</ele>
        <time>2017-08-11T09:36:25Z</time>
      </trkpt>
      <trkpt lat="45.3682" lon="5.72774">
        <ele>1168.14</ele>
        <time>2017-08-11T09:36:38Z</time>
      </trkpt>
      <trkpt lat="45.3682" lon="5.72774">
        <ele>1168.14</ele>
        <time>2017-08-11T09:36:39Z</time>
      </trkpt>
      <trkpt lat="45.3681" lon="5.72774">
        <ele>1169.1</ele>
        <time>2017-08-11T09:36:51Z</time>
      </trkpt>
      <trkpt lat="45.36796" lon="5.72768">
        <ele>1170.54</ele>
        <time>2017-08-11T09:37:04Z</time>
      </trkpt>
      <trkpt lat="45.36792" lon="5.72763">
        <ele>1172.47</ele>
        <time>2017-08-11T09:37:19Z</time>
      </trkpt>
      <trkpt lat="45.3679" lon="5.72762">
        <ele>1174.39</ele>
        <time>2017-08-11T09:37:32Z</time>
      </trkpt>
      <trkpt lat="45.36788" lon="5.72764">
        <ele>1177.27</ele>
        <time>2017-08-11T09:37:46Z</time>
      </trkpt>
      <trkpt lat="45.36787" lon="5.72763">
        <ele>1179.67</ele>
        <time>2017-08-11T09:37:59Z</time>
      </trkpt>
      <trkpt lat="45.36785" lon="5.72761">
        <ele>1184</ele>
        <time>2017-08-11T09:38:13Z</time>
      </trkpt>
      <trkpt lat="45.36784" lon="5.72765">
        <ele>1184.96</ele>
        <time>2017-08-11T09:38:28Z</time>
      </trkpt>
      <trkpt lat="45.36784" lon="5.7277">
        <ele>1185.92</ele>
        <time>2017-08-11T09:38:42Z</time>
      </trkpt>
      <trkpt lat="45.36786" lon="5.72778">
        <ele>1185.92</ele>
        <time>2017-08-11T09:38:56Z</time>
      </trkpt>
      <trkpt lat="45.36786" lon="5.7279">
        <ele>1188.81</ele>
        <time>2017-08-11T09:39:14Z</time>
      </trkpt>
      <trkpt lat="45.36786" lon="5.72799">
        <ele>1190.25</ele>
        <time>2017-08-11T09:39:28Z</time>
      </trkpt>
      <trkpt lat="45.36788" lon="5.72807">
        <ele>1193.13</ele>
        <time>2017-08-11T09:39:42Z</time>
      </trkpt>
      <trkpt lat="45.36788" lon="5.72813">
        <ele>1197.46</ele>
        <time>2017-08-11T09:39:56Z</time>
      </trkpt>
      <trkpt lat="45.36787" lon="5.72814">
        <ele>1199.86</ele>
        <time>2017-08-11T09:40:08Z</time>
      </trkpt>
      <trkpt lat="45.36785" lon="5.72818">
        <ele>1204.19</ele>
        <time>2017-08-11T09:40:23Z</time>
      </trkpt>
      <trkpt lat="45.36775" lon="5.72817">
        <ele>1206.59</ele>
        <time>2017-08-11T09:40:37Z</time>
      </trkpt>
      <trkpt lat="45.36772" lon="5.72817">
        <ele>1207.07</ele>
        <time>2017-08-11T09:40:40Z</time>
      </trkpt>
      <trkpt lat="45.36767" lon="5.7282">
        <ele>1210.44</ele>
        <time>2017-08-11T09:40:52Z</time>
      </trkpt>
      <trkpt lat="45.36767" lon="5.72827">
        <ele>1212.84</ele>
        <time>2017-08-11T09:41:02Z</time>
      </trkpt>
      <trkpt lat="45.36766" lon="5.7283">
        <ele>1219.57</ele>
        <time>2017-08-11T09:41:17Z</time>
      </trkpt>
      <trkpt lat="45.36765" lon="5.72835">
        <ele>1225.82</ele>
        <time>2017-08-11T09:41:31Z</time>
      </trkpt>
      <trkpt lat="45.36764" lon="5.72842">
        <ele>1233.51</ele>
        <time>2017-08-11T09:41:48Z</time>
      </trkpt>
      <trkpt lat="45.36763" lon="5.72848">
        <ele>1241.2</ele>
        <time>2017-08-11T09:42:04Z</time>
      </trkpt>
      <trkpt lat="45.36762" lon="5.72849">
        <ele>1242.16</ele>
        <time>2017-08-11T09:42:14Z</time>
      </trkpt>
      <trkpt lat="45.36761" lon="5.7285">
        <ele>1243.6</ele>
        <time>2017-08-11T09:42:21Z</time>
      </trkpt>
      <trkpt lat="45.3676" lon="5.72851">
        <ele>1245.04</ele>
        <time>2017-08-11T09:42:30Z</time>
      </trkpt>
      <trkpt lat="45.36759" lon="5.72852">
        <ele>1246.01</ele>
        <time>2017-08-11T09:42:38Z</time>
      </trkpt>
      <trkpt lat="45.36756" lon="5.72857">
        <ele>1246.01</ele>
        <time>2017-08-11T09:42:45Z</time>
      </trkpt>
      <trkpt lat="45.36753" lon="5.72865">
        <ele>1246.49</ele>
        <time>2017-08-11T09:42:54Z</time>
      </trkpt>
      <trkpt lat="45.36751" lon="5.72874">
        <ele>1248.89</ele>
        <time>2017-08-11T09:43:04Z</time>
      </trkpt>
      <trkpt lat="45.36746" lon="5.72884">
        <ele>1250.81</ele>
        <time>2017-08-11T09:43:11Z</time>
      </trkpt>
      <trkpt lat="45.36743" lon="5.72894">
        <ele>1253.22</ele>
        <time>2017-08-11T09:43:18Z</time>
      </trkpt>
      <trkpt lat="45.36741" lon="5.72901">
        <ele>1254.66</ele>
        <time>2017-08-11T09:43:24Z</time>
      </trkpt>
      <trkpt lat="45.36736" lon="5.7291">
        <ele>1254.66</ele>
        <time>2017-08-11T09:43:33Z</time>
      </trkpt>
      <trkpt lat="45.36731" lon="5.72925">
        <ele>1256.1</ele>
        <time>2017-08-11T09:43:40Z</time>
      </trkpt>
      <trkpt lat="45.36727" lon="5.72938">
        <ele>1257.54</ele>
        <time>2017-08-11T09:43:46Z</time>
      </trkpt>
      <trkpt lat="45.3672" lon="5.72954">
        <ele>1258.98</ele>
        <time>2017-08-11T09:43:54Z</time>
      </trkpt>
      <trkpt lat="45.36719" lon="5.72974">
        <ele>1263.79</ele>
        <time>2017-08-11T09:44:02Z</time>
      </trkpt>
      <trkpt lat="45.36716" lon="5.72979">
        <ele>1267.16</ele>
        <time>2017-08-11T09:44:05Z</time>
      </trkpt>
      <trkpt lat="45.36711" lon="5.72983">
        <ele>1269.56</ele>
        <time>2017-08-11T09:44:09Z</time>
      </trkpt>
      <trkpt lat="45.36704" lon="5.72994">
        <ele>1274.36</ele>
        <time>2017-08-11T09:44:17Z</time>
      </trkpt>
      <trkpt lat="45.36702" lon="5.72995">
        <ele>1275.33</ele>
        <time>2017-08-11T09:44:18Z</time>
      </trkpt>
      <trkpt lat="45.36693" lon="5.73008">
        <ele>1281.09</ele>
        <time>2017-08-11T09:44:27Z</time>
      </trkpt>
      <trkpt lat="45.36684" lon="5.73018">
        <ele>1286.86</ele>
        <time>2017-08-11T09:44:34Z</time>
      </trkpt>
      <trkpt lat="45.36681" lon="5.73019">
        <ele>1287.34</ele>
        <time>2017-08-11T09:44:36Z</time>
      </trkpt>
      <trkpt lat="45.36673" lon="5.73017">
        <ele>1289.27</ele>
        <time>2017-08-11T09:44:44Z</time>
      </trkpt>
      <trkpt lat="45.36664" lon="5.73012">
        <ele>1289.27</ele>
        <time>2017-08-11T09:44:51Z</time>
      </trkpt>
      <trkpt lat="45.36657" lon="5.73008">
        <ele>1289.75</ele>
        <time>2017-08-11T09:44:58Z</time>
      </trkpt>
      <trkpt lat="45.36652" lon="5.73005">
        <ele>1290.71</ele>
        <time>2017-08-11T09:45:05Z</time>
      </trkpt>
      <trkpt lat="45.36646" lon="5.73">
        <ele>1290.23</ele>
        <time>2017-08-11T09:45:12Z</time>
      </trkpt>
      <trkpt lat="45.36639" lon="5.72995">
        <ele>1289.27</ele>
        <time>2017-08-11T09:45:21Z</time>
      </trkpt>
      <trkpt lat="45.36635" lon="5.72995">
        <ele>1288.78</ele>
        <time>2017-08-11T09:45:24Z</time>
      </trkpt>
      <trkpt lat="45.36628" lon="5.72988">
        <ele>1289.27</ele>
        <time>2017-08-11T09:45:31Z</time>
      </trkpt>
      <trkpt lat="45.36625" lon="5.72982">
        <ele>1291.19</ele>
        <time>2017-08-11T09:45:38Z</time>
      </trkpt>
      <trkpt lat="45.3662" lon="5.72977">
        <ele>1291.67</ele>
        <time>2017-08-11T09:45:45Z</time>
      </trkpt>
      <trkpt lat="45.36618" lon="5.72973">
        <ele>1292.15</ele>
        <time>2017-08-11T09:45:48Z</time>
      </trkpt>
      <trkpt lat="45.36615" lon="5.72966">
        <ele>1293.11</ele>
        <time>2017-08-11T09:45:53Z</time>
      </trkpt>
      <trkpt lat="45.36611" lon="5.72953">
        <ele>1292.15</ele>
        <time>2017-08-11T09:46:01Z</time>
      </trkpt>
      <trkpt lat="45.36607" lon="5.72941">
        <ele>1292.15</ele>
        <time>2017-08-11T09:46:08Z</time>
      </trkpt>
      <trkpt lat="45.36605" lon="5.72933">
        <ele>1291.67</ele>
        <time>2017-08-11T09:46:14Z</time>
      </trkpt>
      <trkpt lat="45.366" lon="5.72923">
        <ele>1295.51</ele>
        <time>2017-08-11T09:46:22Z</time>
      </trkpt>
      <trkpt lat="45.36595" lon="5.72915">
        <ele>1298.88</ele>
        <time>2017-08-11T09:46:29Z</time>
      </trkpt>
      <trkpt lat="45.36591" lon="5.72909">
        <ele>1301.28</ele>
        <time>2017-08-11T09:46:37Z</time>
      </trkpt>
      <trkpt lat="45.36586" lon="5.72903">
        <ele>1300.8</ele>
        <time>2017-08-11T09:46:46Z</time>
      </trkpt>
      <trkpt lat="45.36581" lon="5.72904">
        <ele>1300.32</ele>
        <time>2017-08-11T09:46:57Z</time>
      </trkpt>
      <trkpt lat="45.36573" lon="5.72903">
        <ele>1302.24</ele>
        <time>2017-08-11T09:47:04Z</time>
      </trkpt>
      <trkpt lat="45.36563" lon="5.72896">
        <ele>1304.17</ele>
        <time>2017-08-11T09:47:12Z</time>
      </trkpt>
      <trkpt lat="45.36555" lon="5.72892">
        <ele>1306.09</ele>
        <time>2017-08-11T09:47:20Z</time>
      </trkpt>
      <trkpt lat="45.36554" lon="5.72891">
        <ele>1306.57</ele>
        <time>2017-08-11T09:47:22Z</time>
      </trkpt>
      <trkpt lat="45.36548" lon="5.72888">
        <ele>1308.49</ele>
        <time>2017-08-11T09:47:28Z</time>
      </trkpt>
      <trkpt lat="45.36543" lon="5.72882">
        <ele>1309.93</ele>
        <time>2017-08-11T09:47:35Z</time>
      </trkpt>
      <trkpt lat="45.36539" lon="5.72875">
        <ele>1309.93</ele>
        <time>2017-08-11T09:47:41Z</time>
      </trkpt>
      <trkpt lat="45.36538" lon="5.7287">
        <ele>1309.93</ele>
        <time>2017-08-11T09:47:44Z</time>
      </trkpt>
      <trkpt lat="45.36536" lon="5.72865">
        <ele>1309.45</ele>
        <time>2017-08-11T09:47:47Z</time>
      </trkpt>
      <trkpt lat="45.36534" lon="5.72861">
        <ele>1308.97</ele>
        <time>2017-08-11T09:47:50Z</time>
      </trkpt>
      <trkpt lat="45.36529" lon="5.7285">
        <ele>1306.57</ele>
        <time>2017-08-11T09:47:57Z</time>
      </trkpt>
      <trkpt lat="45.36527" lon="5.72847">
        <ele>1304.65</ele>
        <time>2017-08-11T09:48:00Z</time>
      </trkpt>
      <trkpt lat="45.36522" lon="5.72837">
        <ele>1306.57</ele>
        <time>2017-08-11T09:48:07Z</time>
      </trkpt>
      <trkpt lat="45.36521" lon="5.72835">
        <ele>1307.05</ele>
        <time>2017-08-11T09:48:08Z</time>
      </trkpt>
      <trkpt lat="45.36516" lon="5.72824">
        <ele>1309.45</ele>
        <time>2017-08-11T09:48:15Z</time>
      </trkpt>
      <trkpt lat="45.36514" lon="5.72815">
        <ele>1311.86</ele>
        <time>2017-08-11T09:48:21Z</time>
      </trkpt>
      <trkpt lat="45.3651" lon="5.72802">
        <ele>1315.7</ele>
        <time>2017-08-11T09:48:29Z</time>
      </trkpt>
      <trkpt lat="45.3651" lon="5.72801">
        <ele>1316.18</ele>
        <time>2017-08-11T09:48:31Z</time>
      </trkpt>
      <trkpt lat="45.36512" lon="5.72817">
        <ele>1317.62</ele>
        <time>2017-08-11T09:48:41Z</time>
      </trkpt>
      <trkpt lat="45.36513" lon="5.72819">
        <ele>1319.55</ele>
        <time>2017-08-11T09:48:45Z</time>
      </trkpt>
      <trkpt lat="45.36508" lon="5.72816">
        <ele>1321.95</ele>
        <time>2017-08-11T09:48:50Z</time>
      </trkpt>
      <trkpt lat="45.36498" lon="5.72809">
        <ele>1321.95</ele>
        <time>2017-08-11T09:49:00Z</time>
      </trkpt>
      <trkpt lat="45.36491" lon="5.72805">
        <ele>1323.87</ele>
        <time>2017-08-11T09:49:08Z</time>
      </trkpt>
      <trkpt lat="45.36484" lon="5.72801">
        <ele>1324.35</ele>
        <time>2017-08-11T09:49:16Z</time>
      </trkpt>
      <trkpt lat="45.36476" lon="5.72796">
        <ele>1325.31</ele>
        <time>2017-08-11T09:49:23Z</time>
      </trkpt>
      <trkpt lat="45.36468" lon="5.7279">
        <ele>1325.31</ele>
        <time>2017-08-11T09:49:30Z</time>
      </trkpt>
      <trkpt lat="45.3646" lon="5.72784">
        <ele>1325.8</ele>
        <time>2017-08-11T09:49:38Z</time>
      </trkpt>
      <trkpt lat="45.36454" lon="5.72782">
        <ele>1325.8</ele>
        <time>2017-08-11T09:49:45Z</time>
      </trkpt>
      <trkpt lat="45.36448" lon="5.72781">
        <ele>1325.31</ele>
        <time>2017-08-11T09:49:53Z</time>
      </trkpt>
      <trkpt lat="45.36437" lon="5.72775">
        <ele>1328.2</ele>
        <time>2017-08-11T09:50:03Z</time>
      </trkpt>
      <trkpt lat="45.36427" lon="5.72772">
        <ele>1331.56</ele>
        <time>2017-08-11T09:50:12Z</time>
      </trkpt>
      <trkpt lat="45.36421" lon="5.72769">
        <ele>1332.52</ele>
        <time>2017-08-11T09:50:19Z</time>
      </trkpt>
      <trkpt lat="45.36415" lon="5.72767">
        <ele>1332.52</ele>
        <time>2017-08-11T09:50:26Z</time>
      </trkpt>
      <trkpt lat="45.36404" lon="5.7276">
        <ele>1333.49</ele>
        <time>2017-08-11T09:50:36Z</time>
      </trkpt>
      <trkpt lat="45.36396" lon="5.72751">
        <ele>1333.01</ele>
        <time>2017-08-11T09:50:44Z</time>
      </trkpt>
      <trkpt lat="45.36388" lon="5.72746">
        <ele>1330.6</ele>
        <time>2017-08-11T09:50:51Z</time>
      </trkpt>
      <trkpt lat="45.36376" lon="5.7274">
        <ele>1329.16</ele>
        <time>2017-08-11T09:50:59Z</time>
      </trkpt>
      <trkpt lat="45.36374" lon="5.72737">
        <ele>1329.16</ele>
        <time>2017-08-11T09:51:03Z</time>
      </trkpt>
      <trkpt lat="45.36367" lon="5.72726">
        <ele>1330.12</ele>
        <time>2017-08-11T09:51:11Z</time>
      </trkpt>
      <trkpt lat="45.36363" lon="5.72716">
        <ele>1333.01</ele>
        <time>2017-08-11T09:51:18Z</time>
      </trkpt>
      <trkpt lat="45.36361" lon="5.7271">
        <ele>1333.49</ele>
        <time>2017-08-11T09:51:21Z</time>
      </trkpt>
      <trkpt lat="45.36355" lon="5.72701">
        <ele>1332.52</ele>
        <time>2017-08-11T09:51:29Z</time>
      </trkpt>
      <trkpt lat="45.3635" lon="5.72694">
        <ele>1332.04</ele>
        <time>2017-08-11T09:51:36Z</time>
      </trkpt>
      <trkpt lat="45.36344" lon="5.72691">
        <ele>1331.08</ele>
        <time>2017-08-11T09:51:44Z</time>
      </trkpt>
      <trkpt lat="45.3634" lon="5.7269">
        <ele>1330.6</ele>
        <time>2017-08-11T09:51:51Z</time>
      </trkpt>
      <trkpt lat="45.36332" lon="5.72686">
        <ele>1332.52</ele>
        <time>2017-08-11T09:52:00Z</time>
      </trkpt>
      <trkpt lat="45.36329" lon="5.72682">
        <ele>1334.93</ele>
        <time>2017-08-11T09:52:08Z</time>
      </trkpt>
      <trkpt lat="45.36325" lon="5.72679">
        <ele>1336.85</ele>
        <time>2017-08-11T09:52:16Z</time>
      </trkpt>
      <trkpt lat="45.36323" lon="5.72679">
        <ele>1337.81</ele>
        <time>2017-08-11T09:52:22Z</time>
      </trkpt>
      <trkpt lat="45.36319" lon="5.72677">
        <ele>1339.73</ele>
        <time>2017-08-11T09:52:30Z</time>
      </trkpt>
      <trkpt lat="45.36314" lon="5.72675">
        <ele>1342.14</ele>
        <time>2017-08-11T09:52:40Z</time>
      </trkpt>
      <trkpt lat="45.36308" lon="5.7267">
        <ele>1342.14</ele>
        <time>2017-08-11T09:52:48Z</time>
      </trkpt>
      <trkpt lat="45.36306" lon="5.72669">
        <ele>1342.14</ele>
        <time>2017-08-11T09:52:49Z</time>
      </trkpt>
      <trkpt lat="45.36299" lon="5.72664">
        <ele>1341.66</ele>
        <time>2017-08-11T09:52:57Z</time>
      </trkpt>
      <trkpt lat="45.36292" lon="5.72663">
        <ele>1344.06</ele>
        <time>2017-08-11T09:53:04Z</time>
      </trkpt>
      <trkpt lat="45.36285" lon="5.72661">
        <ele>1345.02</ele>
        <time>2017-08-11T09:53:11Z</time>
      </trkpt>
      <trkpt lat="45.36277" lon="5.7266">
        <ele>1345.02</ele>
        <time>2017-08-11T09:53:19Z</time>
      </trkpt>
      <trkpt lat="45.36271" lon="5.72657">
        <ele>1347.91</ele>
        <time>2017-08-11T09:53:26Z</time>
      </trkpt>
      <trkpt lat="45.36263" lon="5.72655">
        <ele>1348.87</ele>
        <time>2017-08-11T09:53:31Z</time>
      </trkpt>
      <trkpt lat="45.36256" lon="5.72651">
        <ele>1349.35</ele>
        <time>2017-08-11T09:53:38Z</time>
      </trkpt>
      <trkpt lat="45.36247" lon="5.7265">
        <ele>1347.91</ele>
        <time>2017-08-11T09:53:46Z</time>
      </trkpt>
      <trkpt lat="45.36238" lon="5.72646">
        <ele>1349.35</ele>
        <time>2017-08-11T09:53:55Z</time>
      </trkpt>
      <trkpt lat="45.36229" lon="5.72643">
        <ele>1351.27</ele>
        <time>2017-08-11T09:54:03Z</time>
      </trkpt>
      <trkpt lat="45.3622" lon="5.72637">
        <ele>1354.63</ele>
        <time>2017-08-11T09:54:12Z</time>
      </trkpt>
      <trkpt lat="45.36218" lon="5.72637">
        <ele>1354.63</ele>
        <time>2017-08-11T09:54:13Z</time>
      </trkpt>
      <trkpt lat="45.36204" lon="5.7263">
        <ele>1355.12</ele>
        <time>2017-08-11T09:54:19Z</time>
      </trkpt>
      <trkpt lat="45.36193" lon="5.72623">
        <ele>1353.19</ele>
        <time>2017-08-11T09:54:25Z</time>
      </trkpt>
      <trkpt lat="45.36182" lon="5.72616">
        <ele>1350.31</ele>
        <time>2017-08-11T09:54:31Z</time>
      </trkpt>
      <trkpt lat="45.36181" lon="5.72615">
        <ele>1349.83</ele>
        <time>2017-08-11T09:54:32Z</time>
      </trkpt>
      <trkpt lat="45.36171" lon="5.72608">
        <ele>1345.98</ele>
        <time>2017-08-11T09:54:39Z</time>
      </trkpt>
      <trkpt lat="45.36157" lon="5.72602">
        <ele>1341.18</ele>
        <time>2017-08-11T09:54:47Z</time>
      </trkpt>
      <trkpt lat="45.36147" lon="5.726">
        <ele>1337.33</ele>
        <time>2017-08-11T09:54:54Z</time>
      </trkpt>
      <trkpt lat="45.36137" lon="5.72594">
        <ele>1338.29</ele>
        <time>2017-08-11T09:55:00Z</time>
      </trkpt>
      <trkpt lat="45.36118" lon="5.72584">
        <ele>1344.06</ele>
        <time>2017-08-11T09:55:10Z</time>
      </trkpt>
      <trkpt lat="45.36111" lon="5.72572">
        <ele>1352.23</ele>
        <time>2017-08-11T09:55:17Z</time>
      </trkpt>
      <trkpt lat="45.36108" lon="5.72565">
        <ele>1357.04</ele>
        <time>2017-08-11T09:55:31Z</time>
      </trkpt>
      <trkpt lat="45.36108" lon="5.72564">
        <ele>1359.92</ele>
        <time>2017-08-11T09:55:54Z</time>
      </trkpt>
      <trkpt lat="45.36107" lon="5.72564">
        <ele>1361.36</ele>
        <time>2017-08-11T09:56:01Z</time>
      </trkpt>
      <trkpt lat="45.36107" lon="5.72565">
        <ele>1362.33</ele>
        <time>2017-08-11T09:56:14Z</time>
      </trkpt>
      <trkpt lat="45.36106" lon="5.72564">
        <ele>1362.81</ele>
        <time>2017-08-11T09:56:22Z</time>
      </trkpt>
      <trkpt lat="45.36101" lon="5.72561">
        <ele>1361.84</ele>
        <time>2017-08-11T09:56:30Z</time>
      </trkpt>
      <trkpt lat="45.36092" lon="5.72556">
        <ele>1362.33</ele>
        <time>2017-08-11T09:56:38Z</time>
      </trkpt>
      <trkpt lat="45.36086" lon="5.7255">
        <ele>1362.81</ele>
        <time>2017-08-11T09:56:45Z</time>
      </trkpt>
      <trkpt lat="45.36084" lon="5.72547">
        <ele>1362.81</ele>
        <time>2017-08-11T09:57:01Z</time>
      </trkpt>
      <trkpt lat="45.36077" lon="5.72544">
        <ele>1363.77</ele>
        <time>2017-08-11T09:57:10Z</time>
      </trkpt>
      <trkpt lat="45.36071" lon="5.72542">
        <ele>1365.69</ele>
        <time>2017-08-11T09:57:18Z</time>
      </trkpt>
      <trkpt lat="45.36066" lon="5.72537">
        <ele>1364.25</ele>
        <time>2017-08-11T09:57:25Z</time>
      </trkpt>
      <trkpt lat="45.36061" lon="5.7253">
        <ele>1364.73</ele>
        <time>2017-08-11T09:57:32Z</time>
      </trkpt>
      <trkpt lat="45.36055" lon="5.7252">
        <ele>1366.17</ele>
        <time>2017-08-11T09:57:39Z</time>
      </trkpt>
      <trkpt lat="45.36052" lon="5.72515">
        <ele>1368.09</ele>
        <time>2017-08-11T09:57:46Z</time>
      </trkpt>
      <trkpt lat="45.36046" lon="5.72507">
        <ele>1370.02</ele>
        <time>2017-08-11T09:57:54Z</time>
      </trkpt>
      <trkpt lat="45.36041" lon="5.72503">
        <ele>1370.98</ele>
        <time>2017-08-11T09:58:00Z</time>
      </trkpt>
      <trkpt lat="45.36036" lon="5.72497">
        <ele>1374.82</ele>
        <time>2017-08-11T09:58:08Z</time>
      </trkpt>
      <trkpt lat="45.3603" lon="5.72488">
        <ele>1376.75</ele>
        <time>2017-08-11T09:58:17Z</time>
      </trkpt>
      <trkpt lat="45.36025" lon="5.72481">
        <ele>1379.15</ele>
        <time>2017-08-11T09:58:26Z</time>
      </trkpt>
      <trkpt lat="45.3602" lon="5.72477">
        <ele>1381.07</ele>
        <time>2017-08-11T09:58:34Z</time>
      </trkpt>
      <trkpt lat="45.36016" lon="5.72476">
        <ele>1381.55</ele>
        <time>2017-08-11T09:58:40Z</time>
      </trkpt>
      <trkpt lat="45.36014" lon="5.72475">
        <ele>1382.03</ele>
        <time>2017-08-11T09:58:42Z</time>
      </trkpt>
      <trkpt lat="45.36009" lon="5.72471">
        <ele>1383.47</ele>
        <time>2017-08-11T09:58:49Z</time>
      </trkpt>
      <trkpt lat="45.36008" lon="5.7247">
        <ele>1383.47</ele>
        <time>2017-08-11T09:58:50Z</time>
      </trkpt>
      <trkpt lat="45.36" lon="5.72464">
        <ele>1386.84</ele>
        <time>2017-08-11T09:58:58Z</time>
      </trkpt>
      <trkpt lat="45.35997" lon="5.7246">
        <ele>1388.28</ele>
        <time>2017-08-11T09:59:07Z</time>
      </trkpt>
      <trkpt lat="45.35993" lon="5.72458">
        <ele>1389.24</ele>
        <time>2017-08-11T09:59:14Z</time>
      </trkpt>
      <trkpt lat="45.35989" lon="5.72452">
        <ele>1390.2</ele>
        <time>2017-08-11T09:59:20Z</time>
      </trkpt>
      <trkpt lat="45.35985" lon="5.72449">
        <ele>1390.2</ele>
        <time>2017-08-11T09:59:28Z</time>
      </trkpt>
      <trkpt lat="45.35983" lon="5.72448">
        <ele>1391.17</ele>
        <time>2017-08-11T09:59:35Z</time>
      </trkpt>
      <trkpt lat="45.35979" lon="5.72444">
        <ele>1394.05</ele>
        <time>2017-08-11T09:59:43Z</time>
      </trkpt>
      <trkpt lat="45.35974" lon="5.7244">
        <ele>1395.49</ele>
        <time>2017-08-11T09:59:49Z</time>
      </trkpt>
      <trkpt lat="45.35968" lon="5.72434">
        <ele>1397.41</ele>
        <time>2017-08-11T09:59:56Z</time>
      </trkpt>
      <trkpt lat="45.35963" lon="5.7243">
        <ele>1397.89</ele>
        <time>2017-08-11T10:00:02Z</time>
      </trkpt>
      <trkpt lat="45.35957" lon="5.72425">
        <ele>1398.86</ele>
        <time>2017-08-11T10:00:09Z</time>
      </trkpt>
      <trkpt lat="45.35952" lon="5.7242">
        <ele>1399.34</ele>
        <time>2017-08-11T10:00:16Z</time>
      </trkpt>
      <trkpt lat="45.35947" lon="5.72412">
        <ele>1400.3</ele>
        <time>2017-08-11T10:00:23Z</time>
      </trkpt>
      <trkpt lat="45.3594" lon="5.72404">
        <ele>1401.74</ele>
        <time>2017-08-11T10:00:31Z</time>
      </trkpt>
      <trkpt lat="45.35934" lon="5.72396">
        <ele>1402.7</ele>
        <time>2017-08-11T10:00:39Z</time>
      </trkpt>
      <trkpt lat="45.35927" lon="5.7239">
        <ele>1403.18</ele>
        <time>2017-08-11T10:00:46Z</time>
      </trkpt>
      <trkpt lat="45.35925" lon="5.72388">
        <ele>1403.18</ele>
        <time>2017-08-11T10:00:49Z</time>
      </trkpt>
      <trkpt lat="45.35916" lon="5.72383">
        <ele>1404.14</ele>
        <time>2017-08-11T10:00:57Z</time>
      </trkpt>
      <trkpt lat="45.35909" lon="5.72375">
        <ele>1406.07</ele>
        <time>2017-08-11T10:01:06Z</time>
      </trkpt>
      <trkpt lat="45.35907" lon="5.72372">
        <ele>1406.07</ele>
        <time>2017-08-11T10:01:09Z</time>
      </trkpt>
      <trkpt lat="45.35901" lon="5.72368">
        <ele>1406.55</ele>
        <time>2017-08-11T10:01:17Z</time>
      </trkpt>
      <trkpt lat="45.35899" lon="5.72365">
        <ele>1407.03</ele>
        <time>2017-08-11T10:01:25Z</time>
      </trkpt>
      <trkpt lat="45.35897" lon="5.72365">
        <ele>1405.58</ele>
        <time>2017-08-11T10:01:28Z</time>
      </trkpt>
      <trkpt lat="45.35899" lon="5.72367">
        <ele>1405.1</ele>
        <time>2017-08-11T10:01:35Z</time>
      </trkpt>
      <trkpt lat="45.35899" lon="5.72367">
        <ele>1405.1</ele>
        <time>2017-08-11T10:01:37Z</time>
      </trkpt>
      <trkpt lat="45.35896" lon="5.72368">
        <ele>1405.1</ele>
        <time>2017-08-11T10:01:43Z</time>
      </trkpt>
      <trkpt lat="45.3589" lon="5.72366">
        <ele>1406.07</ele>
        <time>2017-08-11T10:01:50Z</time>
      </trkpt>
      <trkpt lat="45.35889" lon="5.72364">
        <ele>1407.51</ele>
        <time>2017-08-11T10:01:57Z</time>
      </trkpt>
      <trkpt lat="45.35887" lon="5.72363">
        <ele>1408.47</ele>
        <time>2017-08-11T10:02:05Z</time>
      </trkpt>
      <trkpt lat="45.35886" lon="5.72362">
        <ele>1408.95</ele>
        <time>2017-08-11T10:02:07Z</time>
      </trkpt>
      <trkpt lat="45.35883" lon="5.72362">
        <ele>1410.39</ele>
        <time>2017-08-11T10:02:13Z</time>
      </trkpt>
      <trkpt lat="45.3588" lon="5.72362">
        <ele>1410.87</ele>
        <time>2017-08-11T10:02:19Z</time>
      </trkpt>
      <trkpt lat="45.35876" lon="5.7236">
        <ele>1413.28</ele>
        <time>2017-08-11T10:02:26Z</time>
      </trkpt>
      <trkpt lat="45.3587" lon="5.72357">
        <ele>1415.68</ele>
        <time>2017-08-11T10:02:35Z</time>
      </trkpt>
      <trkpt lat="45.35869" lon="5.72356">
        <ele>1415.68</ele>
        <time>2017-08-11T10:02:36Z</time>
      </trkpt>
      <trkpt lat="45.35861" lon="5.72345">
        <ele>1415.68</ele>
        <time>2017-08-11T10:02:43Z</time>
      </trkpt>
      <trkpt lat="45.35856" lon="5.72336">
        <ele>1417.6</ele>
        <time>2017-08-11T10:02:51Z</time>
      </trkpt>
      <trkpt lat="45.35853" lon="5.72327">
        <ele>1418.08</ele>
        <time>2017-08-11T10:02:57Z</time>
      </trkpt>
      <trkpt lat="45.35848" lon="5.72322">
        <ele>1418.08</ele>
        <time>2017-08-11T10:03:03Z</time>
      </trkpt>
      <trkpt lat="45.35844" lon="5.72318">
        <ele>1419.04</ele>
        <time>2017-08-11T10:03:08Z</time>
      </trkpt>
      <trkpt lat="45.35839" lon="5.72317">
        <ele>1418.56</ele>
        <time>2017-08-11T10:03:15Z</time>
      </trkpt>
      <trkpt lat="45.35836" lon="5.72318">
        <ele>1418.56</ele>
        <time>2017-08-11T10:03:21Z</time>
      </trkpt>
      <trkpt lat="45.35828" lon="5.72313">
        <ele>1417.6</ele>
        <time>2017-08-11T10:03:29Z</time>
      </trkpt>
      <trkpt lat="45.35823" lon="5.72311">
        <ele>1417.6</ele>
        <time>2017-08-11T10:03:35Z</time>
      </trkpt>
      <trkpt lat="45.35819" lon="5.72306">
        <ele>1419.52</ele>
        <time>2017-08-11T10:03:43Z</time>
      </trkpt>
      <trkpt lat="45.35817" lon="5.72304">
        <ele>1420.49</ele>
        <time>2017-08-11T10:03:50Z</time>
      </trkpt>
      <trkpt lat="45.35812" lon="5.72301">
        <ele>1421.45</ele>
        <time>2017-08-11T10:03:57Z</time>
      </trkpt>
      <trkpt lat="45.35807" lon="5.72296">
        <ele>1423.85</ele>
        <time>2017-08-11T10:04:04Z</time>
      </trkpt>
      <trkpt lat="45.35803" lon="5.72292">
        <ele>1425.29</ele>
        <time>2017-08-11T10:04:11Z</time>
      </trkpt>
      <trkpt lat="45.35796" lon="5.7229">
        <ele>1425.77</ele>
        <time>2017-08-11T10:04:19Z</time>
      </trkpt>
      <trkpt lat="45.35792" lon="5.72292">
        <ele>1425.29</ele>
        <time>2017-08-11T10:04:26Z</time>
      </trkpt>
      <trkpt lat="45.35786" lon="5.72288">
        <ele>1423.85</ele>
        <time>2017-08-11T10:04:33Z</time>
      </trkpt>
      <trkpt lat="45.3578" lon="5.72286">
        <ele>1424.33</ele>
        <time>2017-08-11T10:04:41Z</time>
      </trkpt>
      <trkpt lat="45.35777" lon="5.72283">
        <ele>1425.77</ele>
        <time>2017-08-11T10:04:49Z</time>
      </trkpt>
      <trkpt lat="45.35773" lon="5.7228">
        <ele>1427.7</ele>
        <time>2017-08-11T10:04:57Z</time>
      </trkpt>
      <trkpt lat="45.35769" lon="5.72279">
        <ele>1428.66</ele>
        <time>2017-08-11T10:05:06Z</time>
      </trkpt>
      <trkpt lat="45.35766" lon="5.72279">
        <ele>1429.62</ele>
        <time>2017-08-11T10:05:13Z</time>
      </trkpt>
      <trkpt lat="45.35765" lon="5.72282">
        <ele>1430.58</ele>
        <time>2017-08-11T10:05:21Z</time>
      </trkpt>
      <trkpt lat="45.35766" lon="5.72286">
        <ele>1431.06</ele>
        <time>2017-08-11T10:05:29Z</time>
      </trkpt>
      <trkpt lat="45.35767" lon="5.72289">
        <ele>1431.06</ele>
        <time>2017-08-11T10:05:36Z</time>
      </trkpt>
      <trkpt lat="45.35771" lon="5.72292">
        <ele>1432.02</ele>
        <time>2017-08-11T10:05:45Z</time>
      </trkpt>
      <trkpt lat="45.35777" lon="5.72292">
        <ele>1439.71</ele>
        <time>2017-08-11T10:05:53Z</time>
      </trkpt>
      <trkpt lat="45.35781" lon="5.72296">
        <ele>1444.52</ele>
        <time>2017-08-11T10:06:01Z</time>
      </trkpt>
      <trkpt lat="45.35786" lon="5.72305">
        <ele>1448.36</ele>
        <time>2017-08-11T10:06:09Z</time>
      </trkpt>
      <trkpt lat="45.35786" lon="5.72309">
        <ele>1450.29</ele>
        <time>2017-08-11T10:06:18Z</time>
      </trkpt>
      <trkpt lat="45.35781" lon="5.72312">
        <ele>1454.13</ele>
        <time>2017-08-11T10:06:25Z</time>
      </trkpt>
      <trkpt lat="45.35775" lon="5.72311">
        <ele>1455.57</ele>
        <time>2017-08-11T10:06:32Z</time>
      </trkpt>
      <trkpt lat="45.35768" lon="5.72308">
        <ele>1456.05</ele>
        <time>2017-08-11T10:06:40Z</time>
      </trkpt>
      <trkpt lat="45.35765" lon="5.72306">
        <ele>1455.57</ele>
        <time>2017-08-11T10:06:47Z</time>
      </trkpt>
      <trkpt lat="45.35762" lon="5.72306">
        <ele>1455.09</ele>
        <time>2017-08-11T10:06:57Z</time>
      </trkpt>
      <trkpt lat="45.35759" lon="5.72305">
        <ele>1454.61</ele>
        <time>2017-08-11T10:07:03Z</time>
      </trkpt>
      <trkpt lat="45.35754" lon="5.72303">
        <ele>1453.17</ele>
        <time>2017-08-11T10:07:10Z</time>
      </trkpt>
      <trkpt lat="45.35746" lon="5.723">
        <ele>1451.73</ele>
        <time>2017-08-11T10:07:16Z</time>
      </trkpt>
      <trkpt lat="45.35743" lon="5.72297">
        <ele>1451.25</ele>
        <time>2017-08-11T10:07:20Z</time>
      </trkpt>
      <trkpt lat="45.35737" lon="5.72296">
        <ele>1450.77</ele>
        <time>2017-08-11T10:07:27Z</time>
      </trkpt>
      <trkpt lat="45.3573" lon="5.72289">
        <ele>1454.61</ele>
        <time>2017-08-11T10:07:34Z</time>
      </trkpt>
      <trkpt lat="45.35723" lon="5.72283">
        <ele>1457.5</ele>
        <time>2017-08-11T10:07:42Z</time>
      </trkpt>
      <trkpt lat="45.35718" lon="5.72281">
        <ele>1457.98</ele>
        <time>2017-08-11T10:07:48Z</time>
      </trkpt>
      <trkpt lat="45.35713" lon="5.72278">
        <ele>1458.94</ele>
        <time>2017-08-11T10:07:56Z</time>
      </trkpt>
      <trkpt lat="45.35706" lon="5.72272">
        <ele>1461.34</ele>
        <time>2017-08-11T10:08:04Z</time>
      </trkpt>
      <trkpt lat="45.35704" lon="5.72271">
        <ele>1463.26</ele>
        <time>2017-08-11T10:08:11Z</time>
      </trkpt>
      <trkpt lat="45.35703" lon="5.72276">
        <ele>1463.26</ele>
        <time>2017-08-11T10:08:18Z</time>
      </trkpt>
      <trkpt lat="45.35705" lon="5.72279">
        <ele>1464.71</ele>
        <time>2017-08-11T10:08:28Z</time>
      </trkpt>
      <trkpt lat="45.35704" lon="5.72283">
        <ele>1462.78</ele>
        <time>2017-08-11T10:08:43Z</time>
      </trkpt>
      <trkpt lat="45.35705" lon="5.72284">
        <ele>1461.82</ele>
        <time>2017-08-11T10:08:54Z</time>
      </trkpt>
      <trkpt lat="45.35707" lon="5.72286">
        <ele>1461.34</ele>
        <time>2017-08-11T10:09:00Z</time>
      </trkpt>
      <trkpt lat="45.3571" lon="5.7229">
        <ele>1460.86</ele>
        <time>2017-08-11T10:09:07Z</time>
      </trkpt>
      <trkpt lat="45.35712" lon="5.72296">
        <ele>1460.86</ele>
        <time>2017-08-11T10:09:14Z</time>
      </trkpt>
      <trkpt lat="45.35717" lon="5.723">
        <ele>1460.38</ele>
        <time>2017-08-11T10:09:22Z</time>
      </trkpt>
      <trkpt lat="45.35721" lon="5.72301">
        <ele>1462.3</ele>
        <time>2017-08-11T10:09:28Z</time>
      </trkpt>
      <trkpt lat="45.35731" lon="5.72307">
        <ele>1466.15</ele>
        <time>2017-08-11T10:09:36Z</time>
      </trkpt>
      <trkpt lat="45.35736" lon="5.72311">
        <ele>1467.59</ele>
        <time>2017-08-11T10:09:46Z</time>
      </trkpt>
      <trkpt lat="45.3574" lon="5.72318">
        <ele>1469.03</ele>
        <time>2017-08-11T10:09:55Z</time>
      </trkpt>
      <trkpt lat="45.35743" lon="5.72323">
        <ele>1470.47</ele>
        <time>2017-08-11T10:10:02Z</time>
      </trkpt>
      <trkpt lat="45.35743" lon="5.72325">
        <ele>1471.92</ele>
        <time>2017-08-11T10:10:09Z</time>
      </trkpt>
      <trkpt lat="45.35743" lon="5.72328">
        <ele>1473.36</ele>
        <time>2017-08-11T10:10:22Z</time>
      </trkpt>
      <trkpt lat="45.35745" lon="5.72329">
        <ele>1474.8</ele>
        <time>2017-08-11T10:10:28Z</time>
      </trkpt>
      <trkpt lat="45.35754" lon="5.72332">
        <ele>1474.32</ele>
        <time>2017-08-11T10:10:36Z</time>
      </trkpt>
      <trkpt lat="45.3576" lon="5.72334">
        <ele>1470.95</ele>
        <time>2017-08-11T10:10:42Z</time>
      </trkpt>
      <trkpt lat="45.35767" lon="5.72338">
        <ele>1469.03</ele>
        <time>2017-08-11T10:10:50Z</time>
      </trkpt>
      <trkpt lat="45.35771" lon="5.72343">
        <ele>1468.55</ele>
        <time>2017-08-11T10:10:58Z</time>
      </trkpt>
      <trkpt lat="45.35775" lon="5.7235">
        <ele>1465.19</ele>
        <time>2017-08-11T10:11:05Z</time>
      </trkpt>
      <trkpt lat="45.35781" lon="5.72352">
        <ele>1463.26</ele>
        <time>2017-08-11T10:11:13Z</time>
      </trkpt>
      <trkpt lat="45.35788" lon="5.72359">
        <ele>1460.38</ele>
        <time>2017-08-11T10:11:20Z</time>
      </trkpt>
      <trkpt lat="45.35793" lon="5.72363">
        <ele>1462.78</ele>
        <time>2017-08-11T10:11:28Z</time>
      </trkpt>
      <trkpt lat="45.3579" lon="5.7237">
        <ele>1465.19</ele>
        <time>2017-08-11T10:11:38Z</time>
      </trkpt>
      <trkpt lat="45.35792" lon="5.72372">
        <ele>1466.63</ele>
        <time>2017-08-11T10:11:51Z</time>
      </trkpt>
      <trkpt lat="45.35793" lon="5.72374">
        <ele>1467.59</ele>
        <time>2017-08-11T10:12:02Z</time>
      </trkpt>
      <trkpt lat="45.35797" lon="5.72376">
        <ele>1467.11</ele>
        <time>2017-08-11T10:12:09Z</time>
      </trkpt>
      <trkpt lat="45.35801" lon="5.7238">
        <ele>1463.74</ele>
        <time>2017-08-11T10:12:16Z</time>
      </trkpt>
      <trkpt lat="45.35805" lon="5.72379">
        <ele>1465.67</ele>
        <time>2017-08-11T10:12:27Z</time>
      </trkpt>
      <trkpt lat="45.35812" lon="5.72376">
        <ele>1469.03</ele>
        <time>2017-08-11T10:12:35Z</time>
      </trkpt>
      <trkpt lat="45.35814" lon="5.72382">
        <ele>1470.95</ele>
        <time>2017-08-11T10:12:49Z</time>
      </trkpt>
      <trkpt lat="45.35814" lon="5.72384">
        <ele>1472.88</ele>
        <time>2017-08-11T10:12:55Z</time>
      </trkpt>
      <trkpt lat="45.35815" lon="5.72386">
        <ele>1474.8</ele>
        <time>2017-08-11T10:13:07Z</time>
      </trkpt>
      <trkpt lat="45.3581" lon="5.72383">
        <ele>1472.4</ele>
        <time>2017-08-11T10:13:16Z</time>
      </trkpt>
      <trkpt lat="45.35806" lon="5.72381">
        <ele>1469.51</ele>
        <time>2017-08-11T10:13:25Z</time>
      </trkpt>
      <trkpt lat="45.35803" lon="5.72376">
        <ele>1468.55</ele>
        <time>2017-08-11T10:13:33Z</time>
      </trkpt>
      <trkpt lat="45.358" lon="5.72375">
        <ele>1467.11</ele>
        <time>2017-08-11T10:13:40Z</time>
      </trkpt>
      <trkpt lat="45.35799" lon="5.72373">
        <ele>1467.11</ele>
        <time>2017-08-11T10:13:49Z</time>
      </trkpt>
      <trkpt lat="45.35798" lon="5.72372">
        <ele>1467.11</ele>
        <time>2017-08-11T10:13:56Z</time>
      </trkpt>
      <trkpt lat="45.35797" lon="5.72369">
        <ele>1468.07</ele>
        <time>2017-08-11T10:14:05Z</time>
      </trkpt>
      <trkpt lat="45.35796" lon="5.72368">
        <ele>1468.55</ele>
        <time>2017-08-11T10:14:12Z</time>
      </trkpt>
      <trkpt lat="45.35794" lon="5.72367">
        <ele>1468.55</ele>
        <time>2017-08-11T10:14:21Z</time>
      </trkpt>
      <trkpt lat="45.3579" lon="5.72363">
        <ele>1470.95</ele>
        <time>2017-08-11T10:14:32Z</time>
      </trkpt>
      <trkpt lat="45.35788" lon="5.72363">
        <ele>1474.32</ele>
        <time>2017-08-11T10:14:43Z</time>
      </trkpt>
      <trkpt lat="45.35786" lon="5.72359">
        <ele>1474.32</ele>
        <time>2017-08-11T10:14:51Z</time>
      </trkpt>
      <trkpt lat="45.35785" lon="5.72357">
        <ele>1475.28</ele>
        <time>2017-08-11T10:15:02Z</time>
      </trkpt>
      <trkpt lat="45.35783" lon="5.72354">
        <ele>1476.24</ele>
        <time>2017-08-11T10:15:13Z</time>
      </trkpt>
      <trkpt lat="45.35783" lon="5.7235">
        <ele>1474.32</ele>
        <time>2017-08-11T10:15:21Z</time>
      </trkpt>
      <trkpt lat="45.35777" lon="5.72347">
        <ele>1473.84</ele>
        <time>2017-08-11T10:15:30Z</time>
      </trkpt>
      <trkpt lat="45.35775" lon="5.72344">
        <ele>1475.28</ele>
        <time>2017-08-11T10:15:46Z</time>
      </trkpt>
      <trkpt lat="45.35773" lon="5.72344">
        <ele>1475.28</ele>
        <time>2017-08-11T10:16:00Z</time>
      </trkpt>
      <trkpt lat="45.35773" lon="5.72344">
        <ele>1476.24</ele>
        <time>2017-08-11T10:16:13Z</time>
      </trkpt>
      <trkpt lat="45.35773" lon="5.72344">
        <ele>1477.2</ele>
        <time>2017-08-11T10:16:27Z</time>
      </trkpt>
      <trkpt lat="45.35772" lon="5.72342">
        <ele>1478.16</ele>
        <time>2017-08-11T10:16:40Z</time>
      </trkpt>
      <trkpt lat="45.3577" lon="5.7234">
        <ele>1478.65</ele>
        <time>2017-08-11T10:16:47Z</time>
      </trkpt>
      <trkpt lat="45.35766" lon="5.72341">
        <ele>1478.16</ele>
        <time>2017-08-11T10:16:57Z</time>
      </trkpt>
      <trkpt lat="45.35764" lon="5.72341">
        <ele>1478.16</ele>
        <time>2017-08-11T10:17:07Z</time>
      </trkpt>
      <trkpt lat="45.35763" lon="5.72341">
        <ele>1478.65</ele>
        <time>2017-08-11T10:17:19Z</time>
      </trkpt>
      <trkpt lat="45.35761" lon="5.72338">
        <ele>1481.05</ele>
        <time>2017-08-11T10:17:33Z</time>
      </trkpt>
      <trkpt lat="45.35759" lon="5.72337">
        <ele>1481.53</ele>
        <time>2017-08-11T10:17:40Z</time>
      </trkpt>
      <trkpt lat="45.35753" lon="5.72337">
        <ele>1483.45</ele>
        <time>2017-08-11T10:17:46Z</time>
      </trkpt>
      <trkpt lat="45.3575" lon="5.72336">
        <ele>1484.41</ele>
        <time>2017-08-11T10:17:53Z</time>
      </trkpt>
      <trkpt lat="45.35747" lon="5.72332">
        <ele>1485.37</ele>
        <time>2017-08-11T10:18:01Z</time>
      </trkpt>
      <trkpt lat="45.35739" lon="5.7233">
        <ele>1485.85</ele>
        <time>2017-08-11T10:18:09Z</time>
      </trkpt>
      <trkpt lat="45.35732" lon="5.72326">
        <ele>1486.34</ele>
        <time>2017-08-11T10:18:16Z</time>
      </trkpt>
      <trkpt lat="45.35726" lon="5.72324">
        <ele>1485.85</ele>
        <time>2017-08-11T10:18:23Z</time>
      </trkpt>
      <trkpt lat="45.35721" lon="5.72323">
        <ele>1487.3</ele>
        <time>2017-08-11T10:18:30Z</time>
      </trkpt>
      <trkpt lat="45.35714" lon="5.7232">
        <ele>1487.78</ele>
        <time>2017-08-11T10:18:37Z</time>
      </trkpt>
      <trkpt lat="45.35708" lon="5.72316">
        <ele>1491.14</ele>
        <time>2017-08-11T10:18:45Z</time>
      </trkpt>
      <trkpt lat="45.35703" lon="5.72309">
        <ele>1493.06</ele>
        <time>2017-08-11T10:18:51Z</time>
      </trkpt>
      <trkpt lat="45.35698" lon="5.72306">
        <ele>1493.06</ele>
        <time>2017-08-11T10:18:58Z</time>
      </trkpt>
      <trkpt lat="45.3569" lon="5.72301">
        <ele>1494.03</ele>
        <time>2017-08-11T10:19:05Z</time>
      </trkpt>
      <trkpt lat="45.35691" lon="5.72303">
        <ele>1493.55</ele>
        <time>2017-08-11T10:19:15Z</time>
      </trkpt>
      <trkpt lat="45.35694" lon="5.72306">
        <ele>1491.62</ele>
        <time>2017-08-11T10:19:25Z</time>
      </trkpt>
      <trkpt lat="45.35697" lon="5.72316">
        <ele>1488.74</ele>
        <time>2017-08-11T10:19:36Z</time>
      </trkpt>
      <trkpt lat="45.357" lon="5.7232">
        <ele>1487.3</ele>
        <time>2017-08-11T10:19:41Z</time>
      </trkpt>
      <trkpt lat="45.3571" lon="5.72333">
        <ele>1485.37</ele>
        <time>2017-08-11T10:19:51Z</time>
      </trkpt>
      <trkpt lat="45.35717" lon="5.72345">
        <ele>1483.45</ele>
        <time>2017-08-11T10:20:01Z</time>
      </trkpt>
      <trkpt lat="45.35721" lon="5.72354">
        <ele>1482.97</ele>
        <time>2017-08-11T10:20:09Z</time>
      </trkpt>
      <trkpt lat="45.35724" lon="5.72358">
        <ele>1483.93</ele>
        <time>2017-08-11T10:20:17Z</time>
      </trkpt>
      <trkpt lat="45.35721" lon="5.72363">
        <ele>1491.62</ele>
        <time>2017-08-11T10:20:25Z</time>
      </trkpt>
      <trkpt lat="45.35719" lon="5.72363">
        <ele>1492.58</ele>
        <time>2017-08-11T10:20:34Z</time>
      </trkpt>
      <trkpt lat="45.35717" lon="5.72362">
        <ele>1493.55</ele>
        <time>2017-08-11T10:20:37Z</time>
      </trkpt>
      <trkpt lat="45.35712" lon="5.7236">
        <ele>1496.43</ele>
        <time>2017-08-11T10:20:45Z</time>
      </trkpt>
      <trkpt lat="45.35705" lon="5.72353">
        <ele>1498.35</ele>
        <time>2017-08-11T10:20:53Z</time>
      </trkpt>
      <trkpt lat="45.357" lon="5.72349">
        <ele>1501.72</ele>
        <time>2017-08-11T10:21:01Z</time>
      </trkpt>
      <trkpt lat="45.35694" lon="5.72346">
        <ele>1503.64</ele>
        <time>2017-08-11T10:21:08Z</time>
      </trkpt>
      <trkpt lat="45.35693" lon="5.72347">
        <ele>1503.16</ele>
        <time>2017-08-11T10:21:16Z</time>
      </trkpt>
      <trkpt lat="45.35694" lon="5.72353">
        <ele>1500.76</ele>
        <time>2017-08-11T10:21:24Z</time>
      </trkpt>
      <trkpt lat="45.35697" lon="5.72358">
        <ele>1499.31</ele>
        <time>2017-08-11T10:21:31Z</time>
      </trkpt>
      <trkpt lat="45.35702" lon="5.72366">
        <ele>1497.87</ele>
        <time>2017-08-11T10:21:37Z</time>
      </trkpt>
      <trkpt lat="45.35708" lon="5.72374">
        <ele>1497.87</ele>
        <time>2017-08-11T10:21:45Z</time>
      </trkpt>
      <trkpt lat="45.3571" lon="5.72377">
        <ele>1496.43</ele>
        <time>2017-08-11T10:21:54Z</time>
      </trkpt>
      <trkpt lat="45.35712" lon="5.72382">
        <ele>1494.99</ele>
        <time>2017-08-11T10:22:01Z</time>
      </trkpt>
      <trkpt lat="45.35714" lon="5.72385">
        <ele>1495.95</ele>
        <time>2017-08-11T10:22:12Z</time>
      </trkpt>
      <trkpt lat="45.35718" lon="5.7239">
        <ele>1495.47</ele>
        <time>2017-08-11T10:22:18Z</time>
      </trkpt>
      <trkpt lat="45.35719" lon="5.72393">
        <ele>1494.99</ele>
        <time>2017-08-11T10:22:21Z</time>
      </trkpt>
      <trkpt lat="45.35724" lon="5.72399">
        <ele>1494.51</ele>
        <time>2017-08-11T10:22:28Z</time>
      </trkpt>
      <trkpt lat="45.35729" lon="5.72402">
        <ele>1496.43</ele>
        <time>2017-08-11T10:22:33Z</time>
      </trkpt>
      <trkpt lat="45.35735" lon="5.72405">
        <ele>1496.91</ele>
        <time>2017-08-11T10:22:41Z</time>
      </trkpt>
      <trkpt lat="45.35745" lon="5.7241">
        <ele>1499.31</ele>
        <time>2017-08-11T10:22:48Z</time>
      </trkpt>
      <trkpt lat="45.35748" lon="5.72416">
        <ele>1501.24</ele>
        <time>2017-08-11T10:22:55Z</time>
      </trkpt>
      <trkpt lat="45.35752" lon="5.72421">
        <ele>1500.27</ele>
        <time>2017-08-11T10:23:04Z</time>
      </trkpt>
      <trkpt lat="45.35756" lon="5.72423">
        <ele>1506.52</ele>
        <time>2017-08-11T10:23:11Z</time>
      </trkpt>
      <trkpt lat="45.35751" lon="5.72418">
        <ele>1514.69</ele>
        <time>2017-08-11T10:23:20Z</time>
      </trkpt>
      <trkpt lat="45.35752" lon="5.7242">
        <ele>1517.58</ele>
        <time>2017-08-11T10:23:29Z</time>
      </trkpt>
      <trkpt lat="45.35751" lon="5.72423">
        <ele>1518.06</ele>
        <time>2017-08-11T10:23:38Z</time>
      </trkpt>
      <trkpt lat="45.3575" lon="5.72424">
        <ele>1520.46</ele>
        <time>2017-08-11T10:23:47Z</time>
      </trkpt>
      <trkpt lat="45.35743" lon="5.72422">
        <ele>1528.63</ele>
        <time>2017-08-11T10:23:57Z</time>
      </trkpt>
      <trkpt lat="45.3574" lon="5.72424">
        <ele>1531.52</ele>
        <time>2017-08-11T10:24:03Z</time>
      </trkpt>
      <trkpt lat="45.3574" lon="5.72428">
        <ele>1532</ele>
        <time>2017-08-11T10:24:09Z</time>
      </trkpt>
      <trkpt lat="45.3574" lon="5.72431">
        <ele>1533.92</ele>
        <time>2017-08-11T10:24:19Z</time>
      </trkpt>
      <trkpt lat="45.35741" lon="5.72433">
        <ele>1535.36</ele>
        <time>2017-08-11T10:24:28Z</time>
      </trkpt>
      <trkpt lat="45.35745" lon="5.72436">
        <ele>1536.32</ele>
        <time>2017-08-11T10:24:35Z</time>
      </trkpt>
      <trkpt lat="45.35747" lon="5.72437">
        <ele>1536.8</ele>
        <time>2017-08-11T10:24:41Z</time>
      </trkpt>
      <trkpt lat="45.35751" lon="5.72439">
        <ele>1538.25</ele>
        <time>2017-08-11T10:24:48Z</time>
      </trkpt>
      <trkpt lat="45.35753" lon="5.72441">
        <ele>1540.17</ele>
        <time>2017-08-11T10:24:57Z</time>
      </trkpt>
      <trkpt lat="45.35756" lon="5.72442">
        <ele>1540.65</ele>
        <time>2017-08-11T10:25:04Z</time>
      </trkpt>
      <trkpt lat="45.35759" lon="5.72442">
        <ele>1543.53</ele>
        <time>2017-08-11T10:25:14Z</time>
      </trkpt>
      <trkpt lat="45.35758" lon="5.72441">
        <ele>1545.94</ele>
        <time>2017-08-11T10:25:21Z</time>
      </trkpt>
      <trkpt lat="45.35757" lon="5.72443">
        <ele>1547.38</ele>
        <time>2017-08-11T10:25:27Z</time>
      </trkpt>
      <trkpt lat="45.35756" lon="5.72445">
        <ele>1547.86</ele>
        <time>2017-08-11T10:25:36Z</time>
      </trkpt>
      <trkpt lat="45.35755" lon="5.7245">
        <ele>1548.34</ele>
        <time>2017-08-11T10:25:44Z</time>
      </trkpt>
      <trkpt lat="45.35753" lon="5.72454">
        <ele>1549.78</ele>
        <time>2017-08-11T10:25:51Z</time>
      </trkpt>
      <trkpt lat="45.35751" lon="5.72453">
        <ele>1550.74</ele>
        <time>2017-08-11T10:26:00Z</time>
      </trkpt>
      <trkpt lat="45.35752" lon="5.72457">
        <ele>1550.26</ele>
        <time>2017-08-11T10:26:08Z</time>
      </trkpt>
      <trkpt lat="45.35754" lon="5.7246">
        <ele>1550.74</ele>
        <time>2017-08-11T10:26:15Z</time>
      </trkpt>
      <trkpt lat="45.35751" lon="5.7246">
        <ele>1554.59</ele>
        <time>2017-08-11T10:26:23Z</time>
      </trkpt>
      <trkpt lat="45.35746" lon="5.72455">
        <ele>1556.99</ele>
        <time>2017-08-11T10:26:30Z</time>
      </trkpt>
      <trkpt lat="45.3574" lon="5.7245">
        <ele>1559.4</ele>
        <time>2017-08-11T10:26:40Z</time>
      </trkpt>
      <trkpt lat="45.35734" lon="5.72448">
        <ele>1563.72</ele>
        <time>2017-08-11T10:26:48Z</time>
      </trkpt>
      <trkpt lat="45.35729" lon="5.7245">
        <ele>1566.12</ele>
        <time>2017-08-11T10:26:57Z</time>
      </trkpt>
      <trkpt lat="45.35726" lon="5.72451">
        <ele>1568.05</ele>
        <time>2017-08-11T10:27:04Z</time>
      </trkpt>
      <trkpt lat="45.35725" lon="5.7245">
        <ele>1568.53</ele>
        <time>2017-08-11T10:27:06Z</time>
      </trkpt>
      <trkpt lat="45.3572" lon="5.72452">
        <ele>1570.93</ele>
        <time>2017-08-11T10:27:12Z</time>
      </trkpt>
      <trkpt lat="45.35724" lon="5.72453">
        <ele>1573.33</ele>
        <time>2017-08-11T10:27:18Z</time>
      </trkpt>
      <trkpt lat="45.35729" lon="5.72457">
        <ele>1574.3</ele>
        <time>2017-08-11T10:27:26Z</time>
      </trkpt>
      <trkpt lat="45.35733" lon="5.72461">
        <ele>1572.85</ele>
        <time>2017-08-11T10:27:33Z</time>
      </trkpt>
      <trkpt lat="45.35735" lon="5.72463">
        <ele>1571.89</ele>
        <time>2017-08-11T10:27:40Z</time>
      </trkpt>
      <trkpt lat="45.35739" lon="5.72469">
        <ele>1571.41</ele>
        <time>2017-08-11T10:27:49Z</time>
      </trkpt>
      <trkpt lat="45.35742" lon="5.72473">
        <ele>1571.89</ele>
        <time>2017-08-11T10:27:55Z</time>
      </trkpt>
      <trkpt lat="45.35743" lon="5.72476">
        <ele>1574.3</ele>
        <time>2017-08-11T10:28:03Z</time>
      </trkpt>
      <trkpt lat="45.35741" lon="5.7248">
        <ele>1575.26</ele>
        <time>2017-08-11T10:28:09Z</time>
      </trkpt>
      <trkpt lat="45.35738" lon="5.72482">
        <ele>1575.26</ele>
        <time>2017-08-11T10:28:18Z</time>
      </trkpt>
      <trkpt lat="45.35737" lon="5.72484">
        <ele>1577.18</ele>
        <time>2017-08-11T10:28:25Z</time>
      </trkpt>
      <trkpt lat="45.35736" lon="5.72484">
        <ele>1577.66</ele>
        <time>2017-08-11T10:28:35Z</time>
      </trkpt>
      <trkpt lat="45.35735" lon="5.72482">
        <ele>1578.62</ele>
        <time>2017-08-11T10:28:44Z</time>
      </trkpt>
      <trkpt lat="45.35734" lon="5.72484">
        <ele>1577.18</ele>
        <time>2017-08-11T10:28:51Z</time>
      </trkpt>
      <trkpt lat="45.35733" lon="5.72489">
        <ele>1576.22</ele>
        <time>2017-08-11T10:28:58Z</time>
      </trkpt>
      <trkpt lat="45.35734" lon="5.7249">
        <ele>1575.74</ele>
        <time>2017-08-11T10:29:05Z</time>
      </trkpt>
      <trkpt lat="45.35731" lon="5.72495">
        <ele>1575.26</ele>
        <time>2017-08-11T10:29:13Z</time>
      </trkpt>
      <trkpt lat="45.3573" lon="5.72497">
        <ele>1579.58</ele>
        <time>2017-08-11T10:29:19Z</time>
      </trkpt>
      <trkpt lat="45.35732" lon="5.72494">
        <ele>1587.75</ele>
        <time>2017-08-11T10:29:27Z</time>
      </trkpt>
      <trkpt lat="45.35735" lon="5.72498">
        <ele>1592.56</ele>
        <time>2017-08-11T10:29:36Z</time>
      </trkpt>
      <trkpt lat="45.3574" lon="5.72502">
        <ele>1599.29</ele>
        <time>2017-08-11T10:29:42Z</time>
      </trkpt>
      <trkpt lat="45.3574" lon="5.72503">
        <ele>1599.77</ele>
        <time>2017-08-11T10:29:43Z</time>
      </trkpt>
      <trkpt lat="45.35733" lon="5.72508">
        <ele>1601.69</ele>
        <time>2017-08-11T10:29:52Z</time>
      </trkpt>
      <trkpt lat="45.35728" lon="5.72506">
        <ele>1602.66</ele>
        <time>2017-08-11T10:30:01Z</time>
      </trkpt>
      <trkpt lat="45.35726" lon="5.72507">
        <ele>1603.62</ele>
        <time>2017-08-11T10:30:07Z</time>
      </trkpt>
      <trkpt lat="45.35719" lon="5.72507">
        <ele>1603.14</ele>
        <time>2017-08-11T10:30:15Z</time>
      </trkpt>
      <trkpt lat="45.3571" lon="5.72508">
        <ele>1602.17</ele>
        <time>2017-08-11T10:30:24Z</time>
      </trkpt>
      <trkpt lat="45.35704" lon="5.72502">
        <ele>1602.66</ele>
        <time>2017-08-11T10:30:32Z</time>
      </trkpt>
      <trkpt lat="45.35699" lon="5.72498">
        <ele>1604.58</ele>
        <time>2017-08-11T10:30:39Z</time>
      </trkpt>
      <trkpt lat="45.35694" lon="5.72495">
        <ele>1604.58</ele>
        <time>2017-08-11T10:30:46Z</time>
      </trkpt>
      <trkpt lat="45.35687" lon="5.72496">
        <ele>1601.69</ele>
        <time>2017-08-11T10:30:53Z</time>
      </trkpt>
      <trkpt lat="45.35683" lon="5.72497">
        <ele>1597.37</ele>
        <time>2017-08-11T10:31:00Z</time>
      </trkpt>
      <trkpt lat="45.3568" lon="5.72495">
        <ele>1597.85</ele>
        <time>2017-08-11T10:31:06Z</time>
      </trkpt>
      <trkpt lat="45.35678" lon="5.72492">
        <ele>1599.29</ele>
        <time>2017-08-11T10:31:13Z</time>
      </trkpt>
      <trkpt lat="45.35672" lon="5.72484">
        <ele>1601.21</ele>
        <time>2017-08-11T10:31:20Z</time>
      </trkpt>
      <trkpt lat="45.3567" lon="5.72481">
        <ele>1605.06</ele>
        <time>2017-08-11T10:31:28Z</time>
      </trkpt>
      <trkpt lat="45.35669" lon="5.72481">
        <ele>1605.06</ele>
        <time>2017-08-11T10:31:35Z</time>
      </trkpt>
      <trkpt lat="45.35666" lon="5.72481">
        <ele>1604.1</ele>
        <time>2017-08-11T10:31:43Z</time>
      </trkpt>
      <trkpt lat="45.3566" lon="5.72483">
        <ele>1603.62</ele>
        <time>2017-08-11T10:31:50Z</time>
      </trkpt>
      <trkpt lat="45.35657" lon="5.72479">
        <ele>1605.06</ele>
        <time>2017-08-11T10:32:00Z</time>
      </trkpt>
      <trkpt lat="45.35651" lon="5.72481">
        <ele>1605.06</ele>
        <time>2017-08-11T10:32:06Z</time>
      </trkpt>
      <trkpt lat="45.35644" lon="5.72481">
        <ele>1605.06</ele>
        <time>2017-08-11T10:32:14Z</time>
      </trkpt>
      <trkpt lat="45.35639" lon="5.72481">
        <ele>1605.06</ele>
        <time>2017-08-11T10:32:21Z</time>
      </trkpt>
      <trkpt lat="45.35629" lon="5.72485">
        <ele>1603.14</ele>
        <time>2017-08-11T10:32:28Z</time>
      </trkpt>
      <trkpt lat="45.35624" lon="5.72483">
        <ele>1604.1</ele>
        <time>2017-08-11T10:32:34Z</time>
      </trkpt>
      <trkpt lat="45.3562" lon="5.7248">
        <ele>1605.54</ele>
        <time>2017-08-11T10:32:41Z</time>
      </trkpt>
      <trkpt lat="45.35614" lon="5.72475">
        <ele>1606.98</ele>
        <time>2017-08-11T10:32:47Z</time>
      </trkpt>
      <trkpt lat="45.3561" lon="5.72466">
        <ele>1612.75</ele>
        <time>2017-08-11T10:32:55Z</time>
      </trkpt>
      <trkpt lat="45.35605" lon="5.72465">
        <ele>1613.71</ele>
        <time>2017-08-11T10:33:03Z</time>
      </trkpt>
      <trkpt lat="45.35598" lon="5.72463">
        <ele>1615.63</ele>
        <time>2017-08-11T10:33:10Z</time>
      </trkpt>
      <trkpt lat="45.35592" lon="5.7246">
        <ele>1618.04</ele>
        <time>2017-08-11T10:33:17Z</time>
      </trkpt>
      <trkpt lat="45.35586" lon="5.72457">
        <ele>1619</ele>
        <time>2017-08-11T10:33:24Z</time>
      </trkpt>
      <trkpt lat="45.35581" lon="5.7245">
        <ele>1620.44</ele>
        <time>2017-08-11T10:33:31Z</time>
      </trkpt>
      <trkpt lat="45.35577" lon="5.72444">
        <ele>1621.4</ele>
        <time>2017-08-11T10:33:37Z</time>
      </trkpt>
      <trkpt lat="45.3557" lon="5.72435">
        <ele>1622.36</ele>
        <time>2017-08-11T10:33:46Z</time>
      </trkpt>
      <trkpt lat="45.35564" lon="5.72425">
        <ele>1621.88</ele>
        <time>2017-08-11T10:33:56Z</time>
      </trkpt>
      <trkpt lat="45.35559" lon="5.72415">
        <ele>1620.92</ele>
        <time>2017-08-11T10:34:04Z</time>
      </trkpt>
      <trkpt lat="45.35557" lon="5.72412">
        <ele>1619.96</ele>
        <time>2017-08-11T10:34:07Z</time>
      </trkpt>
      <trkpt lat="45.35548" lon="5.72411">
        <ele>1616.11</ele>
        <time>2017-08-11T10:34:14Z</time>
      </trkpt>
      <trkpt lat="45.35545" lon="5.72404">
        <ele>1614.67</ele>
        <time>2017-08-11T10:34:17Z</time>
      </trkpt>
      <trkpt lat="45.35541" lon="5.72401">
        <ele>1612.75</ele>
        <time>2017-08-11T10:34:20Z</time>
      </trkpt>
      <trkpt lat="45.35538" lon="5.72393">
        <ele>1610.83</ele>
        <time>2017-08-11T10:34:24Z</time>
      </trkpt>
      <trkpt lat="45.35526" lon="5.72389">
        <ele>1606.02</ele>
        <time>2017-08-11T10:34:32Z</time>
      </trkpt>
      <trkpt lat="45.35518" lon="5.72387">
        <ele>1601.69</ele>
        <time>2017-08-11T10:34:37Z</time>
      </trkpt>
      <trkpt lat="45.35514" lon="5.72386">
        <ele>1598.33</ele>
        <time>2017-08-11T10:34:40Z</time>
      </trkpt>
      <trkpt lat="45.35509" lon="5.72385">
        <ele>1595.45</ele>
        <time>2017-08-11T10:34:44Z</time>
      </trkpt>
      <trkpt lat="45.35503" lon="5.72378">
        <ele>1590.16</ele>
        <time>2017-08-11T10:34:50Z</time>
      </trkpt>
      <trkpt lat="45.35496" lon="5.72372">
        <ele>1584.87</ele>
        <time>2017-08-11T10:34:55Z</time>
      </trkpt>
      <trkpt lat="45.35488" lon="5.72364">
        <ele>1579.58</ele>
        <time>2017-08-11T10:35:01Z</time>
      </trkpt>
      <trkpt lat="45.3548" lon="5.72362">
        <ele>1574.78</ele>
        <time>2017-08-11T10:35:07Z</time>
      </trkpt>
      <trkpt lat="45.35473" lon="5.72358">
        <ele>1569.97</ele>
        <time>2017-08-11T10:35:11Z</time>
      </trkpt>
      <trkpt lat="45.35463" lon="5.72346">
        <ele>1568.53</ele>
        <time>2017-08-11T10:35:17Z</time>
      </trkpt>
      <trkpt lat="45.35458" lon="5.72338">
        <ele>1568.53</ele>
        <time>2017-08-11T10:35:21Z</time>
      </trkpt>
      <trkpt lat="45.35449" lon="5.72325">
        <ele>1568.53</ele>
        <time>2017-08-11T10:35:28Z</time>
      </trkpt>
      <trkpt lat="45.3544" lon="5.72312">
        <ele>1569.49</ele>
        <time>2017-08-11T10:35:34Z</time>
      </trkpt>
      <trkpt lat="45.35436" lon="5.72306">
        <ele>1569.97</ele>
        <time>2017-08-11T10:35:36Z</time>
      </trkpt>
      <trkpt lat="45.35421" lon="5.72294">
        <ele>1570.45</ele>
        <time>2017-08-11T10:35:43Z</time>
      </trkpt>
      <trkpt lat="45.35413" lon="5.72286">
        <ele>1570.93</ele>
        <time>2017-08-11T10:35:48Z</time>
      </trkpt>
      <trkpt lat="45.35407" lon="5.72275">
        <ele>1573.82</ele>
        <time>2017-08-11T10:35:54Z</time>
      </trkpt>
      <trkpt lat="45.35402" lon="5.72271">
        <ele>1574.3</ele>
        <time>2017-08-11T10:35:57Z</time>
      </trkpt>
      <trkpt lat="45.3539" lon="5.72262">
        <ele>1575.74</ele>
        <time>2017-08-11T10:36:03Z</time>
      </trkpt>
      <trkpt lat="45.35388" lon="5.7226">
        <ele>1575.74</ele>
        <time>2017-08-11T10:36:04Z</time>
      </trkpt>
      <trkpt lat="45.35379" lon="5.72247">
        <ele>1577.66</ele>
        <time>2017-08-11T10:36:11Z</time>
      </trkpt>
      <trkpt lat="45.35378" lon="5.72245">
        <ele>1577.66</ele>
        <time>2017-08-11T10:36:12Z</time>
      </trkpt>
      <trkpt lat="45.35367" lon="5.72236">
        <ele>1580.06</ele>
        <time>2017-08-11T10:36:19Z</time>
      </trkpt>
      <trkpt lat="45.3536" lon="5.72227">
        <ele>1581.99</ele>
        <time>2017-08-11T10:36:26Z</time>
      </trkpt>
      <trkpt lat="45.35352" lon="5.7222">
        <ele>1584.39</ele>
        <time>2017-08-11T10:36:32Z</time>
      </trkpt>
      <trkpt lat="45.35346" lon="5.72216">
        <ele>1586.31</ele>
        <time>2017-08-11T10:36:39Z</time>
      </trkpt>
      <trkpt lat="45.35341" lon="5.72211">
        <ele>1588.24</ele>
        <time>2017-08-11T10:36:46Z</time>
      </trkpt>
      <trkpt lat="45.35337" lon="5.72204">
        <ele>1592.08</ele>
        <time>2017-08-11T10:36:55Z</time>
      </trkpt>
      <trkpt lat="45.35332" lon="5.72202">
        <ele>1594</ele>
        <time>2017-08-11T10:37:02Z</time>
      </trkpt>
      <trkpt lat="45.35323" lon="5.72202">
        <ele>1595.93</ele>
        <time>2017-08-11T10:37:11Z</time>
      </trkpt>
      <trkpt lat="45.35314" lon="5.722">
        <ele>1597.37</ele>
        <time>2017-08-11T10:37:20Z</time>
      </trkpt>
      <trkpt lat="45.35313" lon="5.72199">
        <ele>1599.77</ele>
        <time>2017-08-11T10:37:26Z</time>
      </trkpt>
      <trkpt lat="45.35307" lon="5.72197">
        <ele>1599.77</ele>
        <time>2017-08-11T10:37:32Z</time>
      </trkpt>
      <trkpt lat="45.35305" lon="5.72196">
        <ele>1600.73</ele>
        <time>2017-08-11T10:37:37Z</time>
      </trkpt>
      <trkpt lat="45.35294" lon="5.7219">
        <ele>1600.25</ele>
        <time>2017-08-11T10:37:45Z</time>
      </trkpt>
      <trkpt lat="45.3529" lon="5.72181">
        <ele>1597.37</ele>
        <time>2017-08-11T10:37:51Z</time>
      </trkpt>
      <trkpt lat="45.35279" lon="5.72165">
        <ele>1596.41</ele>
        <time>2017-08-11T10:38:00Z</time>
      </trkpt>
      <trkpt lat="45.35274" lon="5.72152">
        <ele>1602.66</ele>
        <time>2017-08-11T10:38:08Z</time>
      </trkpt>
      <trkpt lat="45.35273" lon="5.72148">
        <ele>1605.54</ele>
        <time>2017-08-11T10:38:15Z</time>
      </trkpt>
      <trkpt lat="45.35262" lon="5.72155">
        <ele>1604.58</ele>
        <time>2017-08-11T10:38:22Z</time>
      </trkpt>
      <trkpt lat="45.35252" lon="5.7216">
        <ele>1602.66</ele>
        <time>2017-08-11T10:38:30Z</time>
      </trkpt>
      <trkpt lat="45.35245" lon="5.72165">
        <ele>1600.73</ele>
        <time>2017-08-11T10:38:36Z</time>
      </trkpt>
      <trkpt lat="45.35225" lon="5.72172">
        <ele>1598.33</ele>
        <time>2017-08-11T10:38:43Z</time>
      </trkpt>
      <trkpt lat="45.35213" lon="5.72178">
        <ele>1598.81</ele>
        <time>2017-08-11T10:38:50Z</time>
      </trkpt>
      <trkpt lat="45.35208" lon="5.72178">
        <ele>1597.37</ele>
        <time>2017-08-11T10:38:53Z</time>
      </trkpt>
      <trkpt lat="45.35199" lon="5.72178">
        <ele>1598.81</ele>
        <time>2017-08-11T10:39:00Z</time>
      </trkpt>
      <trkpt lat="45.35189" lon="5.7217">
        <ele>1599.29</ele>
        <time>2017-08-11T10:39:06Z</time>
      </trkpt>
      <trkpt lat="45.3518" lon="5.72168">
        <ele>1598.33</ele>
        <time>2017-08-11T10:39:13Z</time>
      </trkpt>
      <trkpt lat="45.35172" lon="5.72167">
        <ele>1596.89</ele>
        <time>2017-08-11T10:39:21Z</time>
      </trkpt>
      <trkpt lat="45.35166" lon="5.72164">
        <ele>1597.37</ele>
        <time>2017-08-11T10:39:28Z</time>
      </trkpt>
      <trkpt lat="45.35162" lon="5.72159">
        <ele>1599.77</ele>
        <time>2017-08-11T10:39:35Z</time>
      </trkpt>
      <trkpt lat="45.35162" lon="5.72161">
        <ele>1599.29</ele>
        <time>2017-08-11T10:39:37Z</time>
      </trkpt>
      <trkpt lat="45.35159" lon="5.72164">
        <ele>1599.29</ele>
        <time>2017-08-11T10:39:44Z</time>
      </trkpt>
      <trkpt lat="45.35158" lon="5.72171">
        <ele>1597.37</ele>
        <time>2017-08-11T10:39:52Z</time>
      </trkpt>
      <trkpt lat="45.35156" lon="5.72175">
        <ele>1596.41</ele>
        <time>2017-08-11T10:39:54Z</time>
      </trkpt>
      <trkpt lat="45.35147" lon="5.722">
        <ele>1594.48</ele>
        <time>2017-08-11T10:40:01Z</time>
      </trkpt>
      <trkpt lat="45.35137" lon="5.72221">
        <ele>1594.48</ele>
        <time>2017-08-11T10:40:07Z</time>
      </trkpt>
      <trkpt lat="45.3513" lon="5.72234">
        <ele>1595.45</ele>
        <time>2017-08-11T10:40:11Z</time>
      </trkpt>
      <trkpt lat="45.35129" lon="5.72241">
        <ele>1596.41</ele>
        <time>2017-08-11T10:40:14Z</time>
      </trkpt>
      <trkpt lat="45.35135" lon="5.72258">
        <ele>1597.85</ele>
        <time>2017-08-11T10:40:24Z</time>
      </trkpt>
      <trkpt lat="45.35137" lon="5.7226">
        <ele>1597.85</ele>
        <time>2017-08-11T10:40:26Z</time>
      </trkpt>
      <trkpt lat="45.35146" lon="5.72266">
        <ele>1595.93</ele>
        <time>2017-08-11T10:40:35Z</time>
      </trkpt>
      <trkpt lat="45.35149" lon="5.72269">
        <ele>1594.48</ele>
        <time>2017-08-11T10:40:38Z</time>
      </trkpt>
      <trkpt lat="45.35157" lon="5.72273">
        <ele>1588.72</ele>
        <time>2017-08-11T10:40:47Z</time>
      </trkpt>
      <trkpt lat="45.35159" lon="5.72276">
        <ele>1586.31</ele>
        <time>2017-08-11T10:40:53Z</time>
      </trkpt>
      <trkpt lat="45.35162" lon="5.72278">
        <ele>1582.47</ele>
        <time>2017-08-11T10:40:59Z</time>
      </trkpt>
      <trkpt lat="45.35165" lon="5.7228">
        <ele>1576.7</ele>
        <time>2017-08-11T10:41:05Z</time>
      </trkpt>
      <trkpt lat="45.35166" lon="5.7228">
        <ele>1574.3</ele>
        <time>2017-08-11T10:41:07Z</time>
      </trkpt>
      <trkpt lat="45.35172" lon="5.72274">
        <ele>1568.05</ele>
        <time>2017-08-11T10:41:14Z</time>
      </trkpt>
      <trkpt lat="45.35176" lon="5.72274">
        <ele>1567.09</ele>
        <time>2017-08-11T10:41:21Z</time>
      </trkpt>
      <trkpt lat="45.35178" lon="5.72276">
        <ele>1566.12</ele>
        <time>2017-08-11T10:41:23Z</time>
      </trkpt>
      <trkpt lat="45.3519" lon="5.72279">
        <ele>1561.8</ele>
        <time>2017-08-11T10:41:31Z</time>
      </trkpt>
      <trkpt lat="45.35188" lon="5.72283">
        <ele>1556.99</ele>
        <time>2017-08-11T10:41:37Z</time>
      </trkpt>
      <trkpt lat="45.35187" lon="5.72287">
        <ele>1556.51</ele>
        <time>2017-08-11T10:41:40Z</time>
      </trkpt>
      <trkpt lat="45.35187" lon="5.72294">
        <ele>1555.55</ele>
        <time>2017-08-11T10:41:44Z</time>
      </trkpt>
      <trkpt lat="45.35192" lon="5.72298">
        <ele>1552.67</ele>
        <time>2017-08-11T10:41:51Z</time>
      </trkpt>
      <trkpt lat="45.35194" lon="5.72302">
        <ele>1552.67</ele>
        <time>2017-08-11T10:41:57Z</time>
      </trkpt>
      <trkpt lat="45.35204" lon="5.72308">
        <ele>1551.71</ele>
        <time>2017-08-11T10:42:03Z</time>
      </trkpt>
      <trkpt lat="45.35207" lon="5.72312">
        <ele>1550.74</ele>
        <time>2017-08-11T10:42:08Z</time>
      </trkpt>
      <trkpt lat="45.35207" lon="5.72317">
        <ele>1548.34</ele>
        <time>2017-08-11T10:42:14Z</time>
      </trkpt>
      <trkpt lat="45.35207" lon="5.72323">
        <ele>1545.94</ele>
        <time>2017-08-11T10:42:19Z</time>
      </trkpt>
      <trkpt lat="45.35215" lon="5.7233">
        <ele>1544.5</ele>
        <time>2017-08-11T10:42:27Z</time>
      </trkpt>
      <trkpt lat="45.35219" lon="5.72331">
        <ele>1544.5</ele>
        <time>2017-08-11T10:42:30Z</time>
      </trkpt>
      <trkpt lat="45.35222" lon="5.72336">
        <ele>1542.09</ele>
        <time>2017-08-11T10:42:36Z</time>
      </trkpt>
      <trkpt lat="45.3522" lon="5.72341">
        <ele>1540.17</ele>
        <time>2017-08-11T10:42:42Z</time>
      </trkpt>
      <trkpt lat="45.3522" lon="5.72346">
        <ele>1539.21</ele>
        <time>2017-08-11T10:42:49Z</time>
      </trkpt>
      <trkpt lat="45.35222" lon="5.72349">
        <ele>1538.25</ele>
        <time>2017-08-11T10:42:52Z</time>
      </trkpt>
      <trkpt lat="45.35225" lon="5.72354">
        <ele>1538.25</ele>
        <time>2017-08-11T10:42:55Z</time>
      </trkpt>
      <trkpt lat="45.35226" lon="5.72363">
        <ele>1536.8</ele>
        <time>2017-08-11T10:43:01Z</time>
      </trkpt>
      <trkpt lat="45.35226" lon="5.72375">
        <ele>1535.36</ele>
        <time>2017-08-11T10:43:07Z</time>
      </trkpt>
      <trkpt lat="45.35227" lon="5.72382">
        <ele>1534.88</ele>
        <time>2017-08-11T10:43:13Z</time>
      </trkpt>
      <trkpt lat="45.35235" lon="5.72388">
        <ele>1533.92</ele>
        <time>2017-08-11T10:43:18Z</time>
      </trkpt>
      <trkpt lat="45.35248" lon="5.72409">
        <ele>1530.56</ele>
        <time>2017-08-11T10:43:27Z</time>
      </trkpt>
      <trkpt lat="45.35259" lon="5.72428">
        <ele>1528.15</ele>
        <time>2017-08-11T10:43:35Z</time>
      </trkpt>
      <trkpt lat="45.35261" lon="5.7243">
        <ele>1527.67</ele>
        <time>2017-08-11T10:43:37Z</time>
      </trkpt>
      <trkpt lat="45.35268" lon="5.72438">
        <ele>1527.67</ele>
        <time>2017-08-11T10:43:42Z</time>
      </trkpt>
      <trkpt lat="45.35278" lon="5.72453">
        <ele>1527.19</ele>
        <time>2017-08-11T10:43:48Z</time>
      </trkpt>
      <trkpt lat="45.35288" lon="5.72464">
        <ele>1525.75</ele>
        <time>2017-08-11T10:43:54Z</time>
      </trkpt>
      <trkpt lat="45.35297" lon="5.72474">
        <ele>1526.71</ele>
        <time>2017-08-11T10:44:01Z</time>
      </trkpt>
      <trkpt lat="45.35301" lon="5.72482">
        <ele>1526.71</ele>
        <time>2017-08-11T10:44:05Z</time>
      </trkpt>
      <trkpt lat="45.35305" lon="5.72487">
        <ele>1525.27</ele>
        <time>2017-08-11T10:44:07Z</time>
      </trkpt>
      <trkpt lat="45.35301" lon="5.72501">
        <ele>1523.35</ele>
        <time>2017-08-11T10:44:15Z</time>
      </trkpt>
      <trkpt lat="45.35298" lon="5.72506">
        <ele>1523.35</ele>
        <time>2017-08-11T10:44:21Z</time>
      </trkpt>
      <trkpt lat="45.35302" lon="5.72511">
        <ele>1519.98</ele>
        <time>2017-08-11T10:44:27Z</time>
      </trkpt>
      <trkpt lat="45.35307" lon="5.72519">
        <ele>1514.69</ele>
        <time>2017-08-11T10:44:34Z</time>
      </trkpt>
      <trkpt lat="45.35308" lon="5.72524">
        <ele>1512.77</ele>
        <time>2017-08-11T10:44:41Z</time>
      </trkpt>
      <trkpt lat="45.3531" lon="5.72527">
        <ele>1511.81</ele>
        <time>2017-08-11T10:44:47Z</time>
      </trkpt>
      <trkpt lat="45.35317" lon="5.72541">
        <ele>1504.6</ele>
        <time>2017-08-11T10:44:57Z</time>
      </trkpt>
      <trkpt lat="45.3532" lon="5.72547">
        <ele>1500.27</ele>
        <time>2017-08-11T10:45:02Z</time>
      </trkpt>
      <trkpt lat="45.35323" lon="5.72556">
        <ele>1495.95</ele>
        <time>2017-08-11T10:45:06Z</time>
      </trkpt>
      <trkpt lat="45.3533" lon="5.7257">
        <ele>1488.74</ele>
        <time>2017-08-11T10:45:12Z</time>
      </trkpt>
      <trkpt lat="45.35331" lon="5.72576">
        <ele>1485.85</ele>
        <time>2017-08-11T10:45:15Z</time>
      </trkpt>
      <trkpt lat="45.35331" lon="5.72582">
        <ele>1484.89</ele>
        <time>2017-08-11T10:45:21Z</time>
      </trkpt>
      <trkpt lat="45.35336" lon="5.72594">
        <ele>1477.2</ele>
        <time>2017-08-11T10:45:27Z</time>
      </trkpt>
      <trkpt lat="45.35338" lon="5.72606">
        <ele>1473.84</ele>
        <time>2017-08-11T10:45:32Z</time>
      </trkpt>
      <trkpt lat="45.35338" lon="5.72608">
        <ele>1473.84</ele>
        <time>2017-08-11T10:45:33Z</time>
      </trkpt>
      <trkpt lat="45.35338" lon="5.72616">
        <ele>1473.84</ele>
        <time>2017-08-11T10:45:36Z</time>
      </trkpt>
      <trkpt lat="45.3534" lon="5.72635">
        <ele>1473.36</ele>
        <time>2017-08-11T10:45:44Z</time>
      </trkpt>
      <trkpt lat="45.35342" lon="5.72651">
        <ele>1469.99</ele>
        <time>2017-08-11T10:45:49Z</time>
      </trkpt>
      <trkpt lat="45.35339" lon="5.72672">
        <ele>1469.03</ele>
        <time>2017-08-11T10:45:55Z</time>
      </trkpt>
      <trkpt lat="45.35338" lon="5.72675">
        <ele>1468.07</ele>
        <time>2017-08-11T10:45:56Z</time>
      </trkpt>
      <trkpt lat="45.35343" lon="5.72701">
        <ele>1462.78</ele>
        <time>2017-08-11T10:46:04Z</time>
      </trkpt>
      <trkpt lat="45.35344" lon="5.72708">
        <ele>1460.86</ele>
        <time>2017-08-11T10:46:06Z</time>
      </trkpt>
      <trkpt lat="45.35351" lon="5.7273">
        <ele>1455.09</ele>
        <time>2017-08-11T10:46:12Z</time>
      </trkpt>
      <trkpt lat="45.35353" lon="5.72745">
        <ele>1452.21</ele>
        <time>2017-08-11T10:46:18Z</time>
      </trkpt>
      <trkpt lat="45.35351" lon="5.72755">
        <ele>1449.81</ele>
        <time>2017-08-11T10:46:23Z</time>
      </trkpt>
      <trkpt lat="45.35349" lon="5.72774">
        <ele>1442.11</ele>
        <time>2017-08-11T10:46:31Z</time>
      </trkpt>
      <trkpt lat="45.35351" lon="5.72791">
        <ele>1434.42</ele>
        <time>2017-08-11T10:46:37Z</time>
      </trkpt>
      <trkpt lat="45.35352" lon="5.72807">
        <ele>1426.73</ele>
        <time>2017-08-11T10:46:43Z</time>
      </trkpt>
      <trkpt lat="45.35353" lon="5.72822">
        <ele>1419.52</ele>
        <time>2017-08-11T10:46:50Z</time>
      </trkpt>
      <trkpt lat="45.35351" lon="5.72838">
        <ele>1414.24</ele>
        <time>2017-08-11T10:46:57Z</time>
      </trkpt>
      <trkpt lat="45.35349" lon="5.72847">
        <ele>1410.87</ele>
        <time>2017-08-11T10:47:02Z</time>
      </trkpt>
      <trkpt lat="45.35348" lon="5.72855">
        <ele>1406.07</ele>
        <time>2017-08-11T10:47:07Z</time>
      </trkpt>
      <trkpt lat="45.35347" lon="5.72872">
        <ele>1398.86</ele>
        <time>2017-08-11T10:47:14Z</time>
      </trkpt>
      <trkpt lat="45.35348" lon="5.72886">
        <ele>1397.41</ele>
        <time>2017-08-11T10:47:21Z</time>
      </trkpt>
      <trkpt lat="45.35347" lon="5.72889">
        <ele>1397.89</ele>
        <time>2017-08-11T10:47:27Z</time>
      </trkpt>
      <trkpt lat="45.35344" lon="5.72905">
        <ele>1395.49</ele>
        <time>2017-08-11T10:47:36Z</time>
      </trkpt>
      <trkpt lat="45.35343" lon="5.72924">
        <ele>1389.72</ele>
        <time>2017-08-11T10:47:44Z</time>
      </trkpt>
      <trkpt lat="45.35344" lon="5.72929">
        <ele>1386.84</ele>
        <time>2017-08-11T10:47:47Z</time>
      </trkpt>
      <trkpt lat="45.35346" lon="5.72936">
        <ele>1384.92</ele>
        <time>2017-08-11T10:47:51Z</time>
      </trkpt>
      <trkpt lat="45.35346" lon="5.72952">
        <ele>1384.92</ele>
        <time>2017-08-11T10:47:57Z</time>
      </trkpt>
      <trkpt lat="45.35347" lon="5.72956">
        <ele>1384.44</ele>
        <time>2017-08-11T10:47:59Z</time>
      </trkpt>
      <trkpt lat="45.35348" lon="5.72963">
        <ele>1382.99</ele>
        <time>2017-08-11T10:48:02Z</time>
      </trkpt>
      <trkpt lat="45.35352" lon="5.72974">
        <ele>1380.11</ele>
        <time>2017-08-11T10:48:08Z</time>
      </trkpt>
      <trkpt lat="45.35354" lon="5.72978">
        <ele>1379.63</ele>
        <time>2017-08-11T10:48:10Z</time>
      </trkpt>
      <trkpt lat="45.35354" lon="5.72982">
        <ele>1379.63</ele>
        <time>2017-08-11T10:48:12Z</time>
      </trkpt>
      <trkpt lat="45.35356" lon="5.72996">
        <ele>1379.15</ele>
        <time>2017-08-11T10:48:18Z</time>
      </trkpt>
      <trkpt lat="45.35346" lon="5.73023">
        <ele>1383.96</ele>
        <time>2017-08-11T10:48:25Z</time>
      </trkpt>
      <trkpt lat="45.35345" lon="5.73024">
        <ele>1384.92</ele>
        <time>2017-08-11T10:48:27Z</time>
      </trkpt>
      <trkpt lat="45.3534" lon="5.73028">
        <ele>1386.84</ele>
        <time>2017-08-11T10:48:31Z</time>
      </trkpt>
      <trkpt lat="45.35338" lon="5.73032">
        <ele>1387.32</ele>
        <time>2017-08-11T10:48:34Z</time>
      </trkpt>
      <trkpt lat="45.35335" lon="5.73045">
        <ele>1387.32</ele>
        <time>2017-08-11T10:48:41Z</time>
      </trkpt>
      <trkpt lat="45.35334" lon="5.73054">
        <ele>1386.84</ele>
        <time>2017-08-11T10:48:48Z</time>
      </trkpt>
      <trkpt lat="45.35332" lon="5.73058">
        <ele>1386.36</ele>
        <time>2017-08-11T10:48:51Z</time>
      </trkpt>
      <trkpt lat="45.35322" lon="5.73066">
        <ele>1383.96</ele>
        <time>2017-08-11T10:48:58Z</time>
      </trkpt>
      <trkpt lat="45.35317" lon="5.73071">
        <ele>1383.47</ele>
        <time>2017-08-11T10:49:01Z</time>
      </trkpt>
      <trkpt lat="45.35312" lon="5.73078">
        <ele>1382.03</ele>
        <time>2017-08-11T10:49:05Z</time>
      </trkpt>
      <trkpt lat="45.35302" lon="5.73089">
        <ele>1379.15</ele>
        <time>2017-08-11T10:49:13Z</time>
      </trkpt>
      <trkpt lat="45.353" lon="5.73092">
        <ele>1377.23</ele>
        <time>2017-08-11T10:49:18Z</time>
      </trkpt>
      <trkpt lat="45.35292" lon="5.73105">
        <ele>1373.86</ele>
        <time>2017-08-11T10:49:26Z</time>
      </trkpt>
      <trkpt lat="45.35283" lon="5.7312">
        <ele>1372.42</ele>
        <time>2017-08-11T10:49:33Z</time>
      </trkpt>
      <trkpt lat="45.3528" lon="5.73124">
        <ele>1371.46</ele>
        <time>2017-08-11T10:49:35Z</time>
      </trkpt>
      <trkpt lat="45.35271" lon="5.73133">
        <ele>1371.46</ele>
        <time>2017-08-11T10:49:40Z</time>
      </trkpt>
      <trkpt lat="45.35264" lon="5.73148">
        <ele>1370.98</ele>
        <time>2017-08-11T10:49:49Z</time>
      </trkpt>
      <trkpt lat="45.35262" lon="5.73151">
        <ele>1370.5</ele>
        <time>2017-08-11T10:49:51Z</time>
      </trkpt>
      <trkpt lat="45.35253" lon="5.73164">
        <ele>1369.05</ele>
        <time>2017-08-11T10:49:57Z</time>
      </trkpt>
      <trkpt lat="45.3525" lon="5.73171">
        <ele>1368.57</ele>
        <time>2017-08-11T10:50:00Z</time>
      </trkpt>
      <trkpt lat="45.35245" lon="5.7318">
        <ele>1367.61</ele>
        <time>2017-08-11T10:50:04Z</time>
      </trkpt>
      <trkpt lat="45.35232" lon="5.73198">
        <ele>1367.13</ele>
        <time>2017-08-11T10:50:11Z</time>
      </trkpt>
      <trkpt lat="45.35222" lon="5.73204">
        <ele>1367.13</ele>
        <time>2017-08-11T10:50:17Z</time>
      </trkpt>
      <trkpt lat="45.35218" lon="5.7321">
        <ele>1367.13</ele>
        <time>2017-08-11T10:50:20Z</time>
      </trkpt>
      <trkpt lat="45.35214" lon="5.7321">
        <ele>1365.21</ele>
        <time>2017-08-11T10:50:24Z</time>
      </trkpt>
      <trkpt lat="45.35213" lon="5.73205">
        <ele>1361.36</ele>
        <time>2017-08-11T10:50:28Z</time>
      </trkpt>
      <trkpt lat="45.35214" lon="5.73192">
        <ele>1356.56</ele>
        <time>2017-08-11T10:50:34Z</time>
      </trkpt>
      <trkpt lat="45.35214" lon="5.73183">
        <ele>1351.75</ele>
        <time>2017-08-11T10:50:39Z</time>
      </trkpt>
      <trkpt lat="45.35215" lon="5.73176">
        <ele>1349.83</ele>
        <time>2017-08-11T10:50:42Z</time>
      </trkpt>
      <trkpt lat="45.35215" lon="5.73159">
        <ele>1348.87</ele>
        <time>2017-08-11T10:50:48Z</time>
      </trkpt>
      <trkpt lat="45.35208" lon="5.73148">
        <ele>1347.43</ele>
        <time>2017-08-11T10:50:56Z</time>
      </trkpt>
      <trkpt lat="45.35204" lon="5.73147">
        <ele>1346.46</ele>
        <time>2017-08-11T10:51:02Z</time>
      </trkpt>
      <trkpt lat="45.35202" lon="5.73146">
        <ele>1345.98</ele>
        <time>2017-08-11T10:51:05Z</time>
      </trkpt>
      <trkpt lat="45.35197" lon="5.73146">
        <ele>1345.5</ele>
        <time>2017-08-11T10:51:09Z</time>
      </trkpt>
      <trkpt lat="45.3519" lon="5.73148">
        <ele>1344.54</ele>
        <time>2017-08-11T10:51:14Z</time>
      </trkpt>
      <trkpt lat="45.35187" lon="5.73154">
        <ele>1342.62</ele>
        <time>2017-08-11T10:51:21Z</time>
      </trkpt>
      <trkpt lat="45.35183" lon="5.73152">
        <ele>1342.62</ele>
        <time>2017-08-11T10:51:34Z</time>
      </trkpt>
      <trkpt lat="45.35182" lon="5.73152">
        <ele>1341.66</ele>
        <time>2017-08-11T10:51:42Z</time>
      </trkpt>
      <trkpt lat="45.35178" lon="5.73158">
        <ele>1340.7</ele>
        <time>2017-08-11T10:51:49Z</time>
      </trkpt>
      <trkpt lat="45.35175" lon="5.73161">
        <ele>1339.73</ele>
        <time>2017-08-11T10:51:52Z</time>
      </trkpt>
      <trkpt lat="45.35172" lon="5.73163">
        <ele>1338.77</ele>
        <time>2017-08-11T10:51:54Z</time>
      </trkpt>
      <trkpt lat="45.35164" lon="5.73175">
        <ele>1333.49</ele>
        <time>2017-08-11T10:52:02Z</time>
      </trkpt>
      <trkpt lat="45.35152" lon="5.73187">
        <ele>1328.2</ele>
        <time>2017-08-11T10:52:09Z</time>
      </trkpt>
      <trkpt lat="45.3514" lon="5.73208">
        <ele>1326.28</ele>
        <time>2017-08-11T10:52:17Z</time>
      </trkpt>
      <trkpt lat="45.35133" lon="5.7322">
        <ele>1324.35</ele>
        <time>2017-08-11T10:52:24Z</time>
      </trkpt>
      <trkpt lat="45.35125" lon="5.73231">
        <ele>1320.51</ele>
        <time>2017-08-11T10:52:28Z</time>
      </trkpt>
      <trkpt lat="45.35118" lon="5.73249">
        <ele>1316.66</ele>
        <time>2017-08-11T10:52:34Z</time>
      </trkpt>
      <trkpt lat="45.35114" lon="5.7327">
        <ele>1313.3</ele>
        <time>2017-08-11T10:52:41Z</time>
      </trkpt>
      <trkpt lat="45.35113" lon="5.73272">
        <ele>1312.82</ele>
        <time>2017-08-11T10:52:42Z</time>
      </trkpt>
      <trkpt lat="45.35114" lon="5.73289">
        <ele>1306.57</ele>
        <time>2017-08-11T10:52:49Z</time>
      </trkpt>
      <trkpt lat="45.35115" lon="5.73305">
        <ele>1304.17</ele>
        <time>2017-08-11T10:52:57Z</time>
      </trkpt>
      <trkpt lat="45.35113" lon="5.73315">
        <ele>1301.76</ele>
        <time>2017-08-11T10:53:03Z</time>
      </trkpt>
      <trkpt lat="45.35108" lon="5.73322">
        <ele>1299.36</ele>
        <time>2017-08-11T10:53:08Z</time>
      </trkpt>
      <trkpt lat="45.35106" lon="5.73335">
        <ele>1296.48</ele>
        <time>2017-08-11T10:53:15Z</time>
      </trkpt>
      <trkpt lat="45.35105" lon="5.73347">
        <ele>1297.44</ele>
        <time>2017-08-11T10:53:21Z</time>
      </trkpt>
      <trkpt lat="45.35103" lon="5.73352">
        <ele>1295.51</ele>
        <time>2017-08-11T10:53:24Z</time>
      </trkpt>
      <trkpt lat="45.35105" lon="5.73363">
        <ele>1288.78</ele>
        <time>2017-08-11T10:53:32Z</time>
      </trkpt>
      <trkpt lat="45.35105" lon="5.73366">
        <ele>1286.86</ele>
        <time>2017-08-11T10:53:39Z</time>
      </trkpt>
      <trkpt lat="45.35098" lon="5.73379">
        <ele>1287.34</ele>
        <time>2017-08-11T10:53:46Z</time>
      </trkpt>
      <trkpt lat="45.35092" lon="5.73393">
        <ele>1286.38</ele>
        <time>2017-08-11T10:53:53Z</time>
      </trkpt>
      <trkpt lat="45.35087" lon="5.73401">
        <ele>1283.02</ele>
        <time>2017-08-11T10:53:59Z</time>
      </trkpt>
      <trkpt lat="45.35082" lon="5.73411">
        <ele>1277.73</ele>
        <time>2017-08-11T10:54:07Z</time>
      </trkpt>
      <trkpt lat="45.35075" lon="5.73419">
        <ele>1273.4</ele>
        <time>2017-08-11T10:54:12Z</time>
      </trkpt>
      <trkpt lat="45.35063" lon="5.73426">
        <ele>1269.08</ele>
        <time>2017-08-11T10:54:19Z</time>
      </trkpt>
      <trkpt lat="45.35051" lon="5.73435">
        <ele>1266.19</ele>
        <time>2017-08-11T10:54:26Z</time>
      </trkpt>
      <trkpt lat="45.3505" lon="5.73436">
        <ele>1265.71</ele>
        <time>2017-08-11T10:54:27Z</time>
      </trkpt>
      <trkpt lat="45.35043" lon="5.73448">
        <ele>1265.71</ele>
        <time>2017-08-11T10:54:34Z</time>
      </trkpt>
      <trkpt lat="45.35042" lon="5.73458">
        <ele>1269.08</ele>
        <time>2017-08-11T10:54:46Z</time>
      </trkpt>
      <trkpt lat="45.35042" lon="5.73463">
        <ele>1271.96</ele>
        <time>2017-08-11T10:54:50Z</time>
      </trkpt>
      <trkpt lat="45.35039" lon="5.73462">
        <ele>1271.96</ele>
        <time>2017-08-11T10:54:53Z</time>
      </trkpt>
      <trkpt lat="45.35034" lon="5.73464">
        <ele>1272.44</ele>
        <time>2017-08-11T10:54:59Z</time>
      </trkpt>
      <trkpt lat="45.35033" lon="5.73468">
        <ele>1272.92</ele>
        <time>2017-08-11T10:55:11Z</time>
      </trkpt>
      <trkpt lat="45.35033" lon="5.7347">
        <ele>1273.4</ele>
        <time>2017-08-11T10:55:21Z</time>
      </trkpt>
      <trkpt lat="45.35033" lon="5.73469">
        <ele>1271.96</ele>
        <time>2017-08-11T10:55:35Z</time>
      </trkpt>
      <trkpt lat="45.35033" lon="5.73469">
        <ele>1270.04</ele>
        <time>2017-08-11T10:55:53Z</time>
      </trkpt>
      <trkpt lat="45.35033" lon="5.73469">
        <ele>1271</ele>
        <time>2017-08-11T10:56:05Z</time>
      </trkpt>
      <trkpt lat="45.35033" lon="5.73469">
        <ele>1271.96</ele>
        <time>2017-08-11T10:56:22Z</time>
      </trkpt>
      <trkpt lat="45.35032" lon="5.73469">
        <ele>1272.44</ele>
        <time>2017-08-11T10:56:33Z</time>
      </trkpt>
      <trkpt lat="45.35032" lon="5.73469">
        <ele>1272.44</ele>
        <time>2017-08-11T10:56:47Z</time>
      </trkpt>
      <trkpt lat="45.35032" lon="5.73468">
        <ele>1272.44</ele>
        <time>2017-08-11T10:57:01Z</time>
      </trkpt>
      <trkpt lat="45.35032" lon="5.73468">
        <ele>1271.96</ele>
        <time>2017-08-11T10:57:11Z</time>
      </trkpt>
      <trkpt lat="45.35032" lon="5.73468">
        <ele>1271.48</ele>
        <time>2017-08-11T10:57:22Z</time>
      </trkpt>
      <trkpt lat="45.35032" lon="5.73468">
        <ele>1271.48</ele>
        <time>2017-08-11T10:57:34Z</time>
      </trkpt>
      <trkpt lat="45.35033" lon="5.73467">
        <ele>1271.48</ele>
        <time>2017-08-11T10:57:45Z</time>
      </trkpt>
      <trkpt lat="45.35033" lon="5.73468">
        <ele>1271.48</ele>
        <time>2017-08-11T10:57:55Z</time>
      </trkpt>
      <trkpt lat="45.35034" lon="5.73468">
        <ele>1271.48</ele>
        <time>2017-08-11T10:58:06Z</time>
      </trkpt>
      <trkpt lat="45.35033" lon="5.73469">
        <ele>1271</ele>
        <time>2017-08-11T10:58:14Z</time>
      </trkpt>
      <trkpt lat="45.35029" lon="5.73471">
        <ele>1269.56</ele>
        <time>2017-08-11T10:58:20Z</time>
      </trkpt>
      <trkpt lat="45.35025" lon="5.73477">
        <ele>1268.6</ele>
        <time>2017-08-11T10:58:26Z</time>
      </trkpt>
      <trkpt lat="45.35021" lon="5.7349">
        <ele>1266.19</ele>
        <time>2017-08-11T10:58:37Z</time>
      </trkpt>
      <trkpt lat="45.35021" lon="5.73491">
        <ele>1266.19</ele>
        <time>2017-08-11T10:58:38Z</time>
      </trkpt>
      <trkpt lat="45.35015" lon="5.73501">
        <ele>1264.75</ele>
        <time>2017-08-11T10:58:47Z</time>
      </trkpt>
      <trkpt lat="45.35014" lon="5.73505">
        <ele>1263.79</ele>
        <time>2017-08-11T10:58:51Z</time>
      </trkpt>
      <trkpt lat="45.35008" lon="5.73519">
        <ele>1261.87</ele>
        <time>2017-08-11T10:58:58Z</time>
      </trkpt>
      <trkpt lat="45.35007" lon="5.73521">
        <ele>1261.87</ele>
        <time>2017-08-11T10:58:59Z</time>
      </trkpt>
      <trkpt lat="45.35001" lon="5.73535">
        <ele>1260.43</ele>
        <time>2017-08-11T10:59:07Z</time>
      </trkpt>
      <trkpt lat="45.34998" lon="5.73547">
        <ele>1259.46</ele>
        <time>2017-08-11T10:59:12Z</time>
      </trkpt>
      <trkpt lat="45.34992" lon="5.73555">
        <ele>1258.98</ele>
        <time>2017-08-11T10:59:16Z</time>
      </trkpt>
      <trkpt lat="45.34981" lon="5.73571">
        <ele>1257.54</ele>
        <time>2017-08-11T10:59:24Z</time>
      </trkpt>
      <trkpt lat="45.34974" lon="5.73581">
        <ele>1257.06</ele>
        <time>2017-08-11T10:59:30Z</time>
      </trkpt>
      <trkpt lat="45.34964" lon="5.736">
        <ele>1254.66</ele>
        <time>2017-08-11T10:59:38Z</time>
      </trkpt>
      <trkpt lat="45.34955" lon="5.73628">
        <ele>1251.29</ele>
        <time>2017-08-11T10:59:46Z</time>
      </trkpt>
      <trkpt lat="45.34946" lon="5.73639">
        <ele>1250.33</ele>
        <time>2017-08-11T10:59:52Z</time>
      </trkpt>
      <trkpt lat="45.34933" lon="5.73646">
        <ele>1249.37</ele>
        <time>2017-08-11T10:59:59Z</time>
      </trkpt>
      <trkpt lat="45.34924" lon="5.73651">
        <ele>1248.41</ele>
        <time>2017-08-11T11:00:04Z</time>
      </trkpt>
      <trkpt lat="45.34923" lon="5.73654">
        <ele>1248.41</ele>
        <time>2017-08-11T11:00:06Z</time>
      </trkpt>
      <trkpt lat="45.34915" lon="5.73673">
        <ele>1249.85</ele>
        <time>2017-08-11T11:00:13Z</time>
      </trkpt>
      <trkpt lat="45.34909" lon="5.73687">
        <ele>1247.93</ele>
        <time>2017-08-11T11:00:20Z</time>
      </trkpt>
      <trkpt lat="45.34908" lon="5.73692">
        <ele>1247.45</ele>
        <time>2017-08-11T11:00:22Z</time>
      </trkpt>
      <trkpt lat="45.34902" lon="5.73699">
        <ele>1245.53</ele>
        <time>2017-08-11T11:00:28Z</time>
      </trkpt>
      <trkpt lat="45.34895" lon="5.73702">
        <ele>1245.53</ele>
        <time>2017-08-11T11:00:34Z</time>
      </trkpt>
      <trkpt lat="45.3489" lon="5.73702">
        <ele>1244.56</ele>
        <time>2017-08-11T11:00:40Z</time>
      </trkpt>
      <trkpt lat="45.34879" lon="5.737">
        <ele>1233.03</ele>
        <time>2017-08-11T11:00:56Z</time>
      </trkpt>
      <trkpt lat="45.34877" lon="5.73701">
        <ele>1233.51</ele>
        <time>2017-08-11T11:01:03Z</time>
      </trkpt>
      <trkpt lat="45.34877" lon="5.737">
        <ele>1233.03</ele>
        <time>2017-08-11T11:01:18Z</time>
      </trkpt>
      <trkpt lat="45.34878" lon="5.737">
        <ele>1232.07</ele>
        <time>2017-08-11T11:01:32Z</time>
      </trkpt>
      <trkpt lat="45.34873" lon="5.73701">
        <ele>1230.62</ele>
        <time>2017-08-11T11:01:39Z</time>
      </trkpt>
      <trkpt lat="45.34867" lon="5.73703">
        <ele>1229.18</ele>
        <time>2017-08-11T11:01:47Z</time>
      </trkpt>
      <trkpt lat="45.34867" lon="5.73703">
        <ele>1229.18</ele>
        <time>2017-08-11T11:01:48Z</time>
      </trkpt>
      <trkpt lat="45.34864" lon="5.73703">
        <ele>1229.18</ele>
        <time>2017-08-11T11:01:53Z</time>
      </trkpt>
      <trkpt lat="45.34863" lon="5.73704">
        <ele>1228.22</ele>
        <time>2017-08-11T11:01:58Z</time>
      </trkpt>
      <trkpt lat="45.34859" lon="5.73711">
        <ele>1227.26</ele>
        <time>2017-08-11T11:02:05Z</time>
      </trkpt>
      <trkpt lat="45.34849" lon="5.73723">
        <ele>1223.42</ele>
        <time>2017-08-11T11:02:12Z</time>
      </trkpt>
      <trkpt lat="45.34842" lon="5.73743">
        <ele>1217.65</ele>
        <time>2017-08-11T11:02:19Z</time>
      </trkpt>
      <trkpt lat="45.34836" lon="5.73755">
        <ele>1214.76</ele>
        <time>2017-08-11T11:02:24Z</time>
      </trkpt>
      <trkpt lat="45.34825" lon="5.73766">
        <ele>1209.96</ele>
        <time>2017-08-11T11:02:30Z</time>
      </trkpt>
      <trkpt lat="45.34818" lon="5.73771">
        <ele>1204.19</ele>
        <time>2017-08-11T11:02:35Z</time>
      </trkpt>
      <trkpt lat="45.34814" lon="5.73775">
        <ele>1200.82</ele>
        <time>2017-08-11T11:02:38Z</time>
      </trkpt>
      <trkpt lat="45.34797" lon="5.73784">
        <ele>1190.25</ele>
        <time>2017-08-11T11:02:46Z</time>
      </trkpt>
      <trkpt lat="45.34796" lon="5.73785">
        <ele>1188.81</ele>
        <time>2017-08-11T11:02:47Z</time>
      </trkpt>
      <trkpt lat="45.34788" lon="5.73786">
        <ele>1181.12</ele>
        <time>2017-08-11T11:02:52Z</time>
      </trkpt>
      <trkpt lat="45.34779" lon="5.73796">
        <ele>1171.02</ele>
        <time>2017-08-11T11:02:59Z</time>
      </trkpt>
      <trkpt lat="45.34774" lon="5.73807">
        <ele>1163.33</ele>
        <time>2017-08-11T11:03:05Z</time>
      </trkpt>
      <trkpt lat="45.34775" lon="5.73811">
        <ele>1159.49</ele>
        <time>2017-08-11T11:03:10Z</time>
      </trkpt>
      <trkpt lat="45.3478" lon="5.73817">
        <ele>1157.08</ele>
        <time>2017-08-11T11:03:17Z</time>
      </trkpt>
      <trkpt lat="45.34786" lon="5.73824">
        <ele>1158.53</ele>
        <time>2017-08-11T11:03:23Z</time>
      </trkpt>
      <trkpt lat="45.34793" lon="5.73828">
        <ele>1159.01</ele>
        <time>2017-08-11T11:03:28Z</time>
      </trkpt>
      <trkpt lat="45.34801" lon="5.73825">
        <ele>1158.53</ele>
        <time>2017-08-11T11:03:32Z</time>
      </trkpt>
      <trkpt lat="45.34816" lon="5.73819">
        <ele>1160.93</ele>
        <time>2017-08-11T11:03:38Z</time>
      </trkpt>
      <trkpt lat="45.34818" lon="5.73817">
        <ele>1161.41</ele>
        <time>2017-08-11T11:03:39Z</time>
      </trkpt>
      <trkpt lat="45.34825" lon="5.73815">
        <ele>1163.81</ele>
        <time>2017-08-11T11:03:46Z</time>
      </trkpt>
      <trkpt lat="45.34827" lon="5.73817">
        <ele>1166.7</ele>
        <time>2017-08-11T11:03:52Z</time>
      </trkpt>
      <trkpt lat="45.3483" lon="5.73816">
        <ele>1172.47</ele>
        <time>2017-08-11T11:04:01Z</time>
      </trkpt>
      <trkpt lat="45.3483" lon="5.73818">
        <ele>1172.95</ele>
        <time>2017-08-11T11:04:08Z</time>
      </trkpt>
      <trkpt lat="45.34829" lon="5.73818">
        <ele>1173.43</ele>
        <time>2017-08-11T11:04:21Z</time>
      </trkpt>
      <trkpt lat="45.3483" lon="5.73818">
        <ele>1173.91</ele>
        <time>2017-08-11T11:04:30Z</time>
      </trkpt>
      <trkpt lat="45.34832" lon="5.73818">
        <ele>1176.79</ele>
        <time>2017-08-11T11:04:39Z</time>
      </trkpt>
      <trkpt lat="45.34833" lon="5.73817">
        <ele>1178.71</ele>
        <time>2017-08-11T11:04:45Z</time>
      </trkpt>
      <trkpt lat="45.34837" lon="5.73819">
        <ele>1180.16</ele>
        <time>2017-08-11T11:04:55Z</time>
      </trkpt>
      <trkpt lat="45.34839" lon="5.73825">
        <ele>1179.67</ele>
        <time>2017-08-11T11:05:01Z</time>
      </trkpt>
      <trkpt lat="45.34842" lon="5.73836">
        <ele>1180.16</ele>
        <time>2017-08-11T11:05:08Z</time>
      </trkpt>
      <trkpt lat="45.3484" lon="5.73843">
        <ele>1181.6</ele>
        <time>2017-08-11T11:05:13Z</time>
      </trkpt>
      <trkpt lat="45.34837" lon="5.73853">
        <ele>1185.92</ele>
        <time>2017-08-11T11:05:21Z</time>
      </trkpt>
      <trkpt lat="45.34837" lon="5.73854">
        <ele>1185.92</ele>
        <time>2017-08-11T11:05:27Z</time>
      </trkpt>
      <trkpt lat="45.34836" lon="5.73858">
        <ele>1186.88</ele>
        <time>2017-08-11T11:05:29Z</time>
      </trkpt>
      <trkpt lat="45.34833" lon="5.73871">
        <ele>1187.85</ele>
        <time>2017-08-11T11:05:35Z</time>
      </trkpt>
      <trkpt lat="45.34832" lon="5.73879">
        <ele>1187.85</ele>
        <time>2017-08-11T11:05:38Z</time>
      </trkpt>
      <trkpt lat="45.34827" lon="5.73896">
        <ele>1187.37</ele>
        <time>2017-08-11T11:05:45Z</time>
      </trkpt>
      <trkpt lat="45.34831" lon="5.73917">
        <ele>1182.56</ele>
        <time>2017-08-11T11:05:51Z</time>
      </trkpt>
      <trkpt lat="45.34835" lon="5.73928">
        <ele>1179.67</ele>
        <time>2017-08-11T11:05:55Z</time>
      </trkpt>
      <trkpt lat="45.34839" lon="5.73933">
        <ele>1176.79</ele>
        <time>2017-08-11T11:05:59Z</time>
      </trkpt>
      <trkpt lat="45.34845" lon="5.73945">
        <ele>1171.98</ele>
        <time>2017-08-11T11:06:06Z</time>
      </trkpt>
      <trkpt lat="45.34852" lon="5.73951">
        <ele>1167.66</ele>
        <time>2017-08-11T11:06:11Z</time>
      </trkpt>
      <trkpt lat="45.3486" lon="5.73961">
        <ele>1162.85</ele>
        <time>2017-08-11T11:06:17Z</time>
      </trkpt>
      <trkpt lat="45.34871" lon="5.73976">
        <ele>1155.64</ele>
        <time>2017-08-11T11:06:23Z</time>
      </trkpt>
      <trkpt lat="45.34878" lon="5.73986">
        <ele>1149.87</ele>
        <time>2017-08-11T11:06:29Z</time>
      </trkpt>
      <trkpt lat="45.34884" lon="5.73989">
        <ele>1146.99</ele>
        <time>2017-08-11T11:06:32Z</time>
      </trkpt>
      <trkpt lat="45.34894" lon="5.74009">
        <ele>1141.7</ele>
        <time>2017-08-11T11:06:39Z</time>
      </trkpt>
      <trkpt lat="45.349" lon="5.74017">
        <ele>1142.18</ele>
        <time>2017-08-11T11:06:43Z</time>
      </trkpt>
      <trkpt lat="45.34907" lon="5.7402">
        <ele>1139.3</ele>
        <time>2017-08-11T11:06:50Z</time>
      </trkpt>
      <trkpt lat="45.34909" lon="5.74022">
        <ele>1138.34</ele>
        <time>2017-08-11T11:06:57Z</time>
      </trkpt>
      <trkpt lat="45.34912" lon="5.74027">
        <ele>1135.94</ele>
        <time>2017-08-11T11:07:03Z</time>
      </trkpt>
      <trkpt lat="45.34913" lon="5.74031">
        <ele>1134.97</ele>
        <time>2017-08-11T11:07:05Z</time>
      </trkpt>
      <trkpt lat="45.34917" lon="5.74043">
        <ele>1131.61</ele>
        <time>2017-08-11T11:07:12Z</time>
      </trkpt>
      <trkpt lat="45.34922" lon="5.74056">
        <ele>1127.76</ele>
        <time>2017-08-11T11:07:18Z</time>
      </trkpt>
      <trkpt lat="45.34927" lon="5.74072">
        <ele>1123.92</ele>
        <time>2017-08-11T11:07:25Z</time>
      </trkpt>
      <trkpt lat="45.34927" lon="5.74076">
        <ele>1123.44</ele>
        <time>2017-08-11T11:07:26Z</time>
      </trkpt>
      <trkpt lat="45.3493" lon="5.74102">
        <ele>1125.36</ele>
        <time>2017-08-11T11:07:32Z</time>
      </trkpt>
      <trkpt lat="45.34932" lon="5.7411">
        <ele>1124.4</ele>
        <time>2017-08-11T11:07:36Z</time>
      </trkpt>
      <trkpt lat="45.34936" lon="5.74122">
        <ele>1123.44</ele>
        <time>2017-08-11T11:07:41Z</time>
      </trkpt>
      <trkpt lat="45.34939" lon="5.74128">
        <ele>1122</ele>
        <time>2017-08-11T11:07:44Z</time>
      </trkpt>
      <trkpt lat="45.34947" lon="5.74141">
        <ele>1117.19</ele>
        <time>2017-08-11T11:07:51Z</time>
      </trkpt>
      <trkpt lat="45.3495" lon="5.74147">
        <ele>1115.27</ele>
        <time>2017-08-11T11:07:53Z</time>
      </trkpt>
      <trkpt lat="45.34957" lon="5.74156">
        <ele>1111.9</ele>
        <time>2017-08-11T11:07:57Z</time>
      </trkpt>
      <trkpt lat="45.34973" lon="5.74169">
        <ele>1105.17</ele>
        <time>2017-08-11T11:08:04Z</time>
      </trkpt>
      <trkpt lat="45.34982" lon="5.74172">
        <ele>1099.89</ele>
        <time>2017-08-11T11:08:08Z</time>
      </trkpt>
      <trkpt lat="45.34991" lon="5.74191">
        <ele>1099.4</ele>
        <time>2017-08-11T11:08:13Z</time>
      </trkpt>
      <trkpt lat="45.34995" lon="5.74203">
        <ele>1099.4</ele>
        <time>2017-08-11T11:08:16Z</time>
      </trkpt>
      <trkpt lat="45.35002" lon="5.74221">
        <ele>1101.33</ele>
        <time>2017-08-11T11:08:21Z</time>
      </trkpt>
      <trkpt lat="45.35018" lon="5.74244">
        <ele>1098.44</ele>
        <time>2017-08-11T11:08:28Z</time>
      </trkpt>
      <trkpt lat="45.35027" lon="5.74257">
        <ele>1097.48</ele>
        <time>2017-08-11T11:08:34Z</time>
      </trkpt>
      <trkpt lat="45.35034" lon="5.74273">
        <ele>1093.64</ele>
        <time>2017-08-11T11:08:40Z</time>
      </trkpt>
      <trkpt lat="45.35034" lon="5.74277">
        <ele>1093.16</ele>
        <time>2017-08-11T11:08:41Z</time>
      </trkpt>
      <trkpt lat="45.35038" lon="5.74298">
        <ele>1088.35</ele>
        <time>2017-08-11T11:08:48Z</time>
      </trkpt>
      <trkpt lat="45.35047" lon="5.74311">
        <ele>1085.47</ele>
        <time>2017-08-11T11:08:53Z</time>
      </trkpt>
      <trkpt lat="45.35054" lon="5.74329">
        <ele>1081.14</ele>
        <time>2017-08-11T11:08:59Z</time>
      </trkpt>
      <trkpt lat="45.35067" lon="5.74353">
        <ele>1081.14</ele>
        <time>2017-08-11T11:09:07Z</time>
      </trkpt>
      <trkpt lat="45.35076" lon="5.74362">
        <ele>1079.7</ele>
        <time>2017-08-11T11:09:11Z</time>
      </trkpt>
      <trkpt lat="45.35082" lon="5.74369">
        <ele>1080.66</ele>
        <time>2017-08-11T11:09:15Z</time>
      </trkpt>
      <trkpt lat="45.35084" lon="5.74372">
        <ele>1081.14</ele>
        <time>2017-08-11T11:09:17Z</time>
      </trkpt>
      <trkpt lat="45.35088" lon="5.74375">
        <ele>1081.14</ele>
        <time>2017-08-11T11:09:19Z</time>
      </trkpt>
      <trkpt lat="45.35107" lon="5.74411">
        <ele>1084.5</ele>
        <time>2017-08-11T11:09:27Z</time>
      </trkpt>
      <trkpt lat="45.35113" lon="5.74426">
        <ele>1086.91</ele>
        <time>2017-08-11T11:09:30Z</time>
      </trkpt>
      <trkpt lat="45.35119" lon="5.74444">
        <ele>1087.39</ele>
        <time>2017-08-11T11:09:35Z</time>
      </trkpt>
      <trkpt lat="45.35124" lon="5.74453">
        <ele>1085.47</ele>
        <time>2017-08-11T11:09:39Z</time>
      </trkpt>
      <trkpt lat="45.35127" lon="5.74455">
        <ele>1084.5</ele>
        <time>2017-08-11T11:09:42Z</time>
      </trkpt>
      <trkpt lat="45.35131" lon="5.7446">
        <ele>1081.62</ele>
        <time>2017-08-11T11:09:46Z</time>
      </trkpt>
      <trkpt lat="45.35142" lon="5.74467">
        <ele>1077.29</ele>
        <time>2017-08-11T11:09:51Z</time>
      </trkpt>
      <trkpt lat="45.35157" lon="5.74473">
        <ele>1070.57</ele>
        <time>2017-08-11T11:09:59Z</time>
      </trkpt>
      <trkpt lat="45.35165" lon="5.74478">
        <ele>1067.68</ele>
        <time>2017-08-11T11:10:03Z</time>
      </trkpt>
      <trkpt lat="45.35177" lon="5.74489">
        <ele>1068.64</ele>
        <time>2017-08-11T11:10:10Z</time>
      </trkpt>
      <trkpt lat="45.35182" lon="5.74492">
        <ele>1069.6</ele>
        <time>2017-08-11T11:10:13Z</time>
      </trkpt>
      <trkpt lat="45.35192" lon="5.74492">
        <ele>1070.57</ele>
        <time>2017-08-11T11:10:19Z</time>
      </trkpt>
      <trkpt lat="45.35206" lon="5.74505">
        <ele>1071.05</ele>
        <time>2017-08-11T11:10:25Z</time>
      </trkpt>
      <trkpt lat="45.35212" lon="5.74512">
        <ele>1071.53</ele>
        <time>2017-08-11T11:10:28Z</time>
      </trkpt>
      <trkpt lat="45.35223" lon="5.74522">
        <ele>1072.49</ele>
        <time>2017-08-11T11:10:35Z</time>
      </trkpt>
      <trkpt lat="45.35229" lon="5.74529">
        <ele>1072.97</ele>
        <time>2017-08-11T11:10:39Z</time>
      </trkpt>
      <trkpt lat="45.35233" lon="5.74533">
        <ele>1072.97</ele>
        <time>2017-08-11T11:10:42Z</time>
      </trkpt>
      <trkpt lat="45.35235" lon="5.74534">
        <ele>1072.97</ele>
        <time>2017-08-11T11:10:44Z</time>
      </trkpt>
      <trkpt lat="45.35244" lon="5.74545">
        <ele>1074.41</ele>
        <time>2017-08-11T11:10:51Z</time>
      </trkpt>
      <trkpt lat="45.35251" lon="5.74553">
        <ele>1075.37</ele>
        <time>2017-08-11T11:10:57Z</time>
      </trkpt>
      <trkpt lat="45.35258" lon="5.74559">
        <ele>1075.85</ele>
        <time>2017-08-11T11:11:02Z</time>
      </trkpt>
      <trkpt lat="45.35265" lon="5.74566">
        <ele>1076.81</ele>
        <time>2017-08-11T11:11:09Z</time>
      </trkpt>
      <trkpt lat="45.35272" lon="5.74578">
        <ele>1077.78</ele>
        <time>2017-08-11T11:11:14Z</time>
      </trkpt>
      <trkpt lat="45.35275" lon="5.74585">
        <ele>1078.26</ele>
        <time>2017-08-11T11:11:17Z</time>
      </trkpt>
      <trkpt lat="45.35283" lon="5.74606">
        <ele>1079.22</ele>
        <time>2017-08-11T11:11:26Z</time>
      </trkpt>
      <trkpt lat="45.35292" lon="5.74617">
        <ele>1079.7</ele>
        <time>2017-08-11T11:11:34Z</time>
      </trkpt>
      <trkpt lat="45.353" lon="5.74625">
        <ele>1080.66</ele>
        <time>2017-08-11T11:11:41Z</time>
      </trkpt>
      <trkpt lat="45.35301" lon="5.74627">
        <ele>1080.66</ele>
        <time>2017-08-11T11:11:43Z</time>
      </trkpt>
      <trkpt lat="45.35303" lon="5.7463">
        <ele>1080.66</ele>
        <time>2017-08-11T11:11:45Z</time>
      </trkpt>
      <trkpt lat="45.35309" lon="5.74637">
        <ele>1081.14</ele>
        <time>2017-08-11T11:11:50Z</time>
      </trkpt>
      <trkpt lat="45.35321" lon="5.74646">
        <ele>1079.7</ele>
        <time>2017-08-11T11:11:58Z</time>
      </trkpt>
      <trkpt lat="45.35332" lon="5.74654">
        <ele>1079.7</ele>
        <time>2017-08-11T11:12:05Z</time>
      </trkpt>
      <trkpt lat="45.35341" lon="5.7466">
        <ele>1078.26</ele>
        <time>2017-08-11T11:12:12Z</time>
      </trkpt>
      <trkpt lat="45.35347" lon="5.74667">
        <ele>1080.66</ele>
        <time>2017-08-11T11:12:19Z</time>
      </trkpt>
      <trkpt lat="45.35349" lon="5.7467">
        <ele>1082.1</ele>
        <time>2017-08-11T11:12:25Z</time>
      </trkpt>
      <trkpt lat="45.3535" lon="5.74672">
        <ele>1082.58</ele>
        <time>2017-08-11T11:12:35Z</time>
      </trkpt>
      <trkpt lat="45.35354" lon="5.74676">
        <ele>1084.02</ele>
        <time>2017-08-11T11:12:44Z</time>
      </trkpt>
      <trkpt lat="45.35361" lon="5.74681">
        <ele>1083.54</ele>
        <time>2017-08-11T11:12:51Z</time>
      </trkpt>
      <trkpt lat="45.35363" lon="5.74686">
        <ele>1086.43</ele>
        <time>2017-08-11T11:12:59Z</time>
      </trkpt>
      <trkpt lat="45.35367" lon="5.74691">
        <ele>1090.75</ele>
        <time>2017-08-11T11:13:10Z</time>
      </trkpt>
      <trkpt lat="45.35371" lon="5.74694">
        <ele>1093.16</ele>
        <time>2017-08-11T11:13:17Z</time>
      </trkpt>
      <trkpt lat="45.35377" lon="5.74695">
        <ele>1093.64</ele>
        <time>2017-08-11T11:13:26Z</time>
      </trkpt>
      <trkpt lat="45.35386" lon="5.74698">
        <ele>1095.08</ele>
        <time>2017-08-11T11:13:33Z</time>
      </trkpt>
      <trkpt lat="45.35398" lon="5.747">
        <ele>1097</ele>
        <time>2017-08-11T11:13:41Z</time>
      </trkpt>
      <trkpt lat="45.35413" lon="5.747">
        <ele>1097</ele>
        <time>2017-08-11T11:13:48Z</time>
      </trkpt>
      <trkpt lat="45.35416" lon="5.74702">
        <ele>1097</ele>
        <time>2017-08-11T11:13:50Z</time>
      </trkpt>
      <trkpt lat="45.35424" lon="5.74705">
        <ele>1096.52</ele>
        <time>2017-08-11T11:13:56Z</time>
      </trkpt>
      <trkpt lat="45.35432" lon="5.74709">
        <ele>1096.52</ele>
        <time>2017-08-11T11:14:02Z</time>
      </trkpt>
      <trkpt lat="45.35438" lon="5.74712">
        <ele>1096.52</ele>
        <time>2017-08-11T11:14:08Z</time>
      </trkpt>
      <trkpt lat="45.35441" lon="5.74713">
        <ele>1096.52</ele>
        <time>2017-08-11T11:14:15Z</time>
      </trkpt>
      <trkpt lat="45.35444" lon="5.74715">
        <ele>1096.04</ele>
        <time>2017-08-11T11:14:24Z</time>
      </trkpt>
      <trkpt lat="45.35448" lon="5.74718">
        <ele>1094.6</ele>
        <time>2017-08-11T11:14:32Z</time>
      </trkpt>
      <trkpt lat="45.35451" lon="5.7472">
        <ele>1095.08</ele>
        <time>2017-08-11T11:14:44Z</time>
      </trkpt>
      <trkpt lat="45.35452" lon="5.74723">
        <ele>1095.08</ele>
        <time>2017-08-11T11:14:51Z</time>
      </trkpt>
      <trkpt lat="45.35453" lon="5.74726">
        <ele>1095.56</ele>
        <time>2017-08-11T11:15:03Z</time>
      </trkpt>
      <trkpt lat="45.35454" lon="5.74728">
        <ele>1097</ele>
        <time>2017-08-11T11:15:20Z</time>
      </trkpt>
      <trkpt lat="45.35455" lon="5.74729">
        <ele>1097.96</ele>
        <time>2017-08-11T11:15:37Z</time>
      </trkpt>
      <trkpt lat="45.35454" lon="5.74731">
        <ele>1097.96</ele>
        <time>2017-08-11T11:15:47Z</time>
      </trkpt>
      <trkpt lat="45.35454" lon="5.74731">
        <ele>1097.96</ele>
        <time>2017-08-11T11:15:56Z</time>
      </trkpt>
      <trkpt lat="45.35453" lon="5.7473">
        <ele>1097.96</ele>
        <time>2017-08-11T11:16:05Z</time>
      </trkpt>
      <trkpt lat="45.35453" lon="5.74729">
        <ele>1097.48</ele>
        <time>2017-08-11T11:16:12Z</time>
      </trkpt>
      <trkpt lat="45.35452" lon="5.74728">
        <ele>1097</ele>
        <time>2017-08-11T11:16:22Z</time>
      </trkpt>
      <trkpt lat="45.35452" lon="5.74727">
        <ele>1097</ele>
        <time>2017-08-11T11:16:31Z</time>
      </trkpt>
      <trkpt lat="45.35451" lon="5.74726">
        <ele>1097</ele>
        <time>2017-08-11T11:16:44Z</time>
      </trkpt>
      <trkpt lat="45.3545" lon="5.74724">
        <ele>1096.52</ele>
        <time>2017-08-11T11:17:05Z</time>
      </trkpt>
      <trkpt lat="45.35449" lon="5.74721">
        <ele>1096.04</ele>
        <time>2017-08-11T11:17:22Z</time>
      </trkpt>
      <trkpt lat="45.35448" lon="5.74718">
        <ele>1096.52</ele>
        <time>2017-08-11T11:17:35Z</time>
      </trkpt>
      <trkpt lat="45.35447" lon="5.74716">
        <ele>1097</ele>
        <time>2017-08-11T11:17:52Z</time>
      </trkpt>
      <trkpt lat="45.35446" lon="5.74714">
        <ele>1097.48</ele>
        <time>2017-08-11T11:18:03Z</time>
      </trkpt>
      <trkpt lat="45.35446" lon="5.74713">
        <ele>1097.48</ele>
        <time>2017-08-11T11:18:14Z</time>
      </trkpt>
      <trkpt lat="45.35445" lon="5.74712">
        <ele>1097.48</ele>
        <time>2017-08-11T11:18:22Z</time>
      </trkpt>
      <trkpt lat="45.35444" lon="5.74712">
        <ele>1097</ele>
        <time>2017-08-11T11:18:33Z</time>
      </trkpt>
      <trkpt lat="45.35443" lon="5.74711">
        <ele>1097</ele>
        <time>2017-08-11T11:18:45Z</time>
      </trkpt>
      <trkpt lat="45.35443" lon="5.74711">
        <ele>1097.48</ele>
        <time>2017-08-11T11:18:55Z</time>
      </trkpt>
      <trkpt lat="45.35442" lon="5.7471">
        <ele>1097.96</ele>
        <time>2017-08-11T11:19:07Z</time>
      </trkpt>
      <trkpt lat="45.35441" lon="5.7471">
        <ele>1098.92</ele>
        <time>2017-08-11T11:19:22Z</time>
      </trkpt>
      <trkpt lat="45.3544" lon="5.74709">
        <ele>1098.92</ele>
        <time>2017-08-11T11:19:39Z</time>
      </trkpt>
      <trkpt lat="45.35439" lon="5.7471">
        <ele>1098.44</ele>
        <time>2017-08-11T11:19:54Z</time>
      </trkpt>
      <trkpt lat="45.35439" lon="5.74709">
        <ele>1098.44</ele>
        <time>2017-08-11T11:20:05Z</time>
      </trkpt>
      <trkpt lat="45.35434" lon="5.74706">
        <ele>1098.44</ele>
        <time>2017-08-11T11:20:11Z</time>
      </trkpt>
      <trkpt lat="45.35432" lon="5.74703">
        <ele>1098.44</ele>
        <time>2017-08-11T11:20:19Z</time>
      </trkpt>
      <trkpt lat="45.3543" lon="5.74702">
        <ele>1097.96</ele>
        <time>2017-08-11T11:20:26Z</time>
      </trkpt>
      <trkpt lat="45.35429" lon="5.74701">
        <ele>1097.48</ele>
        <time>2017-08-11T11:20:31Z</time>
      </trkpt>
      <trkpt lat="45.35428" lon="5.747">
        <ele>1096.52</ele>
        <time>2017-08-11T11:20:32Z</time>
      </trkpt>
      <trkpt lat="45.35422" lon="5.74694">
        <ele>1092.2</ele>
        <time>2017-08-11T11:20:38Z</time>
      </trkpt>
      <trkpt lat="45.35416" lon="5.74686">
        <ele>1088.35</ele>
        <time>2017-08-11T11:20:44Z</time>
      </trkpt>
      <trkpt lat="45.35414" lon="5.74683">
        <ele>1086.43</ele>
        <time>2017-08-11T11:20:46Z</time>
      </trkpt>
      <trkpt lat="45.35408" lon="5.74671">
        <ele>1081.14</ele>
        <time>2017-08-11T11:20:52Z</time>
      </trkpt>
      <trkpt lat="45.35408" lon="5.7467">
        <ele>1080.66</ele>
        <time>2017-08-11T11:20:53Z</time>
      </trkpt>
      <trkpt lat="45.35413" lon="5.74668">
        <ele>1073.45</ele>
        <time>2017-08-11T11:21:00Z</time>
      </trkpt>
      <trkpt lat="45.35413" lon="5.74666">
        <ele>1070.57</ele>
        <time>2017-08-11T11:21:03Z</time>
      </trkpt>
      <trkpt lat="45.35409" lon="5.74655">
        <ele>1066.24</ele>
        <time>2017-08-11T11:21:08Z</time>
      </trkpt>
      <trkpt lat="45.35407" lon="5.74648">
        <ele>1063.36</ele>
        <time>2017-08-11T11:21:12Z</time>
      </trkpt>
      <trkpt lat="45.35401" lon="5.74634">
        <ele>1058.55</ele>
        <time>2017-08-11T11:21:18Z</time>
      </trkpt>
      <trkpt lat="45.35396" lon="5.74626">
        <ele>1054.22</ele>
        <time>2017-08-11T11:21:24Z</time>
      </trkpt>
      <trkpt lat="45.35395" lon="5.74625">
        <ele>1053.74</ele>
        <time>2017-08-11T11:21:26Z</time>
      </trkpt>
      <trkpt lat="45.3539" lon="5.74608">
        <ele>1047.49</ele>
        <time>2017-08-11T11:21:33Z</time>
      </trkpt>
      <trkpt lat="45.35387" lon="5.74595">
        <ele>1043.65</ele>
        <time>2017-08-11T11:21:38Z</time>
      </trkpt>
      <trkpt lat="45.35386" lon="5.74593">
        <ele>1042.21</ele>
        <time>2017-08-11T11:21:39Z</time>
      </trkpt>
      <trkpt lat="45.35385" lon="5.74593">
        <ele>1039.8</ele>
        <time>2017-08-11T11:21:41Z</time>
      </trkpt>
      <trkpt lat="45.35386" lon="5.74598">
        <ele>1034.04</ele>
        <time>2017-08-11T11:21:46Z</time>
      </trkpt>
      <trkpt lat="45.3539" lon="5.74599">
        <ele>1027.31</ele>
        <time>2017-08-11T11:21:52Z</time>
      </trkpt>
      <trkpt lat="45.35393" lon="5.74598">
        <ele>1025.38</ele>
        <time>2017-08-11T11:21:57Z</time>
      </trkpt>
      <trkpt lat="45.35395" lon="5.74593">
        <ele>1022.5</ele>
        <time>2017-08-11T11:22:00Z</time>
      </trkpt>
      <trkpt lat="45.35404" lon="5.74592">
        <ele>1016.73</ele>
        <time>2017-08-11T11:22:06Z</time>
      </trkpt>
      <trkpt lat="45.35403" lon="5.74599">
        <ele>1011.93</ele>
        <time>2017-08-11T11:22:11Z</time>
      </trkpt>
      <trkpt lat="45.35403" lon="5.74599">
        <ele>1011.93</ele>
        <time>2017-08-11T11:22:13Z</time>
      </trkpt>
      <trkpt lat="45.35404" lon="5.74601">
        <ele>1010</ele>
        <time>2017-08-11T11:22:15Z</time>
      </trkpt>
      <trkpt lat="45.35403" lon="5.74604">
        <ele>1003.27</ele>
        <time>2017-08-11T11:22:22Z</time>
      </trkpt>
      <trkpt lat="45.354" lon="5.74604">
        <ele>999.91</ele>
        <time>2017-08-11T11:22:25Z</time>
      </trkpt>
      <trkpt lat="45.354" lon="5.74602">
        <ele>992.7</ele>
        <time>2017-08-11T11:22:31Z</time>
      </trkpt>
      <trkpt lat="45.35403" lon="5.74595">
        <ele>985.49</ele>
        <time>2017-08-11T11:22:37Z</time>
      </trkpt>
      <trkpt lat="45.35404" lon="5.74594">
        <ele>984.05</ele>
        <time>2017-08-11T11:22:39Z</time>
      </trkpt>
      <trkpt lat="45.35406" lon="5.74587">
        <ele>975.88</ele>
        <time>2017-08-11T11:22:46Z</time>
      </trkpt>
      <trkpt lat="45.35407" lon="5.74581">
        <ele>972.03</ele>
        <time>2017-08-11T11:22:51Z</time>
      </trkpt>
      <trkpt lat="45.35403" lon="5.74571">
        <ele>967.22</ele>
        <time>2017-08-11T11:22:58Z</time>
      </trkpt>
      <trkpt lat="45.35403" lon="5.74571">
        <ele>967.7</ele>
        <time>2017-08-11T11:23:03Z</time>
      </trkpt>
      <trkpt lat="45.35403" lon="5.74568">
        <ele>965.78</ele>
        <time>2017-08-11T11:23:13Z</time>
      </trkpt>
      <trkpt lat="45.35403" lon="5.74569">
        <ele>960.98</ele>
        <time>2017-08-11T11:23:18Z</time>
      </trkpt>
      <trkpt lat="45.35401" lon="5.74559">
        <ele>954.73</ele>
        <time>2017-08-11T11:23:26Z</time>
      </trkpt>
      <trkpt lat="45.3541" lon="5.74549">
        <ele>952.8</ele>
        <time>2017-08-11T11:23:33Z</time>
      </trkpt>
      <trkpt lat="45.35416" lon="5.74547">
        <ele>952.8</ele>
        <time>2017-08-11T11:23:39Z</time>
      </trkpt>
      <trkpt lat="45.35416" lon="5.7455">
        <ele>951.36</ele>
        <time>2017-08-11T11:23:45Z</time>
      </trkpt>
      <trkpt lat="45.35419" lon="5.74543">
        <ele>948.48</ele>
        <time>2017-08-11T11:23:54Z</time>
      </trkpt>
      <trkpt lat="45.35423" lon="5.74541">
        <ele>949.44</ele>
        <time>2017-08-11T11:23:57Z</time>
      </trkpt>
      <trkpt lat="45.35427" lon="5.74541">
        <ele>950.4</ele>
        <time>2017-08-11T11:24:00Z</time>
      </trkpt>
      <trkpt lat="45.3543" lon="5.74534">
        <ele>947.52</ele>
        <time>2017-08-11T11:24:05Z</time>
      </trkpt>
      <trkpt lat="45.35431" lon="5.7452">
        <ele>944.15</ele>
        <time>2017-08-11T11:24:12Z</time>
      </trkpt>
      <trkpt lat="45.3543" lon="5.74517">
        <ele>943.19</ele>
        <time>2017-08-11T11:24:14Z</time>
      </trkpt>
      <trkpt lat="45.35431" lon="5.74507">
        <ele>939.35</ele>
        <time>2017-08-11T11:24:21Z</time>
      </trkpt>
      <trkpt lat="45.35429" lon="5.74504">
        <ele>937.9</ele>
        <time>2017-08-11T11:24:25Z</time>
      </trkpt>
      <trkpt lat="45.35428" lon="5.74491">
        <ele>936.46</ele>
        <time>2017-08-11T11:24:31Z</time>
      </trkpt>
      <trkpt lat="45.35429" lon="5.74481">
        <ele>938.86</ele>
        <time>2017-08-11T11:24:37Z</time>
      </trkpt>
      <trkpt lat="45.35435" lon="5.7448">
        <ele>939.35</ele>
        <time>2017-08-11T11:24:44Z</time>
      </trkpt>
      <trkpt lat="45.35436" lon="5.7448">
        <ele>939.35</ele>
        <time>2017-08-11T11:24:45Z</time>
      </trkpt>
      <trkpt lat="45.35444" lon="5.7447">
        <ele>939.35</ele>
        <time>2017-08-11T11:24:51Z</time>
      </trkpt>
      <trkpt lat="45.35446" lon="5.74458">
        <ele>933.58</ele>
        <time>2017-08-11T11:24:58Z</time>
      </trkpt>
      <trkpt lat="45.35449" lon="5.74457">
        <ele>932.62</ele>
        <time>2017-08-11T11:25:01Z</time>
      </trkpt>
      <trkpt lat="45.35454" lon="5.74462">
        <ele>930.69</ele>
        <time>2017-08-11T11:25:06Z</time>
      </trkpt>
      <trkpt lat="45.35459" lon="5.74465">
        <ele>930.21</ele>
        <time>2017-08-11T11:25:11Z</time>
      </trkpt>
      <trkpt lat="45.35465" lon="5.74458">
        <ele>927.33</ele>
        <time>2017-08-11T11:25:18Z</time>
      </trkpt>
      <trkpt lat="45.35468" lon="5.74456">
        <ele>925.41</ele>
        <time>2017-08-11T11:25:23Z</time>
      </trkpt>
      <trkpt lat="45.35472" lon="5.74463">
        <ele>921.56</ele>
        <time>2017-08-11T11:25:29Z</time>
      </trkpt>
      <trkpt lat="45.35475" lon="5.7447">
        <ele>915.31</ele>
        <time>2017-08-11T11:25:36Z</time>
      </trkpt>
      <trkpt lat="45.35476" lon="5.74471">
        <ele>912.91</ele>
        <time>2017-08-11T11:25:39Z</time>
      </trkpt>
      <trkpt lat="45.35478" lon="5.74471">
        <ele>910.51</ele>
        <time>2017-08-11T11:25:44Z</time>
      </trkpt>
      <trkpt lat="45.3548" lon="5.74464">
        <ele>907.14</ele>
        <time>2017-08-11T11:25:48Z</time>
      </trkpt>
      <trkpt lat="45.35489" lon="5.74455">
        <ele>903.3</ele>
        <time>2017-08-11T11:25:55Z</time>
      </trkpt>
      <trkpt lat="45.35489" lon="5.74453">
        <ele>902.82</ele>
        <time>2017-08-11T11:25:58Z</time>
      </trkpt>
      <trkpt lat="45.355" lon="5.74446">
        <ele>902.82</ele>
        <time>2017-08-11T11:26:02Z</time>
      </trkpt>
      <trkpt lat="45.35516" lon="5.74435">
        <ele>903.78</ele>
        <time>2017-08-11T11:26:08Z</time>
      </trkpt>
      <trkpt lat="45.35525" lon="5.74433">
        <ele>904.26</ele>
        <time>2017-08-11T11:26:10Z</time>
      </trkpt>
      <trkpt lat="45.35543" lon="5.74437">
        <ele>903.3</ele>
        <time>2017-08-11T11:26:17Z</time>
      </trkpt>
      <trkpt lat="45.35547" lon="5.74439">
        <ele>902.33</ele>
        <time>2017-08-11T11:26:20Z</time>
      </trkpt>
      <trkpt lat="45.35547" lon="5.74452">
        <ele>900.89</ele>
        <time>2017-08-11T11:26:29Z</time>
      </trkpt>
      <trkpt lat="45.35546" lon="5.74457">
        <ele>900.89</ele>
        <time>2017-08-11T11:26:33Z</time>
      </trkpt>
      <trkpt lat="45.35544" lon="5.74463">
        <ele>899.45</ele>
        <time>2017-08-11T11:26:36Z</time>
      </trkpt>
      <trkpt lat="45.35543" lon="5.74482">
        <ele>894.16</ele>
        <time>2017-08-11T11:26:44Z</time>
      </trkpt>
      <trkpt lat="45.35546" lon="5.74486">
        <ele>891.76</ele>
        <time>2017-08-11T11:26:47Z</time>
      </trkpt>
      <trkpt lat="45.35546" lon="5.74494">
        <ele>887.43</ele>
        <time>2017-08-11T11:26:52Z</time>
      </trkpt>
      <trkpt lat="45.35545" lon="5.745">
        <ele>883.11</ele>
        <time>2017-08-11T11:26:58Z</time>
      </trkpt>
      <trkpt lat="45.35547" lon="5.74502">
        <ele>882.15</ele>
        <time>2017-08-11T11:26:59Z</time>
      </trkpt>
      <trkpt lat="45.35553" lon="5.74503">
        <ele>878.3</ele>
        <time>2017-08-11T11:27:03Z</time>
      </trkpt>
      <trkpt lat="45.35566" lon="5.74505">
        <ele>869.17</ele>
        <time>2017-08-11T11:27:10Z</time>
      </trkpt>
      <trkpt lat="45.35572" lon="5.74507">
        <ele>860.04</ele>
        <time>2017-08-11T11:27:15Z</time>
      </trkpt>
      <trkpt lat="45.35584" lon="5.7451">
        <ele>853.31</ele>
        <time>2017-08-11T11:27:22Z</time>
      </trkpt>
      <trkpt lat="45.35591" lon="5.74512">
        <ele>849.94</ele>
        <time>2017-08-11T11:27:25Z</time>
      </trkpt>
      <trkpt lat="45.35601" lon="5.74515">
        <ele>843.69</ele>
        <time>2017-08-11T11:27:30Z</time>
      </trkpt>
      <trkpt lat="45.35609" lon="5.74518">
        <ele>839.37</ele>
        <time>2017-08-11T11:27:35Z</time>
      </trkpt>
      <trkpt lat="45.35614" lon="5.74516">
        <ele>837.45</ele>
        <time>2017-08-11T11:27:38Z</time>
      </trkpt>
      <trkpt lat="45.35622" lon="5.74507">
        <ele>837.93</ele>
        <time>2017-08-11T11:27:43Z</time>
      </trkpt>
      <trkpt lat="45.3564" lon="5.74503">
        <ele>845.14</ele>
        <time>2017-08-11T11:27:50Z</time>
      </trkpt>
      <trkpt lat="45.35657" lon="5.74505">
        <ele>848.5</ele>
        <time>2017-08-11T11:27:56Z</time>
      </trkpt>
      <trkpt lat="45.35674" lon="5.74502">
        <ele>851.38</ele>
        <time>2017-08-11T11:28:02Z</time>
      </trkpt>
      <trkpt lat="45.35679" lon="5.74502">
        <ele>851.38</ele>
        <time>2017-08-11T11:28:03Z</time>
      </trkpt>
      <trkpt lat="45.35692" lon="5.74504">
        <ele>852.35</ele>
        <time>2017-08-11T11:28:07Z</time>
      </trkpt>
      <trkpt lat="45.35706" lon="5.74513">
        <ele>852.35</ele>
        <time>2017-08-11T11:28:14Z</time>
      </trkpt>
      <trkpt lat="45.35717" lon="5.74524">
        <ele>847.54</ele>
        <time>2017-08-11T11:28:21Z</time>
      </trkpt>
      <trkpt lat="45.35723" lon="5.74538">
        <ele>844.66</ele>
        <time>2017-08-11T11:28:26Z</time>
      </trkpt>
      <trkpt lat="45.35726" lon="5.74534">
        <ele>843.21</ele>
        <time>2017-08-11T11:28:31Z</time>
      </trkpt>
      <trkpt lat="45.35738" lon="5.74518">
        <ele>841.29</ele>
        <time>2017-08-11T11:28:40Z</time>
      </trkpt>
      <trkpt lat="45.35746" lon="5.74506">
        <ele>839.85</ele>
        <time>2017-08-11T11:28:47Z</time>
      </trkpt>
      <trkpt lat="45.35754" lon="5.74498">
        <ele>842.25</ele>
        <time>2017-08-11T11:28:50Z</time>
      </trkpt>
      <trkpt lat="45.35775" lon="5.74479">
        <ele>848.02</ele>
        <time>2017-08-11T11:28:58Z</time>
      </trkpt>
      <trkpt lat="45.3578" lon="5.74474">
        <ele>849.94</ele>
        <time>2017-08-11T11:29:00Z</time>
      </trkpt>
      <trkpt lat="45.35791" lon="5.74459">
        <ele>850.9</ele>
        <time>2017-08-11T11:29:06Z</time>
      </trkpt>
      <trkpt lat="45.358" lon="5.74447">
        <ele>850.42</ele>
        <time>2017-08-11T11:29:11Z</time>
      </trkpt>
      <trkpt lat="45.35804" lon="5.74438">
        <ele>848.02</ele>
        <time>2017-08-11T11:29:16Z</time>
      </trkpt>
      <trkpt lat="45.35812" lon="5.74419">
        <ele>845.14</ele>
        <time>2017-08-11T11:29:24Z</time>
      </trkpt>
      <trkpt lat="45.35824" lon="5.74401">
        <ele>842.73</ele>
        <time>2017-08-11T11:29:32Z</time>
      </trkpt>
      <trkpt lat="45.35835" lon="5.74391">
        <ele>841.77</ele>
        <time>2017-08-11T11:29:38Z</time>
      </trkpt>
      <trkpt lat="45.35843" lon="5.74382">
        <ele>840.81</ele>
        <time>2017-08-11T11:29:44Z</time>
      </trkpt>
      <trkpt lat="45.35853" lon="5.74372">
        <ele>840.81</ele>
        <time>2017-08-11T11:29:50Z</time>
      </trkpt>
      <trkpt lat="45.35864" lon="5.74362">
        <ele>840.33</ele>
        <time>2017-08-11T11:29:56Z</time>
      </trkpt>
      <trkpt lat="45.35875" lon="5.74357">
        <ele>840.81</ele>
        <time>2017-08-11T11:30:01Z</time>
      </trkpt>
      <trkpt lat="45.35895" lon="5.74351">
        <ele>841.29</ele>
        <time>2017-08-11T11:30:10Z</time>
      </trkpt>
      <trkpt lat="45.35902" lon="5.74351">
        <ele>841.29</ele>
        <time>2017-08-11T11:30:13Z</time>
      </trkpt>
      <trkpt lat="45.35915" lon="5.74347">
        <ele>840.81</ele>
        <time>2017-08-11T11:30:21Z</time>
      </trkpt>
      <trkpt lat="45.35921" lon="5.74345">
        <ele>840.33</ele>
        <time>2017-08-11T11:30:24Z</time>
      </trkpt>
      <trkpt lat="45.35928" lon="5.74342">
        <ele>839.85</ele>
        <time>2017-08-11T11:30:28Z</time>
      </trkpt>
      <trkpt lat="45.35943" lon="5.74337">
        <ele>837.93</ele>
        <time>2017-08-11T11:30:37Z</time>
      </trkpt>
      <trkpt lat="45.35959" lon="5.74337">
        <ele>838.41</ele>
        <time>2017-08-11T11:30:45Z</time>
      </trkpt>
      <trkpt lat="45.3597" lon="5.74339">
        <ele>839.37</ele>
        <time>2017-08-11T11:30:51Z</time>
      </trkpt>
      <trkpt lat="45.35972" lon="5.74339">
        <ele>839.85</ele>
        <time>2017-08-11T11:30:52Z</time>
      </trkpt>
      <trkpt lat="45.35988" lon="5.74338">
        <ele>837.45</ele>
        <time>2017-08-11T11:30:58Z</time>
      </trkpt>
      <trkpt lat="45.36005" lon="5.74339">
        <ele>837.93</ele>
        <time>2017-08-11T11:31:06Z</time>
      </trkpt>
      <trkpt lat="45.36007" lon="5.74339">
        <ele>837.93</ele>
        <time>2017-08-11T11:31:07Z</time>
      </trkpt>
      <trkpt lat="45.36022" lon="5.74339">
        <ele>838.41</ele>
        <time>2017-08-11T11:31:14Z</time>
      </trkpt>
      <trkpt lat="45.36042" lon="5.74339">
        <ele>839.37</ele>
        <time>2017-08-11T11:31:23Z</time>
      </trkpt>
      <trkpt lat="45.3606" lon="5.7434">
        <ele>838.41</ele>
        <time>2017-08-11T11:31:31Z</time>
      </trkpt>
      <trkpt lat="45.36077" lon="5.74343">
        <ele>838.89</ele>
        <time>2017-08-11T11:31:39Z</time>
      </trkpt>
      <trkpt lat="45.3609" lon="5.74346">
        <ele>839.85</ele>
        <time>2017-08-11T11:31:45Z</time>
      </trkpt>
      <trkpt lat="45.36097" lon="5.74353">
        <ele>839.37</ele>
        <time>2017-08-11T11:31:52Z</time>
      </trkpt>
      <trkpt lat="45.36097" lon="5.74354">
        <ele>839.37</ele>
        <time>2017-08-11T11:32:05Z</time>
      </trkpt>
      <trkpt lat="45.36097" lon="5.74354">
        <ele>838.89</ele>
        <time>2017-08-11T11:32:23Z</time>
      </trkpt>
      <trkpt lat="45.36097" lon="5.74354">
        <ele>838.89</ele>
        <time>2017-08-11T11:32:36Z</time>
      </trkpt>
      <trkpt lat="45.36096" lon="5.74355">
        <ele>838.89</ele>
        <time>2017-08-11T11:32:47Z</time>
      </trkpt>
      <trkpt lat="45.36096" lon="5.74355">
        <ele>838.89</ele>
        <time>2017-08-11T11:32:53Z</time>
      </trkpt>
      <trkpt lat="45.36106" lon="5.7436">
        <ele>836.96</ele>
        <time>2017-08-11T11:32:59Z</time>
      </trkpt>
      <trkpt lat="45.36109" lon="5.74361">
        <ele>836.48</ele>
        <time>2017-08-11T11:33:00Z</time>
      </trkpt>
      <trkpt lat="45.36119" lon="5.7437">
        <ele>833.12</ele>
        <time>2017-08-11T11:33:06Z</time>
      </trkpt>
      <trkpt lat="45.36132" lon="5.74378">
        <ele>828.31</ele>
        <time>2017-08-11T11:33:13Z</time>
      </trkpt>
      <trkpt lat="45.36149" lon="5.74386">
        <ele>825.43</ele>
        <time>2017-08-11T11:33:20Z</time>
      </trkpt>
      <trkpt lat="45.36158" lon="5.74391">
        <ele>822.55</ele>
        <time>2017-08-11T11:33:25Z</time>
      </trkpt>
      <trkpt lat="45.3616" lon="5.74391">
        <ele>822.55</ele>
        <time>2017-08-11T11:33:33Z</time>
      </trkpt>
      <trkpt lat="45.36175" lon="5.74404">
        <ele>821.58</ele>
        <time>2017-08-11T11:33:40Z</time>
      </trkpt>
      <trkpt lat="45.36177" lon="5.74406">
        <ele>821.58</ele>
        <time>2017-08-11T11:33:41Z</time>
      </trkpt>
      <trkpt lat="45.36195" lon="5.74424">
        <ele>819.66</ele>
        <time>2017-08-11T11:33:50Z</time>
      </trkpt>
      <trkpt lat="45.36206" lon="5.74429">
        <ele>819.66</ele>
        <time>2017-08-11T11:33:55Z</time>
      </trkpt>
      <trkpt lat="45.3622" lon="5.74432">
        <ele>818.7</ele>
        <time>2017-08-11T11:34:02Z</time>
      </trkpt>
      <trkpt lat="45.36231" lon="5.74432">
        <ele>818.7</ele>
        <time>2017-08-11T11:34:07Z</time>
      </trkpt>
      <trkpt lat="45.36248" lon="5.74435">
        <ele>817.74</ele>
        <time>2017-08-11T11:34:13Z</time>
      </trkpt>
      <trkpt lat="45.36273" lon="5.74444">
        <ele>817.74</ele>
        <time>2017-08-11T11:34:22Z</time>
      </trkpt>
      <trkpt lat="45.36286" lon="5.74458">
        <ele>816.3</ele>
        <time>2017-08-11T11:34:28Z</time>
      </trkpt>
      <trkpt lat="45.36297" lon="5.74472">
        <ele>812.93</ele>
        <time>2017-08-11T11:34:34Z</time>
      </trkpt>
      <trkpt lat="45.3631" lon="5.74492">
        <ele>810.05</ele>
        <time>2017-08-11T11:34:41Z</time>
      </trkpt>
      <trkpt lat="45.36321" lon="5.74508">
        <ele>807.64</ele>
        <time>2017-08-11T11:34:47Z</time>
      </trkpt>
      <trkpt lat="45.36335" lon="5.74514">
        <ele>803.8</ele>
        <time>2017-08-11T11:34:54Z</time>
      </trkpt>
      <trkpt lat="45.36347" lon="5.74516">
        <ele>802.36</ele>
        <time>2017-08-11T11:35:00Z</time>
      </trkpt>
      <trkpt lat="45.36364" lon="5.74511">
        <ele>803.32</ele>
        <time>2017-08-11T11:35:07Z</time>
      </trkpt>
      <trkpt lat="45.36366" lon="5.7451">
        <ele>803.32</ele>
        <time>2017-08-11T11:35:08Z</time>
      </trkpt>
      <trkpt lat="45.36376" lon="5.74495">
        <ele>803.32</ele>
        <time>2017-08-11T11:35:16Z</time>
      </trkpt>
      <trkpt lat="45.36385" lon="5.74479">
        <ele>802.84</ele>
        <time>2017-08-11T11:35:22Z</time>
      </trkpt>
      <trkpt lat="45.36389" lon="5.74457">
        <ele>802.36</ele>
        <time>2017-08-11T11:35:29Z</time>
      </trkpt>
      <trkpt lat="45.36391" lon="5.74435">
        <ele>801.4</ele>
        <time>2017-08-11T11:35:35Z</time>
      </trkpt>
      <trkpt lat="45.36394" lon="5.74421">
        <ele>800.44</ele>
        <time>2017-08-11T11:35:39Z</time>
      </trkpt>
      <trkpt lat="45.364" lon="5.74401">
        <ele>798.03</ele>
        <time>2017-08-11T11:35:46Z</time>
      </trkpt>
      <trkpt lat="45.36402" lon="5.74391">
        <ele>796.11</ele>
        <time>2017-08-11T11:35:51Z</time>
      </trkpt>
      <trkpt lat="45.36405" lon="5.74398">
        <ele>793.71</ele>
        <time>2017-08-11T11:35:56Z</time>
      </trkpt>
      <trkpt lat="45.36408" lon="5.74417">
        <ele>789.86</ele>
        <time>2017-08-11T11:36:04Z</time>
      </trkpt>
      <trkpt lat="45.36407" lon="5.74434">
        <ele>784.57</ele>
        <time>2017-08-11T11:36:11Z</time>
      </trkpt>
      <trkpt lat="45.36408" lon="5.74444">
        <ele>780.73</ele>
        <time>2017-08-11T11:36:16Z</time>
      </trkpt>
      <trkpt lat="45.36409" lon="5.74456">
        <ele>777.36</ele>
        <time>2017-08-11T11:36:20Z</time>
      </trkpt>
      <trkpt lat="45.3641" lon="5.74468">
        <ele>773.52</ele>
        <time>2017-08-11T11:36:24Z</time>
      </trkpt>
      <trkpt lat="45.36411" lon="5.74479">
        <ele>769.67</ele>
        <time>2017-08-11T11:36:28Z</time>
      </trkpt>
      <trkpt lat="45.36415" lon="5.74496">
        <ele>762.94</ele>
        <time>2017-08-11T11:36:34Z</time>
      </trkpt>
      <trkpt lat="45.36415" lon="5.74509">
        <ele>757.66</ele>
        <time>2017-08-11T11:36:38Z</time>
      </trkpt>
      <trkpt lat="45.36414" lon="5.74532">
        <ele>752.37</ele>
        <time>2017-08-11T11:36:45Z</time>
      </trkpt>
      <trkpt lat="45.36408" lon="5.74552">
        <ele>750.93</ele>
        <time>2017-08-11T11:36:52Z</time>
      </trkpt>
      <trkpt lat="45.36411" lon="5.74555">
        <ele>753.33</ele>
        <time>2017-08-11T11:36:57Z</time>
      </trkpt>
      <trkpt lat="45.36415" lon="5.74553">
        <ele>756.21</ele>
        <time>2017-08-11T11:37:03Z</time>
      </trkpt>
      <trkpt lat="45.36417" lon="5.74554">
        <ele>758.62</ele>
        <time>2017-08-11T11:37:06Z</time>
      </trkpt>
      <trkpt lat="45.36422" lon="5.74548">
        <ele>761.98</ele>
        <time>2017-08-11T11:37:13Z</time>
      </trkpt>
      <trkpt lat="45.36425" lon="5.74539">
        <ele>766.79</ele>
        <time>2017-08-11T11:37:21Z</time>
      </trkpt>
      <trkpt lat="45.36426" lon="5.74533">
        <ele>768.71</ele>
        <time>2017-08-11T11:37:25Z</time>
      </trkpt>
      <trkpt lat="45.36425" lon="5.74526">
        <ele>768.71</ele>
        <time>2017-08-11T11:37:32Z</time>
      </trkpt>
      <trkpt lat="45.36427" lon="5.74525">
        <ele>768.71</ele>
        <time>2017-08-11T11:37:38Z</time>
      </trkpt>
      <trkpt lat="45.36425" lon="5.74523">
        <ele>769.67</ele>
        <time>2017-08-11T11:37:45Z</time>
      </trkpt>
      <trkpt lat="45.36425" lon="5.74524">
        <ele>769.67</ele>
        <time>2017-08-11T11:37:46Z</time>
      </trkpt>
      <trkpt lat="45.36426" lon="5.74531">
        <ele>769.19</ele>
        <time>2017-08-11T11:37:52Z</time>
      </trkpt>
      <trkpt lat="45.36423" lon="5.74542">
        <ele>771.11</ele>
        <time>2017-08-11T11:38:00Z</time>
      </trkpt>
      <trkpt lat="45.36421" lon="5.7455">
        <ele>771.6</ele>
        <time>2017-08-11T11:38:06Z</time>
      </trkpt>
      <trkpt lat="45.36419" lon="5.7456">
        <ele>773.04</ele>
        <time>2017-08-11T11:38:14Z</time>
      </trkpt>
      <trkpt lat="45.36416" lon="5.74564">
        <ele>774</ele>
        <time>2017-08-11T11:38:17Z</time>
      </trkpt>
      <trkpt lat="45.36408" lon="5.74569">
        <ele>772.56</ele>
        <time>2017-08-11T11:38:27Z</time>
      </trkpt>
      <trkpt lat="45.36398" lon="5.74576">
        <ele>771.6</ele>
        <time>2017-08-11T11:38:35Z</time>
      </trkpt>
      <trkpt lat="45.36388" lon="5.74583">
        <ele>770.15</ele>
        <time>2017-08-11T11:38:40Z</time>
      </trkpt>
      <trkpt lat="45.36378" lon="5.74589">
        <ele>767.27</ele>
        <time>2017-08-11T11:38:46Z</time>
      </trkpt>
      <trkpt lat="45.36365" lon="5.74604">
        <ele>760.54</ele>
        <time>2017-08-11T11:38:54Z</time>
      </trkpt>
      <trkpt lat="45.36362" lon="5.74606">
        <ele>759.58</ele>
        <time>2017-08-11T11:38:56Z</time>
      </trkpt>
      <trkpt lat="45.3635" lon="5.74614">
        <ele>755.73</ele>
        <time>2017-08-11T11:39:02Z</time>
      </trkpt>
      <trkpt lat="45.36347" lon="5.74615">
        <ele>753.33</ele>
        <time>2017-08-11T11:39:09Z</time>
      </trkpt>
      <trkpt lat="45.36343" lon="5.74618">
        <ele>752.37</ele>
        <time>2017-08-11T11:39:12Z</time>
      </trkpt>
      <trkpt lat="45.3633" lon="5.74621">
        <ele>749.49</ele>
        <time>2017-08-11T11:39:18Z</time>
      </trkpt>
      <trkpt lat="45.36326" lon="5.74622">
        <ele>749</ele>
        <time>2017-08-11T11:39:20Z</time>
      </trkpt>
      <trkpt lat="45.36321" lon="5.74621">
        <ele>748.04</ele>
        <time>2017-08-11T11:39:23Z</time>
      </trkpt>
      <trkpt lat="45.36317" lon="5.74621">
        <ele>747.56</ele>
        <time>2017-08-11T11:39:25Z</time>
      </trkpt>
      <trkpt lat="45.36301" lon="5.74613">
        <ele>744.2</ele>
        <time>2017-08-11T11:39:32Z</time>
      </trkpt>
      <trkpt lat="45.36288" lon="5.74607">
        <ele>742.28</ele>
        <time>2017-08-11T11:39:37Z</time>
      </trkpt>
      <trkpt lat="45.36285" lon="5.74608">
        <ele>741.79</ele>
        <time>2017-08-11T11:39:39Z</time>
      </trkpt>
      <trkpt lat="45.36277" lon="5.74616">
        <ele>742.76</ele>
        <time>2017-08-11T11:39:46Z</time>
      </trkpt>
      <trkpt lat="45.36269" lon="5.7463">
        <ele>742.28</ele>
        <time>2017-08-11T11:39:53Z</time>
      </trkpt>
      <trkpt lat="45.36269" lon="5.74635">
        <ele>741.79</ele>
        <time>2017-08-11T11:39:55Z</time>
      </trkpt>
      <trkpt lat="45.36264" lon="5.74647">
        <ele>740.35</ele>
        <time>2017-08-11T11:40:00Z</time>
      </trkpt>
      <trkpt lat="45.36259" lon="5.7465">
        <ele>739.39</ele>
        <time>2017-08-11T11:40:02Z</time>
      </trkpt>
      <trkpt lat="45.3625" lon="5.74655">
        <ele>736.03</ele>
        <time>2017-08-11T11:40:07Z</time>
      </trkpt>
      <trkpt lat="45.36239" lon="5.7466">
        <ele>731.7</ele>
        <time>2017-08-11T11:40:13Z</time>
      </trkpt>
      <trkpt lat="45.36231" lon="5.74663">
        <ele>728.34</ele>
        <time>2017-08-11T11:40:17Z</time>
      </trkpt>
      <trkpt lat="45.36218" lon="5.74662">
        <ele>723.05</ele>
        <time>2017-08-11T11:40:23Z</time>
      </trkpt>
      <trkpt lat="45.36207" lon="5.74659">
        <ele>719.68</ele>
        <time>2017-08-11T11:40:27Z</time>
      </trkpt>
      <trkpt lat="45.36197" lon="5.74654">
        <ele>716.32</ele>
        <time>2017-08-11T11:40:33Z</time>
      </trkpt>
      <trkpt lat="45.36187" lon="5.74653">
        <ele>711.99</ele>
        <time>2017-08-11T11:40:42Z</time>
      </trkpt>
      <trkpt lat="45.36186" lon="5.74653">
        <ele>711.51</ele>
        <time>2017-08-11T11:40:43Z</time>
      </trkpt>
      <trkpt lat="45.36179" lon="5.74658">
        <ele>711.99</ele>
        <time>2017-08-11T11:40:51Z</time>
      </trkpt>
      <trkpt lat="45.36176" lon="5.74667">
        <ele>711.99</ele>
        <time>2017-08-11T11:40:59Z</time>
      </trkpt>
      <trkpt lat="45.36176" lon="5.74668">
        <ele>711.51</ele>
        <time>2017-08-11T11:41:00Z</time>
      </trkpt>
      <trkpt lat="45.36173" lon="5.74682">
        <ele>713.44</ele>
        <time>2017-08-11T11:41:07Z</time>
      </trkpt>
      <trkpt lat="45.36172" lon="5.74689">
        <ele>717.76</ele>
        <time>2017-08-11T11:41:10Z</time>
      </trkpt>
      <trkpt lat="45.36177" lon="5.74698">
        <ele>719.68</ele>
        <time>2017-08-11T11:41:16Z</time>
      </trkpt>
      <trkpt lat="45.3618" lon="5.74705">
        <ele>721.61</ele>
        <time>2017-08-11T11:41:21Z</time>
      </trkpt>
      <trkpt lat="45.36183" lon="5.74711">
        <ele>721.61</ele>
        <time>2017-08-11T11:41:25Z</time>
      </trkpt>
      <trkpt lat="45.3619" lon="5.74729">
        <ele>720.16</ele>
        <time>2017-08-11T11:41:32Z</time>
      </trkpt>
      <trkpt lat="45.362" lon="5.74751">
        <ele>721.13</ele>
        <time>2017-08-11T11:41:39Z</time>
      </trkpt>
      <trkpt lat="45.36203" lon="5.7476">
        <ele>721.13</ele>
        <time>2017-08-11T11:41:42Z</time>
      </trkpt>
      <trkpt lat="45.36212" lon="5.74774">
        <ele>719.68</ele>
        <time>2017-08-11T11:41:48Z</time>
      </trkpt>
      <trkpt lat="45.36214" lon="5.74776">
        <ele>719.2</ele>
        <time>2017-08-11T11:41:50Z</time>
      </trkpt>
      <trkpt lat="45.36222" lon="5.74792">
        <ele>715.36</ele>
        <time>2017-08-11T11:41:57Z</time>
      </trkpt>
      <trkpt lat="45.3623" lon="5.74806">
        <ele>711.03</ele>
        <time>2017-08-11T11:42:03Z</time>
      </trkpt>
      <trkpt lat="45.36236" lon="5.74826">
        <ele>707.67</ele>
        <time>2017-08-11T11:42:10Z</time>
      </trkpt>
      <trkpt lat="45.36243" lon="5.74844">
        <ele>706.23</ele>
        <time>2017-08-11T11:42:17Z</time>
      </trkpt>
      <trkpt lat="45.36243" lon="5.74846">
        <ele>705.75</ele>
        <time>2017-08-11T11:42:18Z</time>
      </trkpt>
      <trkpt lat="45.36244" lon="5.74865">
        <ele>702.86</ele>
        <time>2017-08-11T11:42:25Z</time>
      </trkpt>
      <trkpt lat="45.36245" lon="5.74873">
        <ele>702.86</ele>
        <time>2017-08-11T11:42:31Z</time>
      </trkpt>
      <trkpt lat="45.36244" lon="5.74879">
        <ele>704.78</ele>
        <time>2017-08-11T11:42:45Z</time>
      </trkpt>
      <trkpt lat="45.36242" lon="5.74884">
        <ele>705.26</ele>
        <time>2017-08-11T11:42:48Z</time>
      </trkpt>
      <trkpt lat="45.36235" lon="5.74884">
        <ele>702.86</ele>
        <time>2017-08-11T11:42:54Z</time>
      </trkpt>
      <trkpt lat="45.36231" lon="5.74882">
        <ele>701.9</ele>
        <time>2017-08-11T11:42:56Z</time>
      </trkpt>
      <trkpt lat="45.36225" lon="5.74882">
        <ele>700.94</ele>
        <time>2017-08-11T11:43:00Z</time>
      </trkpt>
      <trkpt lat="45.36213" lon="5.74876">
        <ele>697.57</ele>
        <time>2017-08-11T11:43:06Z</time>
      </trkpt>
      <trkpt lat="45.36195" lon="5.74876">
        <ele>695.17</ele>
        <time>2017-08-11T11:43:12Z</time>
      </trkpt>
      <trkpt lat="45.36188" lon="5.74874">
        <ele>693.25</ele>
        <time>2017-08-11T11:43:15Z</time>
      </trkpt>
      <trkpt lat="45.36173" lon="5.74871">
        <ele>691.33</ele>
        <time>2017-08-11T11:43:21Z</time>
      </trkpt>
      <trkpt lat="45.36165" lon="5.74873">
        <ele>688.44</ele>
        <time>2017-08-11T11:43:28Z</time>
      </trkpt>
      <trkpt lat="45.36156" lon="5.74869">
        <ele>686.04</ele>
        <time>2017-08-11T11:43:32Z</time>
      </trkpt>
      <trkpt lat="45.36148" lon="5.74865">
        <ele>685.08</ele>
        <time>2017-08-11T11:43:35Z</time>
      </trkpt>
      <trkpt lat="45.36136" lon="5.74862">
        <ele>684.6</ele>
        <time>2017-08-11T11:43:42Z</time>
      </trkpt>
      <trkpt lat="45.36119" lon="5.74856">
        <ele>683.15</ele>
        <time>2017-08-11T11:43:50Z</time>
      </trkpt>
      <trkpt lat="45.36117" lon="5.74855">
        <ele>682.67</ele>
        <time>2017-08-11T11:43:51Z</time>
      </trkpt>
      <trkpt lat="45.36107" lon="5.74857">
        <ele>680.75</ele>
        <time>2017-08-11T11:43:57Z</time>
      </trkpt>
      <trkpt lat="45.36102" lon="5.74864">
        <ele>680.27</ele>
        <time>2017-08-11T11:44:02Z</time>
      </trkpt>
      <trkpt lat="45.36099" lon="5.74866">
        <ele>678.83</ele>
        <time>2017-08-11T11:44:04Z</time>
      </trkpt>
      <trkpt lat="45.36092" lon="5.74867">
        <ele>676.42</ele>
        <time>2017-08-11T11:44:08Z</time>
      </trkpt>
      <trkpt lat="45.36089" lon="5.74866">
        <ele>675.46</ele>
        <time>2017-08-11T11:44:10Z</time>
      </trkpt>
      <trkpt lat="45.3608" lon="5.74861">
        <ele>674.02</ele>
        <time>2017-08-11T11:44:16Z</time>
      </trkpt>
      <trkpt lat="45.36073" lon="5.74859">
        <ele>673.06</ele>
        <time>2017-08-11T11:44:24Z</time>
      </trkpt>
      <trkpt lat="45.3607" lon="5.74865">
        <ele>672.1</ele>
        <time>2017-08-11T11:44:32Z</time>
      </trkpt>
      <trkpt lat="45.36066" lon="5.7487">
        <ele>671.14</ele>
        <time>2017-08-11T11:44:36Z</time>
      </trkpt>
      <trkpt lat="45.36064" lon="5.74874">
        <ele>670.18</ele>
        <time>2017-08-11T11:44:40Z</time>
      </trkpt>
      <trkpt lat="45.36063" lon="5.7488">
        <ele>669.22</ele>
        <time>2017-08-11T11:44:43Z</time>
      </trkpt>
      <trkpt lat="45.36058" lon="5.7489">
        <ele>668.73</ele>
        <time>2017-08-11T11:44:48Z</time>
      </trkpt>
      <trkpt lat="45.3605" lon="5.74906">
        <ele>667.77</ele>
        <time>2017-08-11T11:44:54Z</time>
      </trkpt>
      <trkpt lat="45.36047" lon="5.74913">
        <ele>668.25</ele>
        <time>2017-08-11T11:44:57Z</time>
      </trkpt>
      <trkpt lat="45.36037" lon="5.74926">
        <ele>668.73</ele>
        <time>2017-08-11T11:45:04Z</time>
      </trkpt>
      <trkpt lat="45.36035" lon="5.7493">
        <ele>669.22</ele>
        <time>2017-08-11T11:45:06Z</time>
      </trkpt>
      <trkpt lat="45.3603" lon="5.74948">
        <ele>670.66</ele>
        <time>2017-08-11T11:45:15Z</time>
      </trkpt>
      <trkpt lat="45.36027" lon="5.74958">
        <ele>671.62</ele>
        <time>2017-08-11T11:45:19Z</time>
      </trkpt>
      <trkpt lat="45.36026" lon="5.74966">
        <ele>672.58</ele>
        <time>2017-08-11T11:45:22Z</time>
      </trkpt>
      <trkpt lat="45.36016" lon="5.74984">
        <ele>675.94</ele>
        <time>2017-08-11T11:45:30Z</time>
      </trkpt>
      <trkpt lat="45.36008" lon="5.75004">
        <ele>676.42</ele>
        <time>2017-08-11T11:45:37Z</time>
      </trkpt>
      <trkpt lat="45.36003" lon="5.75021">
        <ele>673.54</ele>
        <time>2017-08-11T11:45:43Z</time>
      </trkpt>
      <trkpt lat="45.35992" lon="5.75034">
        <ele>670.66</ele>
        <time>2017-08-11T11:45:50Z</time>
      </trkpt>
      <trkpt lat="45.3599" lon="5.75036">
        <ele>670.18</ele>
        <time>2017-08-11T11:45:51Z</time>
      </trkpt>
      <trkpt lat="45.35985" lon="5.7504">
        <ele>667.77</ele>
        <time>2017-08-11T11:45:54Z</time>
      </trkpt>
      <trkpt lat="45.35976" lon="5.75056">
        <ele>664.41</ele>
        <time>2017-08-11T11:45:59Z</time>
      </trkpt>
      <trkpt lat="45.35979" lon="5.75072">
        <ele>665.85</ele>
        <time>2017-08-11T11:46:07Z</time>
      </trkpt>
      <trkpt lat="45.35984" lon="5.75071">
        <ele>663.93</ele>
        <time>2017-08-11T11:46:10Z</time>
      </trkpt>
      <trkpt lat="45.3599" lon="5.75071">
        <ele>662.01</ele>
        <time>2017-08-11T11:46:14Z</time>
      </trkpt>
      <trkpt lat="45.35996" lon="5.75077">
        <ele>658.64</ele>
        <time>2017-08-11T11:46:19Z</time>
      </trkpt>
      <trkpt lat="45.3599" lon="5.75083">
        <ele>654.31</ele>
        <time>2017-08-11T11:46:26Z</time>
      </trkpt>
      <trkpt lat="45.35984" lon="5.75087">
        <ele>650.95</ele>
        <time>2017-08-11T11:46:30Z</time>
      </trkpt>
      <trkpt lat="45.35974" lon="5.7509">
        <ele>645.66</ele>
        <time>2017-08-11T11:46:35Z</time>
      </trkpt>
      <trkpt lat="45.35961" lon="5.7509">
        <ele>639.89</ele>
        <time>2017-08-11T11:46:42Z</time>
      </trkpt>
      <trkpt lat="45.35949" lon="5.75088">
        <ele>635.57</ele>
        <time>2017-08-11T11:46:48Z</time>
      </trkpt>
      <trkpt lat="45.35943" lon="5.75089">
        <ele>634.61</ele>
        <time>2017-08-11T11:46:52Z</time>
      </trkpt>
      <trkpt lat="45.35936" lon="5.75091">
        <ele>633.65</ele>
        <time>2017-08-11T11:46:58Z</time>
      </trkpt>
      <trkpt lat="45.35929" lon="5.75094">
        <ele>633.65</ele>
        <time>2017-08-11T11:47:04Z</time>
      </trkpt>
      <trkpt lat="45.35925" lon="5.75093">
        <ele>632.68</ele>
        <time>2017-08-11T11:47:12Z</time>
      </trkpt>
      <trkpt lat="45.3592" lon="5.75095">
        <ele>631.72</ele>
        <time>2017-08-11T11:47:17Z</time>
      </trkpt>
      <trkpt lat="45.35918" lon="5.75103">
        <ele>630.28</ele>
        <time>2017-08-11T11:47:22Z</time>
      </trkpt>
      <trkpt lat="45.35919" lon="5.75119">
        <ele>627.88</ele>
        <time>2017-08-11T11:47:31Z</time>
      </trkpt>
      <trkpt lat="45.3592" lon="5.75132">
        <ele>627.4</ele>
        <time>2017-08-11T11:47:36Z</time>
      </trkpt>
      <trkpt lat="45.35918" lon="5.75143">
        <ele>626.92</ele>
        <time>2017-08-11T11:47:44Z</time>
      </trkpt>
      <trkpt lat="45.35919" lon="5.75147">
        <ele>626.92</ele>
        <time>2017-08-11T11:47:46Z</time>
      </trkpt>
      <trkpt lat="45.3592" lon="5.75167">
        <ele>625.96</ele>
        <time>2017-08-11T11:47:53Z</time>
      </trkpt>
      <trkpt lat="45.35921" lon="5.75189">
        <ele>626.44</ele>
        <time>2017-08-11T11:48:02Z</time>
      </trkpt>
      <trkpt lat="45.35919" lon="5.75195">
        <ele>625.96</ele>
        <time>2017-08-11T11:48:04Z</time>
      </trkpt>
      <trkpt lat="45.35916" lon="5.75217">
        <ele>625.96</ele>
        <time>2017-08-11T11:48:10Z</time>
      </trkpt>
      <trkpt lat="45.35915" lon="5.75234">
        <ele>627.4</ele>
        <time>2017-08-11T11:48:20Z</time>
      </trkpt>
      <trkpt lat="45.35915" lon="5.75237">
        <ele>627.88</ele>
        <time>2017-08-11T11:48:24Z</time>
      </trkpt>
      <trkpt lat="45.35915" lon="5.75243">
        <ele>628.84</ele>
        <time>2017-08-11T11:48:27Z</time>
      </trkpt>
      <trkpt lat="45.35912" lon="5.75257">
        <ele>626.44</ele>
        <time>2017-08-11T11:48:33Z</time>
      </trkpt>
      <trkpt lat="45.35906" lon="5.75269">
        <ele>621.63</ele>
        <time>2017-08-11T11:48:39Z</time>
      </trkpt>
      <trkpt lat="45.35902" lon="5.75287">
        <ele>616.34</ele>
        <time>2017-08-11T11:48:45Z</time>
      </trkpt>
      <trkpt lat="45.35903" lon="5.75305">
        <ele>613.94</ele>
        <time>2017-08-11T11:48:52Z</time>
      </trkpt>
      <trkpt lat="45.35902" lon="5.75311">
        <ele>613.46</ele>
        <time>2017-08-11T11:48:54Z</time>
      </trkpt>
      <trkpt lat="45.35899" lon="5.75325">
        <ele>610.09</ele>
        <time>2017-08-11T11:48:58Z</time>
      </trkpt>
      <trkpt lat="45.35891" lon="5.75346">
        <ele>602.4</ele>
        <time>2017-08-11T11:49:06Z</time>
      </trkpt>
      <trkpt lat="45.35884" lon="5.75352">
        <ele>598.08</ele>
        <time>2017-08-11T11:49:11Z</time>
      </trkpt>
      <trkpt lat="45.35876" lon="5.75359">
        <ele>597.12</ele>
        <time>2017-08-11T11:49:15Z</time>
      </trkpt>
      <trkpt lat="45.35869" lon="5.75368">
        <ele>596.15</ele>
        <time>2017-08-11T11:49:19Z</time>
      </trkpt>
      <trkpt lat="45.35864" lon="5.75375">
        <ele>595.67</ele>
        <time>2017-08-11T11:49:23Z</time>
      </trkpt>
      <trkpt lat="45.3586" lon="5.75377">
        <ele>595.19</ele>
        <time>2017-08-11T11:49:25Z</time>
      </trkpt>
      <trkpt lat="45.35852" lon="5.75384">
        <ele>592.79</ele>
        <time>2017-08-11T11:49:32Z</time>
      </trkpt>
      <trkpt lat="45.35849" lon="5.75387">
        <ele>592.31</ele>
        <time>2017-08-11T11:49:38Z</time>
      </trkpt>
      <trkpt lat="45.35848" lon="5.75389">
        <ele>592.31</ele>
        <time>2017-08-11T11:49:44Z</time>
      </trkpt>
      <trkpt lat="45.35843" lon="5.754">
        <ele>591.83</ele>
        <time>2017-08-11T11:49:52Z</time>
      </trkpt>
      <trkpt lat="45.35839" lon="5.75416">
        <ele>590.39</ele>
        <time>2017-08-11T11:49:58Z</time>
      </trkpt>
      <trkpt lat="45.35834" lon="5.75426">
        <ele>588.46</ele>
        <time>2017-08-11T11:50:03Z</time>
      </trkpt>
      <trkpt lat="45.35825" lon="5.75437">
        <ele>583.66</ele>
        <time>2017-08-11T11:50:10Z</time>
      </trkpt>
      <trkpt lat="45.35824" lon="5.75439">
        <ele>581.73</ele>
        <time>2017-08-11T11:50:12Z</time>
      </trkpt>
      <trkpt lat="45.3582" lon="5.7545">
        <ele>577.89</ele>
        <time>2017-08-11T11:50:18Z</time>
      </trkpt>
      <trkpt lat="45.35817" lon="5.75458">
        <ele>576.45</ele>
        <time>2017-08-11T11:50:24Z</time>
      </trkpt>
      <trkpt lat="45.35811" lon="5.75466">
        <ele>574.53</ele>
        <time>2017-08-11T11:50:31Z</time>
      </trkpt>
      <trkpt lat="45.3581" lon="5.75468">
        <ele>574.04</ele>
        <time>2017-08-11T11:50:32Z</time>
      </trkpt>
      <trkpt lat="45.35807" lon="5.75486">
        <ele>572.12</ele>
        <time>2017-08-11T11:50:39Z</time>
      </trkpt>
      <trkpt lat="45.35806" lon="5.75488">
        <ele>571.64</ele>
        <time>2017-08-11T11:50:40Z</time>
      </trkpt>
      <trkpt lat="45.35804" lon="5.75491">
        <ele>571.16</ele>
        <time>2017-08-11T11:50:42Z</time>
      </trkpt>
      <trkpt lat="45.35799" lon="5.75502">
        <ele>569.72</ele>
        <time>2017-08-11T11:50:48Z</time>
      </trkpt>
      <trkpt lat="45.35794" lon="5.75511">
        <ele>568.76</ele>
        <time>2017-08-11T11:50:53Z</time>
      </trkpt>
      <trkpt lat="45.35794" lon="5.75513">
        <ele>568.76</ele>
        <time>2017-08-11T11:50:54Z</time>
      </trkpt>
      <trkpt lat="45.35791" lon="5.75525">
        <ele>565.87</ele>
        <time>2017-08-11T11:50:59Z</time>
      </trkpt>
      <trkpt lat="45.35786" lon="5.75533">
        <ele>561.07</ele>
        <time>2017-08-11T11:51:05Z</time>
      </trkpt>
      <trkpt lat="45.35781" lon="5.7554">
        <ele>555.3</ele>
        <time>2017-08-11T11:51:10Z</time>
      </trkpt>
      <trkpt lat="45.3578" lon="5.75542">
        <ele>554.34</ele>
        <time>2017-08-11T11:51:11Z</time>
      </trkpt>
      <trkpt lat="45.35773" lon="5.75555">
        <ele>547.61</ele>
        <time>2017-08-11T11:51:17Z</time>
      </trkpt>
      <trkpt lat="45.35771" lon="5.75556">
        <ele>545.69</ele>
        <time>2017-08-11T11:51:19Z</time>
      </trkpt>
      <trkpt lat="45.35767" lon="5.75559">
        <ele>539.92</ele>
        <time>2017-08-11T11:51:23Z</time>
      </trkpt>
      <trkpt lat="45.3576" lon="5.75561">
        <ele>530.79</ele>
        <time>2017-08-11T11:51:28Z</time>
      </trkpt>
      <trkpt lat="45.35754" lon="5.75565">
        <ele>519.25</ele>
        <time>2017-08-11T11:51:34Z</time>
      </trkpt>
      <trkpt lat="45.35749" lon="5.75565">
        <ele>510.12</ele>
        <time>2017-08-11T11:51:39Z</time>
      </trkpt>
      <trkpt lat="45.35743" lon="5.75568">
        <ele>502.43</ele>
        <time>2017-08-11T11:51:43Z</time>
      </trkpt>
      <trkpt lat="45.35741" lon="5.7557">
        <ele>500.98</ele>
        <time>2017-08-11T11:51:44Z</time>
      </trkpt>
      <trkpt lat="45.35733" lon="5.75576">
        <ele>501.95</ele>
        <time>2017-08-11T11:51:47Z</time>
      </trkpt>
      <trkpt lat="45.35728" lon="5.75581">
        <ele>502.91</ele>
        <time>2017-08-11T11:51:50Z</time>
      </trkpt>
      <trkpt lat="45.35719" lon="5.75589">
        <ele>504.83</ele>
        <time>2017-08-11T11:51:55Z</time>
      </trkpt>
      <trkpt lat="45.35709" lon="5.75596">
        <ele>506.75</ele>
        <time>2017-08-11T11:52:00Z</time>
      </trkpt>
      <trkpt lat="45.35696" lon="5.75605">
        <ele>507.23</ele>
        <time>2017-08-11T11:52:07Z</time>
      </trkpt>
      <trkpt lat="45.35687" lon="5.75612">
        <ele>508.19</ele>
        <time>2017-08-11T11:52:11Z</time>
      </trkpt>
      <trkpt lat="45.35678" lon="5.75614">
        <ele>506.75</ele>
        <time>2017-08-11T11:52:17Z</time>
      </trkpt>
      <trkpt lat="45.35674" lon="5.75612">
        <ele>506.75</ele>
        <time>2017-08-11T11:52:20Z</time>
      </trkpt>
      <trkpt lat="45.35669" lon="5.75613">
        <ele>506.75</ele>
        <time>2017-08-11T11:52:23Z</time>
      </trkpt>
      <trkpt lat="45.35658" lon="5.75622">
        <ele>505.79</ele>
        <time>2017-08-11T11:52:29Z</time>
      </trkpt>
      <trkpt lat="45.35644" lon="5.75636">
        <ele>505.79</ele>
        <time>2017-08-11T11:52:35Z</time>
      </trkpt>
      <trkpt lat="45.35621" lon="5.75663">
        <ele>514.44</ele>
        <time>2017-08-11T11:52:43Z</time>
      </trkpt>
      <trkpt lat="45.35615" lon="5.75668">
        <ele>517.81</ele>
        <time>2017-08-11T11:52:46Z</time>
      </trkpt>
      <trkpt lat="45.356" lon="5.75676">
        <ele>523.58</ele>
        <time>2017-08-11T11:52:53Z</time>
      </trkpt>
      <trkpt lat="45.35589" lon="5.75676">
        <ele>527.42</ele>
        <time>2017-08-11T11:52:58Z</time>
      </trkpt>
      <trkpt lat="45.35575" lon="5.75673">
        <ele>533.19</ele>
        <time>2017-08-11T11:53:06Z</time>
      </trkpt>
      <trkpt lat="45.35562" lon="5.75669">
        <ele>538.96</ele>
        <time>2017-08-11T11:53:14Z</time>
      </trkpt>
      <trkpt lat="45.35557" lon="5.75667">
        <ele>541.36</ele>
        <time>2017-08-11T11:53:17Z</time>
      </trkpt>
      <trkpt lat="45.35542" lon="5.75666">
        <ele>547.61</ele>
        <time>2017-08-11T11:53:26Z</time>
      </trkpt>
      <trkpt lat="45.35527" lon="5.75662">
        <ele>552.9</ele>
        <time>2017-08-11T11:53:33Z</time>
      </trkpt>
      <trkpt lat="45.35507" lon="5.75658">
        <ele>554.34</ele>
        <time>2017-08-11T11:53:41Z</time>
      </trkpt>
      <trkpt lat="45.35503" lon="5.75659">
        <ele>554.34</ele>
        <time>2017-08-11T11:53:43Z</time>
      </trkpt>
      <trkpt lat="45.35495" lon="5.75664">
        <ele>556.26</ele>
        <time>2017-08-11T11:53:47Z</time>
      </trkpt>
      <trkpt lat="45.3548" lon="5.75681">
        <ele>559.62</ele>
        <time>2017-08-11T11:53:56Z</time>
      </trkpt>
      <trkpt lat="45.35475" lon="5.75687">
        <ele>560.11</ele>
        <time>2017-08-11T11:53:59Z</time>
      </trkpt>
      <trkpt lat="45.35469" lon="5.75699">
        <ele>561.07</ele>
        <time>2017-08-11T11:54:05Z</time>
      </trkpt>
      <trkpt lat="45.35462" lon="5.75727">
        <ele>569.24</ele>
        <time>2017-08-11T11:54:14Z</time>
      </trkpt>
      <trkpt lat="45.35458" lon="5.75748">
        <ele>576.45</ele>
        <time>2017-08-11T11:54:22Z</time>
      </trkpt>
      <trkpt lat="45.35456" lon="5.75761">
        <ele>578.85</ele>
        <time>2017-08-11T11:54:27Z</time>
      </trkpt>
      <trkpt lat="45.35454" lon="5.75772">
        <ele>581.25</ele>
        <time>2017-08-11T11:54:32Z</time>
      </trkpt>
      <trkpt lat="45.35448" lon="5.75785">
        <ele>584.14</ele>
        <time>2017-08-11T11:54:39Z</time>
      </trkpt>
      <trkpt lat="45.35442" lon="5.75796">
        <ele>586.54</ele>
        <time>2017-08-11T11:54:44Z</time>
      </trkpt>
      <trkpt lat="45.35437" lon="5.75805">
        <ele>586.54</ele>
        <time>2017-08-11T11:54:49Z</time>
      </trkpt>
      <trkpt lat="45.35429" lon="5.75812">
        <ele>585.58</ele>
        <time>2017-08-11T11:54:54Z</time>
      </trkpt>
      <trkpt lat="45.35425" lon="5.75814">
        <ele>585.1</ele>
        <time>2017-08-11T11:54:56Z</time>
      </trkpt>
      <trkpt lat="45.35414" lon="5.75821">
        <ele>582.7</ele>
        <time>2017-08-11T11:55:03Z</time>
      </trkpt>
      <trkpt lat="45.35408" lon="5.75828">
        <ele>578.85</ele>
        <time>2017-08-11T11:55:08Z</time>
      </trkpt>
      <trkpt lat="45.35406" lon="5.7583">
        <ele>577.41</ele>
        <time>2017-08-11T11:55:10Z</time>
      </trkpt>
      <trkpt lat="45.35397" lon="5.75843">
        <ele>572.12</ele>
        <time>2017-08-11T11:55:18Z</time>
      </trkpt>
      <trkpt lat="45.35391" lon="5.7585">
        <ele>569.72</ele>
        <time>2017-08-11T11:55:23Z</time>
      </trkpt>
      <trkpt lat="45.35381" lon="5.75861">
        <ele>565.39</ele>
        <time>2017-08-11T11:55:31Z</time>
      </trkpt>
      <trkpt lat="45.3538" lon="5.75862">
        <ele>564.43</ele>
        <time>2017-08-11T11:55:32Z</time>
      </trkpt>
      <trkpt lat="45.35382" lon="5.75872">
        <ele>562.03</ele>
        <time>2017-08-11T11:55:39Z</time>
      </trkpt>
      <trkpt lat="45.35385" lon="5.75871">
        <ele>561.55</ele>
        <time>2017-08-11T11:55:42Z</time>
      </trkpt>
      <trkpt lat="45.35394" lon="5.75871">
        <ele>557.22</ele>
        <time>2017-08-11T11:55:50Z</time>
      </trkpt>
      <trkpt lat="45.35398" lon="5.7587">
        <ele>553.38</ele>
        <time>2017-08-11T11:55:57Z</time>
      </trkpt>
      <trkpt lat="45.35404" lon="5.75869">
        <ele>551.45</ele>
        <time>2017-08-11T11:56:03Z</time>
      </trkpt>
      <trkpt lat="45.35414" lon="5.75862">
        <ele>555.78</ele>
        <time>2017-08-11T11:56:10Z</time>
      </trkpt>
      <trkpt lat="45.3542" lon="5.75854">
        <ele>560.11</ele>
        <time>2017-08-11T11:56:18Z</time>
      </trkpt>
      <trkpt lat="45.35427" lon="5.75846">
        <ele>562.03</ele>
        <time>2017-08-11T11:56:27Z</time>
      </trkpt>
      <trkpt lat="45.35432" lon="5.7584">
        <ele>562.99</ele>
        <time>2017-08-11T11:56:34Z</time>
      </trkpt>
      <trkpt lat="45.35438" lon="5.75834">
        <ele>563.47</ele>
        <time>2017-08-11T11:56:41Z</time>
      </trkpt>
      <trkpt lat="45.35439" lon="5.75834">
        <ele>563.95</ele>
        <time>2017-08-11T11:56:42Z</time>
      </trkpt>
      <trkpt lat="45.35445" lon="5.75829">
        <ele>565.39</ele>
        <time>2017-08-11T11:56:48Z</time>
      </trkpt>
      <trkpt lat="45.3545" lon="5.75825">
        <ele>565.87</ele>
        <time>2017-08-11T11:56:55Z</time>
      </trkpt>
      <trkpt lat="45.3545" lon="5.75826">
        <ele>567.32</ele>
        <time>2017-08-11T11:57:00Z</time>
      </trkpt>
      <trkpt lat="45.35457" lon="5.75822">
        <ele>567.8</ele>
        <time>2017-08-11T11:57:08Z</time>
      </trkpt>
      <trkpt lat="45.35461" lon="5.75821">
        <ele>568.76</ele>
        <time>2017-08-11T11:57:15Z</time>
      </trkpt>
      <trkpt lat="45.35465" lon="5.75822">
        <ele>569.72</ele>
        <time>2017-08-11T11:57:22Z</time>
      </trkpt>
      <trkpt lat="45.35467" lon="5.75822">
        <ele>569.72</ele>
        <time>2017-08-11T11:57:28Z</time>
      </trkpt>
      <trkpt lat="45.3547" lon="5.75822">
        <ele>569.72</ele>
        <time>2017-08-11T11:57:35Z</time>
      </trkpt>
      <trkpt lat="45.35471" lon="5.75822">
        <ele>570.68</ele>
        <time>2017-08-11T11:57:43Z</time>
      </trkpt>
      <trkpt lat="45.35473" lon="5.75821">
        <ele>571.64</ele>
        <time>2017-08-11T11:57:51Z</time>
      </trkpt>
      <trkpt lat="45.35475" lon="5.75819">
        <ele>571.64</ele>
        <time>2017-08-11T11:58:00Z</time>
      </trkpt>
      <trkpt lat="45.35478" lon="5.75817">
        <ele>571.64</ele>
        <time>2017-08-11T11:58:07Z</time>
      </trkpt>
      <trkpt lat="45.35479" lon="5.75814">
        <ele>572.12</ele>
        <time>2017-08-11T11:58:13Z</time>
      </trkpt>
      <trkpt lat="45.35481" lon="5.75813">
        <ele>572.6</ele>
        <time>2017-08-11T11:58:19Z</time>
      </trkpt>
      <trkpt lat="45.35482" lon="5.7581">
        <ele>572.6</ele>
        <time>2017-08-11T11:58:26Z</time>
      </trkpt>
      <trkpt lat="45.35484" lon="5.75808">
        <ele>572.6</ele>
        <time>2017-08-11T11:58:34Z</time>
      </trkpt>
      <trkpt lat="45.35511" lon="5.75804">
        <ele>609.13</ele>
        <time>2017-08-11T11:58:42Z</time>
      </trkpt>
      <trkpt lat="45.3552" lon="5.75809">
        <ele>616.34</ele>
        <time>2017-08-11T11:58:50Z</time>
      </trkpt>
      <trkpt lat="45.35524" lon="5.75813">
        <ele>617.78</ele>
        <time>2017-08-11T11:58:59Z</time>
      </trkpt>
      <trkpt lat="45.35527" lon="5.75822">
        <ele>619.23</ele>
        <time>2017-08-11T11:59:10Z</time>
      </trkpt>
      <trkpt lat="45.35527" lon="5.75827">
        <ele>621.15</ele>
        <time>2017-08-11T11:59:19Z</time>
      </trkpt>
      <trkpt lat="45.35527" lon="5.75832">
        <ele>621.15</ele>
        <time>2017-08-11T11:59:31Z</time>
      </trkpt>
      <trkpt lat="45.35529" lon="5.75832">
        <ele>619.71</ele>
        <time>2017-08-11T11:59:40Z</time>
      </trkpt>
      <trkpt lat="45.35528" lon="5.75837">
        <ele>619.23</ele>
        <time>2017-08-11T11:59:47Z</time>
      </trkpt>
      <trkpt lat="45.35526" lon="5.75844">
        <ele>619.23</ele>
        <time>2017-08-11T11:59:55Z</time>
      </trkpt>
      <trkpt lat="45.35524" lon="5.75853">
        <ele>619.23</ele>
        <time>2017-08-11T12:00:04Z</time>
      </trkpt>
      <trkpt lat="45.35524" lon="5.75862">
        <ele>619.23</ele>
        <time>2017-08-11T12:00:13Z</time>
      </trkpt>
      <trkpt lat="45.35524" lon="5.75868">
        <ele>619.23</ele>
        <time>2017-08-11T12:00:24Z</time>
      </trkpt>
      <trkpt lat="45.35523" lon="5.75871">
        <ele>619.71</ele>
        <time>2017-08-11T12:00:34Z</time>
      </trkpt>
      <trkpt lat="45.35525" lon="5.75872">
        <ele>619.71</ele>
        <time>2017-08-11T12:00:45Z</time>
      </trkpt>
      <trkpt lat="45.35526" lon="5.75873">
        <ele>620.19</ele>
        <time>2017-08-11T12:00:52Z</time>
      </trkpt>
      <trkpt lat="45.35536" lon="5.75883">
        <ele>639.89</ele>
        <time>2017-08-11T12:01:03Z</time>
      </trkpt>
      <trkpt lat="45.35543" lon="5.7588">
        <ele>648.07</ele>
        <time>2017-08-11T12:01:13Z</time>
      </trkpt>
      <trkpt lat="45.35547" lon="5.75877">
        <ele>649.03</ele>
        <time>2017-08-11T12:01:19Z</time>
      </trkpt>
      <trkpt lat="45.35545" lon="5.75876">
        <ele>648.55</ele>
        <time>2017-08-11T12:01:28Z</time>
      </trkpt>
      <trkpt lat="45.35547" lon="5.75875">
        <ele>647.59</ele>
        <time>2017-08-11T12:01:38Z</time>
      </trkpt>
      <trkpt lat="45.35551" lon="5.75877">
        <ele>650.95</ele>
        <time>2017-08-11T12:01:44Z</time>
      </trkpt>
      <trkpt lat="45.35554" lon="5.75878">
        <ele>650.95</ele>
        <time>2017-08-11T12:01:51Z</time>
      </trkpt>
      <trkpt lat="45.35559" lon="5.75879">
        <ele>652.87</ele>
        <time>2017-08-11T12:01:58Z</time>
      </trkpt>
      <trkpt lat="45.35564" lon="5.7588">
        <ele>653.83</ele>
        <time>2017-08-11T12:02:05Z</time>
      </trkpt>
      <trkpt lat="45.3557" lon="5.7588">
        <ele>654.31</ele>
        <time>2017-08-11T12:02:13Z</time>
      </trkpt>
      <trkpt lat="45.35575" lon="5.75882">
        <ele>657.68</ele>
        <time>2017-08-11T12:02:21Z</time>
      </trkpt>
      <trkpt lat="45.3558" lon="5.75883">
        <ele>660.56</ele>
        <time>2017-08-11T12:02:30Z</time>
      </trkpt>
      <trkpt lat="45.35585" lon="5.75884">
        <ele>662.49</ele>
        <time>2017-08-11T12:02:37Z</time>
      </trkpt>
      <trkpt lat="45.35589" lon="5.75885">
        <ele>663.45</ele>
        <time>2017-08-11T12:02:45Z</time>
      </trkpt>
      <trkpt lat="45.3559" lon="5.75885">
        <ele>664.41</ele>
        <time>2017-08-11T12:02:51Z</time>
      </trkpt>
      <trkpt lat="45.35592" lon="5.75885">
        <ele>664.41</ele>
        <time>2017-08-11T12:03:00Z</time>
      </trkpt>
      <trkpt lat="45.35593" lon="5.75885">
        <ele>664.89</ele>
        <time>2017-08-11T12:03:07Z</time>
      </trkpt>
      <trkpt lat="45.35594" lon="5.75885">
        <ele>664.89</ele>
        <time>2017-08-11T12:03:16Z</time>
      </trkpt>
      <trkpt lat="45.35598" lon="5.75887">
        <ele>664.89</ele>
        <time>2017-08-11T12:03:21Z</time>
      </trkpt>
      <trkpt lat="45.35602" lon="5.75888">
        <ele>665.37</ele>
        <time>2017-08-11T12:03:31Z</time>
      </trkpt>
      <trkpt lat="45.35607" lon="5.7589">
        <ele>664.89</ele>
        <time>2017-08-11T12:03:38Z</time>
      </trkpt>
      <trkpt lat="45.35615" lon="5.75892">
        <ele>665.85</ele>
        <time>2017-08-11T12:03:47Z</time>
      </trkpt>
      <trkpt lat="45.35618" lon="5.75892">
        <ele>667.29</ele>
        <time>2017-08-11T12:03:52Z</time>
      </trkpt>
      <trkpt lat="45.35622" lon="5.75889">
        <ele>670.18</ele>
        <time>2017-08-11T12:04:00Z</time>
      </trkpt>
      <trkpt lat="45.35625" lon="5.75889">
        <ele>671.14</ele>
        <time>2017-08-11T12:04:10Z</time>
      </trkpt>
      <trkpt lat="45.35628" lon="5.75889">
        <ele>672.1</ele>
        <time>2017-08-11T12:04:17Z</time>
      </trkpt>
      <trkpt lat="45.35634" lon="5.75889">
        <ele>673.06</ele>
        <time>2017-08-11T12:04:25Z</time>
      </trkpt>
      <trkpt lat="45.35639" lon="5.75889">
        <ele>674.5</ele>
        <time>2017-08-11T12:04:34Z</time>
      </trkpt>
      <trkpt lat="45.35644" lon="5.7589">
        <ele>675.94</ele>
        <time>2017-08-11T12:04:43Z</time>
      </trkpt>
      <trkpt lat="45.35649" lon="5.75889">
        <ele>675.94</ele>
        <time>2017-08-11T12:04:52Z</time>
      </trkpt>
      <trkpt lat="45.35659" lon="5.75888">
        <ele>677.87</ele>
        <time>2017-08-11T12:05:00Z</time>
      </trkpt>
      <trkpt lat="45.35663" lon="5.75888">
        <ele>678.83</ele>
        <time>2017-08-11T12:05:05Z</time>
      </trkpt>
      <trkpt lat="45.35667" lon="5.75886">
        <ele>679.79</ele>
        <time>2017-08-11T12:05:12Z</time>
      </trkpt>
      <trkpt lat="45.3567" lon="5.75885">
        <ele>680.75</ele>
        <time>2017-08-11T12:05:20Z</time>
      </trkpt>
      <trkpt lat="45.35673" lon="5.75885">
        <ele>681.23</ele>
        <time>2017-08-11T12:05:31Z</time>
      </trkpt>
      <trkpt lat="45.35677" lon="5.75884">
        <ele>682.19</ele>
        <time>2017-08-11T12:05:38Z</time>
      </trkpt>
      <trkpt lat="45.35682" lon="5.75886">
        <ele>682.67</ele>
        <time>2017-08-11T12:05:45Z</time>
      </trkpt>
      <trkpt lat="45.35691" lon="5.75888">
        <ele>682.67</ele>
        <time>2017-08-11T12:05:53Z</time>
      </trkpt>
      <trkpt lat="45.35696" lon="5.75887">
        <ele>684.6</ele>
        <time>2017-08-11T12:05:59Z</time>
      </trkpt>
      <trkpt lat="45.35702" lon="5.75888">
        <ele>687.48</ele>
        <time>2017-08-11T12:06:06Z</time>
      </trkpt>
      <trkpt lat="45.3571" lon="5.7589">
        <ele>689.4</ele>
        <time>2017-08-11T12:06:12Z</time>
      </trkpt>
      <trkpt lat="45.35715" lon="5.75891">
        <ele>690.36</ele>
        <time>2017-08-11T12:06:19Z</time>
      </trkpt>
      <trkpt lat="45.35726" lon="5.7589">
        <ele>693.25</ele>
        <time>2017-08-11T12:06:26Z</time>
      </trkpt>
      <trkpt lat="45.35734" lon="5.75889">
        <ele>694.21</ele>
        <time>2017-08-11T12:06:33Z</time>
      </trkpt>
      <trkpt lat="45.35737" lon="5.75889">
        <ele>695.17</ele>
        <time>2017-08-11T12:06:39Z</time>
      </trkpt>
      <trkpt lat="45.3574" lon="5.75891">
        <ele>697.57</ele>
        <time>2017-08-11T12:06:48Z</time>
      </trkpt>
      <trkpt lat="45.35742" lon="5.7589">
        <ele>699.98</ele>
        <time>2017-08-11T12:06:56Z</time>
      </trkpt>
      <trkpt lat="45.35746" lon="5.7589">
        <ele>703.34</ele>
        <time>2017-08-11T12:07:04Z</time>
      </trkpt>
      <trkpt lat="45.35749" lon="5.75889">
        <ele>705.75</ele>
        <time>2017-08-11T12:07:11Z</time>
      </trkpt>
      <trkpt lat="45.35752" lon="5.75885">
        <ele>707.67</ele>
        <time>2017-08-11T12:07:18Z</time>
      </trkpt>
      <trkpt lat="45.35753" lon="5.75884">
        <ele>707.19</ele>
        <time>2017-08-11T12:07:24Z</time>
      </trkpt>
      <trkpt lat="45.35757" lon="5.75883">
        <ele>705.75</ele>
        <time>2017-08-11T12:07:30Z</time>
      </trkpt>
      <trkpt lat="45.35763" lon="5.75873">
        <ele>708.15</ele>
        <time>2017-08-11T12:07:34Z</time>
      </trkpt>
      <trkpt lat="45.35775" lon="5.75867">
        <ele>712.47</ele>
        <time>2017-08-11T12:07:41Z</time>
      </trkpt>
      <trkpt lat="45.35781" lon="5.75861">
        <ele>715.84</ele>
        <time>2017-08-11T12:07:50Z</time>
      </trkpt>
      <trkpt lat="45.35784" lon="5.75857">
        <ele>718.72</ele>
        <time>2017-08-11T12:07:56Z</time>
      </trkpt>
      <trkpt lat="45.35789" lon="5.75852">
        <ele>723.05</ele>
        <time>2017-08-11T12:08:03Z</time>
      </trkpt>
      <trkpt lat="45.35795" lon="5.75849">
        <ele>725.45</ele>
        <time>2017-08-11T12:08:12Z</time>
      </trkpt>
      <trkpt lat="45.35799" lon="5.75847">
        <ele>725.93</ele>
        <time>2017-08-11T12:08:20Z</time>
      </trkpt>
      <trkpt lat="45.35807" lon="5.75844">
        <ele>727.86</ele>
        <time>2017-08-11T12:08:28Z</time>
      </trkpt>
      <trkpt lat="45.35811" lon="5.75842">
        <ele>728.82</ele>
        <time>2017-08-11T12:08:35Z</time>
      </trkpt>
      <trkpt lat="45.35814" lon="5.7584">
        <ele>729.78</ele>
        <time>2017-08-11T12:08:41Z</time>
      </trkpt>
      <trkpt lat="45.35819" lon="5.75839">
        <ele>730.74</ele>
        <time>2017-08-11T12:08:50Z</time>
      </trkpt>
      <trkpt lat="45.35824" lon="5.75838">
        <ele>732.66</ele>
        <time>2017-08-11T12:08:57Z</time>
      </trkpt>
      <trkpt lat="45.35828" lon="5.7584">
        <ele>734.58</ele>
        <time>2017-08-11T12:09:04Z</time>
      </trkpt>
      <trkpt lat="45.35831" lon="5.75842">
        <ele>735.55</ele>
        <time>2017-08-11T12:09:10Z</time>
      </trkpt>
      <trkpt lat="45.35837" lon="5.75845">
        <ele>736.99</ele>
        <time>2017-08-11T12:09:18Z</time>
      </trkpt>
      <trkpt lat="45.35842" lon="5.75847">
        <ele>739.87</ele>
        <time>2017-08-11T12:09:25Z</time>
      </trkpt>
      <trkpt lat="45.35848" lon="5.75847">
        <ele>742.28</ele>
        <time>2017-08-11T12:09:33Z</time>
      </trkpt>
      <trkpt lat="45.35852" lon="5.75847">
        <ele>743.72</ele>
        <time>2017-08-11T12:09:41Z</time>
      </trkpt>
      <trkpt lat="45.35857" lon="5.75848">
        <ele>745.64</ele>
        <time>2017-08-11T12:09:48Z</time>
      </trkpt>
      <trkpt lat="45.3586" lon="5.75852">
        <ele>747.08</ele>
        <time>2017-08-11T12:09:56Z</time>
      </trkpt>
      <trkpt lat="45.35863" lon="5.75857">
        <ele>748.52</ele>
        <time>2017-08-11T12:10:03Z</time>
      </trkpt>
      <trkpt lat="45.35866" lon="5.75859">
        <ele>749</ele>
        <time>2017-08-11T12:10:10Z</time>
      </trkpt>
      <trkpt lat="45.35869" lon="5.7586">
        <ele>749</ele>
        <time>2017-08-11T12:10:17Z</time>
      </trkpt>
      <trkpt lat="45.3587" lon="5.75862">
        <ele>749.49</ele>
        <time>2017-08-11T12:10:25Z</time>
      </trkpt>
      <trkpt lat="45.35874" lon="5.75867">
        <ele>751.89</ele>
        <time>2017-08-11T12:10:35Z</time>
      </trkpt>
      <trkpt lat="45.35876" lon="5.75869">
        <ele>752.85</ele>
        <time>2017-08-11T12:10:40Z</time>
      </trkpt>
      <trkpt lat="45.35878" lon="5.7587">
        <ele>752.37</ele>
        <time>2017-08-11T12:10:50Z</time>
      </trkpt>
      <trkpt lat="45.35881" lon="5.75873">
        <ele>754.29</ele>
        <time>2017-08-11T12:10:58Z</time>
      </trkpt>
      <trkpt lat="45.35884" lon="5.75875">
        <ele>755.73</ele>
        <time>2017-08-11T12:11:07Z</time>
      </trkpt>
      <trkpt lat="45.35887" lon="5.75874">
        <ele>757.66</ele>
        <time>2017-08-11T12:11:13Z</time>
      </trkpt>
      <trkpt lat="45.35895" lon="5.7588">
        <ele>759.58</ele>
        <time>2017-08-11T12:11:23Z</time>
      </trkpt>
      <trkpt lat="45.35902" lon="5.75885">
        <ele>761.02</ele>
        <time>2017-08-11T12:11:34Z</time>
      </trkpt>
      <trkpt lat="45.35908" lon="5.75889">
        <ele>761.98</ele>
        <time>2017-08-11T12:11:43Z</time>
      </trkpt>
      <trkpt lat="45.35911" lon="5.75892">
        <ele>764.39</ele>
        <time>2017-08-11T12:11:51Z</time>
      </trkpt>
      <trkpt lat="45.35914" lon="5.75891">
        <ele>765.35</ele>
        <time>2017-08-11T12:11:59Z</time>
      </trkpt>
      <trkpt lat="45.35916" lon="5.75892">
        <ele>765.83</ele>
        <time>2017-08-11T12:12:06Z</time>
      </trkpt>
      <trkpt lat="45.35917" lon="5.75892">
        <ele>766.79</ele>
        <time>2017-08-11T12:12:18Z</time>
      </trkpt>
      <trkpt lat="45.35917" lon="5.75891">
        <ele>766.79</ele>
        <time>2017-08-11T12:12:29Z</time>
      </trkpt>
      <trkpt lat="45.35919" lon="5.75891">
        <ele>766.79</ele>
        <time>2017-08-11T12:12:36Z</time>
      </trkpt>
      <trkpt lat="45.35921" lon="5.75894">
        <ele>767.27</ele>
        <time>2017-08-11T12:12:44Z</time>
      </trkpt>
      <trkpt lat="45.35926" lon="5.75899">
        <ele>770.15</ele>
        <time>2017-08-11T12:12:54Z</time>
      </trkpt>
      <trkpt lat="45.35927" lon="5.759">
        <ele>771.11</ele>
        <time>2017-08-11T12:12:59Z</time>
      </trkpt>
      <trkpt lat="45.35935" lon="5.75905">
        <ele>772.56</ele>
        <time>2017-08-11T12:13:06Z</time>
      </trkpt>
      <trkpt lat="45.35942" lon="5.75906">
        <ele>773.52</ele>
        <time>2017-08-11T12:13:13Z</time>
      </trkpt>
      <trkpt lat="45.35947" lon="5.7591">
        <ele>774</ele>
        <time>2017-08-11T12:13:22Z</time>
      </trkpt>
      <trkpt lat="45.35948" lon="5.75911">
        <ele>774.48</ele>
        <time>2017-08-11T12:13:30Z</time>
      </trkpt>
      <trkpt lat="45.35949" lon="5.75911">
        <ele>774</ele>
        <time>2017-08-11T12:13:40Z</time>
      </trkpt>
      <trkpt lat="45.35952" lon="5.75913">
        <ele>775.44</ele>
        <time>2017-08-11T12:13:47Z</time>
      </trkpt>
      <trkpt lat="45.35959" lon="5.75915">
        <ele>778.81</ele>
        <time>2017-08-11T12:13:54Z</time>
      </trkpt>
      <trkpt lat="45.35965" lon="5.75915">
        <ele>781.21</ele>
        <time>2017-08-11T12:14:02Z</time>
      </trkpt>
      <trkpt lat="45.35974" lon="5.75916">
        <ele>781.69</ele>
        <time>2017-08-11T12:14:10Z</time>
      </trkpt>
      <trkpt lat="45.35979" lon="5.75915">
        <ele>781.69</ele>
        <time>2017-08-11T12:14:18Z</time>
      </trkpt>
      <trkpt lat="45.35983" lon="5.75909">
        <ele>782.65</ele>
        <time>2017-08-11T12:14:25Z</time>
      </trkpt>
      <trkpt lat="45.35987" lon="5.75906">
        <ele>783.13</ele>
        <time>2017-08-11T12:14:33Z</time>
      </trkpt>
      <trkpt lat="45.35994" lon="5.75908">
        <ele>786.5</ele>
        <time>2017-08-11T12:14:40Z</time>
      </trkpt>
      <trkpt lat="45.35995" lon="5.75907">
        <ele>786.98</ele>
        <time>2017-08-11T12:14:49Z</time>
      </trkpt>
      <trkpt lat="45.35999" lon="5.75908">
        <ele>786.98</ele>
        <time>2017-08-11T12:14:55Z</time>
      </trkpt>
      <trkpt lat="45.36004" lon="5.75906">
        <ele>788.42</ele>
        <time>2017-08-11T12:15:01Z</time>
      </trkpt>
      <trkpt lat="45.36006" lon="5.75905">
        <ele>789.38</ele>
        <time>2017-08-11T12:15:10Z</time>
      </trkpt>
      <trkpt lat="45.36011" lon="5.75901">
        <ele>792.26</ele>
        <time>2017-08-11T12:15:18Z</time>
      </trkpt>
      <trkpt lat="45.36017" lon="5.75895">
        <ele>792.74</ele>
        <time>2017-08-11T12:15:26Z</time>
      </trkpt>
      <trkpt lat="45.36022" lon="5.75893">
        <ele>794.67</ele>
        <time>2017-08-11T12:15:36Z</time>
      </trkpt>
      <trkpt lat="45.36026" lon="5.75895">
        <ele>796.11</ele>
        <time>2017-08-11T12:15:44Z</time>
      </trkpt>
      <trkpt lat="45.36031" lon="5.75895">
        <ele>798.03</ele>
        <time>2017-08-11T12:15:52Z</time>
      </trkpt>
      <trkpt lat="45.36033" lon="5.75896">
        <ele>799.47</ele>
        <time>2017-08-11T12:15:59Z</time>
      </trkpt>
      <trkpt lat="45.36036" lon="5.75894">
        <ele>800.92</ele>
        <time>2017-08-11T12:16:10Z</time>
      </trkpt>
      <trkpt lat="45.36041" lon="5.75893">
        <ele>801.4</ele>
        <time>2017-08-11T12:16:17Z</time>
      </trkpt>
      <trkpt lat="45.3605" lon="5.75894">
        <ele>801.88</ele>
        <time>2017-08-11T12:16:26Z</time>
      </trkpt>
      <trkpt lat="45.36049" lon="5.75899">
        <ele>800.92</ele>
        <time>2017-08-11T12:16:35Z</time>
      </trkpt>
      <trkpt lat="45.36049" lon="5.75903">
        <ele>800.44</ele>
        <time>2017-08-11T12:16:43Z</time>
      </trkpt>
      <trkpt lat="45.36048" lon="5.75905">
        <ele>800.44</ele>
        <time>2017-08-11T12:16:51Z</time>
      </trkpt>
      <trkpt lat="45.36051" lon="5.75905">
        <ele>800.44</ele>
        <time>2017-08-11T12:16:59Z</time>
      </trkpt>
      <trkpt lat="45.36059" lon="5.75906">
        <ele>802.36</ele>
        <time>2017-08-11T12:17:07Z</time>
      </trkpt>
      <trkpt lat="45.36065" lon="5.75904">
        <ele>804.76</ele>
        <time>2017-08-11T12:17:16Z</time>
      </trkpt>
      <trkpt lat="45.3607" lon="5.75903">
        <ele>807.64</ele>
        <time>2017-08-11T12:17:26Z</time>
      </trkpt>
      <trkpt lat="45.36074" lon="5.759">
        <ele>809.57</ele>
        <time>2017-08-11T12:17:34Z</time>
      </trkpt>
      <trkpt lat="45.36077" lon="5.759">
        <ele>810.53</ele>
        <time>2017-08-11T12:17:40Z</time>
      </trkpt>
      <trkpt lat="45.36079" lon="5.75906">
        <ele>809.57</ele>
        <time>2017-08-11T12:17:47Z</time>
      </trkpt>
      <trkpt lat="45.36081" lon="5.75906">
        <ele>810.53</ele>
        <time>2017-08-11T12:17:55Z</time>
      </trkpt>
      <trkpt lat="45.36081" lon="5.75904">
        <ele>811.01</ele>
        <time>2017-08-11T12:18:01Z</time>
      </trkpt>
      <trkpt lat="45.36088" lon="5.759">
        <ele>812.93</ele>
        <time>2017-08-11T12:18:11Z</time>
      </trkpt>
      <trkpt lat="45.3609" lon="5.75895">
        <ele>815.82</ele>
        <time>2017-08-11T12:18:19Z</time>
      </trkpt>
      <trkpt lat="45.36092" lon="5.75894">
        <ele>816.78</ele>
        <time>2017-08-11T12:18:22Z</time>
      </trkpt>
      <trkpt lat="45.36098" lon="5.7589">
        <ele>819.66</ele>
        <time>2017-08-11T12:18:29Z</time>
      </trkpt>
      <trkpt lat="45.361" lon="5.75886">
        <ele>821.58</ele>
        <time>2017-08-11T12:18:36Z</time>
      </trkpt>
      <trkpt lat="45.36101" lon="5.75883">
        <ele>823.99</ele>
        <time>2017-08-11T12:18:44Z</time>
      </trkpt>
      <trkpt lat="45.36103" lon="5.75879">
        <ele>825.43</ele>
        <time>2017-08-11T12:18:52Z</time>
      </trkpt>
      <trkpt lat="45.36107" lon="5.75873">
        <ele>829.27</ele>
        <time>2017-08-11T12:18:59Z</time>
      </trkpt>
      <trkpt lat="45.3611" lon="5.75869">
        <ele>835.52</ele>
        <time>2017-08-11T12:19:07Z</time>
      </trkpt>
      <trkpt lat="45.36114" lon="5.75865">
        <ele>840.33</ele>
        <time>2017-08-11T12:19:15Z</time>
      </trkpt>
      <trkpt lat="45.36117" lon="5.75862">
        <ele>842.73</ele>
        <time>2017-08-11T12:19:22Z</time>
      </trkpt>
      <trkpt lat="45.36117" lon="5.75861">
        <ele>842.73</ele>
        <time>2017-08-11T12:19:31Z</time>
      </trkpt>
      <trkpt lat="45.36119" lon="5.75855">
        <ele>841.77</ele>
        <time>2017-08-11T12:19:39Z</time>
      </trkpt>
      <trkpt lat="45.36122" lon="5.75856">
        <ele>843.21</ele>
        <time>2017-08-11T12:19:47Z</time>
      </trkpt>
      <trkpt lat="45.36124" lon="5.75859">
        <ele>843.21</ele>
        <time>2017-08-11T12:19:55Z</time>
      </trkpt>
      <trkpt lat="45.36125" lon="5.7586">
        <ele>843.21</ele>
        <time>2017-08-11T12:20:00Z</time>
      </trkpt>
      <trkpt lat="45.36127" lon="5.75861">
        <ele>844.18</ele>
        <time>2017-08-11T12:20:07Z</time>
      </trkpt>
      <trkpt lat="45.36129" lon="5.75856">
        <ele>845.14</ele>
        <time>2017-08-11T12:20:14Z</time>
      </trkpt>
      <trkpt lat="45.36133" lon="5.75852">
        <ele>846.58</ele>
        <time>2017-08-11T12:20:23Z</time>
      </trkpt>
      <trkpt lat="45.36136" lon="5.75848">
        <ele>845.62</ele>
        <time>2017-08-11T12:20:32Z</time>
      </trkpt>
      <trkpt lat="45.36141" lon="5.7585">
        <ele>844.66</ele>
        <time>2017-08-11T12:20:40Z</time>
      </trkpt>
      <trkpt lat="45.36144" lon="5.7585">
        <ele>846.58</ele>
        <time>2017-08-11T12:20:47Z</time>
      </trkpt>
      <trkpt lat="45.36146" lon="5.75851">
        <ele>847.54</ele>
        <time>2017-08-11T12:20:53Z</time>
      </trkpt>
      <trkpt lat="45.36149" lon="5.75852">
        <ele>846.1</ele>
        <time>2017-08-11T12:21:00Z</time>
      </trkpt>
      <trkpt lat="45.36151" lon="5.75851">
        <ele>849.46</ele>
        <time>2017-08-11T12:21:07Z</time>
      </trkpt>
      <trkpt lat="45.36152" lon="5.75848">
        <ele>853.79</ele>
        <time>2017-08-11T12:21:15Z</time>
      </trkpt>
      <trkpt lat="45.36155" lon="5.75845">
        <ele>859.56</ele>
        <time>2017-08-11T12:21:23Z</time>
      </trkpt>
      <trkpt lat="45.36157" lon="5.75844">
        <ele>861</ele>
        <time>2017-08-11T12:21:33Z</time>
      </trkpt>
      <trkpt lat="45.36158" lon="5.75839">
        <ele>861.96</ele>
        <time>2017-08-11T12:21:44Z</time>
      </trkpt>
      <trkpt lat="45.36159" lon="5.75834">
        <ele>861.96</ele>
        <time>2017-08-11T12:21:52Z</time>
      </trkpt>
      <trkpt lat="45.36161" lon="5.75832">
        <ele>861.48</ele>
        <time>2017-08-11T12:21:56Z</time>
      </trkpt>
      <trkpt lat="45.36161" lon="5.7583">
        <ele>861.48</ele>
        <time>2017-08-11T12:22:04Z</time>
      </trkpt>
      <trkpt lat="45.3616" lon="5.7583">
        <ele>861</ele>
        <time>2017-08-11T12:22:12Z</time>
      </trkpt>
      <trkpt lat="45.3616" lon="5.75833">
        <ele>860.52</ele>
        <time>2017-08-11T12:22:19Z</time>
      </trkpt>
      <trkpt lat="45.36159" lon="5.75838">
        <ele>860.52</ele>
        <time>2017-08-11T12:22:26Z</time>
      </trkpt>
      <trkpt lat="45.36158" lon="5.75841">
        <ele>861.48</ele>
        <time>2017-08-11T12:22:33Z</time>
      </trkpt>
      <trkpt lat="45.36158" lon="5.75841">
        <ele>862.44</ele>
        <time>2017-08-11T12:22:40Z</time>
      </trkpt>
      <trkpt lat="45.36159" lon="5.75841">
        <ele>863.4</ele>
        <time>2017-08-11T12:22:47Z</time>
      </trkpt>
      <trkpt lat="45.3616" lon="5.75841">
        <ele>864.36</ele>
        <time>2017-08-11T12:22:56Z</time>
      </trkpt>
      <trkpt lat="45.3616" lon="5.75842">
        <ele>864.84</ele>
        <time>2017-08-11T12:23:03Z</time>
      </trkpt>
      <trkpt lat="45.36161" lon="5.75842">
        <ele>865.8</ele>
        <time>2017-08-11T12:23:11Z</time>
      </trkpt>
      <trkpt lat="45.36163" lon="5.75842">
        <ele>868.69</ele>
        <time>2017-08-11T12:23:22Z</time>
      </trkpt>
      <trkpt lat="45.36163" lon="5.75843">
        <ele>869.65</ele>
        <time>2017-08-11T12:23:33Z</time>
      </trkpt>
      <trkpt lat="45.36164" lon="5.75842">
        <ele>871.09</ele>
        <time>2017-08-11T12:23:48Z</time>
      </trkpt>
      <trkpt lat="45.36167" lon="5.75842">
        <ele>872.53</ele>
        <time>2017-08-11T12:24:03Z</time>
      </trkpt>
      <trkpt lat="45.36169" lon="5.75842">
        <ele>873.01</ele>
        <time>2017-08-11T12:24:11Z</time>
      </trkpt>
      <trkpt lat="45.36171" lon="5.75842">
        <ele>874.46</ele>
        <time>2017-08-11T12:24:24Z</time>
      </trkpt>
      <trkpt lat="45.36173" lon="5.75842">
        <ele>874.94</ele>
        <time>2017-08-11T12:24:37Z</time>
      </trkpt>
      <trkpt lat="45.36174" lon="5.75842">
        <ele>875.42</ele>
        <time>2017-08-11T12:24:48Z</time>
      </trkpt>
      <trkpt lat="45.36175" lon="5.75841">
        <ele>876.38</ele>
        <time>2017-08-11T12:25:02Z</time>
      </trkpt>
      <trkpt lat="45.36175" lon="5.75841">
        <ele>876.86</ele>
        <time>2017-08-11T12:25:17Z</time>
      </trkpt>
      <trkpt lat="45.36176" lon="5.75841">
        <ele>877.34</ele>
        <time>2017-08-11T12:25:32Z</time>
      </trkpt>
      <trkpt lat="45.36179" lon="5.75841">
        <ele>878.78</ele>
        <time>2017-08-11T12:25:48Z</time>
      </trkpt>
      <trkpt lat="45.3618" lon="5.75841">
        <ele>880.22</ele>
        <time>2017-08-11T12:26:10Z</time>
      </trkpt>
      <trkpt lat="45.36181" lon="5.75841">
        <ele>880.71</ele>
        <time>2017-08-11T12:26:28Z</time>
      </trkpt>
      <trkpt lat="45.36181" lon="5.7584">
        <ele>880.71</ele>
        <time>2017-08-11T12:26:36Z</time>
      </trkpt>
      <trkpt lat="45.36181" lon="5.75839">
        <ele>880.71</ele>
        <time>2017-08-11T12:26:47Z</time>
      </trkpt>
      <trkpt lat="45.36181" lon="5.75839">
        <ele>881.19</ele>
        <time>2017-08-11T12:26:56Z</time>
      </trkpt>
      <trkpt lat="45.36181" lon="5.75839">
        <ele>881.19</ele>
        <time>2017-08-11T12:27:09Z</time>
      </trkpt>
      <trkpt lat="45.36181" lon="5.75839">
        <ele>882.15</ele>
        <time>2017-08-11T12:27:25Z</time>
      </trkpt>
      <trkpt lat="45.36182" lon="5.75844">
        <ele>880.22</ele>
        <time>2017-08-11T12:27:34Z</time>
      </trkpt>
      <trkpt lat="45.36183" lon="5.75844">
        <ele>879.74</ele>
        <time>2017-08-11T12:27:43Z</time>
      </trkpt>
      <trkpt lat="45.36184" lon="5.75845">
        <ele>879.74</ele>
        <time>2017-08-11T12:27:51Z</time>
      </trkpt>
      <trkpt lat="45.36184" lon="5.75847">
        <ele>879.74</ele>
        <time>2017-08-11T12:27:57Z</time>
      </trkpt>
      <trkpt lat="45.36183" lon="5.75848">
        <ele>879.26</ele>
        <time>2017-08-11T12:28:07Z</time>
      </trkpt>
      <trkpt lat="45.36181" lon="5.7585">
        <ele>879.26</ele>
        <time>2017-08-11T12:28:16Z</time>
      </trkpt>
      <trkpt lat="45.36179" lon="5.75861">
        <ele>879.26</ele>
        <time>2017-08-11T12:28:24Z</time>
      </trkpt>
      <trkpt lat="45.36179" lon="5.75867">
        <ele>880.71</ele>
        <time>2017-08-11T12:28:34Z</time>
      </trkpt>
      <trkpt lat="45.36183" lon="5.75868">
        <ele>882.63</ele>
        <time>2017-08-11T12:28:42Z</time>
      </trkpt>
      <trkpt lat="45.36185" lon="5.75868">
        <ele>883.59</ele>
        <time>2017-08-11T12:28:54Z</time>
      </trkpt>
      <trkpt lat="45.36186" lon="5.75866">
        <ele>883.11</ele>
        <time>2017-08-11T12:29:00Z</time>
      </trkpt>
      <trkpt lat="45.36187" lon="5.75865">
        <ele>884.55</ele>
        <time>2017-08-11T12:29:07Z</time>
      </trkpt>
      <trkpt lat="45.36189" lon="5.75864">
        <ele>885.51</ele>
        <time>2017-08-11T12:29:14Z</time>
      </trkpt>
      <trkpt lat="45.36188" lon="5.75861">
        <ele>885.99</ele>
        <time>2017-08-11T12:29:20Z</time>
      </trkpt>
      <trkpt lat="45.36186" lon="5.75859">
        <ele>885.03</ele>
        <time>2017-08-11T12:29:29Z</time>
      </trkpt>
      <trkpt lat="45.36184" lon="5.75857">
        <ele>885.51</ele>
        <time>2017-08-11T12:29:39Z</time>
      </trkpt>
      <trkpt lat="45.36185" lon="5.75858">
        <ele>885.03</ele>
        <time>2017-08-11T12:29:47Z</time>
      </trkpt>
      <trkpt lat="45.36188" lon="5.75861">
        <ele>885.03</ele>
        <time>2017-08-11T12:29:55Z</time>
      </trkpt>
      <trkpt lat="45.36191" lon="5.75863">
        <ele>885.03</ele>
        <time>2017-08-11T12:30:01Z</time>
      </trkpt>
      <trkpt lat="45.36192" lon="5.75863">
        <ele>885.51</ele>
        <time>2017-08-11T12:30:08Z</time>
      </trkpt>
      <trkpt lat="45.36196" lon="5.75864">
        <ele>886.95</ele>
        <time>2017-08-11T12:30:16Z</time>
      </trkpt>
      <trkpt lat="45.36202" lon="5.75866">
        <ele>888.88</ele>
        <time>2017-08-11T12:30:23Z</time>
      </trkpt>
      <trkpt lat="45.36208" lon="5.75866">
        <ele>890.32</ele>
        <time>2017-08-11T12:30:31Z</time>
      </trkpt>
      <trkpt lat="45.36215" lon="5.7587">
        <ele>892.24</ele>
        <time>2017-08-11T12:30:40Z</time>
      </trkpt>
      <trkpt lat="45.3622" lon="5.75874">
        <ele>893.68</ele>
        <time>2017-08-11T12:30:48Z</time>
      </trkpt>
      <trkpt lat="45.36222" lon="5.75877">
        <ele>894.64</ele>
        <time>2017-08-11T12:30:58Z</time>
      </trkpt>
      <trkpt lat="45.36219" lon="5.75878">
        <ele>894.64</ele>
        <time>2017-08-11T12:31:07Z</time>
      </trkpt>
      <trkpt lat="45.36222" lon="5.75882">
        <ele>896.57</ele>
        <time>2017-08-11T12:31:16Z</time>
      </trkpt>
      <trkpt lat="45.36226" lon="5.75883">
        <ele>896.09</ele>
        <time>2017-08-11T12:31:23Z</time>
      </trkpt>
      <trkpt lat="45.36228" lon="5.75883">
        <ele>895.12</ele>
        <time>2017-08-11T12:31:26Z</time>
      </trkpt>
      <trkpt lat="45.36232" lon="5.75883">
        <ele>893.2</ele>
        <time>2017-08-11T12:31:30Z</time>
      </trkpt>
      <trkpt lat="45.36235" lon="5.75884">
        <ele>891.76</ele>
        <time>2017-08-11T12:31:33Z</time>
      </trkpt>
      <trkpt lat="45.36239" lon="5.75888">
        <ele>888.4</ele>
        <time>2017-08-11T12:31:39Z</time>
      </trkpt>
      <trkpt lat="45.36251" lon="5.75898">
        <ele>886.47</ele>
        <time>2017-08-11T12:31:48Z</time>
      </trkpt>
      <trkpt lat="45.36261" lon="5.75907">
        <ele>882.63</ele>
        <time>2017-08-11T12:31:54Z</time>
      </trkpt>
      <trkpt lat="45.36269" lon="5.7592">
        <ele>878.78</ele>
        <time>2017-08-11T12:32:00Z</time>
      </trkpt>
      <trkpt lat="45.36275" lon="5.75932">
        <ele>874.46</ele>
        <time>2017-08-11T12:32:05Z</time>
      </trkpt>
      <trkpt lat="45.36277" lon="5.75937">
        <ele>872.53</ele>
        <time>2017-08-11T12:32:08Z</time>
      </trkpt>
      <trkpt lat="45.36284" lon="5.75954">
        <ele>870.13</ele>
        <time>2017-08-11T12:32:15Z</time>
      </trkpt>
      <trkpt lat="45.36288" lon="5.75966">
        <ele>868.21</ele>
        <time>2017-08-11T12:32:22Z</time>
      </trkpt>
      <trkpt lat="45.36291" lon="5.75974">
        <ele>871.57</ele>
        <time>2017-08-11T12:32:29Z</time>
      </trkpt>
      <trkpt lat="45.36297" lon="5.75982">
        <ele>872.05</ele>
        <time>2017-08-11T12:32:36Z</time>
      </trkpt>
      <trkpt lat="45.36297" lon="5.75983">
        <ele>872.53</ele>
        <time>2017-08-11T12:32:47Z</time>
      </trkpt>
      <trkpt lat="45.36297" lon="5.75984">
        <ele>874.94</ele>
        <time>2017-08-11T12:32:54Z</time>
      </trkpt>
      <trkpt lat="45.36299" lon="5.75988">
        <ele>875.9</ele>
        <time>2017-08-11T12:33:02Z</time>
      </trkpt>
      <trkpt lat="45.36302" lon="5.75991">
        <ele>879.74</ele>
        <time>2017-08-11T12:33:11Z</time>
      </trkpt>
      <trkpt lat="45.36312" lon="5.75993">
        <ele>884.07</ele>
        <time>2017-08-11T12:33:20Z</time>
      </trkpt>
      <trkpt lat="45.36317" lon="5.75991">
        <ele>886.95</ele>
        <time>2017-08-11T12:33:28Z</time>
      </trkpt>
      <trkpt lat="45.36326" lon="5.75991">
        <ele>888.4</ele>
        <time>2017-08-11T12:33:35Z</time>
      </trkpt>
      <trkpt lat="45.36333" lon="5.75989">
        <ele>888.88</ele>
        <time>2017-08-11T12:33:43Z</time>
      </trkpt>
      <trkpt lat="45.36344" lon="5.75982">
        <ele>892.72</ele>
        <time>2017-08-11T12:33:53Z</time>
      </trkpt>
      <trkpt lat="45.3635" lon="5.7597">
        <ele>896.57</ele>
        <time>2017-08-11T12:34:02Z</time>
      </trkpt>
      <trkpt lat="45.36359" lon="5.75969">
        <ele>900.41</ele>
        <time>2017-08-11T12:34:08Z</time>
      </trkpt>
      <trkpt lat="45.36366" lon="5.75963">
        <ele>905.22</ele>
        <time>2017-08-11T12:34:15Z</time>
      </trkpt>
      <trkpt lat="45.36368" lon="5.75958">
        <ele>908.1</ele>
        <time>2017-08-11T12:34:23Z</time>
      </trkpt>
      <trkpt lat="45.36372" lon="5.75956">
        <ele>909.54</ele>
        <time>2017-08-11T12:34:31Z</time>
      </trkpt>
      <trkpt lat="45.36371" lon="5.75962">
        <ele>909.54</ele>
        <time>2017-08-11T12:34:38Z</time>
      </trkpt>
      <trkpt lat="45.36371" lon="5.75965">
        <ele>910.03</ele>
        <time>2017-08-11T12:34:45Z</time>
      </trkpt>
      <trkpt lat="45.36375" lon="5.75961">
        <ele>910.99</ele>
        <time>2017-08-11T12:34:53Z</time>
      </trkpt>
      <trkpt lat="45.36379" lon="5.75956">
        <ele>912.43</ele>
        <time>2017-08-11T12:35:01Z</time>
      </trkpt>
      <trkpt lat="45.36384" lon="5.75949">
        <ele>914.35</ele>
        <time>2017-08-11T12:35:09Z</time>
      </trkpt>
      <trkpt lat="45.36388" lon="5.75951">
        <ele>914.35</ele>
        <time>2017-08-11T12:35:17Z</time>
      </trkpt>
      <trkpt lat="45.36389" lon="5.75955">
        <ele>914.83</ele>
        <time>2017-08-11T12:35:26Z</time>
      </trkpt>
      <trkpt lat="45.36388" lon="5.75958">
        <ele>914.35</ele>
        <time>2017-08-11T12:35:30Z</time>
      </trkpt>
      <trkpt lat="45.36388" lon="5.7596">
        <ele>913.87</ele>
        <time>2017-08-11T12:35:37Z</time>
      </trkpt>
      <trkpt lat="45.36387" lon="5.75962">
        <ele>914.35</ele>
        <time>2017-08-11T12:35:47Z</time>
      </trkpt>
      <trkpt lat="45.36389" lon="5.75963">
        <ele>915.31</ele>
        <time>2017-08-11T12:35:57Z</time>
      </trkpt>
      <trkpt lat="45.36393" lon="5.75964">
        <ele>919.64</ele>
        <time>2017-08-11T12:36:03Z</time>
      </trkpt>
      <trkpt lat="45.36396" lon="5.75958">
        <ele>920.6</ele>
        <time>2017-08-11T12:36:14Z</time>
      </trkpt>
      <trkpt lat="45.36401" lon="5.7595">
        <ele>923.96</ele>
        <time>2017-08-11T12:36:22Z</time>
      </trkpt>
      <trkpt lat="45.36404" lon="5.75948">
        <ele>925.89</ele>
        <time>2017-08-11T12:36:29Z</time>
      </trkpt>
      <trkpt lat="45.36406" lon="5.7595">
        <ele>925.89</ele>
        <time>2017-08-11T12:36:36Z</time>
      </trkpt>
      <trkpt lat="45.36408" lon="5.7595">
        <ele>928.29</ele>
        <time>2017-08-11T12:36:44Z</time>
      </trkpt>
      <trkpt lat="45.36412" lon="5.75946">
        <ele>931.17</ele>
        <time>2017-08-11T12:36:51Z</time>
      </trkpt>
      <trkpt lat="45.36414" lon="5.75946">
        <ele>931.65</ele>
        <time>2017-08-11T12:36:59Z</time>
      </trkpt>
      <trkpt lat="45.36417" lon="5.75948">
        <ele>933.58</ele>
        <time>2017-08-11T12:37:07Z</time>
      </trkpt>
      <trkpt lat="45.3642" lon="5.75946">
        <ele>935.02</ele>
        <time>2017-08-11T12:37:15Z</time>
      </trkpt>
      <trkpt lat="45.36424" lon="5.75943">
        <ele>936.46</ele>
        <time>2017-08-11T12:37:25Z</time>
      </trkpt>
      <trkpt lat="45.36427" lon="5.75943">
        <ele>938.38</ele>
        <time>2017-08-11T12:37:31Z</time>
      </trkpt>
      <trkpt lat="45.36433" lon="5.75941">
        <ele>940.79</ele>
        <time>2017-08-11T12:37:39Z</time>
      </trkpt>
      <trkpt lat="45.36437" lon="5.75941">
        <ele>942.71</ele>
        <time>2017-08-11T12:37:47Z</time>
      </trkpt>
      <trkpt lat="45.3644" lon="5.75944">
        <ele>942.71</ele>
        <time>2017-08-11T12:37:53Z</time>
      </trkpt>
      <trkpt lat="45.36443" lon="5.75949">
        <ele>944.15</ele>
        <time>2017-08-11T12:38:01Z</time>
      </trkpt>
      <trkpt lat="45.36445" lon="5.75953">
        <ele>946.07</ele>
        <time>2017-08-11T12:38:06Z</time>
      </trkpt>
      <trkpt lat="45.3645" lon="5.75956">
        <ele>947.52</ele>
        <time>2017-08-11T12:38:15Z</time>
      </trkpt>
      <trkpt lat="45.36458" lon="5.75963">
        <ele>949.44</ele>
        <time>2017-08-11T12:38:23Z</time>
      </trkpt>
      <trkpt lat="45.36466" lon="5.75969">
        <ele>951.84</ele>
        <time>2017-08-11T12:38:30Z</time>
      </trkpt>
      <trkpt lat="45.36471" lon="5.75973">
        <ele>953.77</ele>
        <time>2017-08-11T12:38:39Z</time>
      </trkpt>
      <trkpt lat="45.36476" lon="5.75974">
        <ele>956.65</ele>
        <time>2017-08-11T12:38:50Z</time>
      </trkpt>
      <trkpt lat="45.36481" lon="5.75971">
        <ele>958.09</ele>
        <time>2017-08-11T12:38:58Z</time>
      </trkpt>
      <trkpt lat="45.36487" lon="5.75971">
        <ele>960.01</ele>
        <time>2017-08-11T12:39:07Z</time>
      </trkpt>
      <trkpt lat="45.36491" lon="5.75973">
        <ele>960.98</ele>
        <time>2017-08-11T12:39:12Z</time>
      </trkpt>
      <trkpt lat="45.36495" lon="5.75964">
        <ele>962.9</ele>
        <time>2017-08-11T12:39:19Z</time>
      </trkpt>
      <trkpt lat="45.36495" lon="5.75957">
        <ele>963.38</ele>
        <time>2017-08-11T12:39:25Z</time>
      </trkpt>
      <trkpt lat="45.36494" lon="5.75949">
        <ele>963.38</ele>
        <time>2017-08-11T12:39:34Z</time>
      </trkpt>
      <trkpt lat="45.36493" lon="5.75948">
        <ele>962.9</ele>
        <time>2017-08-11T12:39:48Z</time>
      </trkpt>
      <trkpt lat="45.36493" lon="5.75948">
        <ele>963.38</ele>
        <time>2017-08-11T12:40:06Z</time>
      </trkpt>
      <trkpt lat="45.36493" lon="5.75947">
        <ele>964.34</ele>
        <time>2017-08-11T12:40:23Z</time>
      </trkpt>
      <trkpt lat="45.36493" lon="5.75947">
        <ele>964.82</ele>
        <time>2017-08-11T12:40:39Z</time>
      </trkpt>
      <trkpt lat="45.36493" lon="5.75947">
        <ele>964.82</ele>
        <time>2017-08-11T12:40:52Z</time>
      </trkpt>
      <trkpt lat="45.36493" lon="5.75948">
        <ele>964.82</ele>
        <time>2017-08-11T12:41:00Z</time>
      </trkpt>
      <trkpt lat="45.36494" lon="5.75952">
        <ele>964.34</ele>
        <time>2017-08-11T12:41:08Z</time>
      </trkpt>
      <trkpt lat="45.36494" lon="5.75959">
        <ele>963.38</ele>
        <time>2017-08-11T12:41:16Z</time>
      </trkpt>
      <trkpt lat="45.36495" lon="5.75966">
        <ele>962.42</ele>
        <time>2017-08-11T12:41:24Z</time>
      </trkpt>
      <trkpt lat="45.36496" lon="5.75973">
        <ele>960.98</ele>
        <time>2017-08-11T12:41:32Z</time>
      </trkpt>
      <trkpt lat="45.36496" lon="5.75974">
        <ele>960.98</ele>
        <time>2017-08-11T12:41:33Z</time>
      </trkpt>
      <trkpt lat="45.36499" lon="5.75994">
        <ele>957.61</ele>
        <time>2017-08-11T12:41:41Z</time>
      </trkpt>
      <trkpt lat="45.36504" lon="5.76008">
        <ele>955.21</ele>
        <time>2017-08-11T12:41:47Z</time>
      </trkpt>
      <trkpt lat="45.36508" lon="5.76025">
        <ele>959.53</ele>
        <time>2017-08-11T12:41:56Z</time>
      </trkpt>
      <trkpt lat="45.3652" lon="5.76034">
        <ele>962.42</ele>
        <time>2017-08-11T12:42:05Z</time>
      </trkpt>
      <trkpt lat="45.36524" lon="5.76037">
        <ele>962.9</ele>
        <time>2017-08-11T12:42:12Z</time>
      </trkpt>
      <trkpt lat="45.36529" lon="5.76037">
        <ele>963.86</ele>
        <time>2017-08-11T12:42:18Z</time>
      </trkpt>
      <trkpt lat="45.36536" lon="5.76035">
        <ele>965.3</ele>
        <time>2017-08-11T12:42:27Z</time>
      </trkpt>
      <trkpt lat="45.36539" lon="5.76034">
        <ele>966.26</ele>
        <time>2017-08-11T12:42:31Z</time>
      </trkpt>
      <trkpt lat="45.36545" lon="5.76032">
        <ele>966.74</ele>
        <time>2017-08-11T12:42:39Z</time>
      </trkpt>
      <trkpt lat="45.36548" lon="5.7603">
        <ele>966.74</ele>
        <time>2017-08-11T12:42:46Z</time>
      </trkpt>
      <trkpt lat="45.36556" lon="5.7603">
        <ele>967.22</ele>
        <time>2017-08-11T12:42:54Z</time>
      </trkpt>
      <trkpt lat="45.36561" lon="5.76029">
        <ele>967.7</ele>
        <time>2017-08-11T12:43:01Z</time>
      </trkpt>
      <trkpt lat="45.36569" lon="5.76031">
        <ele>968.18</ele>
        <time>2017-08-11T12:43:09Z</time>
      </trkpt>
      <trkpt lat="45.36581" lon="5.76038">
        <ele>970.11</ele>
        <time>2017-08-11T12:43:17Z</time>
      </trkpt>
      <trkpt lat="45.36591" lon="5.76047">
        <ele>972.51</ele>
        <time>2017-08-11T12:43:24Z</time>
      </trkpt>
      <trkpt lat="45.36597" lon="5.7605">
        <ele>974.43</ele>
        <time>2017-08-11T12:43:31Z</time>
      </trkpt>
      <trkpt lat="45.36603" lon="5.76053">
        <ele>974.91</ele>
        <time>2017-08-11T12:43:38Z</time>
      </trkpt>
      <trkpt lat="45.36609" lon="5.76056">
        <ele>975.39</ele>
        <time>2017-08-11T12:43:46Z</time>
      </trkpt>
      <trkpt lat="45.36616" lon="5.76058">
        <ele>976.84</ele>
        <time>2017-08-11T12:43:53Z</time>
      </trkpt>
      <trkpt lat="45.36626" lon="5.76059">
        <ele>979.24</ele>
        <time>2017-08-11T12:44:02Z</time>
      </trkpt>
      <trkpt lat="45.36629" lon="5.76058">
        <ele>982.12</ele>
        <time>2017-08-11T12:44:11Z</time>
      </trkpt>
      <trkpt lat="45.36638" lon="5.76061">
        <ele>984.53</ele>
        <time>2017-08-11T12:44:21Z</time>
      </trkpt>
      <trkpt lat="45.36644" lon="5.76062">
        <ele>987.89</ele>
        <time>2017-08-11T12:44:28Z</time>
      </trkpt>
      <trkpt lat="45.36649" lon="5.76063">
        <ele>990.3</ele>
        <time>2017-08-11T12:44:37Z</time>
      </trkpt>
      <trkpt lat="45.36654" lon="5.76068">
        <ele>991.74</ele>
        <time>2017-08-11T12:44:45Z</time>
      </trkpt>
      <trkpt lat="45.3666" lon="5.7607">
        <ele>992.7</ele>
        <time>2017-08-11T12:44:54Z</time>
      </trkpt>
      <trkpt lat="45.36661" lon="5.76072">
        <ele>992.7</ele>
        <time>2017-08-11T12:44:57Z</time>
      </trkpt>
      <trkpt lat="45.36669" lon="5.76082">
        <ele>991.26</ele>
        <time>2017-08-11T12:45:07Z</time>
      </trkpt>
      <trkpt lat="45.36676" lon="5.76091">
        <ele>992.22</ele>
        <time>2017-08-11T12:45:15Z</time>
      </trkpt>
      <trkpt lat="45.36679" lon="5.76097">
        <ele>991.74</ele>
        <time>2017-08-11T12:45:24Z</time>
      </trkpt>
      <trkpt lat="45.36682" lon="5.76102">
        <ele>993.18</ele>
        <time>2017-08-11T12:45:28Z</time>
      </trkpt>
      <trkpt lat="45.36692" lon="5.76112">
        <ele>995.1</ele>
        <time>2017-08-11T12:45:38Z</time>
      </trkpt>
      <trkpt lat="45.36702" lon="5.76125">
        <ele>994.62</ele>
        <time>2017-08-11T12:45:47Z</time>
      </trkpt>
      <trkpt lat="45.36703" lon="5.76126">
        <ele>994.14</ele>
        <time>2017-08-11T12:45:48Z</time>
      </trkpt>
      <trkpt lat="45.36705" lon="5.76133">
        <ele>992.22</ele>
        <time>2017-08-11T12:45:52Z</time>
      </trkpt>
      <trkpt lat="45.36708" lon="5.76147">
        <ele>988.37</ele>
        <time>2017-08-11T12:45:59Z</time>
      </trkpt>
      <trkpt lat="45.36712" lon="5.76162">
        <ele>987.41</ele>
        <time>2017-08-11T12:46:07Z</time>
      </trkpt>
      <trkpt lat="45.36717" lon="5.76171">
        <ele>990.78</ele>
        <time>2017-08-11T12:46:14Z</time>
      </trkpt>
      <trkpt lat="45.36721" lon="5.76175">
        <ele>991.74</ele>
        <time>2017-08-11T12:46:23Z</time>
      </trkpt>
      <trkpt lat="45.36725" lon="5.7618">
        <ele>991.74</ele>
        <time>2017-08-11T12:46:32Z</time>
      </trkpt>
      <trkpt lat="45.36731" lon="5.76182">
        <ele>991.74</ele>
        <time>2017-08-11T12:46:39Z</time>
      </trkpt>
      <trkpt lat="45.36733" lon="5.76186">
        <ele>991.74</ele>
        <time>2017-08-11T12:46:47Z</time>
      </trkpt>
      <trkpt lat="45.36741" lon="5.76195">
        <ele>991.26</ele>
        <time>2017-08-11T12:46:56Z</time>
      </trkpt>
      <trkpt lat="45.36745" lon="5.76199">
        <ele>993.66</ele>
        <time>2017-08-11T12:47:06Z</time>
      </trkpt>
      <trkpt lat="45.36754" lon="5.76204">
        <ele>995.1</ele>
        <time>2017-08-11T12:47:14Z</time>
      </trkpt>
      <trkpt lat="45.3676" lon="5.76209">
        <ele>996.06</ele>
        <time>2017-08-11T12:47:22Z</time>
      </trkpt>
      <trkpt lat="45.36763" lon="5.76211">
        <ele>997.99</ele>
        <time>2017-08-11T12:47:30Z</time>
      </trkpt>
      <trkpt lat="45.36765" lon="5.76211">
        <ele>999.43</ele>
        <time>2017-08-11T12:47:37Z</time>
      </trkpt>
      <trkpt lat="45.36771" lon="5.76213">
        <ele>1000.39</ele>
        <time>2017-08-11T12:47:46Z</time>
      </trkpt>
      <trkpt lat="45.36777" lon="5.76212">
        <ele>1000.87</ele>
        <time>2017-08-11T12:47:54Z</time>
      </trkpt>
      <trkpt lat="45.36788" lon="5.76215">
        <ele>1000.87</ele>
        <time>2017-08-11T12:48:03Z</time>
      </trkpt>
      <trkpt lat="45.368" lon="5.76208">
        <ele>1003.75</ele>
        <time>2017-08-11T12:48:09Z</time>
      </trkpt>
      <trkpt lat="45.36806" lon="5.76199">
        <ele>1009.52</ele>
        <time>2017-08-11T12:48:16Z</time>
      </trkpt>
      <trkpt lat="45.3681" lon="5.76193">
        <ele>1013.85</ele>
        <time>2017-08-11T12:48:24Z</time>
      </trkpt>
      <trkpt lat="45.36812" lon="5.76189">
        <ele>1016.73</ele>
        <time>2017-08-11T12:48:31Z</time>
      </trkpt>
      <trkpt lat="45.36816" lon="5.76187">
        <ele>1017.69</ele>
        <time>2017-08-11T12:48:38Z</time>
      </trkpt>
      <trkpt lat="45.36824" lon="5.76181">
        <ele>1019.62</ele>
        <time>2017-08-11T12:48:47Z</time>
      </trkpt>
      <trkpt lat="45.36828" lon="5.7618">
        <ele>1020.1</ele>
        <time>2017-08-11T12:48:55Z</time>
      </trkpt>
      <trkpt lat="45.3683" lon="5.76182">
        <ele>1020.1</ele>
        <time>2017-08-11T12:49:01Z</time>
      </trkpt>
      <trkpt lat="45.36832" lon="5.76188">
        <ele>1019.13</ele>
        <time>2017-08-11T12:49:07Z</time>
      </trkpt>
      <trkpt lat="45.36836" lon="5.76191">
        <ele>1020.58</ele>
        <time>2017-08-11T12:49:14Z</time>
      </trkpt>
      <trkpt lat="45.36839" lon="5.76195">
        <ele>1021.54</ele>
        <time>2017-08-11T12:49:21Z</time>
      </trkpt>
      <trkpt lat="45.36842" lon="5.76199">
        <ele>1022.5</ele>
        <time>2017-08-11T12:49:30Z</time>
      </trkpt>
      <trkpt lat="45.36846" lon="5.76205">
        <ele>1024.42</ele>
        <time>2017-08-11T12:49:37Z</time>
      </trkpt>
      <trkpt lat="45.36849" lon="5.76213">
        <ele>1027.31</ele>
        <time>2017-08-11T12:49:46Z</time>
      </trkpt>
      <trkpt lat="45.36852" lon="5.76218">
        <ele>1028.75</ele>
        <time>2017-08-11T12:49:54Z</time>
      </trkpt>
      <trkpt lat="45.36855" lon="5.76223">
        <ele>1028.75</ele>
        <time>2017-08-11T12:50:01Z</time>
      </trkpt>
      <trkpt lat="45.36859" lon="5.76233">
        <ele>1029.71</ele>
        <time>2017-08-11T12:50:12Z</time>
      </trkpt>
      <trkpt lat="45.36863" lon="5.76241">
        <ele>1030.67</ele>
        <time>2017-08-11T12:50:20Z</time>
      </trkpt>
      <trkpt lat="45.36869" lon="5.76248">
        <ele>1033.55</ele>
        <time>2017-08-11T12:50:27Z</time>
      </trkpt>
      <trkpt lat="45.36876" lon="5.76255">
        <ele>1036.44</ele>
        <time>2017-08-11T12:50:33Z</time>
      </trkpt>
      <trkpt lat="45.3688" lon="5.76259">
        <ele>1036.44</ele>
        <time>2017-08-11T12:50:42Z</time>
      </trkpt>
      <trkpt lat="45.36886" lon="5.76264">
        <ele>1036.44</ele>
        <time>2017-08-11T12:50:52Z</time>
      </trkpt>
      <trkpt lat="45.3689" lon="5.76268">
        <ele>1037.88</ele>
        <time>2017-08-11T12:51:05Z</time>
      </trkpt>
      <trkpt lat="45.36892" lon="5.76273">
        <ele>1039.8</ele>
        <time>2017-08-11T12:51:13Z</time>
      </trkpt>
      <trkpt lat="45.36894" lon="5.76279">
        <ele>1042.21</ele>
        <time>2017-08-11T12:51:21Z</time>
      </trkpt>
      <trkpt lat="45.369" lon="5.76286">
        <ele>1044.13</ele>
        <time>2017-08-11T12:51:32Z</time>
      </trkpt>
      <trkpt lat="45.36904" lon="5.76291">
        <ele>1046.53</ele>
        <time>2017-08-11T12:51:39Z</time>
      </trkpt>
      <trkpt lat="45.3691" lon="5.76297">
        <ele>1048.45</ele>
        <time>2017-08-11T12:51:50Z</time>
      </trkpt>
      <trkpt lat="45.36912" lon="5.76301">
        <ele>1048.94</ele>
        <time>2017-08-11T12:51:57Z</time>
      </trkpt>
      <trkpt lat="45.36917" lon="5.76307">
        <ele>1049.9</ele>
        <time>2017-08-11T12:52:06Z</time>
      </trkpt>
      <trkpt lat="45.3692" lon="5.76312">
        <ele>1050.86</ele>
        <time>2017-08-11T12:52:15Z</time>
      </trkpt>
      <trkpt lat="45.36922" lon="5.76315">
        <ele>1055.18</ele>
        <time>2017-08-11T12:52:25Z</time>
      </trkpt>
      <trkpt lat="45.36923" lon="5.76314">
        <ele>1059.03</ele>
        <time>2017-08-11T12:52:39Z</time>
      </trkpt>
      <trkpt lat="45.36924" lon="5.76316">
        <ele>1060.95</ele>
        <time>2017-08-11T12:52:49Z</time>
      </trkpt>
      <trkpt lat="45.36926" lon="5.76316">
        <ele>1062.87</ele>
        <time>2017-08-11T12:52:58Z</time>
      </trkpt>
      <trkpt lat="45.36928" lon="5.76316">
        <ele>1064.8</ele>
        <time>2017-08-11T12:53:08Z</time>
      </trkpt>
      <trkpt lat="45.36931" lon="5.76319">
        <ele>1064.8</ele>
        <time>2017-08-11T12:53:16Z</time>
      </trkpt>
      <trkpt lat="45.36937" lon="5.76322">
        <ele>1064.32</ele>
        <time>2017-08-11T12:53:25Z</time>
      </trkpt>
      <trkpt lat="45.36939" lon="5.76324">
        <ele>1064.32</ele>
        <time>2017-08-11T12:53:37Z</time>
      </trkpt>
      <trkpt lat="45.36939" lon="5.76326">
        <ele>1064.8</ele>
        <time>2017-08-11T12:53:45Z</time>
      </trkpt>
      <trkpt lat="45.36942" lon="5.76328">
        <ele>1065.76</ele>
        <time>2017-08-11T12:53:53Z</time>
      </trkpt>
      <trkpt lat="45.36946" lon="5.76329">
        <ele>1066.24</ele>
        <time>2017-08-11T12:54:00Z</time>
      </trkpt>
      <trkpt lat="45.3695" lon="5.76334">
        <ele>1067.2</ele>
        <time>2017-08-11T12:54:05Z</time>
      </trkpt>
      <trkpt lat="45.36951" lon="5.76342">
        <ele>1071.53</ele>
        <time>2017-08-11T12:54:12Z</time>
      </trkpt>
      <trkpt lat="45.36952" lon="5.76343">
        <ele>1074.89</ele>
        <time>2017-08-11T12:54:22Z</time>
      </trkpt>
      <trkpt lat="45.36953" lon="5.76341">
        <ele>1077.29</ele>
        <time>2017-08-11T12:54:31Z</time>
      </trkpt>
      <trkpt lat="45.36954" lon="5.76341">
        <ele>1077.78</ele>
        <time>2017-08-11T12:54:39Z</time>
      </trkpt>
      <trkpt lat="45.36954" lon="5.76341">
        <ele>1077.78</ele>
        <time>2017-08-11T12:54:49Z</time>
      </trkpt>
      <trkpt lat="45.36954" lon="5.76341">
        <ele>1077.78</ele>
        <time>2017-08-11T12:54:55Z</time>
      </trkpt>
      <trkpt lat="45.36954" lon="5.76342">
        <ele>1078.26</ele>
        <time>2017-08-11T12:55:01Z</time>
      </trkpt>
      <trkpt lat="45.36954" lon="5.76342">
        <ele>1078.26</ele>
        <time>2017-08-11T12:55:09Z</time>
      </trkpt>
      <trkpt lat="45.36954" lon="5.76342">
        <ele>1079.22</ele>
        <time>2017-08-11T12:55:18Z</time>
      </trkpt>
      <trkpt lat="45.36955" lon="5.76342">
        <ele>1080.18</ele>
        <time>2017-08-11T12:55:30Z</time>
      </trkpt>
      <trkpt lat="45.36956" lon="5.7634">
        <ele>1081.62</ele>
        <time>2017-08-11T12:55:52Z</time>
      </trkpt>
      <trkpt lat="45.36957" lon="5.7634">
        <ele>1082.58</ele>
        <time>2017-08-11T12:56:10Z</time>
      </trkpt>
      <trkpt lat="45.36957" lon="5.76339">
        <ele>1082.58</ele>
        <time>2017-08-11T12:56:25Z</time>
      </trkpt>
      <trkpt lat="45.36956" lon="5.76339">
        <ele>1084.02</ele>
        <time>2017-08-11T12:56:43Z</time>
      </trkpt>
      <trkpt lat="45.36957" lon="5.76339">
        <ele>1085.47</ele>
        <time>2017-08-11T12:57:03Z</time>
      </trkpt>
      <trkpt lat="45.36956" lon="5.76339">
        <ele>1084.99</ele>
        <time>2017-08-11T12:57:29Z</time>
      </trkpt>
      <trkpt lat="45.36956" lon="5.7634">
        <ele>1084.5</ele>
        <time>2017-08-11T12:57:49Z</time>
      </trkpt>
      <trkpt lat="45.36956" lon="5.76339">
        <ele>1084.99</ele>
        <time>2017-08-11T12:58:02Z</time>
      </trkpt>
      <trkpt lat="45.36956" lon="5.76339">
        <ele>1084.99</ele>
        <time>2017-08-11T12:58:08Z</time>
      </trkpt>
      <trkpt lat="45.36956" lon="5.76339">
        <ele>1084.99</ele>
        <time>2017-08-11T12:58:21Z</time>
      </trkpt>
      <trkpt lat="45.36956" lon="5.76341">
        <ele>1084.02</ele>
        <time>2017-08-11T12:58:38Z</time>
      </trkpt>
      <trkpt lat="45.36955" lon="5.76341">
        <ele>1084.5</ele>
        <time>2017-08-11T12:58:52Z</time>
      </trkpt>
      <trkpt lat="45.36957" lon="5.76342">
        <ele>1084.99</ele>
        <time>2017-08-11T12:59:08Z</time>
      </trkpt>
      <trkpt lat="45.36958" lon="5.76342">
        <ele>1084.99</ele>
        <time>2017-08-11T12:59:24Z</time>
      </trkpt>
      <trkpt lat="45.36958" lon="5.76341">
        <ele>1084.99</ele>
        <time>2017-08-11T12:59:45Z</time>
      </trkpt>
      <trkpt lat="45.36957" lon="5.76341">
        <ele>1085.47</ele>
        <time>2017-08-11T13:00:04Z</time>
      </trkpt>
      <trkpt lat="45.36957" lon="5.76341">
        <ele>1085.47</ele>
        <time>2017-08-11T13:00:16Z</time>
      </trkpt>
      <trkpt lat="45.36957" lon="5.76341">
        <ele>1085.95</ele>
        <time>2017-08-11T13:00:28Z</time>
      </trkpt>
      <trkpt lat="45.36957" lon="5.76341">
        <ele>1085.95</ele>
        <time>2017-08-11T13:00:43Z</time>
      </trkpt>
      <trkpt lat="45.36957" lon="5.76342">
        <ele>1085.47</ele>
        <time>2017-08-11T13:00:49Z</time>
      </trkpt>
      <trkpt lat="45.36956" lon="5.76342">
        <ele>1085.47</ele>
        <time>2017-08-11T13:00:57Z</time>
      </trkpt>
      <trkpt lat="45.36956" lon="5.76343">
        <ele>1085.47</ele>
        <time>2017-08-11T13:01:03Z</time>
      </trkpt>
      <trkpt lat="45.36952" lon="5.76348">
        <ele>1085.95</ele>
        <time>2017-08-11T13:01:10Z</time>
      </trkpt>
      <trkpt lat="45.36946" lon="5.76353">
        <ele>1086.43</ele>
        <time>2017-08-11T13:01:17Z</time>
      </trkpt>
      <trkpt lat="45.36942" lon="5.76354">
        <ele>1087.87</ele>
        <time>2017-08-11T13:01:24Z</time>
      </trkpt>
      <trkpt lat="45.3694" lon="5.76356">
        <ele>1088.35</ele>
        <time>2017-08-11T13:01:32Z</time>
      </trkpt>
      <trkpt lat="45.36936" lon="5.76361">
        <ele>1088.83</ele>
        <time>2017-08-11T13:01:38Z</time>
      </trkpt>
      <trkpt lat="45.36936" lon="5.76364">
        <ele>1089.79</ele>
        <time>2017-08-11T13:01:44Z</time>
      </trkpt>
      <trkpt lat="45.36934" lon="5.76366">
        <ele>1090.27</ele>
        <time>2017-08-11T13:01:51Z</time>
      </trkpt>
      <trkpt lat="45.36934" lon="5.76367">
        <ele>1091.23</ele>
        <time>2017-08-11T13:01:58Z</time>
      </trkpt>
      <trkpt lat="45.36936" lon="5.76379">
        <ele>1090.27</ele>
        <time>2017-08-11T13:02:08Z</time>
      </trkpt>
      <trkpt lat="45.36939" lon="5.76391">
        <ele>1090.75</ele>
        <time>2017-08-11T13:02:17Z</time>
      </trkpt>
      <trkpt lat="45.36942" lon="5.76398">
        <ele>1090.27</ele>
        <time>2017-08-11T13:02:24Z</time>
      </trkpt>
      <trkpt lat="45.36947" lon="5.76409">
        <ele>1088.35</ele>
        <time>2017-08-11T13:02:29Z</time>
      </trkpt>
      <trkpt lat="45.36951" lon="5.76417">
        <ele>1085.47</ele>
        <time>2017-08-11T13:02:34Z</time>
      </trkpt>
      <trkpt lat="45.36955" lon="5.76427">
        <ele>1082.58</ele>
        <time>2017-08-11T13:02:41Z</time>
      </trkpt>
      <trkpt lat="45.36956" lon="5.76435">
        <ele>1081.14</ele>
        <time>2017-08-11T13:02:48Z</time>
      </trkpt>
      <trkpt lat="45.36958" lon="5.76447">
        <ele>1078.26</ele>
        <time>2017-08-11T13:02:54Z</time>
      </trkpt>
      <trkpt lat="45.36959" lon="5.76457">
        <ele>1074.89</ele>
        <time>2017-08-11T13:02:59Z</time>
      </trkpt>
      <trkpt lat="45.36968" lon="5.76468">
        <ele>1073.93</ele>
        <time>2017-08-11T13:03:06Z</time>
      </trkpt>
      <trkpt lat="45.3698" lon="5.76473">
        <ele>1075.37</ele>
        <time>2017-08-11T13:03:12Z</time>
      </trkpt>
      <trkpt lat="45.36995" lon="5.76477">
        <ele>1076.81</ele>
        <time>2017-08-11T13:03:20Z</time>
      </trkpt>
      <trkpt lat="45.37006" lon="5.76483">
        <ele>1076.81</ele>
        <time>2017-08-11T13:03:27Z</time>
      </trkpt>
      <trkpt lat="45.37021" lon="5.76497">
        <ele>1074.41</ele>
        <time>2017-08-11T13:03:35Z</time>
      </trkpt>
      <trkpt lat="45.37033" lon="5.76507">
        <ele>1072.97</ele>
        <time>2017-08-11T13:03:42Z</time>
      </trkpt>
      <trkpt lat="45.37041" lon="5.76513">
        <ele>1072.49</ele>
        <time>2017-08-11T13:03:50Z</time>
      </trkpt>
      <trkpt lat="45.37052" lon="5.76525">
        <ele>1070.08</ele>
        <time>2017-08-11T13:03:57Z</time>
      </trkpt>
      <trkpt lat="45.37059" lon="5.76539">
        <ele>1067.2</ele>
        <time>2017-08-11T13:04:04Z</time>
      </trkpt>
      <trkpt lat="45.37059" lon="5.76549">
        <ele>1063.84</ele>
        <time>2017-08-11T13:04:12Z</time>
      </trkpt>
      <trkpt lat="45.37059" lon="5.76553">
        <ele>1060.95</ele>
        <time>2017-08-11T13:04:16Z</time>
      </trkpt>
      <trkpt lat="45.37056" lon="5.76561">
        <ele>1055.67</ele>
        <time>2017-08-11T13:04:23Z</time>
      </trkpt>
      <trkpt lat="45.37055" lon="5.76565">
        <ele>1054.22</ele>
        <time>2017-08-11T13:04:25Z</time>
      </trkpt>
      <trkpt lat="45.37052" lon="5.76576">
        <ele>1049.42</ele>
        <time>2017-08-11T13:04:32Z</time>
      </trkpt>
      <trkpt lat="45.3705" lon="5.76585">
        <ele>1045.09</ele>
        <time>2017-08-11T13:04:39Z</time>
      </trkpt>
      <trkpt lat="45.37049" lon="5.76592">
        <ele>1041.25</ele>
        <time>2017-08-11T13:04:45Z</time>
      </trkpt>
      <trkpt lat="45.37049" lon="5.76599">
        <ele>1039.32</ele>
        <time>2017-08-11T13:04:55Z</time>
      </trkpt>
      <trkpt lat="45.37049" lon="5.76606">
        <ele>1039.32</ele>
        <time>2017-08-11T13:05:04Z</time>
      </trkpt>
      <trkpt lat="45.3705" lon="5.7661">
        <ele>1037.88</ele>
        <time>2017-08-11T13:05:07Z</time>
      </trkpt>
      <trkpt lat="45.37059" lon="5.7662">
        <ele>1035.96</ele>
        <time>2017-08-11T13:05:12Z</time>
      </trkpt>
      <trkpt lat="45.37067" lon="5.76643">
        <ele>1030.67</ele>
        <time>2017-08-11T13:05:20Z</time>
      </trkpt>
      <trkpt lat="45.37068" lon="5.76651">
        <ele>1026.83</ele>
        <time>2017-08-11T13:05:25Z</time>
      </trkpt>
      <trkpt lat="45.37067" lon="5.76658">
        <ele>1025.86</ele>
        <time>2017-08-11T13:05:31Z</time>
      </trkpt>
      <trkpt lat="45.37064" lon="5.76667">
        <ele>1025.38</ele>
        <time>2017-08-11T13:05:38Z</time>
      </trkpt>
      <trkpt lat="45.37062" lon="5.76671">
        <ele>1025.38</ele>
        <time>2017-08-11T13:05:45Z</time>
      </trkpt>
      <trkpt lat="45.37061" lon="5.76675">
        <ele>1026.83</ele>
        <time>2017-08-11T13:05:53Z</time>
      </trkpt>
      <trkpt lat="45.37059" lon="5.76678">
        <ele>1026.83</ele>
        <time>2017-08-11T13:06:01Z</time>
      </trkpt>
      <trkpt lat="45.37063" lon="5.76687">
        <ele>1029.71</ele>
        <time>2017-08-11T13:06:12Z</time>
      </trkpt>
      <trkpt lat="45.37064" lon="5.7669">
        <ele>1032.11</ele>
        <time>2017-08-11T13:06:21Z</time>
      </trkpt>
      <trkpt lat="45.37064" lon="5.76695">
        <ele>1034.04</ele>
        <time>2017-08-11T13:06:32Z</time>
      </trkpt>
      <trkpt lat="45.37064" lon="5.76696">
        <ele>1035</ele>
        <time>2017-08-11T13:06:43Z</time>
      </trkpt>
      <trkpt lat="45.37065" lon="5.76698">
        <ele>1036.92</ele>
        <time>2017-08-11T13:06:52Z</time>
      </trkpt>
      <trkpt lat="45.37067" lon="5.767">
        <ele>1041.25</ele>
        <time>2017-08-11T13:07:06Z</time>
      </trkpt>
      <trkpt lat="45.37067" lon="5.767">
        <ele>1042.69</ele>
        <time>2017-08-11T13:07:20Z</time>
      </trkpt>
      <trkpt lat="45.37067" lon="5.767">
        <ele>1042.69</ele>
        <time>2017-08-11T13:07:31Z</time>
      </trkpt>
      <trkpt lat="45.37068" lon="5.76701">
        <ele>1043.65</ele>
        <time>2017-08-11T13:07:39Z</time>
      </trkpt>
      <trkpt lat="45.3707" lon="5.76702">
        <ele>1044.61</ele>
        <time>2017-08-11T13:07:50Z</time>
      </trkpt>
      <trkpt lat="45.37073" lon="5.76702">
        <ele>1044.61</ele>
        <time>2017-08-11T13:07:57Z</time>
      </trkpt>
      <trkpt lat="45.37074" lon="5.76702">
        <ele>1045.09</ele>
        <time>2017-08-11T13:08:01Z</time>
      </trkpt>
      <trkpt lat="45.3708" lon="5.76705">
        <ele>1044.13</ele>
        <time>2017-08-11T13:08:07Z</time>
      </trkpt>
      <trkpt lat="45.37083" lon="5.76706">
        <ele>1045.57</ele>
        <time>2017-08-11T13:08:19Z</time>
      </trkpt>
      <trkpt lat="45.37085" lon="5.76707">
        <ele>1045.09</ele>
        <time>2017-08-11T13:08:31Z</time>
      </trkpt>
      <trkpt lat="45.37108" lon="5.76718">
        <ele>1054.22</ele>
        <time>2017-08-11T13:08:53Z</time>
      </trkpt>
      <trkpt lat="45.37114" lon="5.7672">
        <ele>1054.7</ele>
        <time>2017-08-11T13:09:03Z</time>
      </trkpt>
      <trkpt lat="45.37122" lon="5.76724">
        <ele>1055.18</ele>
        <time>2017-08-11T13:09:13Z</time>
      </trkpt>
      <trkpt lat="45.37129" lon="5.76736">
        <ele>1055.67</ele>
        <time>2017-08-11T13:09:22Z</time>
      </trkpt>
      <trkpt lat="45.37137" lon="5.76746">
        <ele>1055.18</ele>
        <time>2017-08-11T13:09:30Z</time>
      </trkpt>
      <trkpt lat="45.37139" lon="5.76751">
        <ele>1054.7</ele>
        <time>2017-08-11T13:09:37Z</time>
      </trkpt>
      <trkpt lat="45.37143" lon="5.76754">
        <ele>1056.15</ele>
        <time>2017-08-11T13:09:44Z</time>
      </trkpt>
      <trkpt lat="45.37147" lon="5.76756">
        <ele>1056.15</ele>
        <time>2017-08-11T13:09:52Z</time>
      </trkpt>
      <trkpt lat="45.37157" lon="5.76761">
        <ele>1056.15</ele>
        <time>2017-08-11T13:10:01Z</time>
      </trkpt>
      <trkpt lat="45.37168" lon="5.76768">
        <ele>1055.67</ele>
        <time>2017-08-11T13:10:07Z</time>
      </trkpt>
      <trkpt lat="45.37182" lon="5.76779">
        <ele>1055.18</ele>
        <time>2017-08-11T13:10:13Z</time>
      </trkpt>
      <trkpt lat="45.37185" lon="5.76781">
        <ele>1053.74</ele>
        <time>2017-08-11T13:10:22Z</time>
      </trkpt>
      <trkpt lat="45.37186" lon="5.76783">
        <ele>1054.22</ele>
        <time>2017-08-11T13:10:33Z</time>
      </trkpt>
      <trkpt lat="45.37188" lon="5.76783">
        <ele>1053.26</ele>
        <time>2017-08-11T13:10:54Z</time>
      </trkpt>
      <trkpt lat="45.3719" lon="5.76783">
        <ele>1052.78</ele>
        <time>2017-08-11T13:11:02Z</time>
      </trkpt>
      <trkpt lat="45.37191" lon="5.7679">
        <ele>1051.34</ele>
        <time>2017-08-11T13:11:10Z</time>
      </trkpt>
      <trkpt lat="45.37194" lon="5.76799">
        <ele>1049.9</ele>
        <time>2017-08-11T13:11:16Z</time>
      </trkpt>
      <trkpt lat="45.37197" lon="5.76807">
        <ele>1048.45</ele>
        <time>2017-08-11T13:11:23Z</time>
      </trkpt>
      <trkpt lat="45.37199" lon="5.76819">
        <ele>1047.49</ele>
        <time>2017-08-11T13:11:33Z</time>
      </trkpt>
      <trkpt lat="45.37204" lon="5.7683">
        <ele>1046.05</ele>
        <time>2017-08-11T13:11:40Z</time>
      </trkpt>
      <trkpt lat="45.37205" lon="5.76836">
        <ele>1046.05</ele>
        <time>2017-08-11T13:11:43Z</time>
      </trkpt>
      <trkpt lat="45.37209" lon="5.76843">
        <ele>1046.05</ele>
        <time>2017-08-11T13:11:47Z</time>
      </trkpt>
      <trkpt lat="45.37219" lon="5.76852">
        <ele>1047.49</ele>
        <time>2017-08-11T13:11:55Z</time>
      </trkpt>
      <trkpt lat="45.37229" lon="5.76851">
        <ele>1050.86</ele>
        <time>2017-08-11T13:12:01Z</time>
      </trkpt>
      <trkpt lat="45.37237" lon="5.76847">
        <ele>1050.38</ele>
        <time>2017-08-11T13:12:08Z</time>
      </trkpt>
      <trkpt lat="45.37238" lon="5.76847">
        <ele>1050.38</ele>
        <time>2017-08-11T13:12:09Z</time>
      </trkpt>
      <trkpt lat="45.37249" lon="5.76845">
        <ele>1048.94</ele>
        <time>2017-08-11T13:12:16Z</time>
      </trkpt>
      <trkpt lat="45.37256" lon="5.76846">
        <ele>1048.45</ele>
        <time>2017-08-11T13:12:21Z</time>
      </trkpt>
      <trkpt lat="45.37271" lon="5.76854">
        <ele>1048.45</ele>
        <time>2017-08-11T13:12:29Z</time>
      </trkpt>
      <trkpt lat="45.37273" lon="5.76853">
        <ele>1048.94</ele>
        <time>2017-08-11T13:12:30Z</time>
      </trkpt>
      <trkpt lat="45.37282" lon="5.76851">
        <ele>1049.9</ele>
        <time>2017-08-11T13:12:32Z</time>
      </trkpt>
      <trkpt lat="45.37295" lon="5.7684">
        <ele>1049.42</ele>
        <time>2017-08-11T13:12:40Z</time>
      </trkpt>
      <trkpt lat="45.37297" lon="5.76837">
        <ele>1049.42</ele>
        <time>2017-08-11T13:12:46Z</time>
      </trkpt>
      <trkpt lat="45.37297" lon="5.76832">
        <ele>1049.9</ele>
        <time>2017-08-11T13:12:53Z</time>
      </trkpt>
      <trkpt lat="45.37304" lon="5.76819">
        <ele>1049.42</ele>
        <time>2017-08-11T13:12:58Z</time>
      </trkpt>
      <trkpt lat="45.37308" lon="5.7681">
        <ele>1049.42</ele>
        <time>2017-08-11T13:13:02Z</time>
      </trkpt>
      <trkpt lat="45.37317" lon="5.76801">
        <ele>1048.94</ele>
        <time>2017-08-11T13:13:08Z</time>
      </trkpt>
      <trkpt lat="45.37334" lon="5.76796">
        <ele>1048.45</ele>
        <time>2017-08-11T13:13:16Z</time>
      </trkpt>
      <trkpt lat="45.37341" lon="5.7679">
        <ele>1048.94</ele>
        <time>2017-08-11T13:13:24Z</time>
      </trkpt>
      <trkpt lat="45.37343" lon="5.76788">
        <ele>1048.94</ele>
        <time>2017-08-11T13:13:33Z</time>
      </trkpt>
      <trkpt lat="45.37344" lon="5.76785">
        <ele>1049.42</ele>
        <time>2017-08-11T13:13:43Z</time>
      </trkpt>
      <trkpt lat="45.37346" lon="5.7678">
        <ele>1049.9</ele>
        <time>2017-08-11T13:13:51Z</time>
      </trkpt>
      <trkpt lat="45.37347" lon="5.76775">
        <ele>1050.38</ele>
        <time>2017-08-11T13:14:00Z</time>
      </trkpt>
      <trkpt lat="45.37349" lon="5.76773">
        <ele>1050.86</ele>
        <time>2017-08-11T13:14:13Z</time>
      </trkpt>
      <trkpt lat="45.3735" lon="5.7676">
        <ele>1051.82</ele>
        <time>2017-08-11T13:14:19Z</time>
      </trkpt>
      <trkpt lat="45.37353" lon="5.76746">
        <ele>1052.3</ele>
        <time>2017-08-11T13:14:28Z</time>
      </trkpt>
      <trkpt lat="45.37381" lon="5.76755">
        <ele>1053.26</ele>
        <time>2017-08-11T13:14:35Z</time>
      </trkpt>
      <trkpt lat="45.37395" lon="5.76764">
        <ele>1053.74</ele>
        <time>2017-08-11T13:14:42Z</time>
      </trkpt>
      <trkpt lat="45.37399" lon="5.76764">
        <ele>1053.26</ele>
        <time>2017-08-11T13:14:49Z</time>
      </trkpt>
      <trkpt lat="45.37401" lon="5.76762">
        <ele>1052.3</ele>
        <time>2017-08-11T13:14:57Z</time>
      </trkpt>
      <trkpt lat="45.37404" lon="5.76752">
        <ele>1054.7</ele>
        <time>2017-08-11T13:15:04Z</time>
      </trkpt>
      <trkpt lat="45.37409" lon="5.76753">
        <ele>1053.74</ele>
        <time>2017-08-11T13:15:13Z</time>
      </trkpt>
      <trkpt lat="45.37416" lon="5.76749">
        <ele>1053.74</ele>
        <time>2017-08-11T13:15:24Z</time>
      </trkpt>
      <trkpt lat="45.37421" lon="5.76747">
        <ele>1053.26</ele>
        <time>2017-08-11T13:15:31Z</time>
      </trkpt>
      <trkpt lat="45.37428" lon="5.76747">
        <ele>1056.15</ele>
        <time>2017-08-11T13:15:41Z</time>
      </trkpt>
      <trkpt lat="45.3743" lon="5.76741">
        <ele>1057.11</ele>
        <time>2017-08-11T13:15:48Z</time>
      </trkpt>
      <trkpt lat="45.37432" lon="5.7674">
        <ele>1057.59</ele>
        <time>2017-08-11T13:15:56Z</time>
      </trkpt>
      <trkpt lat="45.37436" lon="5.76741">
        <ele>1059.99</ele>
        <time>2017-08-11T13:16:04Z</time>
      </trkpt>
      <trkpt lat="45.37439" lon="5.7674">
        <ele>1060.47</ele>
        <time>2017-08-11T13:16:10Z</time>
      </trkpt>
      <trkpt lat="45.37445" lon="5.76735">
        <ele>1061.91</ele>
        <time>2017-08-11T13:16:19Z</time>
      </trkpt>
      <trkpt lat="45.37449" lon="5.76731">
        <ele>1061.91</ele>
        <time>2017-08-11T13:16:26Z</time>
      </trkpt>
      <trkpt lat="45.37452" lon="5.76729">
        <ele>1061.43</ele>
        <time>2017-08-11T13:16:34Z</time>
      </trkpt>
      <trkpt lat="45.37454" lon="5.76732">
        <ele>1060.95</ele>
        <time>2017-08-11T13:16:40Z</time>
      </trkpt>
      <trkpt lat="45.37456" lon="5.76738">
        <ele>1065.76</ele>
        <time>2017-08-11T13:16:49Z</time>
      </trkpt>
      <trkpt lat="45.37456" lon="5.76745">
        <ele>1065.28</ele>
        <time>2017-08-11T13:16:56Z</time>
      </trkpt>
      <trkpt lat="45.37458" lon="5.76747">
        <ele>1067.2</ele>
        <time>2017-08-11T13:17:03Z</time>
      </trkpt>
      <trkpt lat="45.37458" lon="5.76751">
        <ele>1070.08</ele>
        <time>2017-08-11T13:17:08Z</time>
      </trkpt>
      <trkpt lat="45.37461" lon="5.76754">
        <ele>1070.57</ele>
        <time>2017-08-11T13:17:19Z</time>
      </trkpt>
      <trkpt lat="45.37467" lon="5.76745">
        <ele>1072.49</ele>
        <time>2017-08-11T13:17:29Z</time>
      </trkpt>
      <trkpt lat="45.37473" lon="5.76741">
        <ele>1072.49</ele>
        <time>2017-08-11T13:17:35Z</time>
      </trkpt>
      <trkpt lat="45.37481" lon="5.7673">
        <ele>1071.53</ele>
        <time>2017-08-11T13:17:45Z</time>
      </trkpt>
      <trkpt lat="45.37481" lon="5.76731">
        <ele>1072.01</ele>
        <time>2017-08-11T13:17:53Z</time>
      </trkpt>
      <trkpt lat="45.3748" lon="5.76735">
        <ele>1072.49</ele>
        <time>2017-08-11T13:17:57Z</time>
      </trkpt>
      <trkpt lat="45.37479" lon="5.76747">
        <ele>1072.49</ele>
        <time>2017-08-11T13:18:05Z</time>
      </trkpt>
      <trkpt lat="45.37482" lon="5.76747">
        <ele>1075.85</ele>
        <time>2017-08-11T13:18:11Z</time>
      </trkpt>
      <trkpt lat="45.37487" lon="5.76742">
        <ele>1079.22</ele>
        <time>2017-08-11T13:18:18Z</time>
      </trkpt>
      <trkpt lat="45.37494" lon="5.76741">
        <ele>1079.7</ele>
        <time>2017-08-11T13:18:25Z</time>
      </trkpt>
      <trkpt lat="45.37501" lon="5.7674">
        <ele>1082.1</ele>
        <time>2017-08-11T13:18:36Z</time>
      </trkpt>
      <trkpt lat="45.37503" lon="5.76738">
        <ele>1084.5</ele>
        <time>2017-08-11T13:18:43Z</time>
      </trkpt>
      <trkpt lat="45.37506" lon="5.76739">
        <ele>1088.35</ele>
        <time>2017-08-11T13:18:50Z</time>
      </trkpt>
      <trkpt lat="45.37506" lon="5.76741">
        <ele>1093.16</ele>
        <time>2017-08-11T13:18:57Z</time>
      </trkpt>
      <trkpt lat="45.37508" lon="5.76741">
        <ele>1093.16</ele>
        <time>2017-08-11T13:19:04Z</time>
      </trkpt>
      <trkpt lat="45.37513" lon="5.76736">
        <ele>1095.56</ele>
        <time>2017-08-11T13:19:14Z</time>
      </trkpt>
      <trkpt lat="45.37511" lon="5.76744">
        <ele>1097.96</ele>
        <time>2017-08-11T13:19:22Z</time>
      </trkpt>
      <trkpt lat="45.3751" lon="5.76749">
        <ele>1099.89</ele>
        <time>2017-08-11T13:19:30Z</time>
      </trkpt>
      <trkpt lat="45.3751" lon="5.76748">
        <ele>1100.85</ele>
        <time>2017-08-11T13:19:36Z</time>
      </trkpt>
      <trkpt lat="45.3751" lon="5.76748">
        <ele>1101.81</ele>
        <time>2017-08-11T13:19:47Z</time>
      </trkpt>
      <trkpt lat="45.3751" lon="5.7675">
        <ele>1102.29</ele>
        <time>2017-08-11T13:19:53Z</time>
      </trkpt>
      <trkpt lat="45.37509" lon="5.76754">
        <ele>1103.73</ele>
        <time>2017-08-11T13:20:01Z</time>
      </trkpt>
      <trkpt lat="45.37508" lon="5.76761">
        <ele>1103.25</ele>
        <time>2017-08-11T13:20:09Z</time>
      </trkpt>
      <trkpt lat="45.37506" lon="5.76771">
        <ele>1103.73</ele>
        <time>2017-08-11T13:20:16Z</time>
      </trkpt>
      <trkpt lat="45.37503" lon="5.76778">
        <ele>1104.21</ele>
        <time>2017-08-11T13:20:25Z</time>
      </trkpt>
      <trkpt lat="45.37501" lon="5.76784">
        <ele>1104.69</ele>
        <time>2017-08-11T13:20:32Z</time>
      </trkpt>
      <trkpt lat="45.37499" lon="5.76794">
        <ele>1104.69</ele>
        <time>2017-08-11T13:20:36Z</time>
      </trkpt>
      <trkpt lat="45.37494" lon="5.76805">
        <ele>1105.17</ele>
        <time>2017-08-11T13:20:42Z</time>
      </trkpt>
      <trkpt lat="45.37493" lon="5.76816">
        <ele>1105.17</ele>
        <time>2017-08-11T13:20:51Z</time>
      </trkpt>
      <trkpt lat="45.37493" lon="5.76818">
        <ele>1105.17</ele>
        <time>2017-08-11T13:20:57Z</time>
      </trkpt>
      <trkpt lat="45.37487" lon="5.76834">
        <ele>1106.61</ele>
        <time>2017-08-11T13:21:04Z</time>
      </trkpt>
      <trkpt lat="45.37485" lon="5.76839">
        <ele>1107.1</ele>
        <time>2017-08-11T13:21:14Z</time>
      </trkpt>
      <trkpt lat="45.37487" lon="5.7684">
        <ele>1107.1</ele>
        <time>2017-08-11T13:21:19Z</time>
      </trkpt>
      <trkpt lat="45.37493" lon="5.76832">
        <ele>1107.58</ele>
        <time>2017-08-11T13:21:27Z</time>
      </trkpt>
      <trkpt lat="45.37501" lon="5.76822">
        <ele>1108.06</ele>
        <time>2017-08-11T13:21:37Z</time>
      </trkpt>
      <trkpt lat="45.37506" lon="5.76823">
        <ele>1108.54</ele>
        <time>2017-08-11T13:21:43Z</time>
      </trkpt>
      <trkpt lat="45.37511" lon="5.76826">
        <ele>1108.54</ele>
        <time>2017-08-11T13:21:50Z</time>
      </trkpt>
      <trkpt lat="45.37514" lon="5.76828">
        <ele>1109.5</ele>
        <time>2017-08-11T13:21:58Z</time>
      </trkpt>
      <trkpt lat="45.37514" lon="5.76823">
        <ele>1109.98</ele>
        <time>2017-08-11T13:22:06Z</time>
      </trkpt>
      <trkpt lat="45.37514" lon="5.76821">
        <ele>1110.46</ele>
        <time>2017-08-11T13:22:09Z</time>
      </trkpt>
      <trkpt lat="45.37513" lon="5.76815">
        <ele>1110.94</ele>
        <time>2017-08-11T13:22:15Z</time>
      </trkpt>
      <trkpt lat="45.37542" lon="5.76814">
        <ele>1128.73</ele>
        <time>2017-08-11T13:22:25Z</time>
      </trkpt>
      <trkpt lat="45.37552" lon="5.76817">
        <ele>1128.73</ele>
        <time>2017-08-11T13:22:34Z</time>
      </trkpt>
      <trkpt lat="45.37559" lon="5.76811">
        <ele>1129.21</ele>
        <time>2017-08-11T13:22:42Z</time>
      </trkpt>
      <trkpt lat="45.37557" lon="5.76798">
        <ele>1146.03</ele>
        <time>2017-08-11T13:22:51Z</time>
      </trkpt>
      <trkpt lat="45.37558" lon="5.76792">
        <ele>1152.28</ele>
        <time>2017-08-11T13:22:58Z</time>
      </trkpt>
      <trkpt lat="45.37562" lon="5.76784">
        <ele>1156.6</ele>
        <time>2017-08-11T13:23:07Z</time>
      </trkpt>
      <trkpt lat="45.37568" lon="5.76776">
        <ele>1161.41</ele>
        <time>2017-08-11T13:23:17Z</time>
      </trkpt>
      <trkpt lat="45.37575" lon="5.76767">
        <ele>1165.74</ele>
        <time>2017-08-11T13:23:25Z</time>
      </trkpt>
      <trkpt lat="45.37582" lon="5.76762">
        <ele>1167.18</ele>
        <time>2017-08-11T13:23:34Z</time>
      </trkpt>
      <trkpt lat="45.37588" lon="5.76756">
        <ele>1171.5</ele>
        <time>2017-08-11T13:23:43Z</time>
      </trkpt>
      <trkpt lat="45.37596" lon="5.76758">
        <ele>1173.91</ele>
        <time>2017-08-11T13:23:50Z</time>
      </trkpt>
      <trkpt lat="45.376" lon="5.76754">
        <ele>1178.71</ele>
        <time>2017-08-11T13:23:57Z</time>
      </trkpt>
      <trkpt lat="45.37602" lon="5.76754">
        <ele>1179.19</ele>
        <time>2017-08-11T13:24:04Z</time>
      </trkpt>
      <trkpt lat="45.37602" lon="5.76756">
        <ele>1182.08</ele>
        <time>2017-08-11T13:24:12Z</time>
      </trkpt>
      <trkpt lat="45.37604" lon="5.76755">
        <ele>1184</ele>
        <time>2017-08-11T13:24:18Z</time>
      </trkpt>
      <trkpt lat="45.37605" lon="5.76754">
        <ele>1184.48</ele>
        <time>2017-08-11T13:24:25Z</time>
      </trkpt>
      <trkpt lat="45.37608" lon="5.76751">
        <ele>1184.96</ele>
        <time>2017-08-11T13:24:33Z</time>
      </trkpt>
      <trkpt lat="45.37616" lon="5.76744">
        <ele>1187.85</ele>
        <time>2017-08-11T13:24:41Z</time>
      </trkpt>
      <trkpt lat="45.37619" lon="5.76742">
        <ele>1188.81</ele>
        <time>2017-08-11T13:24:48Z</time>
      </trkpt>
      <trkpt lat="45.37626" lon="5.76744">
        <ele>1188.81</ele>
        <time>2017-08-11T13:24:55Z</time>
      </trkpt>
      <trkpt lat="45.37629" lon="5.76741">
        <ele>1189.29</ele>
        <time>2017-08-11T13:25:01Z</time>
      </trkpt>
      <trkpt lat="45.37634" lon="5.76741">
        <ele>1190.73</ele>
        <time>2017-08-11T13:25:09Z</time>
      </trkpt>
      <trkpt lat="45.37636" lon="5.76741">
        <ele>1191.21</ele>
        <time>2017-08-11T13:25:14Z</time>
      </trkpt>
      <trkpt lat="45.37639" lon="5.76732">
        <ele>1192.17</ele>
        <time>2017-08-11T13:25:22Z</time>
      </trkpt>
      <trkpt lat="45.37639" lon="5.76722">
        <ele>1196.5</ele>
        <time>2017-08-11T13:25:29Z</time>
      </trkpt>
      <trkpt lat="45.37641" lon="5.76711">
        <ele>1200.34</ele>
        <time>2017-08-11T13:25:35Z</time>
      </trkpt>
      <trkpt lat="45.37643" lon="5.76707">
        <ele>1204.67</ele>
        <time>2017-08-11T13:25:43Z</time>
      </trkpt>
      <trkpt lat="45.37647" lon="5.76709">
        <ele>1204.67</ele>
        <time>2017-08-11T13:25:51Z</time>
      </trkpt>
      <trkpt lat="45.3765" lon="5.76713">
        <ele>1208.51</ele>
        <time>2017-08-11T13:25:58Z</time>
      </trkpt>
      <trkpt lat="45.37653" lon="5.76715">
        <ele>1209.48</ele>
        <time>2017-08-11T13:26:06Z</time>
      </trkpt>
      <trkpt lat="45.37659" lon="5.76716">
        <ele>1211.4</ele>
        <time>2017-08-11T13:26:13Z</time>
      </trkpt>
      <trkpt lat="45.37664" lon="5.76712">
        <ele>1211.88</ele>
        <time>2017-08-11T13:26:19Z</time>
      </trkpt>
      <trkpt lat="45.37663" lon="5.76707">
        <ele>1211.4</ele>
        <time>2017-08-11T13:26:25Z</time>
      </trkpt>
      <trkpt lat="45.37663" lon="5.76704">
        <ele>1210.92</ele>
        <time>2017-08-11T13:26:31Z</time>
      </trkpt>
      <trkpt lat="45.37661" lon="5.7669">
        <ele>1212.84</ele>
        <time>2017-08-11T13:26:40Z</time>
      </trkpt>
      <trkpt lat="45.37659" lon="5.76683">
        <ele>1213.32</ele>
        <time>2017-08-11T13:26:47Z</time>
      </trkpt>
      <trkpt lat="45.37657" lon="5.76674">
        <ele>1214.28</ele>
        <time>2017-08-11T13:26:54Z</time>
      </trkpt>
      <trkpt lat="45.37655" lon="5.76668">
        <ele>1214.28</ele>
        <time>2017-08-11T13:27:02Z</time>
      </trkpt>
      <trkpt lat="45.37655" lon="5.76666">
        <ele>1214.76</ele>
        <time>2017-08-11T13:27:08Z</time>
      </trkpt>
      <trkpt lat="45.37657" lon="5.76667">
        <ele>1215.72</ele>
        <time>2017-08-11T13:27:12Z</time>
      </trkpt>
      <trkpt lat="45.37661" lon="5.76672">
        <ele>1217.65</ele>
        <time>2017-08-11T13:27:20Z</time>
      </trkpt>
      <trkpt lat="45.37665" lon="5.76673">
        <ele>1219.09</ele>
        <time>2017-08-11T13:27:27Z</time>
      </trkpt>
      <trkpt lat="45.37666" lon="5.76673">
        <ele>1219.57</ele>
        <time>2017-08-11T13:27:34Z</time>
      </trkpt>
      <trkpt lat="45.37666" lon="5.76674">
        <ele>1220.05</ele>
        <time>2017-08-11T13:27:39Z</time>
      </trkpt>
      <trkpt lat="45.37667" lon="5.76673">
        <ele>1220.05</ele>
        <time>2017-08-11T13:27:44Z</time>
      </trkpt>
      <trkpt lat="45.37674" lon="5.76671">
        <ele>1224.38</ele>
        <time>2017-08-11T13:27:51Z</time>
      </trkpt>
      <trkpt lat="45.37676" lon="5.76666">
        <ele>1224.38</ele>
        <time>2017-08-11T13:27:56Z</time>
      </trkpt>
      <trkpt lat="45.37676" lon="5.76661">
        <ele>1225.34</ele>
        <time>2017-08-11T13:28:05Z</time>
      </trkpt>
      <trkpt lat="45.37675" lon="5.76654">
        <ele>1227.26</ele>
        <time>2017-08-11T13:28:13Z</time>
      </trkpt>
      <trkpt lat="45.37675" lon="5.76649">
        <ele>1228.7</ele>
        <time>2017-08-11T13:28:22Z</time>
      </trkpt>
      <trkpt lat="45.37674" lon="5.76644">
        <ele>1228.7</ele>
        <time>2017-08-11T13:28:28Z</time>
      </trkpt>
      <trkpt lat="45.37673" lon="5.76633">
        <ele>1233.03</ele>
        <time>2017-08-11T13:28:37Z</time>
      </trkpt>
      <trkpt lat="45.37673" lon="5.76626">
        <ele>1234.95</ele>
        <time>2017-08-11T13:28:46Z</time>
      </trkpt>
      <trkpt lat="45.37672" lon="5.7662">
        <ele>1235.91</ele>
        <time>2017-08-11T13:28:54Z</time>
      </trkpt>
      <trkpt lat="45.37671" lon="5.76618">
        <ele>1236.39</ele>
        <time>2017-08-11T13:29:01Z</time>
      </trkpt>
      <trkpt lat="45.37672" lon="5.76614">
        <ele>1238.32</ele>
        <time>2017-08-11T13:29:09Z</time>
      </trkpt>
      <trkpt lat="45.37674" lon="5.76611">
        <ele>1238.8</ele>
        <time>2017-08-11T13:29:19Z</time>
      </trkpt>
      <trkpt lat="45.37675" lon="5.76604">
        <ele>1238.32</ele>
        <time>2017-08-11T13:29:28Z</time>
      </trkpt>
      <trkpt lat="45.37677" lon="5.76599">
        <ele>1241.2</ele>
        <time>2017-08-11T13:29:35Z</time>
      </trkpt>
      <trkpt lat="45.37678" lon="5.76601">
        <ele>1244.08</ele>
        <time>2017-08-11T13:29:44Z</time>
      </trkpt>
      <trkpt lat="45.37679" lon="5.76606">
        <ele>1246.49</ele>
        <time>2017-08-11T13:29:51Z</time>
      </trkpt>
      <trkpt lat="45.37682" lon="5.76615">
        <ele>1251.29</ele>
        <time>2017-08-11T13:30:00Z</time>
      </trkpt>
      <trkpt lat="45.37689" lon="5.76617">
        <ele>1252.74</ele>
        <time>2017-08-11T13:30:09Z</time>
      </trkpt>
      <trkpt lat="45.37691" lon="5.7662">
        <ele>1251.29</ele>
        <time>2017-08-11T13:30:15Z</time>
      </trkpt>
      <trkpt lat="45.37693" lon="5.76621">
        <ele>1251.77</ele>
        <time>2017-08-11T13:30:24Z</time>
      </trkpt>
      <trkpt lat="45.37697" lon="5.76622">
        <ele>1251.29</ele>
        <time>2017-08-11T13:30:30Z</time>
      </trkpt>
      <trkpt lat="45.37703" lon="5.76624">
        <ele>1251.29</ele>
        <time>2017-08-11T13:30:36Z</time>
      </trkpt>
      <trkpt lat="45.37706" lon="5.76623">
        <ele>1255.62</ele>
        <time>2017-08-11T13:30:43Z</time>
      </trkpt>
      <trkpt lat="45.37706" lon="5.76617">
        <ele>1258.5</ele>
        <time>2017-08-11T13:30:51Z</time>
      </trkpt>
      <trkpt lat="45.37707" lon="5.76613">
        <ele>1259.46</ele>
        <time>2017-08-11T13:30:56Z</time>
      </trkpt>
      <trkpt lat="45.37708" lon="5.76609">
        <ele>1258.98</ele>
        <time>2017-08-11T13:31:04Z</time>
      </trkpt>
      <trkpt lat="45.3771" lon="5.76601">
        <ele>1259.46</ele>
        <time>2017-08-11T13:31:12Z</time>
      </trkpt>
      <trkpt lat="45.37713" lon="5.76587">
        <ele>1262.35</ele>
        <time>2017-08-11T13:31:22Z</time>
      </trkpt>
      <trkpt lat="45.37713" lon="5.76581">
        <ele>1265.23</ele>
        <time>2017-08-11T13:31:30Z</time>
      </trkpt>
      <trkpt lat="45.37713" lon="5.76583">
        <ele>1268.6</ele>
        <time>2017-08-11T13:31:37Z</time>
      </trkpt>
      <trkpt lat="45.37715" lon="5.76583">
        <ele>1271</ele>
        <time>2017-08-11T13:31:43Z</time>
      </trkpt>
      <trkpt lat="45.37716" lon="5.7658">
        <ele>1272.92</ele>
        <time>2017-08-11T13:31:52Z</time>
      </trkpt>
      <trkpt lat="45.37717" lon="5.76582">
        <ele>1275.81</ele>
        <time>2017-08-11T13:31:56Z</time>
      </trkpt>
      <trkpt lat="45.37718" lon="5.76584">
        <ele>1277.73</ele>
        <time>2017-08-11T13:32:02Z</time>
      </trkpt>
      <trkpt lat="45.37724" lon="5.76587">
        <ele>1280.13</ele>
        <time>2017-08-11T13:32:12Z</time>
      </trkpt>
      <trkpt lat="45.3773" lon="5.76593">
        <ele>1282.06</ele>
        <time>2017-08-11T13:32:21Z</time>
      </trkpt>
      <trkpt lat="45.37731" lon="5.76595">
        <ele>1281.57</ele>
        <time>2017-08-11T13:32:29Z</time>
      </trkpt>
      <trkpt lat="45.37736" lon="5.76589">
        <ele>1283.98</ele>
        <time>2017-08-11T13:32:36Z</time>
      </trkpt>
      <trkpt lat="45.37739" lon="5.76579">
        <ele>1288.3</ele>
        <time>2017-08-11T13:32:44Z</time>
      </trkpt>
      <trkpt lat="45.3774" lon="5.76572">
        <ele>1288.78</ele>
        <time>2017-08-11T13:32:52Z</time>
      </trkpt>
      <trkpt lat="45.37742" lon="5.76571">
        <ele>1289.27</ele>
        <time>2017-08-11T13:33:00Z</time>
      </trkpt>
      <trkpt lat="45.37744" lon="5.76573">
        <ele>1289.75</ele>
        <time>2017-08-11T13:33:07Z</time>
      </trkpt>
      <trkpt lat="45.37749" lon="5.76572">
        <ele>1290.71</ele>
        <time>2017-08-11T13:33:13Z</time>
      </trkpt>
      <trkpt lat="45.37752" lon="5.76569">
        <ele>1292.63</ele>
        <time>2017-08-11T13:33:19Z</time>
      </trkpt>
      <trkpt lat="45.37753" lon="5.76564">
        <ele>1294.55</ele>
        <time>2017-08-11T13:33:27Z</time>
      </trkpt>
      <trkpt lat="45.37756" lon="5.76554">
        <ele>1295.51</ele>
        <time>2017-08-11T13:33:33Z</time>
      </trkpt>
      <trkpt lat="45.37756" lon="5.76544">
        <ele>1295.51</ele>
        <time>2017-08-11T13:33:42Z</time>
      </trkpt>
      <trkpt lat="45.37756" lon="5.7654">
        <ele>1295.99</ele>
        <time>2017-08-11T13:33:50Z</time>
      </trkpt>
      <trkpt lat="45.37757" lon="5.76534">
        <ele>1296.48</ele>
        <time>2017-08-11T13:33:59Z</time>
      </trkpt>
      <trkpt lat="45.3776" lon="5.7653">
        <ele>1296.48</ele>
        <time>2017-08-11T13:34:06Z</time>
      </trkpt>
      <trkpt lat="45.37761" lon="5.7652">
        <ele>1295.51</ele>
        <time>2017-08-11T13:34:15Z</time>
      </trkpt>
      <trkpt lat="45.37762" lon="5.7651">
        <ele>1294.07</ele>
        <time>2017-08-11T13:34:24Z</time>
      </trkpt>
      <trkpt lat="45.37761" lon="5.76506">
        <ele>1295.51</ele>
        <time>2017-08-11T13:34:30Z</time>
      </trkpt>
      <trkpt lat="45.37763" lon="5.76501">
        <ele>1295.99</ele>
        <time>2017-08-11T13:34:36Z</time>
      </trkpt>
      <trkpt lat="45.37765" lon="5.76498">
        <ele>1296.96</ele>
        <time>2017-08-11T13:34:45Z</time>
      </trkpt>
      <trkpt lat="45.37767" lon="5.76496">
        <ele>1297.44</ele>
        <time>2017-08-11T13:34:52Z</time>
      </trkpt>
      <trkpt lat="45.37771" lon="5.76492">
        <ele>1296.96</ele>
        <time>2017-08-11T13:35:00Z</time>
      </trkpt>
      <trkpt lat="45.37771" lon="5.7649">
        <ele>1296.48</ele>
        <time>2017-08-11T13:35:08Z</time>
      </trkpt>
      <trkpt lat="45.37773" lon="5.76486">
        <ele>1296.48</ele>
        <time>2017-08-11T13:35:14Z</time>
      </trkpt>
      <trkpt lat="45.37775" lon="5.7648">
        <ele>1295.51</ele>
        <time>2017-08-11T13:35:20Z</time>
      </trkpt>
      <trkpt lat="45.37777" lon="5.76473">
        <ele>1295.51</ele>
        <time>2017-08-11T13:35:26Z</time>
      </trkpt>
      <trkpt lat="45.3778" lon="5.76465">
        <ele>1299.84</ele>
        <time>2017-08-11T13:35:34Z</time>
      </trkpt>
      <trkpt lat="45.37783" lon="5.76463">
        <ele>1300.8</ele>
        <time>2017-08-11T13:35:42Z</time>
      </trkpt>
      <trkpt lat="45.37784" lon="5.76463">
        <ele>1303.69</ele>
        <time>2017-08-11T13:35:51Z</time>
      </trkpt>
      <trkpt lat="45.37786" lon="5.76464">
        <ele>1306.09</ele>
        <time>2017-08-11T13:35:59Z</time>
      </trkpt>
      <trkpt lat="45.37787" lon="5.76467">
        <ele>1308.97</ele>
        <time>2017-08-11T13:36:05Z</time>
      </trkpt>
      <trkpt lat="45.37788" lon="5.76469">
        <ele>1310.41</ele>
        <time>2017-08-11T13:36:12Z</time>
      </trkpt>
      <trkpt lat="45.37791" lon="5.76471">
        <ele>1310.9</ele>
        <time>2017-08-11T13:36:19Z</time>
      </trkpt>
      <trkpt lat="45.37795" lon="5.76473">
        <ele>1311.86</ele>
        <time>2017-08-11T13:36:27Z</time>
      </trkpt>
      <trkpt lat="45.37799" lon="5.76477">
        <ele>1313.3</ele>
        <time>2017-08-11T13:36:35Z</time>
      </trkpt>
      <trkpt lat="45.37799" lon="5.76477">
        <ele>1314.26</ele>
        <time>2017-08-11T13:36:41Z</time>
      </trkpt>
      <trkpt lat="45.37798" lon="5.76476">
        <ele>1315.22</ele>
        <time>2017-08-11T13:36:49Z</time>
      </trkpt>
      <trkpt lat="45.37799" lon="5.76475">
        <ele>1315.7</ele>
        <time>2017-08-11T13:36:54Z</time>
      </trkpt>
      <trkpt lat="45.37802" lon="5.76476">
        <ele>1318.1</ele>
        <time>2017-08-11T13:37:03Z</time>
      </trkpt>
      <trkpt lat="45.37805" lon="5.76479">
        <ele>1320.03</ele>
        <time>2017-08-11T13:37:11Z</time>
      </trkpt>
      <trkpt lat="45.37806" lon="5.7648">
        <ele>1321.47</ele>
        <time>2017-08-11T13:37:19Z</time>
      </trkpt>
      <trkpt lat="45.37806" lon="5.76479">
        <ele>1321.95</ele>
        <time>2017-08-11T13:37:25Z</time>
      </trkpt>
      <trkpt lat="45.3781" lon="5.76475">
        <ele>1321.95</ele>
        <time>2017-08-11T13:37:32Z</time>
      </trkpt>
      <trkpt lat="45.37819" lon="5.76483">
        <ele>1323.87</ele>
        <time>2017-08-11T13:37:39Z</time>
      </trkpt>
      <trkpt lat="45.3782" lon="5.76484">
        <ele>1325.31</ele>
        <time>2017-08-11T13:37:45Z</time>
      </trkpt>
      <trkpt lat="45.37822" lon="5.76488">
        <ele>1326.28</ele>
        <time>2017-08-11T13:37:52Z</time>
      </trkpt>
      <trkpt lat="45.37829" lon="5.76494">
        <ele>1327.72</ele>
        <time>2017-08-11T13:38:01Z</time>
      </trkpt>
      <trkpt lat="45.37831" lon="5.76493">
        <ele>1328.2</ele>
        <time>2017-08-11T13:38:08Z</time>
      </trkpt>
      <trkpt lat="45.37832" lon="5.76491">
        <ele>1329.64</ele>
        <time>2017-08-11T13:38:17Z</time>
      </trkpt>
      <trkpt lat="45.37834" lon="5.76487">
        <ele>1330.12</ele>
        <time>2017-08-11T13:38:26Z</time>
      </trkpt>
      <trkpt lat="45.37842" lon="5.76482">
        <ele>1330.12</ele>
        <time>2017-08-11T13:38:34Z</time>
      </trkpt>
      <trkpt lat="45.37841" lon="5.76474">
        <ele>1335.41</ele>
        <time>2017-08-11T13:38:42Z</time>
      </trkpt>
      <trkpt lat="45.37842" lon="5.76473">
        <ele>1339.73</ele>
        <time>2017-08-11T13:38:49Z</time>
      </trkpt>
      <trkpt lat="45.37848" lon="5.7648">
        <ele>1340.22</ele>
        <time>2017-08-11T13:38:58Z</time>
      </trkpt>
      <trkpt lat="45.37853" lon="5.76487">
        <ele>1340.7</ele>
        <time>2017-08-11T13:39:05Z</time>
      </trkpt>
      <trkpt lat="45.37856" lon="5.76495">
        <ele>1344.54</ele>
        <time>2017-08-11T13:39:14Z</time>
      </trkpt>
      <trkpt lat="45.37857" lon="5.76497">
        <ele>1345.98</ele>
        <time>2017-08-11T13:39:18Z</time>
      </trkpt>
      <trkpt lat="45.3786" lon="5.76508">
        <ele>1347.43</ele>
        <time>2017-08-11T13:39:25Z</time>
      </trkpt>
      <trkpt lat="45.37862" lon="5.76511">
        <ele>1348.39</ele>
        <time>2017-08-11T13:39:27Z</time>
      </trkpt>
      <trkpt lat="45.37865" lon="5.7652">
        <ele>1348.87</ele>
        <time>2017-08-11T13:39:34Z</time>
      </trkpt>
      <trkpt lat="45.37875" lon="5.76534">
        <ele>1349.35</ele>
        <time>2017-08-11T13:39:40Z</time>
      </trkpt>
      <trkpt lat="45.37883" lon="5.7655">
        <ele>1351.27</ele>
        <time>2017-08-11T13:39:47Z</time>
      </trkpt>
      <trkpt lat="45.3789" lon="5.76561">
        <ele>1352.71</ele>
        <time>2017-08-11T13:39:54Z</time>
      </trkpt>
      <trkpt lat="45.37898" lon="5.76574">
        <ele>1353.67</ele>
        <time>2017-08-11T13:40:01Z</time>
      </trkpt>
      <trkpt lat="45.379" lon="5.76578">
        <ele>1354.15</ele>
        <time>2017-08-11T13:40:04Z</time>
      </trkpt>
      <trkpt lat="45.37903" lon="5.76589">
        <ele>1355.6</ele>
        <time>2017-08-11T13:40:09Z</time>
      </trkpt>
      <trkpt lat="45.37912" lon="5.76607">
        <ele>1359.44</ele>
        <time>2017-08-11T13:40:16Z</time>
      </trkpt>
      <trkpt lat="45.37915" lon="5.76621">
        <ele>1361.36</ele>
        <time>2017-08-11T13:40:22Z</time>
      </trkpt>
      <trkpt lat="45.37917" lon="5.76626">
        <ele>1360.4</ele>
        <time>2017-08-11T13:40:25Z</time>
      </trkpt>
      <trkpt lat="45.37923" lon="5.76641">
        <ele>1358.96</ele>
        <time>2017-08-11T13:40:32Z</time>
      </trkpt>
      <trkpt lat="45.37928" lon="5.76654">
        <ele>1359.44</ele>
        <time>2017-08-11T13:40:38Z</time>
      </trkpt>
      <trkpt lat="45.3794" lon="5.76669">
        <ele>1358.96</ele>
        <time>2017-08-11T13:40:47Z</time>
      </trkpt>
      <trkpt lat="45.3795" lon="5.76682">
        <ele>1358.48</ele>
        <time>2017-08-11T13:40:55Z</time>
      </trkpt>
      <trkpt lat="45.37957" lon="5.76695">
        <ele>1360.4</ele>
        <time>2017-08-11T13:41:03Z</time>
      </trkpt>
      <trkpt lat="45.37962" lon="5.76705">
        <ele>1362.33</ele>
        <time>2017-08-11T13:41:10Z</time>
      </trkpt>
      <trkpt lat="45.37965" lon="5.76709">
        <ele>1363.77</ele>
        <time>2017-08-11T13:41:15Z</time>
      </trkpt>
      <trkpt lat="45.3797" lon="5.76723">
        <ele>1366.17</ele>
        <time>2017-08-11T13:41:25Z</time>
      </trkpt>
      <trkpt lat="45.37969" lon="5.76729">
        <ele>1367.13</ele>
        <time>2017-08-11T13:41:29Z</time>
      </trkpt>
      <trkpt lat="45.37971" lon="5.7674">
        <ele>1368.57</ele>
        <time>2017-08-11T13:41:37Z</time>
      </trkpt>
      <trkpt lat="45.37971" lon="5.7675">
        <ele>1369.54</ele>
        <time>2017-08-11T13:41:43Z</time>
      </trkpt>
      <trkpt lat="45.37973" lon="5.76761">
        <ele>1370.98</ele>
        <time>2017-08-11T13:41:51Z</time>
      </trkpt>
      <trkpt lat="45.37973" lon="5.76772">
        <ele>1372.42</ele>
        <time>2017-08-11T13:41:59Z</time>
      </trkpt>
      <trkpt lat="45.37973" lon="5.76782">
        <ele>1371.46</ele>
        <time>2017-08-11T13:42:06Z</time>
      </trkpt>
      <trkpt lat="45.37975" lon="5.76791">
        <ele>1371.94</ele>
        <time>2017-08-11T13:42:12Z</time>
      </trkpt>
      <trkpt lat="45.37975" lon="5.76797">
        <ele>1371.46</ele>
        <time>2017-08-11T13:42:17Z</time>
      </trkpt>
      <trkpt lat="45.37974" lon="5.76804">
        <ele>1371.46</ele>
        <time>2017-08-11T13:42:23Z</time>
      </trkpt>
      <trkpt lat="45.37973" lon="5.76812">
        <ele>1370.98</ele>
        <time>2017-08-11T13:42:30Z</time>
      </trkpt>
      <trkpt lat="45.37974" lon="5.76821">
        <ele>1371.94</ele>
        <time>2017-08-11T13:42:37Z</time>
      </trkpt>
      <trkpt lat="45.37974" lon="5.76825">
        <ele>1371.94</ele>
        <time>2017-08-11T13:42:40Z</time>
      </trkpt>
      <trkpt lat="45.37973" lon="5.76831">
        <ele>1371.94</ele>
        <time>2017-08-11T13:42:44Z</time>
      </trkpt>
      <trkpt lat="45.37973" lon="5.76834">
        <ele>1371.46</ele>
        <time>2017-08-11T13:42:46Z</time>
      </trkpt>
      <trkpt lat="45.3797" lon="5.76842">
        <ele>1371.46</ele>
        <time>2017-08-11T13:42:52Z</time>
      </trkpt>
      <trkpt lat="45.3797" lon="5.76848">
        <ele>1371.46</ele>
        <time>2017-08-11T13:42:59Z</time>
      </trkpt>
      <trkpt lat="45.3797" lon="5.7685">
        <ele>1371.46</ele>
        <time>2017-08-11T13:43:01Z</time>
      </trkpt>
      <trkpt lat="45.37968" lon="5.76858">
        <ele>1370.98</ele>
        <time>2017-08-11T13:43:06Z</time>
      </trkpt>
      <trkpt lat="45.37965" lon="5.76869">
        <ele>1373.86</ele>
        <time>2017-08-11T13:43:13Z</time>
      </trkpt>
      <trkpt lat="45.37964" lon="5.76877">
        <ele>1377.71</ele>
        <time>2017-08-11T13:43:18Z</time>
      </trkpt>
      <trkpt lat="45.37966" lon="5.76886">
        <ele>1379.15</ele>
        <time>2017-08-11T13:43:24Z</time>
      </trkpt>
      <trkpt lat="45.37969" lon="5.76889">
        <ele>1379.63</ele>
        <time>2017-08-11T13:43:27Z</time>
      </trkpt>
      <trkpt lat="45.37971" lon="5.76894">
        <ele>1379.63</ele>
        <time>2017-08-11T13:43:30Z</time>
      </trkpt>
      <trkpt lat="45.3798" lon="5.76906">
        <ele>1378.19</ele>
        <time>2017-08-11T13:43:39Z</time>
      </trkpt>
      <trkpt lat="45.37987" lon="5.76915">
        <ele>1374.82</ele>
        <time>2017-08-11T13:43:45Z</time>
      </trkpt>
      <trkpt lat="45.37991" lon="5.76917">
        <ele>1372.42</ele>
        <time>2017-08-11T13:43:48Z</time>
      </trkpt>
      <trkpt lat="45.37995" lon="5.76919">
        <ele>1370.5</ele>
        <time>2017-08-11T13:43:51Z</time>
      </trkpt>
      <trkpt lat="45.38002" lon="5.76929">
        <ele>1365.69</ele>
        <time>2017-08-11T13:43:58Z</time>
      </trkpt>
      <trkpt lat="45.38005" lon="5.76932">
        <ele>1362.81</ele>
        <time>2017-08-11T13:44:01Z</time>
      </trkpt>
      <trkpt lat="45.38015" lon="5.76933">
        <ele>1357.52</ele>
        <time>2017-08-11T13:44:08Z</time>
      </trkpt>
      <trkpt lat="45.38027" lon="5.76936">
        <ele>1352.71</ele>
        <time>2017-08-11T13:44:15Z</time>
      </trkpt>
      <trkpt lat="45.38034" lon="5.76938">
        <ele>1350.31</ele>
        <time>2017-08-11T13:44:19Z</time>
      </trkpt>
      <trkpt lat="45.38053" lon="5.76938">
        <ele>1345.98</ele>
        <time>2017-08-11T13:44:26Z</time>
      </trkpt>
      <trkpt lat="45.38066" lon="5.76939">
        <ele>1345.5</ele>
        <time>2017-08-11T13:44:31Z</time>
      </trkpt>
      <trkpt lat="45.38079" lon="5.76942">
        <ele>1345.98</ele>
        <time>2017-08-11T13:44:37Z</time>
      </trkpt>
      <trkpt lat="45.38089" lon="5.76948">
        <ele>1345.02</ele>
        <time>2017-08-11T13:44:42Z</time>
      </trkpt>
      <trkpt lat="45.38103" lon="5.7696">
        <ele>1345.02</ele>
        <time>2017-08-11T13:44:50Z</time>
      </trkpt>
      <trkpt lat="45.38115" lon="5.76973">
        <ele>1344.06</ele>
        <time>2017-08-11T13:44:57Z</time>
      </trkpt>
      <trkpt lat="45.3812" lon="5.76979">
        <ele>1342.62</ele>
        <time>2017-08-11T13:45:00Z</time>
      </trkpt>
      <trkpt lat="45.38122" lon="5.76982">
        <ele>1341.18</ele>
        <time>2017-08-11T13:45:02Z</time>
      </trkpt>
      <trkpt lat="45.38129" lon="5.76987">
        <ele>1338.29</ele>
        <time>2017-08-11T13:45:07Z</time>
      </trkpt>
      <trkpt lat="45.38137" lon="5.76994">
        <ele>1339.25</ele>
        <time>2017-08-11T13:45:13Z</time>
      </trkpt>
      <trkpt lat="45.38139" lon="5.76995">
        <ele>1339.25</ele>
        <time>2017-08-11T13:45:14Z</time>
      </trkpt>
      <trkpt lat="45.38148" lon="5.77006">
        <ele>1342.14</ele>
        <time>2017-08-11T13:45:20Z</time>
      </trkpt>
      <trkpt lat="45.38152" lon="5.77005">
        <ele>1345.02</ele>
        <time>2017-08-11T13:45:26Z</time>
      </trkpt>
      <trkpt lat="45.38155" lon="5.77005">
        <ele>1348.87</ele>
        <time>2017-08-11T13:45:34Z</time>
      </trkpt>
      <trkpt lat="45.38151" lon="5.77008">
        <ele>1349.83</ele>
        <time>2017-08-11T13:45:42Z</time>
      </trkpt>
      <trkpt lat="45.38149" lon="5.77007">
        <ele>1350.31</ele>
        <time>2017-08-11T13:45:50Z</time>
      </trkpt>
      <trkpt lat="45.38149" lon="5.77006">
        <ele>1351.27</ele>
        <time>2017-08-11T13:45:57Z</time>
      </trkpt>
      <trkpt lat="45.3815" lon="5.77005">
        <ele>1352.23</ele>
        <time>2017-08-11T13:46:01Z</time>
      </trkpt>
      <trkpt lat="45.38152" lon="5.77006">
        <ele>1353.19</ele>
        <time>2017-08-11T13:46:05Z</time>
      </trkpt>
      <trkpt lat="45.38162" lon="5.77011">
        <ele>1350.79</ele>
        <time>2017-08-11T13:46:13Z</time>
      </trkpt>
      <trkpt lat="45.38166" lon="5.7702">
        <ele>1345.98</ele>
        <time>2017-08-11T13:46:21Z</time>
      </trkpt>
      <trkpt lat="45.38171" lon="5.77021">
        <ele>1343.1</ele>
        <time>2017-08-11T13:46:26Z</time>
      </trkpt>
      <trkpt lat="45.38172" lon="5.77022">
        <ele>1342.14</ele>
        <time>2017-08-11T13:46:27Z</time>
      </trkpt>
      <trkpt lat="45.38182" lon="5.77028">
        <ele>1337.81</ele>
        <time>2017-08-11T13:46:34Z</time>
      </trkpt>
      <trkpt lat="45.38195" lon="5.77032">
        <ele>1334.93</ele>
        <time>2017-08-11T13:46:40Z</time>
      </trkpt>
      <trkpt lat="45.38216" lon="5.7703">
        <ele>1331.08</ele>
        <time>2017-08-11T13:46:47Z</time>
      </trkpt>
      <trkpt lat="45.38224" lon="5.7703">
        <ele>1330.12</ele>
        <time>2017-08-11T13:46:52Z</time>
      </trkpt>
      <trkpt lat="45.38235" lon="5.77032">
        <ele>1329.64</ele>
        <time>2017-08-11T13:46:57Z</time>
      </trkpt>
      <trkpt lat="45.38256" lon="5.77036">
        <ele>1327.72</ele>
        <time>2017-08-11T13:47:07Z</time>
      </trkpt>
      <trkpt lat="45.38272" lon="5.77039">
        <ele>1327.72</ele>
        <time>2017-08-11T13:47:14Z</time>
      </trkpt>
      <trkpt lat="45.38279" lon="5.7704">
        <ele>1325.8</ele>
        <time>2017-08-11T13:47:18Z</time>
      </trkpt>
      <trkpt lat="45.38291" lon="5.77037">
        <ele>1321.95</ele>
        <time>2017-08-11T13:47:24Z</time>
      </trkpt>
      <trkpt lat="45.38304" lon="5.77032">
        <ele>1318.59</ele>
        <time>2017-08-11T13:47:30Z</time>
      </trkpt>
      <trkpt lat="45.38313" lon="5.77031">
        <ele>1315.22</ele>
        <time>2017-08-11T13:47:35Z</time>
      </trkpt>
      <trkpt lat="45.38329" lon="5.77026">
        <ele>1310.41</ele>
        <time>2017-08-11T13:47:42Z</time>
      </trkpt>
      <trkpt lat="45.38344" lon="5.77023">
        <ele>1307.05</ele>
        <time>2017-08-11T13:47:49Z</time>
      </trkpt>
      <trkpt lat="45.38349" lon="5.77022">
        <ele>1307.05</ele>
        <time>2017-08-11T13:47:51Z</time>
      </trkpt>
      <trkpt lat="45.38365" lon="5.77016">
        <ele>1307.53</ele>
        <time>2017-08-11T13:47:58Z</time>
      </trkpt>
      <trkpt lat="45.38371" lon="5.77017">
        <ele>1306.57</ele>
        <time>2017-08-11T13:48:03Z</time>
      </trkpt>
      <trkpt lat="45.38381" lon="5.77016">
        <ele>1308.01</ele>
        <time>2017-08-11T13:48:07Z</time>
      </trkpt>
      <trkpt lat="45.38394" lon="5.77011">
        <ele>1310.41</ele>
        <time>2017-08-11T13:48:14Z</time>
      </trkpt>
      <trkpt lat="45.38405" lon="5.77008">
        <ele>1316.18</ele>
        <time>2017-08-11T13:48:26Z</time>
      </trkpt>
      <trkpt lat="45.3841" lon="5.77008">
        <ele>1320.51</ele>
        <time>2017-08-11T13:48:42Z</time>
      </trkpt>
      <trkpt lat="45.38411" lon="5.77008">
        <ele>1322.43</ele>
        <time>2017-08-11T13:48:55Z</time>
      </trkpt>
      <trkpt lat="45.38412" lon="5.77007">
        <ele>1323.39</ele>
        <time>2017-08-11T13:49:07Z</time>
      </trkpt>
      <trkpt lat="45.38412" lon="5.77006">
        <ele>1324.83</ele>
        <time>2017-08-11T13:49:21Z</time>
      </trkpt>
      <trkpt lat="45.38411" lon="5.77005">
        <ele>1326.76</ele>
        <time>2017-08-11T13:49:51Z</time>
      </trkpt>
      <trkpt lat="45.38411" lon="5.77004">
        <ele>1327.72</ele>
        <time>2017-08-11T13:50:02Z</time>
      </trkpt>
      <trkpt lat="45.38411" lon="5.77003">
        <ele>1329.16</ele>
        <time>2017-08-11T13:50:15Z</time>
      </trkpt>
      <trkpt lat="45.38411" lon="5.77002">
        <ele>1330.12</ele>
        <time>2017-08-11T13:50:25Z</time>
      </trkpt>
      <trkpt lat="45.38411" lon="5.77002">
        <ele>1331.08</ele>
        <time>2017-08-11T13:50:36Z</time>
      </trkpt>
      <trkpt lat="45.38411" lon="5.77002">
        <ele>1332.04</ele>
        <time>2017-08-11T13:50:50Z</time>
      </trkpt>
      <trkpt lat="45.38411" lon="5.77003">
        <ele>1332.52</ele>
        <time>2017-08-11T13:51:06Z</time>
      </trkpt>
      <trkpt lat="45.38411" lon="5.77003">
        <ele>1333.49</ele>
        <time>2017-08-11T13:51:16Z</time>
      </trkpt>
      <trkpt lat="45.3841" lon="5.77003">
        <ele>1334.93</ele>
        <time>2017-08-11T13:51:32Z</time>
      </trkpt>
      <trkpt lat="45.3841" lon="5.77003">
        <ele>1334.93</ele>
        <time>2017-08-11T13:51:50Z</time>
      </trkpt>
      <trkpt lat="45.3841" lon="5.77003">
        <ele>1334.93</ele>
        <time>2017-08-11T13:52:14Z</time>
      </trkpt>
      <trkpt lat="45.38409" lon="5.77003">
        <ele>1335.89</ele>
        <time>2017-08-11T13:52:30Z</time>
      </trkpt>
      <trkpt lat="45.38409" lon="5.77003">
        <ele>1336.37</ele>
        <time>2017-08-11T13:52:46Z</time>
      </trkpt>
      <trkpt lat="45.38409" lon="5.77002">
        <ele>1336.85</ele>
        <time>2017-08-11T13:52:58Z</time>
      </trkpt>
      <trkpt lat="45.38409" lon="5.77002">
        <ele>1336.85</ele>
        <time>2017-08-11T13:53:13Z</time>
      </trkpt>
      <trkpt lat="45.38409" lon="5.77001">
        <ele>1336.85</ele>
        <time>2017-08-11T13:53:30Z</time>
      </trkpt>
      <trkpt lat="45.38409" lon="5.77001">
        <ele>1337.33</ele>
        <time>2017-08-11T13:53:46Z</time>
      </trkpt>
      <trkpt lat="45.3841" lon="5.77">
        <ele>1337.81</ele>
        <time>2017-08-11T13:54:08Z</time>
      </trkpt>
      <trkpt lat="45.3841" lon="5.77001">
        <ele>1337.81</ele>
        <time>2017-08-11T13:54:20Z</time>
      </trkpt>
      <trkpt lat="45.3841" lon="5.77001">
        <ele>1337.81</ele>
        <time>2017-08-11T13:54:30Z</time>
      </trkpt>
      <trkpt lat="45.3841" lon="5.77002">
        <ele>1337.81</ele>
        <time>2017-08-11T13:54:37Z</time>
      </trkpt>
      <trkpt lat="45.38409" lon="5.77003">
        <ele>1337.81</ele>
        <time>2017-08-11T13:54:46Z</time>
      </trkpt>
      <trkpt lat="45.38408" lon="5.77005">
        <ele>1337.33</ele>
        <time>2017-08-11T13:55:08Z</time>
      </trkpt>
      <trkpt lat="45.38408" lon="5.77005">
        <ele>1337.81</ele>
        <time>2017-08-11T13:55:29Z</time>
      </trkpt>
      <trkpt lat="45.38408" lon="5.77004">
        <ele>1337.81</ele>
        <time>2017-08-11T13:55:46Z</time>
      </trkpt>
      <trkpt lat="45.38407" lon="5.77003">
        <ele>1337.33</ele>
        <time>2017-08-11T13:56:03Z</time>
      </trkpt>
      <trkpt lat="45.38407" lon="5.77003">
        <ele>1337.81</ele>
        <time>2017-08-11T13:56:21Z</time>
      </trkpt>
      <trkpt lat="45.38407" lon="5.77004">
        <ele>1337.81</ele>
        <time>2017-08-11T13:56:42Z</time>
      </trkpt>
      <trkpt lat="45.38407" lon="5.77005">
        <ele>1337.81</ele>
        <time>2017-08-11T13:57:01Z</time>
      </trkpt>
      <trkpt lat="45.38407" lon="5.77006">
        <ele>1338.29</ele>
        <time>2017-08-11T13:57:18Z</time>
      </trkpt>
      <trkpt lat="45.38407" lon="5.77005">
        <ele>1337.81</ele>
        <time>2017-08-11T13:57:40Z</time>
      </trkpt>
      <trkpt lat="45.38407" lon="5.77005">
        <ele>1337.81</ele>
        <time>2017-08-11T13:58:04Z</time>
      </trkpt>
      <trkpt lat="45.38407" lon="5.77007">
        <ele>1337.81</ele>
        <time>2017-08-11T13:58:27Z</time>
      </trkpt>
      <trkpt lat="45.38407" lon="5.77008">
        <ele>1336.85</ele>
        <time>2017-08-11T13:58:52Z</time>
      </trkpt>
      <trkpt lat="45.38407" lon="5.77008">
        <ele>1337.81</ele>
        <time>2017-08-11T13:59:13Z</time>
      </trkpt>
      <trkpt lat="45.38408" lon="5.77007">
        <ele>1337.81</ele>
        <time>2017-08-11T13:59:32Z</time>
      </trkpt>
      <trkpt lat="45.38408" lon="5.77007">
        <ele>1337.33</ele>
        <time>2017-08-11T13:59:46Z</time>
      </trkpt>
      <trkpt lat="45.38407" lon="5.77011">
        <ele>1337.33</ele>
        <time>2017-08-11T13:59:52Z</time>
      </trkpt>
      <trkpt lat="45.38407" lon="5.77011">
        <ele>1337.33</ele>
        <time>2017-08-11T13:59:53Z</time>
      </trkpt>
      <trkpt lat="45.38403" lon="5.77018">
        <ele>1337.81</ele>
        <time>2017-08-11T14:00:00Z</time>
      </trkpt>
      <trkpt lat="45.38399" lon="5.77028">
        <ele>1337.81</ele>
        <time>2017-08-11T14:00:07Z</time>
      </trkpt>
      <trkpt lat="45.38396" lon="5.77034">
        <ele>1337.81</ele>
        <time>2017-08-11T14:00:12Z</time>
      </trkpt>
      <trkpt lat="45.38394" lon="5.77038">
        <ele>1336.85</ele>
        <time>2017-08-11T14:00:20Z</time>
      </trkpt>
      <trkpt lat="45.38393" lon="5.7704">
        <ele>1336.85</ele>
        <time>2017-08-11T14:00:29Z</time>
      </trkpt>
      <trkpt lat="45.38387" lon="5.77046">
        <ele>1335.89</ele>
        <time>2017-08-11T14:00:37Z</time>
      </trkpt>
      <trkpt lat="45.38384" lon="5.77048">
        <ele>1335.41</ele>
        <time>2017-08-11T14:00:43Z</time>
      </trkpt>
      <trkpt lat="45.38382" lon="5.7705">
        <ele>1334.93</ele>
        <time>2017-08-11T14:00:47Z</time>
      </trkpt>
      <trkpt lat="45.38378" lon="5.77055">
        <ele>1334.93</ele>
        <time>2017-08-11T14:00:54Z</time>
      </trkpt>
      <trkpt lat="45.38369" lon="5.7706">
        <ele>1333.97</ele>
        <time>2017-08-11T14:01:01Z</time>
      </trkpt>
      <trkpt lat="45.38363" lon="5.7707">
        <ele>1332.04</ele>
        <time>2017-08-11T14:01:09Z</time>
      </trkpt>
      <trkpt lat="45.38361" lon="5.77071">
        <ele>1332.04</ele>
        <time>2017-08-11T14:01:10Z</time>
      </trkpt>
      <trkpt lat="45.38354" lon="5.77077">
        <ele>1331.08</ele>
        <time>2017-08-11T14:01:16Z</time>
      </trkpt>
      <trkpt lat="45.38351" lon="5.7708">
        <ele>1330.12</ele>
        <time>2017-08-11T14:01:19Z</time>
      </trkpt>
      <trkpt lat="45.38345" lon="5.77086">
        <ele>1328.2</ele>
        <time>2017-08-11T14:01:26Z</time>
      </trkpt>
      <trkpt lat="45.3834" lon="5.77092">
        <ele>1327.24</ele>
        <time>2017-08-11T14:01:34Z</time>
      </trkpt>
      <trkpt lat="45.38337" lon="5.77096">
        <ele>1326.28</ele>
        <time>2017-08-11T14:01:39Z</time>
      </trkpt>
      <trkpt lat="45.38331" lon="5.77102">
        <ele>1324.35</ele>
        <time>2017-08-11T14:01:45Z</time>
      </trkpt>
      <trkpt lat="45.38327" lon="5.77107">
        <ele>1323.87</ele>
        <time>2017-08-11T14:01:51Z</time>
      </trkpt>
      <trkpt lat="45.38322" lon="5.77114">
        <ele>1323.87</ele>
        <time>2017-08-11T14:01:58Z</time>
      </trkpt>
      <trkpt lat="45.38318" lon="5.77121">
        <ele>1324.35</ele>
        <time>2017-08-11T14:02:05Z</time>
      </trkpt>
      <trkpt lat="45.38312" lon="5.77128">
        <ele>1329.64</ele>
        <time>2017-08-11T14:02:12Z</time>
      </trkpt>
      <trkpt lat="45.38307" lon="5.77128">
        <ele>1333.01</ele>
        <time>2017-08-11T14:02:21Z</time>
      </trkpt>
      <trkpt lat="45.38307" lon="5.77123">
        <ele>1335.41</ele>
        <time>2017-08-11T14:02:29Z</time>
      </trkpt>
      <trkpt lat="45.38307" lon="5.77121">
        <ele>1338.77</ele>
        <time>2017-08-11T14:02:36Z</time>
      </trkpt>
      <trkpt lat="45.38306" lon="5.77119">
        <ele>1339.25</ele>
        <time>2017-08-11T14:02:39Z</time>
      </trkpt>
      <trkpt lat="45.38307" lon="5.7711">
        <ele>1340.22</ele>
        <time>2017-08-11T14:02:47Z</time>
      </trkpt>
      <trkpt lat="45.38309" lon="5.77108">
        <ele>1341.66</ele>
        <time>2017-08-11T14:02:54Z</time>
      </trkpt>
      <trkpt lat="45.38311" lon="5.77103">
        <ele>1340.7</ele>
        <time>2017-08-11T14:03:01Z</time>
      </trkpt>
      <trkpt lat="45.38313" lon="5.77096">
        <ele>1340.22</ele>
        <time>2017-08-11T14:03:10Z</time>
      </trkpt>
      <trkpt lat="45.38318" lon="5.7709">
        <ele>1338.29</ele>
        <time>2017-08-11T14:03:16Z</time>
      </trkpt>
      <trkpt lat="45.3832" lon="5.77086">
        <ele>1338.29</ele>
        <time>2017-08-11T14:03:27Z</time>
      </trkpt>
      <trkpt lat="45.3832" lon="5.77088">
        <ele>1336.37</ele>
        <time>2017-08-11T14:03:34Z</time>
      </trkpt>
      <trkpt lat="45.38317" lon="5.77093">
        <ele>1333.97</ele>
        <time>2017-08-11T14:03:41Z</time>
      </trkpt>
      <trkpt lat="45.38314" lon="5.771">
        <ele>1331.56</ele>
        <time>2017-08-11T14:03:49Z</time>
      </trkpt>
      <trkpt lat="45.38312" lon="5.77107">
        <ele>1333.01</ele>
        <time>2017-08-11T14:03:53Z</time>
      </trkpt>
      <trkpt lat="45.38309" lon="5.77113">
        <ele>1337.81</ele>
        <time>2017-08-11T14:04:00Z</time>
      </trkpt>
      <trkpt lat="45.38308" lon="5.77113">
        <ele>1337.81</ele>
        <time>2017-08-11T14:04:01Z</time>
      </trkpt>
      <trkpt lat="45.38303" lon="5.77116">
        <ele>1338.77</ele>
        <time>2017-08-11T14:04:08Z</time>
      </trkpt>
      <trkpt lat="45.38301" lon="5.77119">
        <ele>1339.25</ele>
        <time>2017-08-11T14:04:16Z</time>
      </trkpt>
      <trkpt lat="45.38299" lon="5.77121">
        <ele>1340.22</ele>
        <time>2017-08-11T14:04:22Z</time>
      </trkpt>
      <trkpt lat="45.38294" lon="5.77123">
        <ele>1342.14</ele>
        <time>2017-08-11T14:04:28Z</time>
      </trkpt>
      <trkpt lat="45.38292" lon="5.77125">
        <ele>1343.58</ele>
        <time>2017-08-11T14:04:34Z</time>
      </trkpt>
      <trkpt lat="45.38289" lon="5.77129">
        <ele>1345.98</ele>
        <time>2017-08-11T14:04:41Z</time>
      </trkpt>
      <trkpt lat="45.38287" lon="5.77131">
        <ele>1348.87</ele>
        <time>2017-08-11T14:04:48Z</time>
      </trkpt>
      <trkpt lat="45.38281" lon="5.7714">
        <ele>1353.67</ele>
        <time>2017-08-11T14:04:55Z</time>
      </trkpt>
      <trkpt lat="45.38276" lon="5.77152">
        <ele>1360.88</ele>
        <time>2017-08-11T14:05:02Z</time>
      </trkpt>
      <trkpt lat="45.38274" lon="5.77158">
        <ele>1364.25</ele>
        <time>2017-08-11T14:05:08Z</time>
      </trkpt>
      <trkpt lat="45.38273" lon="5.77165">
        <ele>1367.13</ele>
        <time>2017-08-11T14:05:15Z</time>
      </trkpt>
      <trkpt lat="45.38272" lon="5.7717">
        <ele>1368.57</ele>
        <time>2017-08-11T14:05:22Z</time>
      </trkpt>
      <trkpt lat="45.38272" lon="5.77173">
        <ele>1368.57</ele>
        <time>2017-08-11T14:05:31Z</time>
      </trkpt>
      <trkpt lat="45.3827" lon="5.77174">
        <ele>1369.05</ele>
        <time>2017-08-11T14:05:39Z</time>
      </trkpt>
      <trkpt lat="45.38266" lon="5.77171">
        <ele>1368.57</ele>
        <time>2017-08-11T14:05:46Z</time>
      </trkpt>
      <trkpt lat="45.38264" lon="5.77171">
        <ele>1369.05</ele>
        <time>2017-08-11T14:05:53Z</time>
      </trkpt>
      <trkpt lat="45.38263" lon="5.77171">
        <ele>1370.02</ele>
        <time>2017-08-11T14:06:02Z</time>
      </trkpt>
      <trkpt lat="45.38257" lon="5.77166">
        <ele>1369.05</ele>
        <time>2017-08-11T14:06:09Z</time>
      </trkpt>
      <trkpt lat="45.38253" lon="5.77166">
        <ele>1369.05</ele>
        <time>2017-08-11T14:06:15Z</time>
      </trkpt>
      <trkpt lat="45.3825" lon="5.77166">
        <ele>1369.54</ele>
        <time>2017-08-11T14:06:22Z</time>
      </trkpt>
      <trkpt lat="45.38249" lon="5.77169">
        <ele>1370.02</ele>
        <time>2017-08-11T14:06:30Z</time>
      </trkpt>
      <trkpt lat="45.38245" lon="5.77176">
        <ele>1371.46</ele>
        <time>2017-08-11T14:06:38Z</time>
      </trkpt>
      <trkpt lat="45.38242" lon="5.77181">
        <ele>1374.34</ele>
        <time>2017-08-11T14:06:45Z</time>
      </trkpt>
      <trkpt lat="45.38241" lon="5.77186">
        <ele>1373.86</ele>
        <time>2017-08-11T14:06:51Z</time>
      </trkpt>
      <trkpt lat="45.38241" lon="5.77192">
        <ele>1374.34</ele>
        <time>2017-08-11T14:06:57Z</time>
      </trkpt>
      <trkpt lat="45.38241" lon="5.77198">
        <ele>1376.26</ele>
        <time>2017-08-11T14:07:05Z</time>
      </trkpt>
      <trkpt lat="45.38241" lon="5.77199">
        <ele>1376.75</ele>
        <time>2017-08-11T14:07:06Z</time>
      </trkpt>
      <trkpt lat="45.38242" lon="5.77205">
        <ele>1376.75</ele>
        <time>2017-08-11T14:07:11Z</time>
      </trkpt>
      <trkpt lat="45.38245" lon="5.77216">
        <ele>1378.19</ele>
        <time>2017-08-11T14:07:19Z</time>
      </trkpt>
      <trkpt lat="45.38246" lon="5.77223">
        <ele>1380.11</ele>
        <time>2017-08-11T14:07:25Z</time>
      </trkpt>
      <trkpt lat="45.38245" lon="5.77229">
        <ele>1381.07</ele>
        <time>2017-08-11T14:07:32Z</time>
      </trkpt>
      <trkpt lat="45.38245" lon="5.7724">
        <ele>1382.51</ele>
        <time>2017-08-11T14:07:39Z</time>
      </trkpt>
      <trkpt lat="45.38244" lon="5.77252">
        <ele>1384.92</ele>
        <time>2017-08-11T14:07:47Z</time>
      </trkpt>
      <trkpt lat="45.38243" lon="5.77262">
        <ele>1385.88</ele>
        <time>2017-08-11T14:07:54Z</time>
      </trkpt>
      <trkpt lat="45.38243" lon="5.7727">
        <ele>1387.32</ele>
        <time>2017-08-11T14:08:01Z</time>
      </trkpt>
      <trkpt lat="45.38244" lon="5.77279">
        <ele>1386.84</ele>
        <time>2017-08-11T14:08:09Z</time>
      </trkpt>
      <trkpt lat="45.38246" lon="5.77286">
        <ele>1386.36</ele>
        <time>2017-08-11T14:08:16Z</time>
      </trkpt>
      <trkpt lat="45.38248" lon="5.77293">
        <ele>1387.32</ele>
        <time>2017-08-11T14:08:20Z</time>
      </trkpt>
      <trkpt lat="45.38254" lon="5.77304">
        <ele>1387.32</ele>
        <time>2017-08-11T14:08:25Z</time>
      </trkpt>
      <trkpt lat="45.38255" lon="5.77314">
        <ele>1386.84</ele>
        <time>2017-08-11T14:08:29Z</time>
      </trkpt>
      <trkpt lat="45.38255" lon="5.77322">
        <ele>1385.4</ele>
        <time>2017-08-11T14:08:34Z</time>
      </trkpt>
      <trkpt lat="45.38256" lon="5.77336">
        <ele>1385.88</ele>
        <time>2017-08-11T14:08:40Z</time>
      </trkpt>
      <trkpt lat="45.38256" lon="5.77347">
        <ele>1388.28</ele>
        <time>2017-08-11T14:08:44Z</time>
      </trkpt>
      <trkpt lat="45.38253" lon="5.77353">
        <ele>1388.76</ele>
        <time>2017-08-11T14:08:48Z</time>
      </trkpt>
      <trkpt lat="45.38247" lon="5.77366">
        <ele>1385.88</ele>
        <time>2017-08-11T14:08:57Z</time>
      </trkpt>
      <trkpt lat="45.38246" lon="5.77381">
        <ele>1386.84</ele>
        <time>2017-08-11T14:09:04Z</time>
      </trkpt>
      <trkpt lat="45.38245" lon="5.77394">
        <ele>1388.28</ele>
        <time>2017-08-11T14:09:10Z</time>
      </trkpt>
      <trkpt lat="45.38241" lon="5.77406">
        <ele>1387.8</ele>
        <time>2017-08-11T14:09:15Z</time>
      </trkpt>
      <trkpt lat="45.3824" lon="5.77408">
        <ele>1387.8</ele>
        <time>2017-08-11T14:09:16Z</time>
      </trkpt>
      <trkpt lat="45.3823" lon="5.77426">
        <ele>1387.32</ele>
        <time>2017-08-11T14:09:25Z</time>
      </trkpt>
      <trkpt lat="45.38223" lon="5.7744">
        <ele>1386.84</ele>
        <time>2017-08-11T14:09:33Z</time>
      </trkpt>
      <trkpt lat="45.38215" lon="5.77449">
        <ele>1386.84</ele>
        <time>2017-08-11T14:09:41Z</time>
      </trkpt>
      <trkpt lat="45.38212" lon="5.7745">
        <ele>1386.36</ele>
        <time>2017-08-11T14:09:44Z</time>
      </trkpt>
      <trkpt lat="45.38202" lon="5.77468">
        <ele>1388.76</ele>
        <time>2017-08-11T14:09:51Z</time>
      </trkpt>
      <trkpt lat="45.38201" lon="5.77471">
        <ele>1389.24</ele>
        <time>2017-08-11T14:09:52Z</time>
      </trkpt>
      <trkpt lat="45.38195" lon="5.77485">
        <ele>1392.61</ele>
        <time>2017-08-11T14:09:57Z</time>
      </trkpt>
      <trkpt lat="45.38186" lon="5.77503">
        <ele>1396.93</ele>
        <time>2017-08-11T14:10:04Z</time>
      </trkpt>
      <trkpt lat="45.38184" lon="5.77505">
        <ele>1397.89</ele>
        <time>2017-08-11T14:10:05Z</time>
      </trkpt>
      <trkpt lat="45.38178" lon="5.77511">
        <ele>1401.26</ele>
        <time>2017-08-11T14:10:09Z</time>
      </trkpt>
      <trkpt lat="45.38172" lon="5.77514">
        <ele>1404.14</ele>
        <time>2017-08-11T14:10:14Z</time>
      </trkpt>
      <trkpt lat="45.38168" lon="5.77514">
        <ele>1406.07</ele>
        <time>2017-08-11T14:10:18Z</time>
      </trkpt>
      <trkpt lat="45.38158" lon="5.77516">
        <ele>1407.51</ele>
        <time>2017-08-11T14:10:24Z</time>
      </trkpt>
      <trkpt lat="45.38145" lon="5.77517">
        <ele>1407.51</ele>
        <time>2017-08-11T14:10:32Z</time>
      </trkpt>
      <trkpt lat="45.38133" lon="5.77525">
        <ele>1406.07</ele>
        <time>2017-08-11T14:10:39Z</time>
      </trkpt>
      <trkpt lat="45.38122" lon="5.77532">
        <ele>1405.1</ele>
        <time>2017-08-11T14:10:45Z</time>
      </trkpt>
      <trkpt lat="45.38116" lon="5.77536">
        <ele>1404.14</ele>
        <time>2017-08-11T14:10:49Z</time>
      </trkpt>
      <trkpt lat="45.38113" lon="5.77547">
        <ele>1403.66</ele>
        <time>2017-08-11T14:10:57Z</time>
      </trkpt>
      <trkpt lat="45.38111" lon="5.77546">
        <ele>1404.14</ele>
        <time>2017-08-11T14:11:04Z</time>
      </trkpt>
      <trkpt lat="45.38108" lon="5.77543">
        <ele>1405.58</ele>
        <time>2017-08-11T14:11:11Z</time>
      </trkpt>
      <trkpt lat="45.38106" lon="5.77542">
        <ele>1406.55</ele>
        <time>2017-08-11T14:11:14Z</time>
      </trkpt>
      <trkpt lat="45.38088" lon="5.7755">
        <ele>1407.03</ele>
        <time>2017-08-11T14:11:24Z</time>
      </trkpt>
      <trkpt lat="45.38086" lon="5.77551">
        <ele>1407.99</ele>
        <time>2017-08-11T14:11:25Z</time>
      </trkpt>
      <trkpt lat="45.38071" lon="5.77559">
        <ele>1413.28</ele>
        <time>2017-08-11T14:11:33Z</time>
      </trkpt>
      <trkpt lat="45.38065" lon="5.77565">
        <ele>1413.28</ele>
        <time>2017-08-11T14:11:37Z</time>
      </trkpt>
      <trkpt lat="45.38048" lon="5.77574">
        <ele>1415.68</ele>
        <time>2017-08-11T14:11:45Z</time>
      </trkpt>
      <trkpt lat="45.38039" lon="5.7758">
        <ele>1417.12</ele>
        <time>2017-08-11T14:11:50Z</time>
      </trkpt>
      <trkpt lat="45.38025" lon="5.77588">
        <ele>1418.56</ele>
        <time>2017-08-11T14:11:57Z</time>
      </trkpt>
      <trkpt lat="45.38024" lon="5.77589">
        <ele>1419.04</ele>
        <time>2017-08-11T14:11:58Z</time>
      </trkpt>
      <trkpt lat="45.38006" lon="5.776">
        <ele>1420.97</ele>
        <time>2017-08-11T14:12:07Z</time>
      </trkpt>
      <trkpt lat="45.37992" lon="5.77605">
        <ele>1420.97</ele>
        <time>2017-08-11T14:12:14Z</time>
      </trkpt>
      <trkpt lat="45.3799" lon="5.77606">
        <ele>1420.97</ele>
        <time>2017-08-11T14:12:15Z</time>
      </trkpt>
      <trkpt lat="45.37982" lon="5.77613">
        <ele>1421.45</ele>
        <time>2017-08-11T14:12:20Z</time>
      </trkpt>
      <trkpt lat="45.37969" lon="5.77622">
        <ele>1422.41</ele>
        <time>2017-08-11T14:12:27Z</time>
      </trkpt>
      <trkpt lat="45.37957" lon="5.77627">
        <ele>1421.93</ele>
        <time>2017-08-11T14:12:33Z</time>
      </trkpt>
      <trkpt lat="45.37956" lon="5.77628">
        <ele>1421.93</ele>
        <time>2017-08-11T14:12:34Z</time>
      </trkpt>
      <trkpt lat="45.37938" lon="5.77638">
        <ele>1423.37</ele>
        <time>2017-08-11T14:12:43Z</time>
      </trkpt>
      <trkpt lat="45.37926" lon="5.77646">
        <ele>1423.37</ele>
        <time>2017-08-11T14:12:50Z</time>
      </trkpt>
      <trkpt lat="45.3792" lon="5.77651">
        <ele>1423.37</ele>
        <time>2017-08-11T14:12:54Z</time>
      </trkpt>
      <trkpt lat="45.37908" lon="5.77657">
        <ele>1425.29</ele>
        <time>2017-08-11T14:13:01Z</time>
      </trkpt>
      <trkpt lat="45.37895" lon="5.77661">
        <ele>1426.73</ele>
        <time>2017-08-11T14:13:08Z</time>
      </trkpt>
      <trkpt lat="45.37886" lon="5.77664">
        <ele>1427.21</ele>
        <time>2017-08-11T14:13:13Z</time>
      </trkpt>
      <trkpt lat="45.37873" lon="5.77667">
        <ele>1426.73</ele>
        <time>2017-08-11T14:13:20Z</time>
      </trkpt>
      <trkpt lat="45.37862" lon="5.77672">
        <ele>1426.25</ele>
        <time>2017-08-11T14:13:26Z</time>
      </trkpt>
      <trkpt lat="45.37849" lon="5.7768">
        <ele>1425.77</ele>
        <time>2017-08-11T14:13:33Z</time>
      </trkpt>
      <trkpt lat="45.3784" lon="5.77683">
        <ele>1425.29</ele>
        <time>2017-08-11T14:13:38Z</time>
      </trkpt>
      <trkpt lat="45.37827" lon="5.77687">
        <ele>1427.21</ele>
        <time>2017-08-11T14:13:46Z</time>
      </trkpt>
      <trkpt lat="45.37825" lon="5.77688">
        <ele>1427.21</ele>
        <time>2017-08-11T14:13:52Z</time>
      </trkpt>
      <trkpt lat="45.37824" lon="5.77687">
        <ele>1427.21</ele>
        <time>2017-08-11T14:13:58Z</time>
      </trkpt>
      <trkpt lat="45.37824" lon="5.77687">
        <ele>1428.18</ele>
        <time>2017-08-11T14:14:05Z</time>
      </trkpt>
      <trkpt lat="45.37824" lon="5.77688">
        <ele>1428.66</ele>
        <time>2017-08-11T14:14:13Z</time>
      </trkpt>
      <trkpt lat="45.37824" lon="5.77688">
        <ele>1428.18</ele>
        <time>2017-08-11T14:14:24Z</time>
      </trkpt>
      <trkpt lat="45.37824" lon="5.7769">
        <ele>1429.14</ele>
        <time>2017-08-11T14:14:33Z</time>
      </trkpt>
      <trkpt lat="45.37824" lon="5.77697">
        <ele>1429.62</ele>
        <time>2017-08-11T14:14:38Z</time>
      </trkpt>
      <trkpt lat="45.37824" lon="5.77702">
        <ele>1430.1</ele>
        <time>2017-08-11T14:14:42Z</time>
      </trkpt>
      <trkpt lat="45.37835" lon="5.77698">
        <ele>1430.58</ele>
        <time>2017-08-11T14:14:52Z</time>
      </trkpt>
      <trkpt lat="45.37833" lon="5.77697">
        <ele>1430.58</ele>
        <time>2017-08-11T14:14:57Z</time>
      </trkpt>
      <trkpt lat="45.37837" lon="5.77696">
        <ele>1430.58</ele>
        <time>2017-08-11T14:15:03Z</time>
      </trkpt>
      <trkpt lat="45.37846" lon="5.77693">
        <ele>1430.58</ele>
        <time>2017-08-11T14:15:11Z</time>
      </trkpt>
      <trkpt lat="45.37849" lon="5.77693">
        <ele>1430.58</ele>
        <time>2017-08-11T14:15:13Z</time>
      </trkpt>
      <trkpt lat="45.37852" lon="5.77697">
        <ele>1430.58</ele>
        <time>2017-08-11T14:15:17Z</time>
      </trkpt>
      <trkpt lat="45.37857" lon="5.777">
        <ele>1430.1</ele>
        <time>2017-08-11T14:15:21Z</time>
      </trkpt>
      <trkpt lat="45.37866" lon="5.77705">
        <ele>1430.58</ele>
        <time>2017-08-11T14:15:30Z</time>
      </trkpt>
      <trkpt lat="45.37873" lon="5.7771">
        <ele>1431.06</ele>
        <time>2017-08-11T14:15:38Z</time>
      </trkpt>
      <trkpt lat="45.37881" lon="5.77713">
        <ele>1431.06</ele>
        <time>2017-08-11T14:15:47Z</time>
      </trkpt>
      <trkpt lat="45.3789" lon="5.77718">
        <ele>1432.5</ele>
        <time>2017-08-11T14:15:58Z</time>
      </trkpt>
      <trkpt lat="45.3789" lon="5.77721">
        <ele>1433.46</ele>
        <time>2017-08-11T14:16:06Z</time>
      </trkpt>
      <trkpt lat="45.3789" lon="5.77722">
        <ele>1433.94</ele>
        <time>2017-08-11T14:16:14Z</time>
      </trkpt>
      <trkpt lat="45.37895" lon="5.7773">
        <ele>1434.91</ele>
        <time>2017-08-11T14:16:22Z</time>
      </trkpt>
      <trkpt lat="45.379" lon="5.77741">
        <ele>1435.87</ele>
        <time>2017-08-11T14:16:31Z</time>
      </trkpt>
      <trkpt lat="45.379" lon="5.77742">
        <ele>1436.35</ele>
        <time>2017-08-11T14:16:32Z</time>
      </trkpt>
      <trkpt lat="45.37905" lon="5.77751">
        <ele>1436.35</ele>
        <time>2017-08-11T14:16:40Z</time>
      </trkpt>
      <trkpt lat="45.37905" lon="5.77752">
        <ele>1436.35</ele>
        <time>2017-08-11T14:16:41Z</time>
      </trkpt>
      <trkpt lat="45.37908" lon="5.77761">
        <ele>1437.79</ele>
        <time>2017-08-11T14:16:48Z</time>
      </trkpt>
      <trkpt lat="45.37913" lon="5.77778">
        <ele>1439.23</ele>
        <time>2017-08-11T14:16:56Z</time>
      </trkpt>
      <trkpt lat="45.37917" lon="5.7779">
        <ele>1439.23</ele>
        <time>2017-08-11T14:17:02Z</time>
      </trkpt>
      <trkpt lat="45.37918" lon="5.77804">
        <ele>1437.31</ele>
        <time>2017-08-11T14:17:10Z</time>
      </trkpt>
      <trkpt lat="45.3792" lon="5.77806">
        <ele>1436.83</ele>
        <time>2017-08-11T14:17:20Z</time>
      </trkpt>
      <trkpt lat="45.3792" lon="5.77811">
        <ele>1435.39</ele>
        <time>2017-08-11T14:17:26Z</time>
      </trkpt>
      <trkpt lat="45.3792" lon="5.77812">
        <ele>1435.39</ele>
        <time>2017-08-11T14:17:27Z</time>
      </trkpt>
      <trkpt lat="45.37921" lon="5.77815">
        <ele>1434.42</ele>
        <time>2017-08-11T14:17:29Z</time>
      </trkpt>
      <trkpt lat="45.37927" lon="5.77821">
        <ele>1431.54</ele>
        <time>2017-08-11T14:17:33Z</time>
      </trkpt>
      <trkpt lat="45.37936" lon="5.77832">
        <ele>1427.21</ele>
        <time>2017-08-11T14:17:38Z</time>
      </trkpt>
      <trkpt lat="45.37943" lon="5.77835">
        <ele>1422.89</ele>
        <time>2017-08-11T14:17:42Z</time>
      </trkpt>
      <trkpt lat="45.37951" lon="5.77839">
        <ele>1419.04</ele>
        <time>2017-08-11T14:17:46Z</time>
      </trkpt>
      <trkpt lat="45.37964" lon="5.77851">
        <ele>1409.43</ele>
        <time>2017-08-11T14:17:53Z</time>
      </trkpt>
      <trkpt lat="45.37966" lon="5.77854">
        <ele>1407.99</ele>
        <time>2017-08-11T14:17:54Z</time>
      </trkpt>
      <trkpt lat="45.3798" lon="5.77866">
        <ele>1401.26</ele>
        <time>2017-08-11T14:18:01Z</time>
      </trkpt>
      <trkpt lat="45.37994" lon="5.77873">
        <ele>1396.45</ele>
        <time>2017-08-11T14:18:08Z</time>
      </trkpt>
      <trkpt lat="45.37996" lon="5.77874">
        <ele>1395.97</ele>
        <time>2017-08-11T14:18:09Z</time>
      </trkpt>
      <trkpt lat="45.3801" lon="5.77879">
        <ele>1392.61</ele>
        <time>2017-08-11T14:18:16Z</time>
      </trkpt>
      <trkpt lat="45.38013" lon="5.77879">
        <ele>1391.65</ele>
        <time>2017-08-11T14:18:17Z</time>
      </trkpt>
      <trkpt lat="45.38032" lon="5.77884">
        <ele>1385.88</ele>
        <time>2017-08-11T14:18:26Z</time>
      </trkpt>
      <trkpt lat="45.38047" lon="5.77888">
        <ele>1382.99</ele>
        <time>2017-08-11T14:18:32Z</time>
      </trkpt>
      <trkpt lat="45.38055" lon="5.77887">
        <ele>1380.11</ele>
        <time>2017-08-11T14:18:36Z</time>
      </trkpt>
      <trkpt lat="45.38065" lon="5.77887">
        <ele>1376.26</ele>
        <time>2017-08-11T14:18:42Z</time>
      </trkpt>
      <trkpt lat="45.38072" lon="5.77891">
        <ele>1372.9</ele>
        <time>2017-08-11T14:18:46Z</time>
      </trkpt>
      <trkpt lat="45.38086" lon="5.7789">
        <ele>1369.05</ele>
        <time>2017-08-11T14:18:50Z</time>
      </trkpt>
      <trkpt lat="45.38101" lon="5.77894">
        <ele>1367.61</ele>
        <time>2017-08-11T14:18:56Z</time>
      </trkpt>
      <trkpt lat="45.38114" lon="5.77898">
        <ele>1365.21</ele>
        <time>2017-08-11T14:19:02Z</time>
      </trkpt>
      <trkpt lat="45.38138" lon="5.77903">
        <ele>1370.5</ele>
        <time>2017-08-11T14:19:08Z</time>
      </trkpt>
      <trkpt lat="45.38159" lon="5.77911">
        <ele>1376.26</ele>
        <time>2017-08-11T14:19:15Z</time>
      </trkpt>
      <trkpt lat="45.38168" lon="5.77917">
        <ele>1377.71</ele>
        <time>2017-08-11T14:19:19Z</time>
      </trkpt>
      <trkpt lat="45.38185" lon="5.7792">
        <ele>1378.67</ele>
        <time>2017-08-11T14:19:26Z</time>
      </trkpt>
      <trkpt lat="45.38195" lon="5.77921">
        <ele>1379.15</ele>
        <time>2017-08-11T14:19:30Z</time>
      </trkpt>
      <trkpt lat="45.38208" lon="5.77917">
        <ele>1379.15</ele>
        <time>2017-08-11T14:19:36Z</time>
      </trkpt>
      <trkpt lat="45.38222" lon="5.77916">
        <ele>1378.19</ele>
        <time>2017-08-11T14:19:42Z</time>
      </trkpt>
      <trkpt lat="45.38224" lon="5.77915">
        <ele>1378.19</ele>
        <time>2017-08-11T14:19:43Z</time>
      </trkpt>
      <trkpt lat="45.38241" lon="5.77918">
        <ele>1378.19</ele>
        <time>2017-08-11T14:19:50Z</time>
      </trkpt>
      <trkpt lat="45.38252" lon="5.77921">
        <ele>1376.75</ele>
        <time>2017-08-11T14:19:55Z</time>
      </trkpt>
      <trkpt lat="45.38264" lon="5.77922">
        <ele>1374.34</ele>
        <time>2017-08-11T14:20:00Z</time>
      </trkpt>
      <trkpt lat="45.38268" lon="5.77923">
        <ele>1373.38</ele>
        <time>2017-08-11T14:20:02Z</time>
      </trkpt>
      <trkpt lat="45.38281" lon="5.77927">
        <ele>1372.9</ele>
        <time>2017-08-11T14:20:08Z</time>
      </trkpt>
      <trkpt lat="45.38282" lon="5.77928">
        <ele>1372.9</ele>
        <time>2017-08-11T14:20:09Z</time>
      </trkpt>
      <trkpt lat="45.38296" lon="5.77933">
        <ele>1373.38</ele>
        <time>2017-08-11T14:20:16Z</time>
      </trkpt>
      <trkpt lat="45.38307" lon="5.77933">
        <ele>1373.86</ele>
        <time>2017-08-11T14:20:21Z</time>
      </trkpt>
      <trkpt lat="45.38316" lon="5.77932">
        <ele>1374.34</ele>
        <time>2017-08-11T14:20:26Z</time>
      </trkpt>
      <trkpt lat="45.38331" lon="5.77929">
        <ele>1373.38</ele>
        <time>2017-08-11T14:20:33Z</time>
      </trkpt>
      <trkpt lat="45.38341" lon="5.77928">
        <ele>1372.42</ele>
        <time>2017-08-11T14:20:38Z</time>
      </trkpt>
      <trkpt lat="45.38349" lon="5.77928">
        <ele>1371.46</ele>
        <time>2017-08-11T14:20:42Z</time>
      </trkpt>
      <trkpt lat="45.38353" lon="5.77929">
        <ele>1371.46</ele>
        <time>2017-08-11T14:20:44Z</time>
      </trkpt>
      <trkpt lat="45.38365" lon="5.77932">
        <ele>1370.5</ele>
        <time>2017-08-11T14:20:50Z</time>
      </trkpt>
      <trkpt lat="45.3838" lon="5.77933">
        <ele>1369.54</ele>
        <time>2017-08-11T14:20:57Z</time>
      </trkpt>
      <trkpt lat="45.38394" lon="5.77937">
        <ele>1368.09</ele>
        <time>2017-08-11T14:21:03Z</time>
      </trkpt>
      <trkpt lat="45.38411" lon="5.77944">
        <ele>1368.09</ele>
        <time>2017-08-11T14:21:11Z</time>
      </trkpt>
      <trkpt lat="45.38422" lon="5.77947">
        <ele>1365.69</ele>
        <time>2017-08-11T14:21:17Z</time>
      </trkpt>
      <trkpt lat="45.38435" lon="5.77951">
        <ele>1361.84</ele>
        <time>2017-08-11T14:21:24Z</time>
      </trkpt>
      <trkpt lat="45.38445" lon="5.77954">
        <ele>1358</ele>
        <time>2017-08-11T14:21:30Z</time>
      </trkpt>
      <trkpt lat="45.38452" lon="5.77957">
        <ele>1353.67</ele>
        <time>2017-08-11T14:21:35Z</time>
      </trkpt>
      <trkpt lat="45.38459" lon="5.77959">
        <ele>1352.71</ele>
        <time>2017-08-11T14:21:42Z</time>
      </trkpt>
      <trkpt lat="45.38467" lon="5.7796">
        <ele>1357.04</ele>
        <time>2017-08-11T14:21:58Z</time>
      </trkpt>
      <trkpt lat="45.38468" lon="5.77962">
        <ele>1360.4</ele>
        <time>2017-08-11T14:22:12Z</time>
      </trkpt>
      <trkpt lat="45.38469" lon="5.77962">
        <ele>1366.65</ele>
        <time>2017-08-11T14:22:28Z</time>
      </trkpt>
      <trkpt lat="45.3847" lon="5.77962">
        <ele>1368.09</ele>
        <time>2017-08-11T14:22:36Z</time>
      </trkpt>
      <trkpt lat="45.3847" lon="5.77962">
        <ele>1370.5</ele>
        <time>2017-08-11T14:22:47Z</time>
      </trkpt>
      <trkpt lat="45.38471" lon="5.77962">
        <ele>1370.98</ele>
        <time>2017-08-11T14:23:00Z</time>
      </trkpt>
      <trkpt lat="45.3847" lon="5.77962">
        <ele>1370.02</ele>
        <time>2017-08-11T14:23:14Z</time>
      </trkpt>
      <trkpt lat="45.3847" lon="5.77962">
        <ele>1370.02</ele>
        <time>2017-08-11T14:23:22Z</time>
      </trkpt>
      <trkpt lat="45.3847" lon="5.77962">
        <ele>1370.02</ele>
        <time>2017-08-11T14:23:39Z</time>
      </trkpt>
      <trkpt lat="45.3847" lon="5.77962">
        <ele>1370.02</ele>
        <time>2017-08-11T14:24:01Z</time>
      </trkpt>
      <trkpt lat="45.3847" lon="5.77962">
        <ele>1370.02</ele>
        <time>2017-08-11T14:24:29Z</time>
      </trkpt>
      <trkpt lat="45.38469" lon="5.77961">
        <ele>1369.54</ele>
        <time>2017-08-11T14:24:47Z</time>
      </trkpt>
      <trkpt lat="45.38469" lon="5.77961">
        <ele>1370.02</ele>
        <time>2017-08-11T14:25:03Z</time>
      </trkpt>
      <trkpt lat="45.38471" lon="5.77961">
        <ele>1370.02</ele>
        <time>2017-08-11T14:25:11Z</time>
      </trkpt>
      <trkpt lat="45.38474" lon="5.77961">
        <ele>1370.5</ele>
        <time>2017-08-11T14:25:14Z</time>
      </trkpt>
      <trkpt lat="45.38477" lon="5.77961">
        <ele>1370.5</ele>
        <time>2017-08-11T14:25:17Z</time>
      </trkpt>
      <trkpt lat="45.38486" lon="5.77961">
        <ele>1369.05</ele>
        <time>2017-08-11T14:25:26Z</time>
      </trkpt>
      <trkpt lat="45.38496" lon="5.7796">
        <ele>1366.65</ele>
        <time>2017-08-11T14:25:34Z</time>
      </trkpt>
      <trkpt lat="45.38501" lon="5.77961">
        <ele>1364.73</ele>
        <time>2017-08-11T14:25:40Z</time>
      </trkpt>
      <trkpt lat="45.38501" lon="5.7796">
        <ele>1363.77</ele>
        <time>2017-08-11T14:25:49Z</time>
      </trkpt>
      <trkpt lat="45.38504" lon="5.77959">
        <ele>1363.29</ele>
        <time>2017-08-11T14:26:01Z</time>
      </trkpt>
      <trkpt lat="45.38504" lon="5.77959">
        <ele>1364.25</ele>
        <time>2017-08-11T14:26:14Z</time>
      </trkpt>
      <trkpt lat="45.38505" lon="5.77958">
        <ele>1366.17</ele>
        <time>2017-08-11T14:26:29Z</time>
      </trkpt>
      <trkpt lat="45.38504" lon="5.77958">
        <ele>1365.21</ele>
        <time>2017-08-11T14:26:41Z</time>
      </trkpt>
      <trkpt lat="45.38504" lon="5.77957">
        <ele>1365.69</ele>
        <time>2017-08-11T14:26:55Z</time>
      </trkpt>
      <trkpt lat="45.38504" lon="5.77956">
        <ele>1365.21</ele>
        <time>2017-08-11T14:27:06Z</time>
      </trkpt>
      <trkpt lat="45.38504" lon="5.77956">
        <ele>1364.73</ele>
        <time>2017-08-11T14:27:14Z</time>
      </trkpt>
      <trkpt lat="45.38505" lon="5.77957">
        <ele>1364.73</ele>
        <time>2017-08-11T14:27:23Z</time>
      </trkpt>
      <trkpt lat="45.38506" lon="5.77958">
        <ele>1363.29</ele>
        <time>2017-08-11T14:27:36Z</time>
      </trkpt>
      <trkpt lat="45.38505" lon="5.77958">
        <ele>1363.29</ele>
        <time>2017-08-11T14:27:41Z</time>
      </trkpt>
      <trkpt lat="45.38507" lon="5.77959">
        <ele>1363.77</ele>
        <time>2017-08-11T14:27:44Z</time>
      </trkpt>
      <trkpt lat="45.38519" lon="5.7796">
        <ele>1362.81</ele>
        <time>2017-08-11T14:27:50Z</time>
      </trkpt>
      <trkpt lat="45.38532" lon="5.77964">
        <ele>1360.4</ele>
        <time>2017-08-11T14:27:56Z</time>
      </trkpt>
      <trkpt lat="45.3855" lon="5.77968">
        <ele>1358</ele>
        <time>2017-08-11T14:28:04Z</time>
      </trkpt>
      <trkpt lat="45.3856" lon="5.77971">
        <ele>1356.08</ele>
        <time>2017-08-11T14:28:09Z</time>
      </trkpt>
      <trkpt lat="45.38573" lon="5.77976">
        <ele>1353.19</ele>
        <time>2017-08-11T14:28:15Z</time>
      </trkpt>
      <trkpt lat="45.3858" lon="5.77978">
        <ele>1351.27</ele>
        <time>2017-08-11T14:28:19Z</time>
      </trkpt>
      <trkpt lat="45.38597" lon="5.77985">
        <ele>1345.5</ele>
        <time>2017-08-11T14:28:27Z</time>
      </trkpt>
      <trkpt lat="45.38615" lon="5.77995">
        <ele>1342.14</ele>
        <time>2017-08-11T14:28:35Z</time>
      </trkpt>
      <trkpt lat="45.38623" lon="5.78">
        <ele>1341.18</ele>
        <time>2017-08-11T14:28:39Z</time>
      </trkpt>
      <trkpt lat="45.38631" lon="5.78006">
        <ele>1340.22</ele>
        <time>2017-08-11T14:28:43Z</time>
      </trkpt>
      <trkpt lat="45.38644" lon="5.78017">
        <ele>1338.29</ele>
        <time>2017-08-11T14:28:50Z</time>
      </trkpt>
      <trkpt lat="45.38656" lon="5.78023">
        <ele>1334.93</ele>
        <time>2017-08-11T14:28:56Z</time>
      </trkpt>
      <trkpt lat="45.38669" lon="5.78028">
        <ele>1330.12</ele>
        <time>2017-08-11T14:29:03Z</time>
      </trkpt>
      <trkpt lat="45.38679" lon="5.78032">
        <ele>1326.76</ele>
        <time>2017-08-11T14:29:08Z</time>
      </trkpt>
      <trkpt lat="45.38696" lon="5.78041">
        <ele>1321.47</ele>
        <time>2017-08-11T14:29:17Z</time>
      </trkpt>
      <trkpt lat="45.38702" lon="5.78044">
        <ele>1318.59</ele>
        <time>2017-08-11T14:29:21Z</time>
      </trkpt>
      <trkpt lat="45.38715" lon="5.78049">
        <ele>1313.78</ele>
        <time>2017-08-11T14:29:28Z</time>
      </trkpt>
      <trkpt lat="45.38728" lon="5.78054">
        <ele>1307.05</ele>
        <time>2017-08-11T14:29:35Z</time>
      </trkpt>
      <trkpt lat="45.38737" lon="5.78056">
        <ele>1303.2</ele>
        <time>2017-08-11T14:29:39Z</time>
      </trkpt>
      <trkpt lat="45.38747" lon="5.78058">
        <ele>1294.55</ele>
        <time>2017-08-11T14:29:46Z</time>
      </trkpt>
      <trkpt lat="45.3875" lon="5.7806">
        <ele>1291.19</ele>
        <time>2017-08-11T14:29:49Z</time>
      </trkpt>
      <trkpt lat="45.38764" lon="5.78062">
        <ele>1287.34</ele>
        <time>2017-08-11T14:29:56Z</time>
      </trkpt>
      <trkpt lat="45.38774" lon="5.78063">
        <ele>1284.46</ele>
        <time>2017-08-11T14:30:01Z</time>
      </trkpt>
      <trkpt lat="45.38781" lon="5.78063">
        <ele>1283.5</ele>
        <time>2017-08-11T14:30:06Z</time>
      </trkpt>
      <trkpt lat="45.38794" lon="5.78065">
        <ele>1282.54</ele>
        <time>2017-08-11T14:30:11Z</time>
      </trkpt>
      <trkpt lat="45.38814" lon="5.78069">
        <ele>1282.54</ele>
        <time>2017-08-11T14:30:19Z</time>
      </trkpt>
      <trkpt lat="45.38834" lon="5.78072">
        <ele>1283.5</ele>
        <time>2017-08-11T14:30:27Z</time>
      </trkpt>
      <trkpt lat="45.3885" lon="5.78077">
        <ele>1283.98</ele>
        <time>2017-08-11T14:30:34Z</time>
      </trkpt>
      <trkpt lat="45.38865" lon="5.78083">
        <ele>1283.5</ele>
        <time>2017-08-11T14:30:41Z</time>
      </trkpt>
      <trkpt lat="45.38875" lon="5.78093">
        <ele>1279.65</ele>
        <time>2017-08-11T14:30:47Z</time>
      </trkpt>
      <trkpt lat="45.3889" lon="5.78099">
        <ele>1277.25</ele>
        <time>2017-08-11T14:30:53Z</time>
      </trkpt>
      <trkpt lat="45.38899" lon="5.78107">
        <ele>1277.25</ele>
        <time>2017-08-11T14:30:57Z</time>
      </trkpt>
      <trkpt lat="45.38916" lon="5.78126">
        <ele>1278.21</ele>
        <time>2017-08-11T14:31:05Z</time>
      </trkpt>
      <trkpt lat="45.38925" lon="5.78135">
        <ele>1278.21</ele>
        <time>2017-08-11T14:31:10Z</time>
      </trkpt>
      <trkpt lat="45.38937" lon="5.78141">
        <ele>1276.77</ele>
        <time>2017-08-11T14:31:16Z</time>
      </trkpt>
      <trkpt lat="45.38948" lon="5.78146">
        <ele>1272.44</ele>
        <time>2017-08-11T14:31:22Z</time>
      </trkpt>
      <trkpt lat="45.38962" lon="5.78148">
        <ele>1268.6</ele>
        <time>2017-08-11T14:31:29Z</time>
      </trkpt>
      <trkpt lat="45.38965" lon="5.78149">
        <ele>1266.67</ele>
        <time>2017-08-11T14:31:31Z</time>
      </trkpt>
      <trkpt lat="45.38978" lon="5.78152">
        <ele>1261.39</ele>
        <time>2017-08-11T14:31:38Z</time>
      </trkpt>
      <trkpt lat="45.38986" lon="5.78157">
        <ele>1259.46</ele>
        <time>2017-08-11T14:31:43Z</time>
      </trkpt>
      <trkpt lat="45.38993" lon="5.78159">
        <ele>1258.5</ele>
        <time>2017-08-11T14:31:46Z</time>
      </trkpt>
      <trkpt lat="45.39008" lon="5.78159">
        <ele>1254.66</ele>
        <time>2017-08-11T14:31:52Z</time>
      </trkpt>
      <trkpt lat="45.39029" lon="5.78164">
        <ele>1258.98</ele>
        <time>2017-08-11T14:31:59Z</time>
      </trkpt>
      <trkpt lat="45.39041" lon="5.78164">
        <ele>1263.79</ele>
        <time>2017-08-11T14:32:04Z</time>
      </trkpt>
      <trkpt lat="45.3905" lon="5.78168">
        <ele>1263.31</ele>
        <time>2017-08-11T14:32:11Z</time>
      </trkpt>
      <trkpt lat="45.39063" lon="5.78173">
        <ele>1262.35</ele>
        <time>2017-08-11T14:32:20Z</time>
      </trkpt>
      <trkpt lat="45.39071" lon="5.78174">
        <ele>1263.31</ele>
        <time>2017-08-11T14:32:25Z</time>
      </trkpt>
      <trkpt lat="45.39085" lon="5.78178">
        <ele>1261.39</ele>
        <time>2017-08-11T14:32:33Z</time>
      </trkpt>
      <trkpt lat="45.39086" lon="5.78179">
        <ele>1260.91</ele>
        <time>2017-08-11T14:32:34Z</time>
      </trkpt>
      <trkpt lat="45.39101" lon="5.78186">
        <ele>1262.83</ele>
        <time>2017-08-11T14:32:43Z</time>
      </trkpt>
      <trkpt lat="45.39105" lon="5.78189">
        <ele>1262.35</ele>
        <time>2017-08-11T14:32:47Z</time>
      </trkpt>
      <trkpt lat="45.39113" lon="5.78194">
        <ele>1258.98</ele>
        <time>2017-08-11T14:32:55Z</time>
      </trkpt>
      <trkpt lat="45.39121" lon="5.78197">
        <ele>1254.66</ele>
        <time>2017-08-11T14:33:03Z</time>
      </trkpt>
      <trkpt lat="45.39128" lon="5.78203">
        <ele>1247.45</ele>
        <time>2017-08-11T14:33:10Z</time>
      </trkpt>
      <trkpt lat="45.39132" lon="5.78204">
        <ele>1247.45</ele>
        <time>2017-08-11T14:33:11Z</time>
      </trkpt>
      <trkpt lat="45.39149" lon="5.78212">
        <ele>1245.04</ele>
        <time>2017-08-11T14:33:18Z</time>
      </trkpt>
      <trkpt lat="45.39158" lon="5.78227">
        <ele>1242.64</ele>
        <time>2017-08-11T14:33:25Z</time>
      </trkpt>
      <trkpt lat="45.39161" lon="5.78235">
        <ele>1242.16</ele>
        <time>2017-08-11T14:33:30Z</time>
      </trkpt>
      <trkpt lat="45.39163" lon="5.78239">
        <ele>1244.56</ele>
        <time>2017-08-11T14:33:43Z</time>
      </trkpt>
      <trkpt lat="45.39164" lon="5.78237">
        <ele>1246.01</ele>
        <time>2017-08-11T14:33:52Z</time>
      </trkpt>
      <trkpt lat="45.39166" lon="5.78225">
        <ele>1244.08</ele>
        <time>2017-08-11T14:34:00Z</time>
      </trkpt>
      <trkpt lat="45.39168" lon="5.78218">
        <ele>1241.68</ele>
        <time>2017-08-11T14:34:08Z</time>
      </trkpt>
      <trkpt lat="45.39169" lon="5.78214">
        <ele>1241.2</ele>
        <time>2017-08-11T14:34:11Z</time>
      </trkpt>
      <trkpt lat="45.39169" lon="5.78201">
        <ele>1241.2</ele>
        <time>2017-08-11T14:34:19Z</time>
      </trkpt>
      <trkpt lat="45.39172" lon="5.78194">
        <ele>1244.08</ele>
        <time>2017-08-11T14:34:26Z</time>
      </trkpt>
      <trkpt lat="45.39175" lon="5.78193">
        <ele>1246.97</ele>
        <time>2017-08-11T14:34:31Z</time>
      </trkpt>
      <trkpt lat="45.39176" lon="5.78187">
        <ele>1249.37</ele>
        <time>2017-08-11T14:34:38Z</time>
      </trkpt>
      <trkpt lat="45.39176" lon="5.78187">
        <ele>1249.37</ele>
        <time>2017-08-11T14:34:39Z</time>
      </trkpt>
      <trkpt lat="45.39178" lon="5.78182">
        <ele>1251.77</ele>
        <time>2017-08-11T14:34:46Z</time>
      </trkpt>
      <trkpt lat="45.39181" lon="5.78174">
        <ele>1253.7</ele>
        <time>2017-08-11T14:34:54Z</time>
      </trkpt>
      <trkpt lat="45.39184" lon="5.78168">
        <ele>1254.66</ele>
        <time>2017-08-11T14:35:01Z</time>
      </trkpt>
      <trkpt lat="45.39186" lon="5.78158">
        <ele>1252.25</ele>
        <time>2017-08-11T14:35:10Z</time>
      </trkpt>
      <trkpt lat="45.39186" lon="5.78149">
        <ele>1252.25</ele>
        <time>2017-08-11T14:35:17Z</time>
      </trkpt>
      <trkpt lat="45.39189" lon="5.78139">
        <ele>1250.33</ele>
        <time>2017-08-11T14:35:25Z</time>
      </trkpt>
      <trkpt lat="45.3919" lon="5.78128">
        <ele>1247.45</ele>
        <time>2017-08-11T14:35:33Z</time>
      </trkpt>
      <trkpt lat="45.39192" lon="5.78116">
        <ele>1247.93</ele>
        <time>2017-08-11T14:35:41Z</time>
      </trkpt>
      <trkpt lat="45.39191" lon="5.78106">
        <ele>1251.29</ele>
        <time>2017-08-11T14:35:47Z</time>
      </trkpt>
      <trkpt lat="45.3919" lon="5.78102">
        <ele>1254.66</ele>
        <time>2017-08-11T14:35:54Z</time>
      </trkpt>
      <trkpt lat="45.3919" lon="5.78099">
        <ele>1257.06</ele>
        <time>2017-08-11T14:36:00Z</time>
      </trkpt>
      <trkpt lat="45.39192" lon="5.78094">
        <ele>1258.98</ele>
        <time>2017-08-11T14:36:10Z</time>
      </trkpt>
      <trkpt lat="45.39194" lon="5.78085">
        <ele>1259.46</ele>
        <time>2017-08-11T14:36:17Z</time>
      </trkpt>
      <trkpt lat="45.39196" lon="5.78079">
        <ele>1261.87</ele>
        <time>2017-08-11T14:36:24Z</time>
      </trkpt>
      <trkpt lat="45.39198" lon="5.78074">
        <ele>1262.83</ele>
        <time>2017-08-11T14:36:30Z</time>
      </trkpt>
      <trkpt lat="45.392" lon="5.78071">
        <ele>1263.79</ele>
        <time>2017-08-11T14:36:37Z</time>
      </trkpt>
      <trkpt lat="45.39201" lon="5.78068">
        <ele>1263.79</ele>
        <time>2017-08-11T14:36:44Z</time>
      </trkpt>
      <trkpt lat="45.39207" lon="5.78058">
        <ele>1262.35</ele>
        <time>2017-08-11T14:36:50Z</time>
      </trkpt>
      <trkpt lat="45.39216" lon="5.78047">
        <ele>1260.43</ele>
        <time>2017-08-11T14:36:58Z</time>
      </trkpt>
      <trkpt lat="45.3922" lon="5.7804">
        <ele>1258.02</ele>
        <time>2017-08-11T14:37:05Z</time>
      </trkpt>
      <trkpt lat="45.3922" lon="5.78036">
        <ele>1256.58</ele>
        <time>2017-08-11T14:37:07Z</time>
      </trkpt>
      <trkpt lat="45.39224" lon="5.78026">
        <ele>1253.7</ele>
        <time>2017-08-11T14:37:11Z</time>
      </trkpt>
      <trkpt lat="45.39224" lon="5.78022">
        <ele>1252.25</ele>
        <time>2017-08-11T14:37:13Z</time>
      </trkpt>
      <trkpt lat="45.39223" lon="5.78011">
        <ele>1248.41</ele>
        <time>2017-08-11T14:37:19Z</time>
      </trkpt>
      <trkpt lat="45.39224" lon="5.77991">
        <ele>1247.45</ele>
        <time>2017-08-11T14:37:26Z</time>
      </trkpt>
      <trkpt lat="45.39229" lon="5.77968">
        <ele>1249.37</ele>
        <time>2017-08-11T14:37:33Z</time>
      </trkpt>
      <trkpt lat="45.39236" lon="5.77957">
        <ele>1251.77</ele>
        <time>2017-08-11T14:37:39Z</time>
      </trkpt>
      <trkpt lat="45.39244" lon="5.77948">
        <ele>1254.18</ele>
        <time>2017-08-11T14:37:45Z</time>
      </trkpt>
      <trkpt lat="45.39248" lon="5.77942">
        <ele>1255.14</ele>
        <time>2017-08-11T14:37:48Z</time>
      </trkpt>
      <trkpt lat="45.39259" lon="5.7793">
        <ele>1258.98</ele>
        <time>2017-08-11T14:37:55Z</time>
      </trkpt>
      <trkpt lat="45.39265" lon="5.77925">
        <ele>1261.39</ele>
        <time>2017-08-11T14:38:01Z</time>
      </trkpt>
      <trkpt lat="45.39268" lon="5.77919">
        <ele>1261.39</ele>
        <time>2017-08-11T14:38:08Z</time>
      </trkpt>
      <trkpt lat="45.39272" lon="5.77916">
        <ele>1263.31</ele>
        <time>2017-08-11T14:38:11Z</time>
      </trkpt>
      <trkpt lat="45.39282" lon="5.77918">
        <ele>1264.75</ele>
        <time>2017-08-11T14:38:18Z</time>
      </trkpt>
      <trkpt lat="45.39285" lon="5.7792">
        <ele>1262.83</ele>
        <time>2017-08-11T14:38:25Z</time>
      </trkpt>
      <trkpt lat="45.39288" lon="5.77916">
        <ele>1260.43</ele>
        <time>2017-08-11T14:38:32Z</time>
      </trkpt>
      <trkpt lat="45.39294" lon="5.77915">
        <ele>1261.39</ele>
        <time>2017-08-11T14:38:39Z</time>
      </trkpt>
      <trkpt lat="45.39305" lon="5.77915">
        <ele>1263.31</ele>
        <time>2017-08-11T14:38:48Z</time>
      </trkpt>
      <trkpt lat="45.39313" lon="5.77909">
        <ele>1263.79</ele>
        <time>2017-08-11T14:38:56Z</time>
      </trkpt>
      <trkpt lat="45.39318" lon="5.77905">
        <ele>1262.83</ele>
        <time>2017-08-11T14:39:02Z</time>
      </trkpt>
      <trkpt lat="45.39325" lon="5.77896">
        <ele>1263.31</ele>
        <time>2017-08-11T14:39:09Z</time>
      </trkpt>
      <trkpt lat="45.39326" lon="5.7789">
        <ele>1264.27</ele>
        <time>2017-08-11T14:39:16Z</time>
      </trkpt>
      <trkpt lat="45.39323" lon="5.77885">
        <ele>1263.31</ele>
        <time>2017-08-11T14:39:24Z</time>
      </trkpt>
      <trkpt lat="45.3932" lon="5.77881">
        <ele>1263.31</ele>
        <time>2017-08-11T14:39:31Z</time>
      </trkpt>
      <trkpt lat="45.39319" lon="5.77875">
        <ele>1261.87</ele>
        <time>2017-08-11T14:39:36Z</time>
      </trkpt>
      <trkpt lat="45.39319" lon="5.77868">
        <ele>1259.94</ele>
        <time>2017-08-11T14:39:41Z</time>
      </trkpt>
      <trkpt lat="45.39322" lon="5.77855">
        <ele>1259.46</ele>
        <time>2017-08-11T14:39:50Z</time>
      </trkpt>
      <trkpt lat="45.39327" lon="5.7785">
        <ele>1258.98</ele>
        <time>2017-08-11T14:40:00Z</time>
      </trkpt>
      <trkpt lat="45.39335" lon="5.77843">
        <ele>1260.91</ele>
        <time>2017-08-11T14:40:07Z</time>
      </trkpt>
      <trkpt lat="45.39335" lon="5.77842">
        <ele>1261.39</ele>
        <time>2017-08-11T14:40:10Z</time>
      </trkpt>
      <trkpt lat="45.39329" lon="5.77836">
        <ele>1258.5</ele>
        <time>2017-08-11T14:40:18Z</time>
      </trkpt>
      <trkpt lat="45.39322" lon="5.77835">
        <ele>1253.7</ele>
        <time>2017-08-11T14:40:25Z</time>
      </trkpt>
      <trkpt lat="45.39315" lon="5.77839">
        <ele>1250.33</ele>
        <time>2017-08-11T14:40:30Z</time>
      </trkpt>
      <trkpt lat="45.39303" lon="5.77829">
        <ele>1247.45</ele>
        <time>2017-08-11T14:40:38Z</time>
      </trkpt>
      <trkpt lat="45.39298" lon="5.77819">
        <ele>1245.53</ele>
        <time>2017-08-11T14:40:44Z</time>
      </trkpt>
      <trkpt lat="45.39293" lon="5.77812">
        <ele>1244.08</ele>
        <time>2017-08-11T14:40:48Z</time>
      </trkpt>
      <trkpt lat="45.3929" lon="5.77803">
        <ele>1241.68</ele>
        <time>2017-08-11T14:40:52Z</time>
      </trkpt>
      <trkpt lat="45.39281" lon="5.77796">
        <ele>1240.72</ele>
        <time>2017-08-11T14:40:58Z</time>
      </trkpt>
      <trkpt lat="45.39278" lon="5.7778">
        <ele>1241.68</ele>
        <time>2017-08-11T14:41:05Z</time>
      </trkpt>
      <trkpt lat="45.39274" lon="5.77757">
        <ele>1246.49</ele>
        <time>2017-08-11T14:41:15Z</time>
      </trkpt>
      <trkpt lat="45.39274" lon="5.77752">
        <ele>1253.22</ele>
        <time>2017-08-11T14:41:24Z</time>
      </trkpt>
      <trkpt lat="45.39274" lon="5.77749">
        <ele>1255.14</ele>
        <time>2017-08-11T14:41:30Z</time>
      </trkpt>
      <trkpt lat="45.39274" lon="5.77747">
        <ele>1258.98</ele>
        <time>2017-08-11T14:41:39Z</time>
      </trkpt>
      <trkpt lat="45.3927" lon="5.77748">
        <ele>1259.94</ele>
        <time>2017-08-11T14:41:47Z</time>
      </trkpt>
      <trkpt lat="45.39267" lon="5.77749">
        <ele>1259.46</ele>
        <time>2017-08-11T14:41:51Z</time>
      </trkpt>
      <trkpt lat="45.39256" lon="5.77755">
        <ele>1256.1</ele>
        <time>2017-08-11T14:42:00Z</time>
      </trkpt>
      <trkpt lat="45.39249" lon="5.77763">
        <ele>1254.66</ele>
        <time>2017-08-11T14:42:07Z</time>
      </trkpt>
      <trkpt lat="45.39245" lon="5.77769">
        <ele>1255.14</ele>
        <time>2017-08-11T14:42:14Z</time>
      </trkpt>
      <trkpt lat="45.39244" lon="5.77772">
        <ele>1257.54</ele>
        <time>2017-08-11T14:42:19Z</time>
      </trkpt>
      <trkpt lat="45.39239" lon="5.77772">
        <ele>1255.62</ele>
        <time>2017-08-11T14:42:25Z</time>
      </trkpt>
      <trkpt lat="45.39238" lon="5.77773">
        <ele>1254.66</ele>
        <time>2017-08-11T14:42:27Z</time>
      </trkpt>
      <trkpt lat="45.39239" lon="5.77773">
        <ele>1250.33</ele>
        <time>2017-08-11T14:42:35Z</time>
      </trkpt>
      <trkpt lat="45.39239" lon="5.77773">
        <ele>1250.33</ele>
        <time>2017-08-11T14:42:36Z</time>
      </trkpt>
      <trkpt lat="45.39236" lon="5.7777">
        <ele>1245.53</ele>
        <time>2017-08-11T14:42:40Z</time>
      </trkpt>
      <trkpt lat="45.39233" lon="5.7777">
        <ele>1243.12</ele>
        <time>2017-08-11T14:42:42Z</time>
      </trkpt>
      <trkpt lat="45.39227" lon="5.77769">
        <ele>1235.91</ele>
        <time>2017-08-11T14:42:48Z</time>
      </trkpt>
      <trkpt lat="45.39223" lon="5.7777">
        <ele>1233.51</ele>
        <time>2017-08-11T14:42:50Z</time>
      </trkpt>
      <trkpt lat="45.3922" lon="5.77769">
        <ele>1232.07</ele>
        <time>2017-08-11T14:42:57Z</time>
      </trkpt>
      <trkpt lat="45.39221" lon="5.77768">
        <ele>1231.11</ele>
        <time>2017-08-11T14:42:58Z</time>
      </trkpt>
      <trkpt lat="45.39224" lon="5.77763">
        <ele>1228.7</ele>
        <time>2017-08-11T14:43:02Z</time>
      </trkpt>
      <trkpt lat="45.39235" lon="5.77753">
        <ele>1224.86</ele>
        <time>2017-08-11T14:43:09Z</time>
      </trkpt>
      <trkpt lat="45.39238" lon="5.77752">
        <ele>1221.01</ele>
        <time>2017-08-11T14:43:14Z</time>
      </trkpt>
      <trkpt lat="45.39239" lon="5.77752">
        <ele>1220.05</ele>
        <time>2017-08-11T14:43:17Z</time>
      </trkpt>
      <trkpt lat="45.39238" lon="5.77749">
        <ele>1218.61</ele>
        <time>2017-08-11T14:43:20Z</time>
      </trkpt>
      <trkpt lat="45.39231" lon="5.77741">
        <ele>1216.69</ele>
        <time>2017-08-11T14:43:25Z</time>
      </trkpt>
      <trkpt lat="45.39228" lon="5.77738">
        <ele>1216.21</ele>
        <time>2017-08-11T14:43:31Z</time>
      </trkpt>
      <trkpt lat="45.3923" lon="5.77735">
        <ele>1215.24</ele>
        <time>2017-08-11T14:43:37Z</time>
      </trkpt>
      <trkpt lat="45.39235" lon="5.77727">
        <ele>1212.84</ele>
        <time>2017-08-11T14:43:41Z</time>
      </trkpt>
      <trkpt lat="45.39236" lon="5.77718">
        <ele>1210.92</ele>
        <time>2017-08-11T14:43:48Z</time>
      </trkpt>
      <trkpt lat="45.39243" lon="5.77717">
        <ele>1208.51</ele>
        <time>2017-08-11T14:43:54Z</time>
      </trkpt>
      <trkpt lat="45.39245" lon="5.77711">
        <ele>1206.11</ele>
        <time>2017-08-11T14:43:57Z</time>
      </trkpt>
      <trkpt lat="45.39256" lon="5.77693">
        <ele>1206.11</ele>
        <time>2017-08-11T14:44:04Z</time>
      </trkpt>
      <trkpt lat="45.39261" lon="5.7768">
        <ele>1204.67</ele>
        <time>2017-08-11T14:44:09Z</time>
      </trkpt>
      <trkpt lat="45.39263" lon="5.7768">
        <ele>1205.63</ele>
        <time>2017-08-11T14:44:13Z</time>
      </trkpt>
      <trkpt lat="45.39259" lon="5.77675">
        <ele>1204.67</ele>
        <time>2017-08-11T14:44:22Z</time>
      </trkpt>
      <trkpt lat="45.39257" lon="5.77671">
        <ele>1204.19</ele>
        <time>2017-08-11T14:44:24Z</time>
      </trkpt>
      <trkpt lat="45.39251" lon="5.77672">
        <ele>1204.19</ele>
        <time>2017-08-11T14:44:28Z</time>
      </trkpt>
      <trkpt lat="45.39245" lon="5.77678">
        <ele>1202.75</ele>
        <time>2017-08-11T14:44:32Z</time>
      </trkpt>
      <trkpt lat="45.39235" lon="5.77676">
        <ele>1200.82</ele>
        <time>2017-08-11T14:44:39Z</time>
      </trkpt>
      <trkpt lat="45.39225" lon="5.7767">
        <ele>1199.38</ele>
        <time>2017-08-11T14:44:46Z</time>
      </trkpt>
      <trkpt lat="45.39219" lon="5.77666">
        <ele>1197.46</ele>
        <time>2017-08-11T14:44:52Z</time>
      </trkpt>
      <trkpt lat="45.39213" lon="5.77654">
        <ele>1196.98</ele>
        <time>2017-08-11T14:44:58Z</time>
      </trkpt>
      <trkpt lat="45.39209" lon="5.77646">
        <ele>1195.54</ele>
        <time>2017-08-11T14:45:03Z</time>
      </trkpt>
      <trkpt lat="45.39208" lon="5.77645">
        <ele>1195.54</ele>
        <time>2017-08-11T14:45:04Z</time>
      </trkpt>
      <trkpt lat="45.39196" lon="5.77632">
        <ele>1196.5</ele>
        <time>2017-08-11T14:45:11Z</time>
      </trkpt>
      <trkpt lat="45.39187" lon="5.7762">
        <ele>1197.94</ele>
        <time>2017-08-11T14:45:17Z</time>
      </trkpt>
      <trkpt lat="45.39177" lon="5.77594">
        <ele>1198.9</ele>
        <time>2017-08-11T14:45:23Z</time>
      </trkpt>
      <trkpt lat="45.39174" lon="5.77579">
        <ele>1199.86</ele>
        <time>2017-08-11T14:45:29Z</time>
      </trkpt>
      <trkpt lat="45.39172" lon="5.77569">
        <ele>1198.9</ele>
        <time>2017-08-11T14:45:34Z</time>
      </trkpt>
      <trkpt lat="45.39166" lon="5.77555">
        <ele>1197.94</ele>
        <time>2017-08-11T14:45:41Z</time>
      </trkpt>
      <trkpt lat="45.39165" lon="5.77549">
        <ele>1197.46</ele>
        <time>2017-08-11T14:45:43Z</time>
      </trkpt>
      <trkpt lat="45.39155" lon="5.77528">
        <ele>1196.5</ele>
        <time>2017-08-11T14:45:51Z</time>
      </trkpt>
      <trkpt lat="45.39149" lon="5.77513">
        <ele>1193.61</ele>
        <time>2017-08-11T14:45:57Z</time>
      </trkpt>
      <trkpt lat="45.39147" lon="5.77511">
        <ele>1193.13</ele>
        <time>2017-08-11T14:45:58Z</time>
      </trkpt>
      <trkpt lat="45.39136" lon="5.77495">
        <ele>1185.92</ele>
        <time>2017-08-11T14:46:06Z</time>
      </trkpt>
      <trkpt lat="45.39135" lon="5.77491">
        <ele>1185.44</ele>
        <time>2017-08-11T14:46:07Z</time>
      </trkpt>
      <trkpt lat="45.39122" lon="5.77472">
        <ele>1182.08</ele>
        <time>2017-08-11T14:46:15Z</time>
      </trkpt>
      <trkpt lat="45.39115" lon="5.77459">
        <ele>1179.67</ele>
        <time>2017-08-11T14:46:20Z</time>
      </trkpt>
      <trkpt lat="45.39109" lon="5.77448">
        <ele>1180.64</ele>
        <time>2017-08-11T14:46:24Z</time>
      </trkpt>
      <trkpt lat="45.39102" lon="5.77438">
        <ele>1180.64</ele>
        <time>2017-08-11T14:46:28Z</time>
      </trkpt>
      <trkpt lat="45.39097" lon="5.77433">
        <ele>1180.64</ele>
        <time>2017-08-11T14:46:32Z</time>
      </trkpt>
      <trkpt lat="45.39091" lon="5.77428">
        <ele>1179.67</ele>
        <time>2017-08-11T14:46:36Z</time>
      </trkpt>
      <trkpt lat="45.39082" lon="5.77423">
        <ele>1175.83</ele>
        <time>2017-08-11T14:46:42Z</time>
      </trkpt>
      <trkpt lat="45.3908" lon="5.7742">
        <ele>1174.87</ele>
        <time>2017-08-11T14:46:44Z</time>
      </trkpt>
      <trkpt lat="45.39068" lon="5.7741">
        <ele>1171.02</ele>
        <time>2017-08-11T14:46:52Z</time>
      </trkpt>
      <trkpt lat="45.39059" lon="5.7741">
        <ele>1167.66</ele>
        <time>2017-08-11T14:46:58Z</time>
      </trkpt>
      <trkpt lat="45.39054" lon="5.77408">
        <ele>1165.26</ele>
        <time>2017-08-11T14:47:03Z</time>
      </trkpt>
      <trkpt lat="45.39046" lon="5.77402">
        <ele>1162.85</ele>
        <time>2017-08-11T14:47:09Z</time>
      </trkpt>
      <trkpt lat="45.39044" lon="5.774">
        <ele>1163.33</ele>
        <time>2017-08-11T14:47:10Z</time>
      </trkpt>
      <trkpt lat="45.39034" lon="5.77387">
        <ele>1163.81</ele>
        <time>2017-08-11T14:47:17Z</time>
      </trkpt>
      <trkpt lat="45.39025" lon="5.77381">
        <ele>1163.81</ele>
        <time>2017-08-11T14:47:23Z</time>
      </trkpt>
      <trkpt lat="45.39021" lon="5.77377">
        <ele>1162.85</ele>
        <time>2017-08-11T14:47:28Z</time>
      </trkpt>
      <trkpt lat="45.39014" lon="5.77368">
        <ele>1162.37</ele>
        <time>2017-08-11T14:47:33Z</time>
      </trkpt>
      <trkpt lat="45.39003" lon="5.7736">
        <ele>1159.97</ele>
        <time>2017-08-11T14:47:39Z</time>
      </trkpt>
      <trkpt lat="45.39" lon="5.77358">
        <ele>1159.49</ele>
        <time>2017-08-11T14:47:41Z</time>
      </trkpt>
      <trkpt lat="45.38994" lon="5.77351">
        <ele>1159.01</ele>
        <time>2017-08-11T14:47:45Z</time>
      </trkpt>
      <trkpt lat="45.38981" lon="5.77335">
        <ele>1159.49</ele>
        <time>2017-08-11T14:47:52Z</time>
      </trkpt>
      <trkpt lat="45.3897" lon="5.7732">
        <ele>1159.01</ele>
        <time>2017-08-11T14:47:59Z</time>
      </trkpt>
      <trkpt lat="45.38961" lon="5.77312">
        <ele>1159.49</ele>
        <time>2017-08-11T14:48:05Z</time>
      </trkpt>
      <trkpt lat="45.38952" lon="5.77301">
        <ele>1157.56</ele>
        <time>2017-08-11T14:48:12Z</time>
      </trkpt>
      <trkpt lat="45.38946" lon="5.77298">
        <ele>1158.05</ele>
        <time>2017-08-11T14:48:16Z</time>
      </trkpt>
      <trkpt lat="45.38939" lon="5.77295">
        <ele>1157.56</ele>
        <time>2017-08-11T14:48:22Z</time>
      </trkpt>
      <trkpt lat="45.38937" lon="5.77292">
        <ele>1155.64</ele>
        <time>2017-08-11T14:48:31Z</time>
      </trkpt>
      <trkpt lat="45.38936" lon="5.77291">
        <ele>1154.68</ele>
        <time>2017-08-11T14:48:39Z</time>
      </trkpt>
      <trkpt lat="45.38935" lon="5.7729">
        <ele>1154.68</ele>
        <time>2017-08-11T14:48:41Z</time>
      </trkpt>
      <trkpt lat="45.38932" lon="5.77287">
        <ele>1154.2</ele>
        <time>2017-08-11T14:48:45Z</time>
      </trkpt>
      <trkpt lat="45.3893" lon="5.77281">
        <ele>1153.72</ele>
        <time>2017-08-11T14:48:48Z</time>
      </trkpt>
      <trkpt lat="45.38929" lon="5.77273">
        <ele>1153.24</ele>
        <time>2017-08-11T14:48:54Z</time>
      </trkpt>
      <trkpt lat="45.38928" lon="5.7727">
        <ele>1153.24</ele>
        <time>2017-08-11T14:49:01Z</time>
      </trkpt>
      <trkpt lat="45.38929" lon="5.77255">
        <ele>1147.47</ele>
        <time>2017-08-11T14:49:08Z</time>
      </trkpt>
      <trkpt lat="45.38932" lon="5.77249">
        <ele>1143.63</ele>
        <time>2017-08-11T14:49:12Z</time>
      </trkpt>
      <trkpt lat="45.38933" lon="5.77232">
        <ele>1139.3</ele>
        <time>2017-08-11T14:49:19Z</time>
      </trkpt>
      <trkpt lat="45.38936" lon="5.77208">
        <ele>1135.45</ele>
        <time>2017-08-11T14:49:26Z</time>
      </trkpt>
      <trkpt lat="45.38938" lon="5.77199">
        <ele>1132.09</ele>
        <time>2017-08-11T14:49:29Z</time>
      </trkpt>
      <trkpt lat="45.38937" lon="5.77189">
        <ele>1124.4</ele>
        <time>2017-08-11T14:49:34Z</time>
      </trkpt>
      <trkpt lat="45.38936" lon="5.77173">
        <ele>1116.71</ele>
        <time>2017-08-11T14:49:40Z</time>
      </trkpt>
      <trkpt lat="45.38936" lon="5.77162">
        <ele>1110.94</ele>
        <time>2017-08-11T14:49:45Z</time>
      </trkpt>
      <trkpt lat="45.3894" lon="5.77152">
        <ele>1108.06</ele>
        <time>2017-08-11T14:49:48Z</time>
      </trkpt>
      <trkpt lat="45.38949" lon="5.77139">
        <ele>1104.69</ele>
        <time>2017-08-11T14:49:54Z</time>
      </trkpt>
      <trkpt lat="45.38958" lon="5.77128">
        <ele>1100.85</ele>
        <time>2017-08-11T14:50:01Z</time>
      </trkpt>
      <trkpt lat="45.38968" lon="5.7711">
        <ele>1097.96</ele>
        <time>2017-08-11T14:50:08Z</time>
      </trkpt>
      <trkpt lat="45.38982" lon="5.77102">
        <ele>1094.12</ele>
        <time>2017-08-11T14:50:15Z</time>
      </trkpt>
      <trkpt lat="45.38984" lon="5.77094">
        <ele>1086.91</ele>
        <time>2017-08-11T14:50:23Z</time>
      </trkpt>
      <trkpt lat="45.38985" lon="5.77093">
        <ele>1085.95</ele>
        <time>2017-08-11T14:50:27Z</time>
      </trkpt>
      <trkpt lat="45.38998" lon="5.77094">
        <ele>1079.7</ele>
        <time>2017-08-11T14:50:34Z</time>
      </trkpt>
      <trkpt lat="45.38999" lon="5.77095">
        <ele>1079.22</ele>
        <time>2017-08-11T14:50:35Z</time>
      </trkpt>
      <trkpt lat="45.39015" lon="5.77099">
        <ele>1077.29</ele>
        <time>2017-08-11T14:50:42Z</time>
      </trkpt>
      <trkpt lat="45.39022" lon="5.77095">
        <ele>1071.53</ele>
        <time>2017-08-11T14:50:49Z</time>
      </trkpt>
      <trkpt lat="45.39027" lon="5.77086">
        <ele>1065.76</ele>
        <time>2017-08-11T14:50:54Z</time>
      </trkpt>
      <trkpt lat="45.39028" lon="5.77082">
        <ele>1064.8</ele>
        <time>2017-08-11T14:50:56Z</time>
      </trkpt>
      <trkpt lat="45.39039" lon="5.77075">
        <ele>1059.99</ele>
        <time>2017-08-11T14:51:02Z</time>
      </trkpt>
      <trkpt lat="45.39052" lon="5.77066">
        <ele>1056.15</ele>
        <time>2017-08-11T14:51:08Z</time>
      </trkpt>
      <trkpt lat="45.39067" lon="5.77047">
        <ele>1055.67</ele>
        <time>2017-08-11T14:51:15Z</time>
      </trkpt>
      <trkpt lat="45.39068" lon="5.77045">
        <ele>1055.18</ele>
        <time>2017-08-11T14:51:16Z</time>
      </trkpt>
      <trkpt lat="45.39074" lon="5.77029">
        <ele>1054.22</ele>
        <time>2017-08-11T14:51:21Z</time>
      </trkpt>
      <trkpt lat="45.39083" lon="5.77005">
        <ele>1054.7</ele>
        <time>2017-08-11T14:51:28Z</time>
      </trkpt>
      <trkpt lat="45.39091" lon="5.7699">
        <ele>1052.3</ele>
        <time>2017-08-11T14:51:34Z</time>
      </trkpt>
      <trkpt lat="45.39093" lon="5.76987">
        <ele>1051.82</ele>
        <time>2017-08-11T14:51:35Z</time>
      </trkpt>
      <trkpt lat="45.39106" lon="5.76969">
        <ele>1050.86</ele>
        <time>2017-08-11T14:51:42Z</time>
      </trkpt>
      <trkpt lat="45.39113" lon="5.7696">
        <ele>1050.86</ele>
        <time>2017-08-11T14:51:46Z</time>
      </trkpt>
      <trkpt lat="45.39127" lon="5.76945">
        <ele>1050.38</ele>
        <time>2017-08-11T14:51:53Z</time>
      </trkpt>
      <trkpt lat="45.3914" lon="5.7693">
        <ele>1048.94</ele>
        <time>2017-08-11T14:52:00Z</time>
      </trkpt>
      <trkpt lat="45.39149" lon="5.76923">
        <ele>1047.49</ele>
        <time>2017-08-11T14:52:04Z</time>
      </trkpt>
      <trkpt lat="45.39157" lon="5.76908">
        <ele>1043.17</ele>
        <time>2017-08-11T14:52:10Z</time>
      </trkpt>
      <trkpt lat="45.39166" lon="5.76891">
        <ele>1038.36</ele>
        <time>2017-08-11T14:52:16Z</time>
      </trkpt>
      <trkpt lat="45.39171" lon="5.76872">
        <ele>1035.48</ele>
        <time>2017-08-11T14:52:22Z</time>
      </trkpt>
      <trkpt lat="45.39174" lon="5.76861">
        <ele>1034.52</ele>
        <time>2017-08-11T14:52:28Z</time>
      </trkpt>
      <trkpt lat="45.39176" lon="5.76849">
        <ele>1033.55</ele>
        <time>2017-08-11T14:52:36Z</time>
      </trkpt>
      <trkpt lat="45.39175" lon="5.76838">
        <ele>1031.63</ele>
        <time>2017-08-11T14:52:44Z</time>
      </trkpt>
      <trkpt lat="45.39173" lon="5.76832">
        <ele>1030.19</ele>
        <time>2017-08-11T14:52:54Z</time>
      </trkpt>
      <trkpt lat="45.39172" lon="5.76826">
        <ele>1028.27</ele>
        <time>2017-08-11T14:53:01Z</time>
      </trkpt>
      <trkpt lat="45.39174" lon="5.76822">
        <ele>1028.27</ele>
        <time>2017-08-11T14:53:10Z</time>
      </trkpt>
      <trkpt lat="45.39175" lon="5.7681">
        <ele>1027.79</ele>
        <time>2017-08-11T14:53:18Z</time>
      </trkpt>
      <trkpt lat="45.39173" lon="5.76792">
        <ele>1029.71</ele>
        <time>2017-08-11T14:53:27Z</time>
      </trkpt>
      <trkpt lat="45.39177" lon="5.76771">
        <ele>1031.15</ele>
        <time>2017-08-11T14:53:33Z</time>
      </trkpt>
      <trkpt lat="45.39181" lon="5.76761">
        <ele>1032.11</ele>
        <time>2017-08-11T14:53:38Z</time>
      </trkpt>
      <trkpt lat="45.39183" lon="5.76758">
        <ele>1034.04</ele>
        <time>2017-08-11T14:53:44Z</time>
      </trkpt>
      <trkpt lat="45.39182" lon="5.76757">
        <ele>1035</ele>
        <time>2017-08-11T14:53:57Z</time>
      </trkpt>
      <trkpt lat="45.39182" lon="5.76756">
        <ele>1036.92</ele>
        <time>2017-08-11T14:54:17Z</time>
      </trkpt>
      <trkpt lat="45.39183" lon="5.76757">
        <ele>1036.44</ele>
        <time>2017-08-11T14:54:33Z</time>
      </trkpt>
      <trkpt lat="45.39184" lon="5.76756">
        <ele>1037.88</ele>
        <time>2017-08-11T14:54:43Z</time>
      </trkpt>
      <trkpt lat="45.39185" lon="5.76755">
        <ele>1038.36</ele>
        <time>2017-08-11T14:55:00Z</time>
      </trkpt>
      <trkpt lat="45.39185" lon="5.76755">
        <ele>1038.36</ele>
        <time>2017-08-11T14:55:15Z</time>
      </trkpt>
      <trkpt lat="45.39185" lon="5.76754">
        <ele>1039.32</ele>
        <time>2017-08-11T14:55:31Z</time>
      </trkpt>
      <trkpt lat="45.39186" lon="5.76754">
        <ele>1039.8</ele>
        <time>2017-08-11T14:55:40Z</time>
      </trkpt>
      <trkpt lat="45.39186" lon="5.76754">
        <ele>1040.28</ele>
        <time>2017-08-11T14:55:56Z</time>
      </trkpt>
      <trkpt lat="45.39185" lon="5.76754">
        <ele>1042.21</ele>
        <time>2017-08-11T14:56:08Z</time>
      </trkpt>
      <trkpt lat="45.39185" lon="5.76754">
        <ele>1042.21</ele>
        <time>2017-08-11T14:56:15Z</time>
      </trkpt>
      <trkpt lat="45.39185" lon="5.76754">
        <ele>1042.69</ele>
        <time>2017-08-11T14:56:25Z</time>
      </trkpt>
      <trkpt lat="45.39185" lon="5.76754">
        <ele>1043.65</ele>
        <time>2017-08-11T14:56:38Z</time>
      </trkpt>
      <trkpt lat="45.39185" lon="5.76754">
        <ele>1045.09</ele>
        <time>2017-08-11T14:56:53Z</time>
      </trkpt>
      <trkpt lat="45.39185" lon="5.76755">
        <ele>1045.57</ele>
        <time>2017-08-11T14:57:06Z</time>
      </trkpt>
      <trkpt lat="45.39185" lon="5.76756">
        <ele>1047.01</ele>
        <time>2017-08-11T14:57:23Z</time>
      </trkpt>
      <trkpt lat="45.39185" lon="5.76756">
        <ele>1047.97</ele>
        <time>2017-08-11T14:57:36Z</time>
      </trkpt>
      <trkpt lat="45.39183" lon="5.76754">
        <ele>1048.94</ele>
        <time>2017-08-11T14:57:39Z</time>
      </trkpt>
      <trkpt lat="45.39182" lon="5.76743">
        <ele>1050.38</ele>
        <time>2017-08-11T14:57:46Z</time>
      </trkpt>
      <trkpt lat="45.39178" lon="5.76728">
        <ele>1048.45</ele>
        <time>2017-08-11T14:57:55Z</time>
      </trkpt>
      <trkpt lat="45.39177" lon="5.76725">
        <ele>1047.49</ele>
        <time>2017-08-11T14:57:57Z</time>
      </trkpt>
      <trkpt lat="45.39172" lon="5.76714">
        <ele>1045.09</ele>
        <time>2017-08-11T14:58:04Z</time>
      </trkpt>
      <trkpt lat="45.39165" lon="5.76703">
        <ele>1042.21</ele>
        <time>2017-08-11T14:58:11Z</time>
      </trkpt>
      <trkpt lat="45.39159" lon="5.76695">
        <ele>1040.28</ele>
        <time>2017-08-11T14:58:16Z</time>
      </trkpt>
      <trkpt lat="45.39149" lon="5.76687">
        <ele>1038.36</ele>
        <time>2017-08-11T14:58:22Z</time>
      </trkpt>
      <trkpt lat="45.3914" lon="5.76677">
        <ele>1036.44</ele>
        <time>2017-08-11T14:58:28Z</time>
      </trkpt>
      <trkpt lat="45.39137" lon="5.76674">
        <ele>1035.96</ele>
        <time>2017-08-11T14:58:30Z</time>
      </trkpt>
      <trkpt lat="45.39126" lon="5.76656">
        <ele>1035</ele>
        <time>2017-08-11T14:58:38Z</time>
      </trkpt>
      <trkpt lat="45.39121" lon="5.76645">
        <ele>1033.55</ele>
        <time>2017-08-11T14:58:42Z</time>
      </trkpt>
      <trkpt lat="45.39109" lon="5.76631">
        <ele>1029.71</ele>
        <time>2017-08-11T14:58:49Z</time>
      </trkpt>
      <trkpt lat="45.3909" lon="5.76619">
        <ele>1026.83</ele>
        <time>2017-08-11T14:58:58Z</time>
      </trkpt>
      <trkpt lat="45.39074" lon="5.76619">
        <ele>1025.38</ele>
        <time>2017-08-11T14:59:06Z</time>
      </trkpt>
      <trkpt lat="45.39062" lon="5.76613">
        <ele>1024.9</ele>
        <time>2017-08-11T14:59:12Z</time>
      </trkpt>
      <trkpt lat="45.39047" lon="5.7661">
        <ele>1022.98</ele>
        <time>2017-08-11T14:59:19Z</time>
      </trkpt>
      <trkpt lat="45.39045" lon="5.7661">
        <ele>1023.46</ele>
        <time>2017-08-11T14:59:20Z</time>
      </trkpt>
      <trkpt lat="45.39033" lon="5.76613">
        <ele>1022.02</ele>
        <time>2017-08-11T14:59:25Z</time>
      </trkpt>
      <trkpt lat="45.39016" lon="5.76615">
        <ele>1016.73</ele>
        <time>2017-08-11T14:59:33Z</time>
      </trkpt>
      <trkpt lat="45.39008" lon="5.76611">
        <ele>1014.81</ele>
        <time>2017-08-11T14:59:37Z</time>
      </trkpt>
      <trkpt lat="45.38998" lon="5.76601">
        <ele>1016.73</ele>
        <time>2017-08-11T14:59:43Z</time>
      </trkpt>
      <trkpt lat="45.3899" lon="5.76591">
        <ele>1016.25</ele>
        <time>2017-08-11T14:59:47Z</time>
      </trkpt>
      <trkpt lat="45.38987" lon="5.76588">
        <ele>1015.77</ele>
        <time>2017-08-11T14:59:49Z</time>
      </trkpt>
      <trkpt lat="45.38986" lon="5.76577">
        <ele>1015.29</ele>
        <time>2017-08-11T14:59:54Z</time>
      </trkpt>
      <trkpt lat="45.38987" lon="5.76578">
        <ele>1014.33</ele>
        <time>2017-08-11T14:59:55Z</time>
      </trkpt>
      <trkpt lat="45.3899" lon="5.76582">
        <ele>1012.89</ele>
        <time>2017-08-11T14:59:57Z</time>
      </trkpt>
      <trkpt lat="45.39" lon="5.76582">
        <ele>1011.44</ele>
        <time>2017-08-11T15:00:02Z</time>
      </trkpt>
      <trkpt lat="45.3901" lon="5.76574">
        <ele>1010</ele>
        <time>2017-08-11T15:00:07Z</time>
      </trkpt>
      <trkpt lat="45.39008" lon="5.76555">
        <ele>1009.52</ele>
        <time>2017-08-11T15:00:13Z</time>
      </trkpt>
      <trkpt lat="45.39001" lon="5.76536">
        <ele>1007.12</ele>
        <time>2017-08-11T15:00:20Z</time>
      </trkpt>
      <trkpt lat="45.3899" lon="5.76527">
        <ele>1005.68</ele>
        <time>2017-08-11T15:00:26Z</time>
      </trkpt>
      <trkpt lat="45.38987" lon="5.76526">
        <ele>1004.72</ele>
        <time>2017-08-11T15:00:28Z</time>
      </trkpt>
      <trkpt lat="45.38973" lon="5.76528">
        <ele>1003.27</ele>
        <time>2017-08-11T15:00:35Z</time>
      </trkpt>
      <trkpt lat="45.38965" lon="5.76527">
        <ele>1003.27</ele>
        <time>2017-08-11T15:00:41Z</time>
      </trkpt>
      <trkpt lat="45.38951" lon="5.76523">
        <ele>1001.35</ele>
        <time>2017-08-11T15:00:48Z</time>
      </trkpt>
      <trkpt lat="45.38938" lon="5.76514">
        <ele>997.99</ele>
        <time>2017-08-11T15:00:53Z</time>
      </trkpt>
      <trkpt lat="45.38939" lon="5.76509">
        <ele>995.58</ele>
        <time>2017-08-11T15:00:55Z</time>
      </trkpt>
      <trkpt lat="45.38944" lon="5.76504">
        <ele>990.78</ele>
        <time>2017-08-11T15:00:59Z</time>
      </trkpt>
      <trkpt lat="45.38954" lon="5.76501">
        <ele>984.05</ele>
        <time>2017-08-11T15:01:05Z</time>
      </trkpt>
      <trkpt lat="45.38957" lon="5.76498">
        <ele>982.12</ele>
        <time>2017-08-11T15:01:07Z</time>
      </trkpt>
      <trkpt lat="45.3896" lon="5.76492">
        <ele>979.72</ele>
        <time>2017-08-11T15:01:09Z</time>
      </trkpt>
      <trkpt lat="45.38959" lon="5.76482">
        <ele>981.16</ele>
        <time>2017-08-11T15:01:14Z</time>
      </trkpt>
      <trkpt lat="45.38953" lon="5.76483">
        <ele>980.68</ele>
        <time>2017-08-11T15:01:17Z</time>
      </trkpt>
      <trkpt lat="45.38941" lon="5.76487">
        <ele>977.8</ele>
        <time>2017-08-11T15:01:23Z</time>
      </trkpt>
      <trkpt lat="45.38937" lon="5.76488">
        <ele>976.84</ele>
        <time>2017-08-11T15:01:25Z</time>
      </trkpt>
      <trkpt lat="45.38934" lon="5.76488">
        <ele>975.88</ele>
        <time>2017-08-11T15:01:27Z</time>
      </trkpt>
      <trkpt lat="45.3892" lon="5.76492">
        <ele>970.59</ele>
        <time>2017-08-11T15:01:35Z</time>
      </trkpt>
      <trkpt lat="45.38912" lon="5.76488">
        <ele>966.74</ele>
        <time>2017-08-11T15:01:39Z</time>
      </trkpt>
      <trkpt lat="45.38908" lon="5.76491">
        <ele>963.38</ele>
        <time>2017-08-11T15:01:45Z</time>
      </trkpt>
      <trkpt lat="45.38905" lon="5.7649">
        <ele>964.34</ele>
        <time>2017-08-11T15:01:57Z</time>
      </trkpt>
      <trkpt lat="45.38904" lon="5.76483">
        <ele>967.22</ele>
        <time>2017-08-11T15:02:10Z</time>
      </trkpt>
      <trkpt lat="45.38904" lon="5.76484">
        <ele>967.22</ele>
        <time>2017-08-11T15:02:14Z</time>
      </trkpt>
      <trkpt lat="45.389" lon="5.76476">
        <ele>969.15</ele>
        <time>2017-08-11T15:02:23Z</time>
      </trkpt>
      <trkpt lat="45.389" lon="5.76475">
        <ele>969.63</ele>
        <time>2017-08-11T15:02:25Z</time>
      </trkpt>
      <trkpt lat="45.38895" lon="5.76473">
        <ele>970.11</ele>
        <time>2017-08-11T15:02:32Z</time>
      </trkpt>
      <trkpt lat="45.38898" lon="5.76473">
        <ele>972.99</ele>
        <time>2017-08-11T15:02:40Z</time>
      </trkpt>
      <trkpt lat="45.38897" lon="5.76471">
        <ele>973.47</ele>
        <time>2017-08-11T15:02:42Z</time>
      </trkpt>
      <trkpt lat="45.38893" lon="5.76465">
        <ele>972.99</ele>
        <time>2017-08-11T15:02:48Z</time>
      </trkpt>
      <trkpt lat="45.38895" lon="5.76462">
        <ele>972.51</ele>
        <time>2017-08-11T15:02:50Z</time>
      </trkpt>
      <trkpt lat="45.38902" lon="5.76457">
        <ele>970.59</ele>
        <time>2017-08-11T15:02:56Z</time>
      </trkpt>
      <trkpt lat="45.38903" lon="5.76455">
        <ele>970.11</ele>
        <time>2017-08-11T15:03:01Z</time>
      </trkpt>
      <trkpt lat="45.38905" lon="5.76453">
        <ele>968.67</ele>
        <time>2017-08-11T15:03:06Z</time>
      </trkpt>
      <trkpt lat="45.3891" lon="5.76447">
        <ele>964.82</ele>
        <time>2017-08-11T15:03:10Z</time>
      </trkpt>
      <trkpt lat="45.38924" lon="5.76441">
        <ele>958.09</ele>
        <time>2017-08-11T15:03:17Z</time>
      </trkpt>
      <trkpt lat="45.38927" lon="5.76438">
        <ele>957.13</ele>
        <time>2017-08-11T15:03:19Z</time>
      </trkpt>
      <trkpt lat="45.3893" lon="5.76429">
        <ele>957.13</ele>
        <time>2017-08-11T15:03:26Z</time>
      </trkpt>
      <trkpt lat="45.38932" lon="5.76426">
        <ele>955.69</ele>
        <time>2017-08-11T15:03:28Z</time>
      </trkpt>
      <trkpt lat="45.38939" lon="5.76423">
        <ele>952.32</ele>
        <time>2017-08-11T15:03:33Z</time>
      </trkpt>
      <trkpt lat="45.38942" lon="5.76423">
        <ele>946.07</ele>
        <time>2017-08-11T15:03:39Z</time>
      </trkpt>
      <trkpt lat="45.38947" lon="5.76418">
        <ele>940.31</ele>
        <time>2017-08-11T15:03:46Z</time>
      </trkpt>
      <trkpt lat="45.38952" lon="5.76416">
        <ele>935.98</ele>
        <time>2017-08-11T15:03:52Z</time>
      </trkpt>
      <trkpt lat="45.38954" lon="5.76414">
        <ele>933.1</ele>
        <time>2017-08-11T15:03:59Z</time>
      </trkpt>
      <trkpt lat="45.38961" lon="5.76409">
        <ele>930.21</ele>
        <time>2017-08-11T15:04:05Z</time>
      </trkpt>
      <trkpt lat="45.38963" lon="5.76407">
        <ele>929.73</ele>
        <time>2017-08-11T15:04:06Z</time>
      </trkpt>
      <trkpt lat="45.38969" lon="5.76402">
        <ele>935.5</ele>
        <time>2017-08-11T15:04:12Z</time>
      </trkpt>
      <trkpt lat="45.38963" lon="5.76397">
        <ele>935.02</ele>
        <time>2017-08-11T15:04:18Z</time>
      </trkpt>
      <trkpt lat="45.3896" lon="5.76397">
        <ele>933.58</ele>
        <time>2017-08-11T15:04:21Z</time>
      </trkpt>
      <trkpt lat="45.3895" lon="5.76396">
        <ele>929.73</ele>
        <time>2017-08-11T15:04:27Z</time>
      </trkpt>
      <trkpt lat="45.38947" lon="5.76396">
        <ele>928.77</ele>
        <time>2017-08-11T15:04:30Z</time>
      </trkpt>
      <trkpt lat="45.38939" lon="5.76393">
        <ele>927.33</ele>
        <time>2017-08-11T15:04:35Z</time>
      </trkpt>
      <trkpt lat="45.38931" lon="5.76389">
        <ele>926.37</ele>
        <time>2017-08-11T15:04:40Z</time>
      </trkpt>
      <trkpt lat="45.38928" lon="5.76385">
        <ele>924.45</ele>
        <time>2017-08-11T15:04:46Z</time>
      </trkpt>
      <trkpt lat="45.38928" lon="5.76381">
        <ele>920.6</ele>
        <time>2017-08-11T15:04:51Z</time>
      </trkpt>
      <trkpt lat="45.38934" lon="5.76377">
        <ele>914.83</ele>
        <time>2017-08-11T15:04:58Z</time>
      </trkpt>
      <trkpt lat="45.38938" lon="5.76371">
        <ele>911.47</ele>
        <time>2017-08-11T15:05:02Z</time>
      </trkpt>
      <trkpt lat="45.38941" lon="5.76364">
        <ele>909.06</ele>
        <time>2017-08-11T15:05:05Z</time>
      </trkpt>
      <trkpt lat="45.38944" lon="5.76361">
        <ele>908.1</ele>
        <time>2017-08-11T15:05:07Z</time>
      </trkpt>
      <trkpt lat="45.38948" lon="5.76356">
        <ele>905.7</ele>
        <time>2017-08-11T15:05:11Z</time>
      </trkpt>
      <trkpt lat="45.38958" lon="5.7635">
        <ele>899.45</ele>
        <time>2017-08-11T15:05:18Z</time>
      </trkpt>
      <trkpt lat="45.38965" lon="5.7635">
        <ele>896.57</ele>
        <time>2017-08-11T15:05:24Z</time>
      </trkpt>
      <trkpt lat="45.38971" lon="5.7635">
        <ele>892.24</ele>
        <time>2017-08-11T15:05:30Z</time>
      </trkpt>
      <trkpt lat="45.38985" lon="5.76352">
        <ele>886.95</ele>
        <time>2017-08-11T15:05:36Z</time>
      </trkpt>
      <trkpt lat="45.38996" lon="5.7635">
        <ele>884.55</ele>
        <time>2017-08-11T15:05:42Z</time>
      </trkpt>
      <trkpt lat="45.39004" lon="5.7635">
        <ele>883.59</ele>
        <time>2017-08-11T15:05:47Z</time>
      </trkpt>
      <trkpt lat="45.39007" lon="5.7635">
        <ele>883.11</ele>
        <time>2017-08-11T15:05:49Z</time>
      </trkpt>
      <trkpt lat="45.3901" lon="5.76346">
        <ele>884.55</ele>
        <time>2017-08-11T15:05:55Z</time>
      </trkpt>
      <trkpt lat="45.39015" lon="5.76342">
        <ele>893.68</ele>
        <time>2017-08-11T15:06:02Z</time>
      </trkpt>
      <trkpt lat="45.39009" lon="5.76339">
        <ele>893.2</ele>
        <time>2017-08-11T15:06:07Z</time>
      </trkpt>
      <trkpt lat="45.39008" lon="5.7634">
        <ele>893.2</ele>
        <time>2017-08-11T15:06:08Z</time>
      </trkpt>
      <trkpt lat="45.38998" lon="5.76333">
        <ele>893.68</ele>
        <time>2017-08-11T15:06:13Z</time>
      </trkpt>
      <trkpt lat="45.38993" lon="5.76324">
        <ele>895.12</ele>
        <time>2017-08-11T15:06:17Z</time>
      </trkpt>
      <trkpt lat="45.38989" lon="5.7632">
        <ele>895.61</ele>
        <time>2017-08-11T15:06:20Z</time>
      </trkpt>
      <trkpt lat="45.38979" lon="5.76313">
        <ele>894.64</ele>
        <time>2017-08-11T15:06:27Z</time>
      </trkpt>
      <trkpt lat="45.38978" lon="5.76311">
        <ele>894.64</ele>
        <time>2017-08-11T15:06:28Z</time>
      </trkpt>
      <trkpt lat="45.38974" lon="5.76308">
        <ele>894.16</ele>
        <time>2017-08-11T15:06:31Z</time>
      </trkpt>
      <trkpt lat="45.38964" lon="5.76298">
        <ele>891.28</ele>
        <time>2017-08-11T15:06:40Z</time>
      </trkpt>
      <trkpt lat="45.38962" lon="5.76296">
        <ele>890.8</ele>
        <time>2017-08-11T15:06:43Z</time>
      </trkpt>
      <trkpt lat="45.38959" lon="5.76286">
        <ele>889.84</ele>
        <time>2017-08-11T15:06:47Z</time>
      </trkpt>
      <trkpt lat="45.38951" lon="5.76277">
        <ele>886.47</ele>
        <time>2017-08-11T15:06:54Z</time>
      </trkpt>
      <trkpt lat="45.38952" lon="5.76271">
        <ele>883.59</ele>
        <time>2017-08-11T15:07:00Z</time>
      </trkpt>
      <trkpt lat="45.38953" lon="5.7627">
        <ele>883.11</ele>
        <time>2017-08-11T15:07:02Z</time>
      </trkpt>
      <trkpt lat="45.38959" lon="5.76271">
        <ele>877.82</ele>
        <time>2017-08-11T15:07:08Z</time>
      </trkpt>
      <trkpt lat="45.38961" lon="5.76271">
        <ele>876.38</ele>
        <time>2017-08-11T15:07:10Z</time>
      </trkpt>
      <trkpt lat="45.3897" lon="5.7627">
        <ele>868.21</ele>
        <time>2017-08-11T15:07:18Z</time>
      </trkpt>
      <trkpt lat="45.38977" lon="5.76267">
        <ele>863.88</ele>
        <time>2017-08-11T15:07:23Z</time>
      </trkpt>
      <trkpt lat="45.38983" lon="5.76264">
        <ele>860.04</ele>
        <time>2017-08-11T15:07:29Z</time>
      </trkpt>
      <trkpt lat="45.38989" lon="5.7627">
        <ele>855.71</ele>
        <time>2017-08-11T15:07:35Z</time>
      </trkpt>
      <trkpt lat="45.39" lon="5.76277">
        <ele>853.31</ele>
        <time>2017-08-11T15:07:43Z</time>
      </trkpt>
      <trkpt lat="45.39003" lon="5.76276">
        <ele>853.31</ele>
        <time>2017-08-11T15:07:44Z</time>
      </trkpt>
      <trkpt lat="45.39006" lon="5.76271">
        <ele>853.79</ele>
        <time>2017-08-11T15:07:47Z</time>
      </trkpt>
      <trkpt lat="45.39009" lon="5.76263">
        <ele>854.27</ele>
        <time>2017-08-11T15:07:52Z</time>
      </trkpt>
      <trkpt lat="45.39005" lon="5.76261">
        <ele>855.71</ele>
        <time>2017-08-11T15:07:58Z</time>
      </trkpt>
      <trkpt lat="45.39" lon="5.76252">
        <ele>857.63</ele>
        <time>2017-08-11T15:08:03Z</time>
      </trkpt>
      <trkpt lat="45.38997" lon="5.76247">
        <ele>857.63</ele>
        <time>2017-08-11T15:08:10Z</time>
      </trkpt>
      <trkpt lat="45.38993" lon="5.76243">
        <ele>855.23</ele>
        <time>2017-08-11T15:08:15Z</time>
      </trkpt>
      <trkpt lat="45.3899" lon="5.76239">
        <ele>854.27</ele>
        <time>2017-08-11T15:08:17Z</time>
      </trkpt>
      <trkpt lat="45.3898" lon="5.76236">
        <ele>852.83</ele>
        <time>2017-08-11T15:08:23Z</time>
      </trkpt>
      <trkpt lat="45.38978" lon="5.76233">
        <ele>854.75</ele>
        <time>2017-08-11T15:08:38Z</time>
      </trkpt>
      <trkpt lat="45.38976" lon="5.76229">
        <ele>854.75</ele>
        <time>2017-08-11T15:08:49Z</time>
      </trkpt>
      <trkpt lat="45.38971" lon="5.76222">
        <ele>852.35</ele>
        <time>2017-08-11T15:08:56Z</time>
      </trkpt>
      <trkpt lat="45.3897" lon="5.76222">
        <ele>851.87</ele>
        <time>2017-08-11T15:08:57Z</time>
      </trkpt>
      <trkpt lat="45.38961" lon="5.76214">
        <ele>850.42</ele>
        <time>2017-08-11T15:09:03Z</time>
      </trkpt>
      <trkpt lat="45.3895" lon="5.76204">
        <ele>849.94</ele>
        <time>2017-08-11T15:09:09Z</time>
      </trkpt>
      <trkpt lat="45.38945" lon="5.76199">
        <ele>849.46</ele>
        <time>2017-08-11T15:09:11Z</time>
      </trkpt>
      <trkpt lat="45.38933" lon="5.76191">
        <ele>845.14</ele>
        <time>2017-08-11T15:09:18Z</time>
      </trkpt>
      <trkpt lat="45.38928" lon="5.76185">
        <ele>842.73</ele>
        <time>2017-08-11T15:09:23Z</time>
      </trkpt>
      <trkpt lat="45.38928" lon="5.76184">
        <ele>841.77</ele>
        <time>2017-08-11T15:09:25Z</time>
      </trkpt>
      <trkpt lat="45.38936" lon="5.76178">
        <ele>836.48</ele>
        <time>2017-08-11T15:09:32Z</time>
      </trkpt>
      <trkpt lat="45.38941" lon="5.76179">
        <ele>832.64</ele>
        <time>2017-08-11T15:09:37Z</time>
      </trkpt>
      <trkpt lat="45.38947" lon="5.76183">
        <ele>827.83</ele>
        <time>2017-08-11T15:09:42Z</time>
      </trkpt>
      <trkpt lat="45.38959" lon="5.76184">
        <ele>819.66</ele>
        <time>2017-08-11T15:09:48Z</time>
      </trkpt>
      <trkpt lat="45.38962" lon="5.76184">
        <ele>817.74</ele>
        <time>2017-08-11T15:09:50Z</time>
      </trkpt>
      <trkpt lat="45.38968" lon="5.76186">
        <ele>814.37</ele>
        <time>2017-08-11T15:09:53Z</time>
      </trkpt>
      <trkpt lat="45.38975" lon="5.76192">
        <ele>809.09</ele>
        <time>2017-08-11T15:09:59Z</time>
      </trkpt>
      <trkpt lat="45.38986" lon="5.76198">
        <ele>805.72</ele>
        <time>2017-08-11T15:10:05Z</time>
      </trkpt>
      <trkpt lat="45.38992" lon="5.762">
        <ele>803.32</ele>
        <time>2017-08-11T15:10:10Z</time>
      </trkpt>
      <trkpt lat="45.38996" lon="5.76201">
        <ele>801.88</ele>
        <time>2017-08-11T15:10:12Z</time>
      </trkpt>
      <trkpt lat="45.39009" lon="5.76203">
        <ele>799.95</ele>
        <time>2017-08-11T15:10:17Z</time>
      </trkpt>
      <trkpt lat="45.39012" lon="5.76203">
        <ele>799.95</ele>
        <time>2017-08-11T15:10:18Z</time>
      </trkpt>
      <trkpt lat="45.39022" lon="5.76206">
        <ele>798.51</ele>
        <time>2017-08-11T15:10:25Z</time>
      </trkpt>
      <trkpt lat="45.39026" lon="5.76206">
        <ele>797.55</ele>
        <time>2017-08-11T15:10:27Z</time>
      </trkpt>
      <trkpt lat="45.39042" lon="5.76208">
        <ele>795.63</ele>
        <time>2017-08-11T15:10:34Z</time>
      </trkpt>
      <trkpt lat="45.39051" lon="5.76209">
        <ele>792.74</ele>
        <time>2017-08-11T15:10:40Z</time>
      </trkpt>
      <trkpt lat="45.39057" lon="5.76209">
        <ele>789.86</ele>
        <time>2017-08-11T15:10:46Z</time>
      </trkpt>
      <trkpt lat="45.3906" lon="5.7621">
        <ele>787.94</ele>
        <time>2017-08-11T15:10:51Z</time>
      </trkpt>
      <trkpt lat="45.39065" lon="5.76214">
        <ele>785.53</ele>
        <time>2017-08-11T15:10:54Z</time>
      </trkpt>
      <trkpt lat="45.39076" lon="5.76221">
        <ele>781.21</ele>
        <time>2017-08-11T15:11:01Z</time>
      </trkpt>
      <trkpt lat="45.39084" lon="5.76227">
        <ele>778.32</ele>
        <time>2017-08-11T15:11:06Z</time>
      </trkpt>
      <trkpt lat="45.39089" lon="5.76231">
        <ele>775.92</ele>
        <time>2017-08-11T15:11:11Z</time>
      </trkpt>
      <trkpt lat="45.39102" lon="5.76234">
        <ele>773.04</ele>
        <time>2017-08-11T15:11:18Z</time>
      </trkpt>
      <trkpt lat="45.39103" lon="5.76233">
        <ele>772.08</ele>
        <time>2017-08-11T15:11:19Z</time>
      </trkpt>
      <trkpt lat="45.39109" lon="5.76231">
        <ele>772.56</ele>
        <time>2017-08-11T15:11:23Z</time>
      </trkpt>
      <trkpt lat="45.39122" lon="5.76224">
        <ele>779.29</ele>
        <time>2017-08-11T15:11:29Z</time>
      </trkpt>
      <trkpt lat="45.39123" lon="5.76212">
        <ele>783.13</ele>
        <time>2017-08-11T15:11:35Z</time>
      </trkpt>
      <trkpt lat="45.39121" lon="5.762">
        <ele>784.09</ele>
        <time>2017-08-11T15:11:43Z</time>
      </trkpt>
      <trkpt lat="45.39115" lon="5.76187">
        <ele>784.09</ele>
        <time>2017-08-11T15:11:49Z</time>
      </trkpt>
      <trkpt lat="45.39114" lon="5.76185">
        <ele>783.61</ele>
        <time>2017-08-11T15:11:50Z</time>
      </trkpt>
      <trkpt lat="45.39111" lon="5.76183">
        <ele>782.65</ele>
        <time>2017-08-11T15:11:52Z</time>
      </trkpt>
      <trkpt lat="45.39105" lon="5.76176">
        <ele>779.77</ele>
        <time>2017-08-11T15:11:58Z</time>
      </trkpt>
      <trkpt lat="45.39096" lon="5.76167">
        <ele>777.84</ele>
        <time>2017-08-11T15:12:03Z</time>
      </trkpt>
      <trkpt lat="45.39091" lon="5.7616">
        <ele>777.84</ele>
        <time>2017-08-11T15:12:06Z</time>
      </trkpt>
      <trkpt lat="45.39085" lon="5.76151">
        <ele>779.29</ele>
        <time>2017-08-11T15:12:11Z</time>
      </trkpt>
      <trkpt lat="45.39077" lon="5.76146">
        <ele>780.25</ele>
        <time>2017-08-11T15:12:18Z</time>
      </trkpt>
      <trkpt lat="45.3907" lon="5.76141">
        <ele>779.29</ele>
        <time>2017-08-11T15:12:23Z</time>
      </trkpt>
      <trkpt lat="45.39057" lon="5.76125">
        <ele>777.36</ele>
        <time>2017-08-11T15:12:31Z</time>
      </trkpt>
      <trkpt lat="45.39051" lon="5.76119">
        <ele>774.96</ele>
        <time>2017-08-11T15:12:34Z</time>
      </trkpt>
      <trkpt lat="45.39045" lon="5.76114">
        <ele>772.08</ele>
        <time>2017-08-11T15:12:38Z</time>
      </trkpt>
      <trkpt lat="45.39034" lon="5.76107">
        <ele>768.23</ele>
        <time>2017-08-11T15:12:44Z</time>
      </trkpt>
      <trkpt lat="45.39027" lon="5.76104">
        <ele>766.79</ele>
        <time>2017-08-11T15:12:49Z</time>
      </trkpt>
      <trkpt lat="45.3903" lon="5.76099">
        <ele>763.42</ele>
        <time>2017-08-11T15:12:54Z</time>
      </trkpt>
      <trkpt lat="45.39038" lon="5.76096">
        <ele>756.69</ele>
        <time>2017-08-11T15:13:01Z</time>
      </trkpt>
      <trkpt lat="45.39045" lon="5.76093">
        <ele>751.89</ele>
        <time>2017-08-11T15:13:07Z</time>
      </trkpt>
      <trkpt lat="45.39049" lon="5.76091">
        <ele>747.56</ele>
        <time>2017-08-11T15:13:13Z</time>
      </trkpt>
      <trkpt lat="45.39057" lon="5.76095">
        <ele>744.2</ele>
        <time>2017-08-11T15:13:20Z</time>
      </trkpt>
      <trkpt lat="45.39069" lon="5.76093">
        <ele>739.39</ele>
        <time>2017-08-11T15:13:26Z</time>
      </trkpt>
      <trkpt lat="45.39081" lon="5.76094">
        <ele>735.07</ele>
        <time>2017-08-11T15:13:32Z</time>
      </trkpt>
      <trkpt lat="45.39087" lon="5.76098">
        <ele>731.7</ele>
        <time>2017-08-11T15:13:38Z</time>
      </trkpt>
      <trkpt lat="45.39099" lon="5.76101">
        <ele>730.26</ele>
        <time>2017-08-11T15:13:43Z</time>
      </trkpt>
      <trkpt lat="45.39108" lon="5.76102">
        <ele>727.86</ele>
        <time>2017-08-11T15:13:49Z</time>
      </trkpt>
      <trkpt lat="45.39116" lon="5.76096">
        <ele>731.7</ele>
        <time>2017-08-11T15:13:56Z</time>
      </trkpt>
      <trkpt lat="45.39114" lon="5.7609">
        <ele>733.14</ele>
        <time>2017-08-11T15:14:01Z</time>
      </trkpt>
      <trkpt lat="45.39111" lon="5.76086">
        <ele>732.66</ele>
        <time>2017-08-11T15:14:06Z</time>
      </trkpt>
      <trkpt lat="45.39102" lon="5.76073">
        <ele>729.3</ele>
        <time>2017-08-11T15:14:12Z</time>
      </trkpt>
      <trkpt lat="45.39095" lon="5.76065">
        <ele>726.41</ele>
        <time>2017-08-11T15:14:18Z</time>
      </trkpt>
      <trkpt lat="45.39086" lon="5.76056">
        <ele>724.01</ele>
        <time>2017-08-11T15:14:24Z</time>
      </trkpt>
      <trkpt lat="45.39081" lon="5.76051">
        <ele>723.05</ele>
        <time>2017-08-11T15:14:27Z</time>
      </trkpt>
      <trkpt lat="45.39079" lon="5.76047">
        <ele>722.57</ele>
        <time>2017-08-11T15:14:29Z</time>
      </trkpt>
      <trkpt lat="45.39074" lon="5.76042">
        <ele>721.13</ele>
        <time>2017-08-11T15:14:33Z</time>
      </trkpt>
      <trkpt lat="45.3907" lon="5.76033">
        <ele>719.68</ele>
        <time>2017-08-11T15:14:37Z</time>
      </trkpt>
      <trkpt lat="45.39065" lon="5.76024">
        <ele>717.28</ele>
        <time>2017-08-11T15:14:41Z</time>
      </trkpt>
      <trkpt lat="45.39054" lon="5.76012">
        <ele>713.92</ele>
        <time>2017-08-11T15:14:48Z</time>
      </trkpt>
      <trkpt lat="45.39049" lon="5.76007">
        <ele>712.47</ele>
        <time>2017-08-11T15:14:52Z</time>
      </trkpt>
      <trkpt lat="45.3905" lon="5.76002">
        <ele>710.07</ele>
        <time>2017-08-11T15:14:57Z</time>
      </trkpt>
      <trkpt lat="45.39053" lon="5.76">
        <ele>706.23</ele>
        <time>2017-08-11T15:15:04Z</time>
      </trkpt>
      <trkpt lat="45.39057" lon="5.76001">
        <ele>701.42</ele>
        <time>2017-08-11T15:15:10Z</time>
      </trkpt>
      <trkpt lat="45.39059" lon="5.76001">
        <ele>700.94</ele>
        <time>2017-08-11T15:15:12Z</time>
      </trkpt>
      <trkpt lat="45.39066" lon="5.76006">
        <ele>701.9</ele>
        <time>2017-08-11T15:15:20Z</time>
      </trkpt>
      <trkpt lat="45.39072" lon="5.76009">
        <ele>702.38</ele>
        <time>2017-08-11T15:15:27Z</time>
      </trkpt>
      <trkpt lat="45.3908" lon="5.76012">
        <ele>705.75</ele>
        <time>2017-08-11T15:15:37Z</time>
      </trkpt>
      <trkpt lat="45.39087" lon="5.76018">
        <ele>706.71</ele>
        <time>2017-08-11T15:15:44Z</time>
      </trkpt>
      <trkpt lat="45.39093" lon="5.7602">
        <ele>708.15</ele>
        <time>2017-08-11T15:15:51Z</time>
      </trkpt>
      <trkpt lat="45.39098" lon="5.76021">
        <ele>708.15</ele>
        <time>2017-08-11T15:15:59Z</time>
      </trkpt>
      <trkpt lat="45.39106" lon="5.76027">
        <ele>711.51</ele>
        <time>2017-08-11T15:16:06Z</time>
      </trkpt>
      <trkpt lat="45.39112" lon="5.7603">
        <ele>715.36</ele>
        <time>2017-08-11T15:16:12Z</time>
      </trkpt>
      <trkpt lat="45.39117" lon="5.76029">
        <ele>716.8</ele>
        <time>2017-08-11T15:16:21Z</time>
      </trkpt>
      <trkpt lat="45.39118" lon="5.7603">
        <ele>716.8</ele>
        <time>2017-08-11T15:16:30Z</time>
      </trkpt>
      <trkpt lat="45.39125" lon="5.76032">
        <ele>714.4</ele>
        <time>2017-08-11T15:16:36Z</time>
      </trkpt>
      <trkpt lat="45.3913" lon="5.76034">
        <ele>712.95</ele>
        <time>2017-08-11T15:16:40Z</time>
      </trkpt>
      <trkpt lat="45.39126" lon="5.76035">
        <ele>711.99</ele>
        <time>2017-08-11T15:16:47Z</time>
      </trkpt>
      <trkpt lat="45.39118" lon="5.76034">
        <ele>711.03</ele>
        <time>2017-08-11T15:16:52Z</time>
      </trkpt>
      <trkpt lat="45.3911" lon="5.76031">
        <ele>711.51</ele>
        <time>2017-08-11T15:16:58Z</time>
      </trkpt>
      <trkpt lat="45.39104" lon="5.76027">
        <ele>711.99</ele>
        <time>2017-08-11T15:17:02Z</time>
      </trkpt>
      <trkpt lat="45.39096" lon="5.76021">
        <ele>711.99</ele>
        <time>2017-08-11T15:17:08Z</time>
      </trkpt>
      <trkpt lat="45.39095" lon="5.7602">
        <ele>711.99</ele>
        <time>2017-08-11T15:17:09Z</time>
      </trkpt>
      <trkpt lat="45.39093" lon="5.76018">
        <ele>711.99</ele>
        <time>2017-08-11T15:17:11Z</time>
      </trkpt>
      <trkpt lat="45.39083" lon="5.76013">
        <ele>711.03</ele>
        <time>2017-08-11T15:17:17Z</time>
      </trkpt>
      <trkpt lat="45.39078" lon="5.76006">
        <ele>711.03</ele>
        <time>2017-08-11T15:17:21Z</time>
      </trkpt>
      <trkpt lat="45.3907" lon="5.76002">
        <ele>709.59</ele>
        <time>2017-08-11T15:17:26Z</time>
      </trkpt>
      <trkpt lat="45.39065" lon="5.75999">
        <ele>708.15</ele>
        <time>2017-08-11T15:17:33Z</time>
      </trkpt>
      <trkpt lat="45.39063" lon="5.75996">
        <ele>709.11</ele>
        <time>2017-08-11T15:17:42Z</time>
      </trkpt>
      <trkpt lat="45.39061" lon="5.75996">
        <ele>708.63</ele>
        <time>2017-08-11T15:17:44Z</time>
      </trkpt>
      <trkpt lat="45.39053" lon="5.75988">
        <ele>707.19</ele>
        <time>2017-08-11T15:17:50Z</time>
      </trkpt>
      <trkpt lat="45.39048" lon="5.75983">
        <ele>705.75</ele>
        <time>2017-08-11T15:17:54Z</time>
      </trkpt>
      <trkpt lat="45.39035" lon="5.75976">
        <ele>701.42</ele>
        <time>2017-08-11T15:18:03Z</time>
      </trkpt>
      <trkpt lat="45.39029" lon="5.75967">
        <ele>699.5</ele>
        <time>2017-08-11T15:18:12Z</time>
      </trkpt>
      <trkpt lat="45.39027" lon="5.75963">
        <ele>699.5</ele>
        <time>2017-08-11T15:18:23Z</time>
      </trkpt>
      <trkpt lat="45.39027" lon="5.7596">
        <ele>699.02</ele>
        <time>2017-08-11T15:18:33Z</time>
      </trkpt>
      <trkpt lat="45.39026" lon="5.75957">
        <ele>699.98</ele>
        <time>2017-08-11T15:18:42Z</time>
      </trkpt>
      <trkpt lat="45.39026" lon="5.75956">
        <ele>699.98</ele>
        <time>2017-08-11T15:18:56Z</time>
      </trkpt>
      <trkpt lat="45.39026" lon="5.75956">
        <ele>699.98</ele>
        <time>2017-08-11T15:19:08Z</time>
      </trkpt>
      <trkpt lat="45.39026" lon="5.75956">
        <ele>700.46</ele>
        <time>2017-08-11T15:19:20Z</time>
      </trkpt>
      <trkpt lat="45.39026" lon="5.75955">
        <ele>701.42</ele>
        <time>2017-08-11T15:19:39Z</time>
      </trkpt>
      <trkpt lat="45.39026" lon="5.75954">
        <ele>701.9</ele>
        <time>2017-08-11T15:19:59Z</time>
      </trkpt>
      <trkpt lat="45.39026" lon="5.75954">
        <ele>702.38</ele>
        <time>2017-08-11T15:20:19Z</time>
      </trkpt>
      <trkpt lat="45.39026" lon="5.75953">
        <ele>700.94</ele>
        <time>2017-08-11T15:20:34Z</time>
      </trkpt>
      <trkpt lat="45.39025" lon="5.75954">
        <ele>699.5</ele>
        <time>2017-08-11T15:20:51Z</time>
      </trkpt>
      <trkpt lat="45.39025" lon="5.75952">
        <ele>699.02</ele>
        <time>2017-08-11T15:21:08Z</time>
      </trkpt>
      <trkpt lat="45.39025" lon="5.75951">
        <ele>699.98</ele>
        <time>2017-08-11T15:21:18Z</time>
      </trkpt>
      <trkpt lat="45.39021" lon="5.75944">
        <ele>700.94</ele>
        <time>2017-08-11T15:21:22Z</time>
      </trkpt>
      <trkpt lat="45.39013" lon="5.75932">
        <ele>700.94</ele>
        <time>2017-08-11T15:21:29Z</time>
      </trkpt>
      <trkpt lat="45.39004" lon="5.75918">
        <ele>699.98</ele>
        <time>2017-08-11T15:21:35Z</time>
      </trkpt>
      <trkpt lat="45.38993" lon="5.75905">
        <ele>699.98</ele>
        <time>2017-08-11T15:21:42Z</time>
      </trkpt>
      <trkpt lat="45.38991" lon="5.75904">
        <ele>699.5</ele>
        <time>2017-08-11T15:21:43Z</time>
      </trkpt>
      <trkpt lat="45.38985" lon="5.75889">
        <ele>698.53</ele>
        <time>2017-08-11T15:21:49Z</time>
      </trkpt>
      <trkpt lat="45.38981" lon="5.75885">
        <ele>697.57</ele>
        <time>2017-08-11T15:21:52Z</time>
      </trkpt>
      <trkpt lat="45.38977" lon="5.75876">
        <ele>696.61</ele>
        <time>2017-08-11T15:21:57Z</time>
      </trkpt>
      <trkpt lat="45.38966" lon="5.75859">
        <ele>693.73</ele>
        <time>2017-08-11T15:22:05Z</time>
      </trkpt>
      <trkpt lat="45.38957" lon="5.75843">
        <ele>688.44</ele>
        <time>2017-08-11T15:22:12Z</time>
      </trkpt>
      <trkpt lat="45.38949" lon="5.75835">
        <ele>684.12</ele>
        <time>2017-08-11T15:22:17Z</time>
      </trkpt>
      <trkpt lat="45.38933" lon="5.75822">
        <ele>675.46</ele>
        <time>2017-08-11T15:22:25Z</time>
      </trkpt>
      <trkpt lat="45.38924" lon="5.7581">
        <ele>673.54</ele>
        <time>2017-08-11T15:22:30Z</time>
      </trkpt>
      <trkpt lat="45.38912" lon="5.75792">
        <ele>672.58</ele>
        <time>2017-08-11T15:22:37Z</time>
      </trkpt>
      <trkpt lat="45.38899" lon="5.75778">
        <ele>669.7</ele>
        <time>2017-08-11T15:22:44Z</time>
      </trkpt>
      <trkpt lat="45.38892" lon="5.75771">
        <ele>668.73</ele>
        <time>2017-08-11T15:22:48Z</time>
      </trkpt>
      <trkpt lat="45.3888" lon="5.75756">
        <ele>669.22</ele>
        <time>2017-08-11T15:22:55Z</time>
      </trkpt>
      <trkpt lat="45.38883" lon="5.75731">
        <ele>670.66</ele>
        <time>2017-08-11T15:23:03Z</time>
      </trkpt>
      <trkpt lat="45.38889" lon="5.75727">
        <ele>667.77</ele>
        <time>2017-08-11T15:23:09Z</time>
      </trkpt>
      <trkpt lat="45.389" lon="5.75725">
        <ele>662.01</ele>
        <time>2017-08-11T15:23:17Z</time>
      </trkpt>
      <trkpt lat="45.38914" lon="5.75722">
        <ele>657.2</ele>
        <time>2017-08-11T15:23:23Z</time>
      </trkpt>
      <trkpt lat="45.38929" lon="5.75716">
        <ele>651.43</ele>
        <time>2017-08-11T15:23:30Z</time>
      </trkpt>
      <trkpt lat="45.38951" lon="5.75711">
        <ele>645.66</ele>
        <time>2017-08-11T15:23:37Z</time>
      </trkpt>
      <trkpt lat="45.38961" lon="5.75707">
        <ele>642.3</ele>
        <time>2017-08-11T15:23:42Z</time>
      </trkpt>
      <trkpt lat="45.38967" lon="5.75708">
        <ele>644.7</ele>
        <time>2017-08-11T15:23:53Z</time>
      </trkpt>
      <trkpt lat="45.3897" lon="5.75711">
        <ele>646.62</ele>
        <time>2017-08-11T15:24:00Z</time>
      </trkpt>
      <trkpt lat="45.38972" lon="5.75712">
        <ele>647.59</ele>
        <time>2017-08-11T15:24:07Z</time>
      </trkpt>
      <trkpt lat="45.38976" lon="5.75704">
        <ele>647.59</ele>
        <time>2017-08-11T15:24:12Z</time>
      </trkpt>
      <trkpt lat="45.38987" lon="5.75699">
        <ele>647.1</ele>
        <time>2017-08-11T15:24:17Z</time>
      </trkpt>
      <trkpt lat="45.38999" lon="5.75694">
        <ele>646.62</ele>
        <time>2017-08-11T15:24:24Z</time>
      </trkpt>
      <trkpt lat="45.39007" lon="5.75686">
        <ele>646.14</ele>
        <time>2017-08-11T15:24:30Z</time>
      </trkpt>
      <trkpt lat="45.39012" lon="5.75686">
        <ele>644.7</ele>
        <time>2017-08-11T15:24:34Z</time>
      </trkpt>
      <trkpt lat="45.39016" lon="5.75689">
        <ele>642.3</ele>
        <time>2017-08-11T15:24:37Z</time>
      </trkpt>
      <trkpt lat="45.39019" lon="5.75691">
        <ele>640.86</ele>
        <time>2017-08-11T15:24:39Z</time>
      </trkpt>
      <trkpt lat="45.39025" lon="5.75694">
        <ele>638.93</ele>
        <time>2017-08-11T15:24:43Z</time>
      </trkpt>
      <trkpt lat="45.39035" lon="5.75703">
        <ele>632.68</ele>
        <time>2017-08-11T15:24:52Z</time>
      </trkpt>
      <trkpt lat="45.39038" lon="5.75704">
        <ele>631.72</ele>
        <time>2017-08-11T15:24:55Z</time>
      </trkpt>
      <trkpt lat="45.39039" lon="5.75701">
        <ele>629.8</ele>
        <time>2017-08-11T15:24:58Z</time>
      </trkpt>
      <trkpt lat="45.3904" lon="5.75698">
        <ele>627.88</ele>
        <time>2017-08-11T15:25:00Z</time>
      </trkpt>
      <trkpt lat="45.39048" lon="5.75683">
        <ele>623.07</ele>
        <time>2017-08-11T15:25:07Z</time>
      </trkpt>
      <trkpt lat="45.3906" lon="5.7567">
        <ele>618.75</ele>
        <time>2017-08-11T15:25:14Z</time>
      </trkpt>
      <trkpt lat="45.39066" lon="5.75656">
        <ele>616.34</ele>
        <time>2017-08-11T15:25:20Z</time>
      </trkpt>
      <trkpt lat="45.39069" lon="5.75643">
        <ele>612.5</ele>
        <time>2017-08-11T15:25:25Z</time>
      </trkpt>
      <trkpt lat="45.3907" lon="5.75635">
        <ele>608.17</ele>
        <time>2017-08-11T15:25:31Z</time>
      </trkpt>
      <trkpt lat="45.39073" lon="5.75609">
        <ele>600.96</ele>
        <time>2017-08-11T15:25:39Z</time>
      </trkpt>
      <trkpt lat="45.39072" lon="5.75605">
        <ele>599.52</ele>
        <time>2017-08-11T15:25:40Z</time>
      </trkpt>
      <trkpt lat="45.39062" lon="5.75584">
        <ele>592.31</ele>
        <time>2017-08-11T15:25:47Z</time>
      </trkpt>
      <trkpt lat="45.39057" lon="5.75565">
        <ele>586.06</ele>
        <time>2017-08-11T15:25:54Z</time>
      </trkpt>
      <trkpt lat="45.39052" lon="5.75549">
        <ele>581.73</ele>
        <time>2017-08-11T15:26:00Z</time>
      </trkpt>
      <trkpt lat="45.39052" lon="5.75546">
        <ele>580.77</ele>
        <time>2017-08-11T15:26:01Z</time>
      </trkpt>
      <trkpt lat="45.3905" lon="5.75531">
        <ele>576.93</ele>
        <time>2017-08-11T15:26:07Z</time>
      </trkpt>
      <trkpt lat="45.3905" lon="5.7551">
        <ele>572.6</ele>
        <time>2017-08-11T15:26:14Z</time>
      </trkpt>
      <trkpt lat="45.39051" lon="5.755">
        <ele>572.12</ele>
        <time>2017-08-11T15:26:17Z</time>
      </trkpt>
      <trkpt lat="45.39051" lon="5.7547">
        <ele>570.2</ele>
        <time>2017-08-11T15:26:26Z</time>
      </trkpt>
      <trkpt lat="45.39051" lon="5.75467">
        <ele>569.72</ele>
        <time>2017-08-11T15:26:27Z</time>
      </trkpt>
      <trkpt lat="45.39051" lon="5.75462">
        <ele>569.24</ele>
        <time>2017-08-11T15:26:29Z</time>
      </trkpt>
      <trkpt lat="45.39051" lon="5.75434">
        <ele>566.83</ele>
        <time>2017-08-11T15:26:37Z</time>
      </trkpt>
      <trkpt lat="45.3905" lon="5.7541">
        <ele>566.83</ele>
        <time>2017-08-11T15:26:44Z</time>
      </trkpt>
      <trkpt lat="45.39041" lon="5.75386">
        <ele>565.39</ele>
        <time>2017-08-11T15:26:51Z</time>
      </trkpt>
      <trkpt lat="45.39035" lon="5.75369">
        <ele>564.43</ele>
        <time>2017-08-11T15:26:56Z</time>
      </trkpt>
      <trkpt lat="45.3903" lon="5.75349">
        <ele>563.47</ele>
        <time>2017-08-11T15:27:03Z</time>
      </trkpt>
      <trkpt lat="45.3903" lon="5.75332">
        <ele>561.55</ele>
        <time>2017-08-11T15:27:10Z</time>
      </trkpt>
      <trkpt lat="45.3903" lon="5.75317">
        <ele>557.7</ele>
        <time>2017-08-11T15:27:17Z</time>
      </trkpt>
      <trkpt lat="45.39032" lon="5.75296">
        <ele>554.82</ele>
        <time>2017-08-11T15:27:24Z</time>
      </trkpt>
      <trkpt lat="45.39033" lon="5.75277">
        <ele>553.86</ele>
        <time>2017-08-11T15:27:30Z</time>
      </trkpt>
      <trkpt lat="45.39036" lon="5.75258">
        <ele>550.01</ele>
        <time>2017-08-11T15:27:36Z</time>
      </trkpt>
      <trkpt lat="45.39036" lon="5.75251">
        <ele>549.05</ele>
        <time>2017-08-11T15:27:39Z</time>
      </trkpt>
      <trkpt lat="45.3904" lon="5.75236">
        <ele>548.09</ele>
        <time>2017-08-11T15:27:46Z</time>
      </trkpt>
      <trkpt lat="45.39042" lon="5.75237">
        <ele>546.65</ele>
        <time>2017-08-11T15:27:48Z</time>
      </trkpt>
      <trkpt lat="45.39051" lon="5.75235">
        <ele>546.17</ele>
        <time>2017-08-11T15:27:51Z</time>
      </trkpt>
      <trkpt lat="45.3906" lon="5.75235">
        <ele>547.61</ele>
        <time>2017-08-11T15:27:55Z</time>
      </trkpt>
      <trkpt lat="45.39069" lon="5.75234">
        <ele>547.61</ele>
        <time>2017-08-11T15:28:01Z</time>
      </trkpt>
      <trkpt lat="45.39073" lon="5.75234">
        <ele>547.61</ele>
        <time>2017-08-11T15:28:07Z</time>
      </trkpt>
      <trkpt lat="45.39074" lon="5.75235">
        <ele>549.53</ele>
        <time>2017-08-11T15:28:14Z</time>
      </trkpt>
      <trkpt lat="45.39066" lon="5.75231">
        <ele>548.57</ele>
        <time>2017-08-11T15:28:21Z</time>
      </trkpt>
      <trkpt lat="45.39055" lon="5.75217">
        <ele>550.01</ele>
        <time>2017-08-11T15:28:29Z</time>
      </trkpt>
      <trkpt lat="45.39044" lon="5.75202">
        <ele>552.9</ele>
        <time>2017-08-11T15:28:36Z</time>
      </trkpt>
      <trkpt lat="45.39029" lon="5.75182">
        <ele>560.59</ele>
        <time>2017-08-11T15:28:44Z</time>
      </trkpt>
      <trkpt lat="45.39023" lon="5.7518">
        <ele>561.07</ele>
        <time>2017-08-11T15:28:47Z</time>
      </trkpt>
      <trkpt lat="45.39008" lon="5.75185">
        <ele>561.07</ele>
        <time>2017-08-11T15:28:56Z</time>
      </trkpt>
      <trkpt lat="45.39005" lon="5.75187">
        <ele>560.59</ele>
        <time>2017-08-11T15:28:58Z</time>
      </trkpt>
      <trkpt lat="45.39002" lon="5.75186">
        <ele>560.11</ele>
        <time>2017-08-11T15:29:03Z</time>
      </trkpt>
      <trkpt lat="45.39001" lon="5.75177">
        <ele>558.66</ele>
        <time>2017-08-11T15:29:11Z</time>
      </trkpt>
      <trkpt lat="45.39001" lon="5.75174">
        <ele>557.22</ele>
        <time>2017-08-11T15:29:17Z</time>
      </trkpt>
      <trkpt lat="45.38999" lon="5.75159">
        <ele>555.3</ele>
        <time>2017-08-11T15:29:24Z</time>
      </trkpt>
      <trkpt lat="45.38997" lon="5.75152">
        <ele>553.86</ele>
        <time>2017-08-11T15:29:27Z</time>
      </trkpt>
      <trkpt lat="45.38995" lon="5.75133">
        <ele>549.53</ele>
        <time>2017-08-11T15:29:35Z</time>
      </trkpt>
      <trkpt lat="45.39" lon="5.75117">
        <ele>545.2</ele>
        <time>2017-08-11T15:29:42Z</time>
      </trkpt>
      <trkpt lat="45.39007" lon="5.75101">
        <ele>541.84</ele>
        <time>2017-08-11T15:29:49Z</time>
      </trkpt>
      <trkpt lat="45.39017" lon="5.75082">
        <ele>537.03</ele>
        <time>2017-08-11T15:29:57Z</time>
      </trkpt>
      <trkpt lat="45.39025" lon="5.75066">
        <ele>532.23</ele>
        <time>2017-08-11T15:30:05Z</time>
      </trkpt>
      <trkpt lat="45.39036" lon="5.75046">
        <ele>523.58</ele>
        <time>2017-08-11T15:30:14Z</time>
      </trkpt>
      <trkpt lat="45.39045" lon="5.75028">
        <ele>518.77</ele>
        <time>2017-08-11T15:30:22Z</time>
      </trkpt>
      <trkpt lat="45.39053" lon="5.75015">
        <ele>513.96</ele>
        <time>2017-08-11T15:30:29Z</time>
      </trkpt>
      <trkpt lat="45.3906" lon="5.75011">
        <ele>511.08</ele>
        <time>2017-08-11T15:30:36Z</time>
      </trkpt>
      <trkpt lat="45.39065" lon="5.74997">
        <ele>502.91</ele>
        <time>2017-08-11T15:30:44Z</time>
      </trkpt>
      <trkpt lat="45.39072" lon="5.74987">
        <ele>496.66</ele>
        <time>2017-08-11T15:30:50Z</time>
      </trkpt>
      <trkpt lat="45.39078" lon="5.74972">
        <ele>490.41</ele>
        <time>2017-08-11T15:30:57Z</time>
      </trkpt>
      <trkpt lat="45.39079" lon="5.74968">
        <ele>489.93</ele>
        <time>2017-08-11T15:30:58Z</time>
      </trkpt>
      <trkpt lat="45.39081" lon="5.7496">
        <ele>487.05</ele>
        <time>2017-08-11T15:31:01Z</time>
      </trkpt>
      <trkpt lat="45.39086" lon="5.74937">
        <ele>484.64</ele>
        <time>2017-08-11T15:31:08Z</time>
      </trkpt>
      <trkpt lat="45.39087" lon="5.74925">
        <ele>485.12</ele>
        <time>2017-08-11T15:31:11Z</time>
      </trkpt>
      <trkpt lat="45.39083" lon="5.74895">
        <ele>488.49</ele>
        <time>2017-08-11T15:31:19Z</time>
      </trkpt>
      <trkpt lat="45.39081" lon="5.74884">
        <ele>489.45</ele>
        <time>2017-08-11T15:31:24Z</time>
      </trkpt>
      <trkpt lat="45.39079" lon="5.7486">
        <ele>489.45</ele>
        <time>2017-08-11T15:31:32Z</time>
      </trkpt>
      <trkpt lat="45.39082" lon="5.74846">
        <ele>488.97</ele>
        <time>2017-08-11T15:31:38Z</time>
      </trkpt>
      <trkpt lat="45.39087" lon="5.74819">
        <ele>488.49</ele>
        <time>2017-08-11T15:31:46Z</time>
      </trkpt>
      <trkpt lat="45.39088" lon="5.74815">
        <ele>488.01</ele>
        <time>2017-08-11T15:31:48Z</time>
      </trkpt>
      <trkpt lat="45.39093" lon="5.74793">
        <ele>485.12</ele>
        <time>2017-08-11T15:31:54Z</time>
      </trkpt>
      <trkpt lat="45.39095" lon="5.74782">
        <ele>485.12</ele>
        <time>2017-08-11T15:31:58Z</time>
      </trkpt>
      <trkpt lat="45.39101" lon="5.74769">
        <ele>480.8</ele>
        <time>2017-08-11T15:32:06Z</time>
      </trkpt>
      <trkpt lat="45.39106" lon="5.74756">
        <ele>475.51</ele>
        <time>2017-08-11T15:32:13Z</time>
      </trkpt>
      <trkpt lat="45.39108" lon="5.74752">
        <ele>472.63</ele>
        <time>2017-08-11T15:32:16Z</time>
      </trkpt>
      <trkpt lat="45.39112" lon="5.74743">
        <ele>469.74</ele>
        <time>2017-08-11T15:32:20Z</time>
      </trkpt>
      <trkpt lat="45.39119" lon="5.74727">
        <ele>463.49</ele>
        <time>2017-08-11T15:32:28Z</time>
      </trkpt>
      <trkpt lat="45.39118" lon="5.74718">
        <ele>459.17</ele>
        <time>2017-08-11T15:32:33Z</time>
      </trkpt>
      <trkpt lat="45.3912" lon="5.74707">
        <ele>454.36</ele>
        <time>2017-08-11T15:32:40Z</time>
      </trkpt>
      <trkpt lat="45.39125" lon="5.74699">
        <ele>449.07</ele>
        <time>2017-08-11T15:32:46Z</time>
      </trkpt>
      <trkpt lat="45.39124" lon="5.74677">
        <ele>447.63</ele>
        <time>2017-08-11T15:32:51Z</time>
      </trkpt>
      <trkpt lat="45.39116" lon="5.74654">
        <ele>447.15</ele>
        <time>2017-08-11T15:32:59Z</time>
      </trkpt>
      <trkpt lat="45.39111" lon="5.74647">
        <ele>446.67</ele>
        <time>2017-08-11T15:33:02Z</time>
      </trkpt>
      <trkpt lat="45.39107" lon="5.74634">
        <ele>443.79</ele>
        <time>2017-08-11T15:33:07Z</time>
      </trkpt>
      <trkpt lat="45.39108" lon="5.74605">
        <ele>444.75</ele>
        <time>2017-08-11T15:33:14Z</time>
      </trkpt>
      <trkpt lat="45.39113" lon="5.74578">
        <ele>444.75</ele>
        <time>2017-08-11T15:33:20Z</time>
      </trkpt>
      <trkpt lat="45.39121" lon="5.7455">
        <ele>444.75</ele>
        <time>2017-08-11T15:33:28Z</time>
      </trkpt>
      <trkpt lat="45.39125" lon="5.74538">
        <ele>445.71</ele>
        <time>2017-08-11T15:33:34Z</time>
      </trkpt>
      <trkpt lat="45.39118" lon="5.74526">
        <ele>446.67</ele>
        <time>2017-08-11T15:33:44Z</time>
      </trkpt>
      <trkpt lat="45.39115" lon="5.74516">
        <ele>446.67</ele>
        <time>2017-08-11T15:33:52Z</time>
      </trkpt>
      <trkpt lat="45.39115" lon="5.74515">
        <ele>446.67</ele>
        <time>2017-08-11T15:33:56Z</time>
      </trkpt>
      <trkpt lat="45.3911" lon="5.74509">
        <ele>445.71</ele>
        <time>2017-08-11T15:34:01Z</time>
      </trkpt>
      <trkpt lat="45.39102" lon="5.74493">
        <ele>445.71</ele>
        <time>2017-08-11T15:34:08Z</time>
      </trkpt>
      <trkpt lat="45.391" lon="5.7449">
        <ele>445.71</ele>
        <time>2017-08-11T15:34:14Z</time>
      </trkpt>
      <trkpt lat="45.39099" lon="5.7449">
        <ele>445.71</ele>
        <time>2017-08-11T15:34:23Z</time>
      </trkpt>
      <trkpt lat="45.39098" lon="5.74491">
        <ele>446.19</ele>
        <time>2017-08-11T15:34:33Z</time>
      </trkpt>
      <trkpt lat="45.39098" lon="5.7449">
        <ele>446.19</ele>
        <time>2017-08-11T15:34:48Z</time>
      </trkpt>
      <trkpt lat="45.39098" lon="5.74489">
        <ele>445.23</ele>
        <time>2017-08-11T15:35:03Z</time>
      </trkpt>
      <trkpt lat="45.39098" lon="5.74488">
        <ele>445.71</ele>
        <time>2017-08-11T15:35:20Z</time>
      </trkpt>
      <trkpt lat="45.39097" lon="5.74487">
        <ele>446.67</ele>
        <time>2017-08-11T15:35:44Z</time>
      </trkpt>
      <trkpt lat="45.39098" lon="5.74487">
        <ele>446.67</ele>
        <time>2017-08-11T15:36:00Z</time>
      </trkpt>
      <trkpt lat="45.39098" lon="5.74486">
        <ele>446.19</ele>
        <time>2017-08-11T15:36:18Z</time>
      </trkpt>
      <trkpt lat="45.39098" lon="5.74486">
        <ele>446.67</ele>
        <time>2017-08-11T15:36:35Z</time>
      </trkpt>
      <trkpt lat="45.39098" lon="5.74485">
        <ele>447.15</ele>
        <time>2017-08-11T15:36:56Z</time>
      </trkpt>
      <trkpt lat="45.39099" lon="5.74484">
        <ele>447.63</ele>
        <time>2017-08-11T15:37:19Z</time>
      </trkpt>
      <trkpt lat="45.39099" lon="5.74484">
        <ele>448.59</ele>
        <time>2017-08-11T15:37:45Z</time>
      </trkpt>
      <trkpt lat="45.39099" lon="5.74483">
        <ele>448.59</ele>
        <time>2017-08-11T15:38:03Z</time>
      </trkpt>
      <trkpt lat="45.39099" lon="5.74484">
        <ele>449.07</ele>
        <time>2017-08-11T15:38:22Z</time>
      </trkpt>
      <trkpt lat="45.39099" lon="5.74485">
        <ele>449.07</ele>
        <time>2017-08-11T15:38:32Z</time>
      </trkpt>
      <trkpt lat="45.39099" lon="5.74485">
        <ele>449.07</ele>
        <time>2017-08-11T15:38:51Z</time>
      </trkpt>
      <trkpt lat="45.39099" lon="5.74486">
        <ele>449.07</ele>
        <time>2017-08-11T15:39:06Z</time>
      </trkpt>
      <trkpt lat="45.39099" lon="5.74486">
        <ele>449.07</ele>
        <time>2017-08-11T15:39:21Z</time>
      </trkpt>
      <trkpt lat="45.39099" lon="5.74486">
        <ele>448.59</ele>
        <time>2017-08-11T15:39:38Z</time>
      </trkpt>
      <trkpt lat="45.39099" lon="5.74484">
        <ele>448.59</ele>
        <time>2017-08-11T15:39:54Z</time>
      </trkpt>
      <trkpt lat="45.39098" lon="5.74483">
        <ele>448.11</ele>
        <time>2017-08-11T15:40:12Z</time>
      </trkpt>
      <trkpt lat="45.391" lon="5.74481">
        <ele>448.59</ele>
        <time>2017-08-11T15:40:21Z</time>
      </trkpt>
      <trkpt lat="45.391" lon="5.74482">
        <ele>447.15</ele>
        <time>2017-08-11T15:40:29Z</time>
      </trkpt>
      <trkpt lat="45.391" lon="5.74487">
        <ele>445.23</ele>
        <time>2017-08-11T15:40:36Z</time>
      </trkpt>
      <trkpt lat="45.39099" lon="5.74488">
        <ele>445.23</ele>
        <time>2017-08-11T15:40:47Z</time>
      </trkpt>
      <trkpt lat="45.39099" lon="5.74488">
        <ele>445.23</ele>
        <time>2017-08-11T15:41:01Z</time>
      </trkpt>
      <trkpt lat="45.39099" lon="5.74488">
        <ele>445.23</ele>
        <time>2017-08-11T15:41:04Z</time>
      </trkpt>
      <trkpt lat="45.39096" lon="5.74475">
        <ele>444.75</ele>
        <time>2017-08-11T15:41:13Z</time>
      </trkpt>
      <trkpt lat="45.39095" lon="5.74473">
        <ele>444.75</ele>
        <time>2017-08-11T15:41:14Z</time>
      </trkpt>
      <trkpt lat="45.39093" lon="5.74467">
        <ele>443.79</ele>
        <time>2017-08-11T15:41:20Z</time>
      </trkpt>
      <trkpt lat="45.39086" lon="5.74458">
        <ele>440.42</ele>
        <time>2017-08-11T15:41:29Z</time>
      </trkpt>
      <trkpt lat="45.39079" lon="5.7445">
        <ele>437.06</ele>
        <time>2017-08-11T15:41:36Z</time>
      </trkpt>
      <trkpt lat="45.39083" lon="5.74435">
        <ele>435.13</ele>
        <time>2017-08-11T15:41:43Z</time>
      </trkpt>
      <trkpt lat="45.39086" lon="5.74427">
        <ele>434.65</ele>
        <time>2017-08-11T15:41:46Z</time>
      </trkpt>
      <trkpt lat="45.39083" lon="5.74411">
        <ele>436.58</ele>
        <time>2017-08-11T15:41:50Z</time>
      </trkpt>
      <trkpt lat="45.39073" lon="5.74389">
        <ele>439.94</ele>
        <time>2017-08-11T15:41:58Z</time>
      </trkpt>
      <trkpt lat="45.39062" lon="5.74372">
        <ele>441.38</ele>
        <time>2017-08-11T15:42:05Z</time>
      </trkpt>
      <trkpt lat="45.3905" lon="5.74351">
        <ele>443.31</ele>
        <time>2017-08-11T15:42:13Z</time>
      </trkpt>
      <trkpt lat="45.39038" lon="5.74328">
        <ele>447.15</ele>
        <time>2017-08-11T15:42:21Z</time>
      </trkpt>
      <trkpt lat="45.3903" lon="5.74313">
        <ele>448.59</ele>
        <time>2017-08-11T15:42:27Z</time>
      </trkpt>
      <trkpt lat="45.39021" lon="5.74296">
        <ele>449.07</ele>
        <time>2017-08-11T15:42:34Z</time>
      </trkpt>
      <trkpt lat="45.39014" lon="5.74272">
        <ele>450.52</ele>
        <time>2017-08-11T15:42:42Z</time>
      </trkpt>
      <trkpt lat="45.39013" lon="5.74264">
        <ele>450.03</ele>
        <time>2017-08-11T15:42:45Z</time>
      </trkpt>
      <trkpt lat="45.39011" lon="5.7424">
        <ele>450.03</ele>
        <time>2017-08-11T15:42:53Z</time>
      </trkpt>
      <trkpt lat="45.3901" lon="5.74218">
        <ele>449.55</ele>
        <time>2017-08-11T15:43:00Z</time>
      </trkpt>
      <trkpt lat="45.39009" lon="5.74194">
        <ele>449.55</ele>
        <time>2017-08-11T15:43:09Z</time>
      </trkpt>
      <trkpt lat="45.39009" lon="5.74178">
        <ele>450.03</ele>
        <time>2017-08-11T15:43:15Z</time>
      </trkpt>
      <trkpt lat="45.39007" lon="5.74143">
        <ele>448.59</ele>
        <time>2017-08-11T15:43:27Z</time>
      </trkpt>
      <trkpt lat="45.39005" lon="5.74118">
        <ele>448.59</ele>
        <time>2017-08-11T15:43:35Z</time>
      </trkpt>
      <trkpt lat="45.39003" lon="5.74096">
        <ele>448.59</ele>
        <time>2017-08-11T15:43:42Z</time>
      </trkpt>
      <trkpt lat="45.39002" lon="5.74085">
        <ele>448.11</ele>
        <time>2017-08-11T15:43:46Z</time>
      </trkpt>
      <trkpt lat="45.38997" lon="5.74065">
        <ele>447.63</ele>
        <time>2017-08-11T15:43:53Z</time>
      </trkpt>
      <trkpt lat="45.38987" lon="5.74037">
        <ele>447.63</ele>
        <time>2017-08-11T15:44:02Z</time>
      </trkpt>
      <trkpt lat="45.38975" lon="5.74018">
        <ele>446.67</ele>
        <time>2017-08-11T15:44:10Z</time>
      </trkpt>
      <trkpt lat="45.38965" lon="5.74005">
        <ele>446.67</ele>
        <time>2017-08-11T15:44:16Z</time>
      </trkpt>
      <trkpt lat="45.38953" lon="5.73991">
        <ele>446.67</ele>
        <time>2017-08-11T15:44:23Z</time>
      </trkpt>
      <trkpt lat="45.38936" lon="5.73976">
        <ele>445.23</ele>
        <time>2017-08-11T15:44:32Z</time>
      </trkpt>
      <trkpt lat="45.38925" lon="5.73964">
        <ele>445.23</ele>
        <time>2017-08-11T15:44:38Z</time>
      </trkpt>
      <trkpt lat="45.38911" lon="5.73946">
        <ele>446.67</ele>
        <time>2017-08-11T15:44:46Z</time>
      </trkpt>
      <trkpt lat="45.389" lon="5.73927">
        <ele>446.19</ele>
        <time>2017-08-11T15:44:54Z</time>
      </trkpt>
      <trkpt lat="45.3889" lon="5.73909">
        <ele>444.75</ele>
        <time>2017-08-11T15:45:01Z</time>
      </trkpt>
      <trkpt lat="45.38882" lon="5.73895">
        <ele>443.31</ele>
        <time>2017-08-11T15:45:07Z</time>
      </trkpt>
      <trkpt lat="45.38868" lon="5.73872">
        <ele>443.31</ele>
        <time>2017-08-11T15:45:16Z</time>
      </trkpt>
      <trkpt lat="45.38854" lon="5.73849">
        <ele>442.82</ele>
        <time>2017-08-11T15:45:25Z</time>
      </trkpt>
      <trkpt lat="45.38843" lon="5.73832">
        <ele>441.86</ele>
        <time>2017-08-11T15:45:32Z</time>
      </trkpt>
      <trkpt lat="45.38831" lon="5.73813">
        <ele>439.94</ele>
        <time>2017-08-11T15:45:40Z</time>
      </trkpt>
      <trkpt lat="45.38818" lon="5.73795">
        <ele>438.5</ele>
        <time>2017-08-11T15:45:48Z</time>
      </trkpt>
      <trkpt lat="45.38803" lon="5.73782">
        <ele>438.5</ele>
        <time>2017-08-11T15:45:55Z</time>
      </trkpt>
      <trkpt lat="45.38784" lon="5.73774">
        <ele>437.06</ele>
        <time>2017-08-11T15:46:04Z</time>
      </trkpt>
      <trkpt lat="45.38773" lon="5.7377">
        <ele>436.58</ele>
        <time>2017-08-11T15:46:10Z</time>
      </trkpt>
      <trkpt lat="45.38769" lon="5.73761">
        <ele>433.21</ele>
        <time>2017-08-11T15:46:18Z</time>
      </trkpt>
      <trkpt lat="45.38759" lon="5.73744">
        <ele>428.89</ele>
        <time>2017-08-11T15:46:26Z</time>
      </trkpt>
      <trkpt lat="45.38751" lon="5.73741">
        <ele>427.44</ele>
        <time>2017-08-11T15:46:30Z</time>
      </trkpt>
      <trkpt lat="45.38736" lon="5.73737">
        <ele>424.56</ele>
        <time>2017-08-11T15:46:36Z</time>
      </trkpt>
      <trkpt lat="45.38734" lon="5.73735">
        <ele>424.08</ele>
        <time>2017-08-11T15:46:38Z</time>
      </trkpt>
      <trkpt lat="45.38743" lon="5.73725">
        <ele>420.71</ele>
        <time>2017-08-11T15:46:45Z</time>
      </trkpt>
      <trkpt lat="45.38745" lon="5.73724">
        <ele>420.71</ele>
        <time>2017-08-11T15:46:46Z</time>
      </trkpt>
      <trkpt lat="45.38759" lon="5.73719">
        <ele>421.19</ele>
        <time>2017-08-11T15:46:54Z</time>
      </trkpt>
      <trkpt lat="45.38775" lon="5.73718">
        <ele>417.83</ele>
        <time>2017-08-11T15:47:02Z</time>
      </trkpt>
      <trkpt lat="45.38789" lon="5.73719">
        <ele>415.91</ele>
        <time>2017-08-11T15:47:09Z</time>
      </trkpt>
      <trkpt lat="45.38805" lon="5.73724">
        <ele>413.5</ele>
        <time>2017-08-11T15:47:17Z</time>
      </trkpt>
      <trkpt lat="45.38826" lon="5.7373">
        <ele>413.02</ele>
        <time>2017-08-11T15:47:26Z</time>
      </trkpt>
      <trkpt lat="45.38843" lon="5.73735">
        <ele>412.06</ele>
        <time>2017-08-11T15:47:33Z</time>
      </trkpt>
      <trkpt lat="45.38845" lon="5.73736">
        <ele>411.58</ele>
        <time>2017-08-11T15:47:34Z</time>
      </trkpt>
      <trkpt lat="45.3886" lon="5.73736">
        <ele>410.14</ele>
        <time>2017-08-11T15:47:41Z</time>
      </trkpt>
      <trkpt lat="45.38868" lon="5.73734">
        <ele>409.66</ele>
        <time>2017-08-11T15:47:48Z</time>
      </trkpt>
      <trkpt lat="45.38871" lon="5.73733">
        <ele>410.14</ele>
        <time>2017-08-11T15:47:53Z</time>
      </trkpt>
      <trkpt lat="45.38877" lon="5.73735">
        <ele>411.1</ele>
        <time>2017-08-11T15:48:00Z</time>
      </trkpt>
    </trkseg>
  </trk>
</gpx>